<?xml version="1.0" encoding="UTF-8" standalone="no" ?>
<gpx xmlns="http://www.topografix.com/GPX/1/1" xmlns:xsi="http://www.w3.org/2001/XMLSchema-instance" xsi:schemaLocation="http://www.topografix.com/GPX/1/1 http://www.topografix.com/GPX/1/1/gpx.xsd" version="1.1" creator="VisuGPX - https://www.visugpx.com">
  <metadata>
    <name>La Seyne-sur-Mer Le Brusc </name>
    <desc><![CDATA[Sortie 1/2 journée ludique famille vues mer incroyables, belle manière de découvrir le secteur.]]></desc>
  </metadata>
  <trk>
    <name><![CDATA[La Seyne-sur-Mer Cyclisme]]></name>
    <trkseg>
      <trkpt lat="43.08682" lon="5.88198">
        <ele>26.799999237061</ele>
        <time>2020-09-01T06:55:40.000Z</time>
      </trkpt>
      <trkpt lat="43.08682" lon="5.88197">
        <ele>26.799999237061</ele>
        <time>2020-09-01T06:55:45.000Z</time>
      </trkpt>
      <trkpt lat="43.08685" lon="5.88201">
        <ele>27</ele>
        <time>2020-09-01T06:55:52.000Z</time>
      </trkpt>
      <trkpt lat="43.08686" lon="5.88199">
        <ele>26.39999961853</ele>
        <time>2020-09-01T06:55:57.000Z</time>
      </trkpt>
      <trkpt lat="43.08687" lon="5.88199">
        <ele>26.39999961853</ele>
        <time>2020-09-01T06:56:03.000Z</time>
      </trkpt>
      <trkpt lat="43.08686" lon="5.88198">
        <ele>26.60000038147</ele>
        <time>2020-09-01T06:56:10.000Z</time>
      </trkpt>
      <trkpt lat="43.08686" lon="5.88198">
        <ele>26.39999961853</ele>
        <time>2020-09-01T06:56:18.000Z</time>
      </trkpt>
      <trkpt lat="43.08686" lon="5.88199">
        <ele>26.60000038147</ele>
        <time>2020-09-01T06:56:27.000Z</time>
      </trkpt>
      <trkpt lat="43.0868" lon="5.88201">
        <ele>26.39999961853</ele>
        <time>2020-09-01T06:56:30.000Z</time>
      </trkpt>
      <trkpt lat="43.08671" lon="5.88205">
        <ele>26.200000762939</ele>
        <time>2020-09-01T06:56:33.000Z</time>
      </trkpt>
      <trkpt lat="43.08667" lon="5.88206">
        <ele>26.200000762939</ele>
        <time>2020-09-01T06:56:34.000Z</time>
      </trkpt>
      <trkpt lat="43.08663" lon="5.88208">
        <ele>26.200000762939</ele>
        <time>2020-09-01T06:56:35.000Z</time>
      </trkpt>
      <trkpt lat="43.08648" lon="5.88212">
        <ele>25.799999237061</ele>
        <time>2020-09-01T06:56:38.000Z</time>
      </trkpt>
      <trkpt lat="43.08632" lon="5.88216">
        <ele>25.200000762939</ele>
        <time>2020-09-01T06:56:41.000Z</time>
      </trkpt>
      <trkpt lat="43.08592" lon="5.88228">
        <ele>24.799999237061</ele>
        <time>2020-09-01T06:56:49.000Z</time>
      </trkpt>
      <trkpt lat="43.08552" lon="5.88242">
        <ele>24.60000038147</ele>
        <time>2020-09-01T06:56:58.000Z</time>
      </trkpt>
      <trkpt lat="43.08539" lon="5.88243">
        <ele>25</ele>
        <time>2020-09-01T06:57:01.000Z</time>
      </trkpt>
      <trkpt lat="43.08536" lon="5.88238">
        <ele>25</ele>
        <time>2020-09-01T06:57:02.000Z</time>
      </trkpt>
      <trkpt lat="43.08534" lon="5.88221">
        <ele>25.200000762939</ele>
        <time>2020-09-01T06:57:05.000Z</time>
      </trkpt>
      <trkpt lat="43.08533" lon="5.88209">
        <ele>25.39999961853</ele>
        <time>2020-09-01T06:57:07.000Z</time>
      </trkpt>
      <trkpt lat="43.08531" lon="5.88176">
        <ele>25.60000038147</ele>
        <time>2020-09-01T06:57:13.000Z</time>
      </trkpt>
      <trkpt lat="43.0853" lon="5.88148">
        <ele>25.799999237061</ele>
        <time>2020-09-01T06:57:19.000Z</time>
      </trkpt>
      <trkpt lat="43.0853" lon="5.88142">
        <ele>26</ele>
        <time>2020-09-01T06:57:20.000Z</time>
      </trkpt>
      <trkpt lat="43.08523" lon="5.88118">
        <ele>26.60000038147</ele>
        <time>2020-09-01T06:57:25.000Z</time>
      </trkpt>
      <trkpt lat="43.08515" lon="5.88116">
        <ele>26.799999237061</ele>
        <time>2020-09-01T06:57:27.000Z</time>
      </trkpt>
      <trkpt lat="43.08511" lon="5.88117">
        <ele>27</ele>
        <time>2020-09-01T06:57:28.000Z</time>
      </trkpt>
      <trkpt lat="43.0849" lon="5.88116">
        <ele>27.200000762939</ele>
        <time>2020-09-01T06:57:32.000Z</time>
      </trkpt>
      <trkpt lat="43.0848" lon="5.88101">
        <ele>27.200000762939</ele>
        <time>2020-09-01T06:57:35.000Z</time>
      </trkpt>
      <trkpt lat="43.08477" lon="5.88095">
        <ele>27.200000762939</ele>
        <time>2020-09-01T06:57:36.000Z</time>
      </trkpt>
      <trkpt lat="43.08456" lon="5.88059">
        <ele>27.200000762939</ele>
        <time>2020-09-01T06:57:43.000Z</time>
      </trkpt>
      <trkpt lat="43.08453" lon="5.88055">
        <ele>27.200000762939</ele>
        <time>2020-09-01T06:57:44.000Z</time>
      </trkpt>
      <trkpt lat="43.08436" lon="5.88042">
        <ele>27.200000762939</ele>
        <time>2020-09-01T06:57:48.000Z</time>
      </trkpt>
      <trkpt lat="43.08424" lon="5.88029">
        <ele>27.60000038147</ele>
        <time>2020-09-01T06:57:51.000Z</time>
      </trkpt>
      <trkpt lat="43.08416" lon="5.88013">
        <ele>27.60000038147</ele>
        <time>2020-09-01T06:57:54.000Z</time>
      </trkpt>
      <trkpt lat="43.08412" lon="5.88001">
        <ele>27.60000038147</ele>
        <time>2020-09-01T06:57:56.000Z</time>
      </trkpt>
      <trkpt lat="43.08408" lon="5.87991">
        <ele>27.799999237061</ele>
        <time>2020-09-01T06:57:58.000Z</time>
      </trkpt>
      <trkpt lat="43.08401" lon="5.87982">
        <ele>28</ele>
        <time>2020-09-01T06:58:00.000Z</time>
      </trkpt>
      <trkpt lat="43.08397" lon="5.87979">
        <ele>28</ele>
        <time>2020-09-01T06:58:01.000Z</time>
      </trkpt>
      <trkpt lat="43.08388" lon="5.87973">
        <ele>28.200000762939</ele>
        <time>2020-09-01T06:58:03.000Z</time>
      </trkpt>
      <trkpt lat="43.08379" lon="5.87967">
        <ele>28</ele>
        <time>2020-09-01T06:58:05.000Z</time>
      </trkpt>
      <trkpt lat="43.08351" lon="5.87948">
        <ele>27</ele>
        <time>2020-09-01T06:58:10.000Z</time>
      </trkpt>
      <trkpt lat="43.08344" lon="5.87945">
        <ele>26.60000038147</ele>
        <time>2020-09-01T06:58:11.000Z</time>
      </trkpt>
      <trkpt lat="43.08337" lon="5.87944">
        <ele>26.200000762939</ele>
        <time>2020-09-01T06:58:12.000Z</time>
      </trkpt>
      <trkpt lat="43.0833" lon="5.87943">
        <ele>25.799999237061</ele>
        <time>2020-09-01T06:58:13.000Z</time>
      </trkpt>
      <trkpt lat="43.08318" lon="5.87942">
        <ele>25.39999961853</ele>
        <time>2020-09-01T06:58:15.000Z</time>
      </trkpt>
      <trkpt lat="43.08294" lon="5.87941">
        <ele>25.200000762939</ele>
        <time>2020-09-01T06:58:20.000Z</time>
      </trkpt>
      <trkpt lat="43.08284" lon="5.8794">
        <ele>25.799999237061</ele>
        <time>2020-09-01T06:58:24.000Z</time>
      </trkpt>
      <trkpt lat="43.08282" lon="5.87939">
        <ele>26.39999961853</ele>
        <time>2020-09-01T06:58:25.000Z</time>
      </trkpt>
      <trkpt lat="43.08279" lon="5.87934">
        <ele>26.799999237061</ele>
        <time>2020-09-01T06:58:27.000Z</time>
      </trkpt>
      <trkpt lat="43.08278" lon="5.87931">
        <ele>27</ele>
        <time>2020-09-01T06:58:28.000Z</time>
      </trkpt>
      <trkpt lat="43.08276" lon="5.87928">
        <ele>27.200000762939</ele>
        <time>2020-09-01T06:58:29.000Z</time>
      </trkpt>
      <trkpt lat="43.08269" lon="5.87905">
        <ele>27.39999961853</ele>
        <time>2020-09-01T06:58:34.000Z</time>
      </trkpt>
      <trkpt lat="43.08264" lon="5.87895">
        <ele>27.39999961853</ele>
        <time>2020-09-01T06:58:36.000Z</time>
      </trkpt>
      <trkpt lat="43.08255" lon="5.87893">
        <ele>27.39999961853</ele>
        <time>2020-09-01T06:58:38.000Z</time>
      </trkpt>
      <trkpt lat="43.08244" lon="5.87906">
        <ele>27.799999237061</ele>
        <time>2020-09-01T06:58:41.000Z</time>
      </trkpt>
      <trkpt lat="43.08239" lon="5.8791">
        <ele>27.799999237061</ele>
        <time>2020-09-01T06:58:42.000Z</time>
      </trkpt>
      <trkpt lat="43.08229" lon="5.87912">
        <ele>27.60000038147</ele>
        <time>2020-09-01T06:58:44.000Z</time>
      </trkpt>
      <trkpt lat="43.08218" lon="5.8791">
        <ele>27.60000038147</ele>
        <time>2020-09-01T06:58:46.000Z</time>
      </trkpt>
      <trkpt lat="43.08195" lon="5.87905">
        <ele>27</ele>
        <time>2020-09-01T06:58:50.000Z</time>
      </trkpt>
      <trkpt lat="43.08179" lon="5.87899">
        <ele>26.799999237061</ele>
        <time>2020-09-01T06:58:53.000Z</time>
      </trkpt>
      <trkpt lat="43.08154" lon="5.87886">
        <ele>26.799999237061</ele>
        <time>2020-09-01T06:58:58.000Z</time>
      </trkpt>
      <trkpt lat="43.08107" lon="5.87861">
        <ele>26.799999237061</ele>
        <time>2020-09-01T06:59:07.000Z</time>
      </trkpt>
      <trkpt lat="43.08073" lon="5.8784">
        <ele>26.60000038147</ele>
        <time>2020-09-01T06:59:14.000Z</time>
      </trkpt>
      <trkpt lat="43.08042" lon="5.87815">
        <ele>26.799999237061</ele>
        <time>2020-09-01T06:59:21.000Z</time>
      </trkpt>
      <trkpt lat="43.0804" lon="5.87809">
        <ele>26.799999237061</ele>
        <time>2020-09-01T06:59:22.000Z</time>
      </trkpt>
      <trkpt lat="43.08037" lon="5.87782">
        <ele>27.39999961853</ele>
        <time>2020-09-01T06:59:26.000Z</time>
      </trkpt>
      <trkpt lat="43.08036" lon="5.87762">
        <ele>27.799999237061</ele>
        <time>2020-09-01T06:59:29.000Z</time>
      </trkpt>
      <trkpt lat="43.08034" lon="5.87734">
        <ele>28.39999961853</ele>
        <time>2020-09-01T06:59:33.000Z</time>
      </trkpt>
      <trkpt lat="43.08032" lon="5.87722">
        <ele>28.39999961853</ele>
        <time>2020-09-01T06:59:35.000Z</time>
      </trkpt>
      <trkpt lat="43.08031" lon="5.87701">
        <ele>28.799999237061</ele>
        <time>2020-09-01T06:59:38.000Z</time>
      </trkpt>
      <trkpt lat="43.08031" lon="5.87694">
        <ele>29</ele>
        <time>2020-09-01T06:59:39.000Z</time>
      </trkpt>
      <trkpt lat="43.0803" lon="5.8765">
        <ele>29.60000038147</ele>
        <time>2020-09-01T06:59:45.000Z</time>
      </trkpt>
      <trkpt lat="43.08027" lon="5.87605">
        <ele>30</ele>
        <time>2020-09-01T06:59:52.000Z</time>
      </trkpt>
      <trkpt lat="43.08025" lon="5.87583">
        <ele>30.60000038147</ele>
        <time>2020-09-01T06:59:55.000Z</time>
      </trkpt>
      <trkpt lat="43.08023" lon="5.87557">
        <ele>31.200000762939</ele>
        <time>2020-09-01T06:59:59.000Z</time>
      </trkpt>
      <trkpt lat="43.08022" lon="5.87525">
        <ele>31.60000038147</ele>
        <time>2020-09-01T07:00:04.000Z</time>
      </trkpt>
      <trkpt lat="43.08023" lon="5.87476">
        <ele>32.400001525879</ele>
        <time>2020-09-01T07:00:12.000Z</time>
      </trkpt>
      <trkpt lat="43.08024" lon="5.8747">
        <ele>32.599998474121</ele>
        <time>2020-09-01T07:00:16.000Z</time>
      </trkpt>
      <trkpt lat="43.08024" lon="5.87468">
        <ele>33</ele>
        <time>2020-09-01T07:00:20.000Z</time>
      </trkpt>
      <trkpt lat="43.08026" lon="5.87466">
        <ele>33.200000762939</ele>
        <time>2020-09-01T07:00:27.000Z</time>
      </trkpt>
      <trkpt lat="43.08032" lon="5.87462">
        <ele>33.200000762939</ele>
        <time>2020-09-01T07:00:31.000Z</time>
      </trkpt>
      <trkpt lat="43.08035" lon="5.87452">
        <ele>33.200000762939</ele>
        <time>2020-09-01T07:00:34.000Z</time>
      </trkpt>
      <trkpt lat="43.08035" lon="5.87446">
        <ele>33.200000762939</ele>
        <time>2020-09-01T07:00:35.000Z</time>
      </trkpt>
      <trkpt lat="43.0804" lon="5.8742">
        <ele>33</ele>
        <time>2020-09-01T07:00:40.000Z</time>
      </trkpt>
      <trkpt lat="43.08046" lon="5.87384">
        <ele>33.200000762939</ele>
        <time>2020-09-01T07:00:46.000Z</time>
      </trkpt>
      <trkpt lat="43.08047" lon="5.87378">
        <ele>33.400001525879</ele>
        <time>2020-09-01T07:00:47.000Z</time>
      </trkpt>
      <trkpt lat="43.08058" lon="5.87331">
        <ele>34</ele>
        <time>2020-09-01T07:00:55.000Z</time>
      </trkpt>
      <trkpt lat="43.0806" lon="5.87325">
        <ele>34.200000762939</ele>
        <time>2020-09-01T07:00:56.000Z</time>
      </trkpt>
      <trkpt lat="43.08067" lon="5.87295">
        <ele>34.400001525879</ele>
        <time>2020-09-01T07:01:01.000Z</time>
      </trkpt>
      <trkpt lat="43.08069" lon="5.87283">
        <ele>34.599998474121</ele>
        <time>2020-09-01T07:01:03.000Z</time>
      </trkpt>
      <trkpt lat="43.0808" lon="5.87239">
        <ele>35.200000762939</ele>
        <time>2020-09-01T07:01:11.000Z</time>
      </trkpt>
      <trkpt lat="43.08082" lon="5.87228">
        <ele>35.400001525879</ele>
        <time>2020-09-01T07:01:13.000Z</time>
      </trkpt>
      <trkpt lat="43.08084" lon="5.87207">
        <ele>35.799999237061</ele>
        <time>2020-09-01T07:01:18.000Z</time>
      </trkpt>
      <trkpt lat="43.08083" lon="5.87201">
        <ele>36.200000762939</ele>
        <time>2020-09-01T07:01:21.000Z</time>
      </trkpt>
      <trkpt lat="43.0808" lon="5.87201">
        <ele>36.400001525879</ele>
        <time>2020-09-01T07:01:22.000Z</time>
      </trkpt>
      <trkpt lat="43.08073" lon="5.87201">
        <ele>36.599998474121</ele>
        <time>2020-09-01T07:01:24.000Z</time>
      </trkpt>
      <trkpt lat="43.08069" lon="5.87202">
        <ele>36.400001525879</ele>
        <time>2020-09-01T07:01:25.000Z</time>
      </trkpt>
      <trkpt lat="43.08061" lon="5.87203">
        <ele>36.599998474121</ele>
        <time>2020-09-01T07:01:27.000Z</time>
      </trkpt>
      <trkpt lat="43.08036" lon="5.87206">
        <ele>36.799999237061</ele>
        <time>2020-09-01T07:01:34.000Z</time>
      </trkpt>
      <trkpt lat="43.08004" lon="5.8721">
        <ele>36.799999237061</ele>
        <time>2020-09-01T07:01:42.000Z</time>
      </trkpt>
      <trkpt lat="43.07962" lon="5.87216">
        <ele>36.599998474121</ele>
        <time>2020-09-01T07:01:52.000Z</time>
      </trkpt>
      <trkpt lat="43.07925" lon="5.87216">
        <ele>36.400001525879</ele>
        <time>2020-09-01T07:02:00.000Z</time>
      </trkpt>
      <trkpt lat="43.0792" lon="5.87215">
        <ele>36.599998474121</ele>
        <time>2020-09-01T07:02:01.000Z</time>
      </trkpt>
      <trkpt lat="43.07894" lon="5.87207">
        <ele>36.799999237061</ele>
        <time>2020-09-01T07:02:07.000Z</time>
      </trkpt>
      <trkpt lat="43.07885" lon="5.87187">
        <ele>37.200000762939</ele>
        <time>2020-09-01T07:02:11.000Z</time>
      </trkpt>
      <trkpt lat="43.07889" lon="5.87169">
        <ele>37.599998474121</ele>
        <time>2020-09-01T07:02:14.000Z</time>
      </trkpt>
      <trkpt lat="43.07892" lon="5.87163">
        <ele>37.599998474121</ele>
        <time>2020-09-01T07:02:15.000Z</time>
      </trkpt>
      <trkpt lat="43.07908" lon="5.87129">
        <ele>37.400001525879</ele>
        <time>2020-09-01T07:02:21.000Z</time>
      </trkpt>
      <trkpt lat="43.07926" lon="5.87083">
        <ele>38.200000762939</ele>
        <time>2020-09-01T07:02:29.000Z</time>
      </trkpt>
      <trkpt lat="43.07935" lon="5.8706">
        <ele>38.599998474121</ele>
        <time>2020-09-01T07:02:33.000Z</time>
      </trkpt>
      <trkpt lat="43.07942" lon="5.87044">
        <ele>39</ele>
        <time>2020-09-01T07:02:36.000Z</time>
      </trkpt>
      <trkpt lat="43.07957" lon="5.8701">
        <ele>39.599998474121</ele>
        <time>2020-09-01T07:02:42.000Z</time>
      </trkpt>
      <trkpt lat="43.07968" lon="5.8699">
        <ele>40</ele>
        <time>2020-09-01T07:02:46.000Z</time>
      </trkpt>
      <trkpt lat="43.07985" lon="5.86953">
        <ele>40.599998474121</ele>
        <time>2020-09-01T07:02:53.000Z</time>
      </trkpt>
      <trkpt lat="43.0799" lon="5.86943">
        <ele>40.799999237061</ele>
        <time>2020-09-01T07:02:55.000Z</time>
      </trkpt>
      <trkpt lat="43.08005" lon="5.86907">
        <ele>41.799999237061</ele>
        <time>2020-09-01T07:03:02.000Z</time>
      </trkpt>
      <trkpt lat="43.08015" lon="5.86859">
        <ele>42.599998474121</ele>
        <time>2020-09-01T07:03:10.000Z</time>
      </trkpt>
      <trkpt lat="43.08027" lon="5.86839">
        <ele>43</ele>
        <time>2020-09-01T07:03:14.000Z</time>
      </trkpt>
      <trkpt lat="43.08046" lon="5.86812">
        <ele>44</ele>
        <time>2020-09-01T07:03:20.000Z</time>
      </trkpt>
      <trkpt lat="43.08049" lon="5.86808">
        <ele>44.200000762939</ele>
        <time>2020-09-01T07:03:21.000Z</time>
      </trkpt>
      <trkpt lat="43.08071" lon="5.86776">
        <ele>45</ele>
        <time>2020-09-01T07:03:28.000Z</time>
      </trkpt>
      <trkpt lat="43.08074" lon="5.86771">
        <ele>45</ele>
        <time>2020-09-01T07:03:29.000Z</time>
      </trkpt>
      <trkpt lat="43.08087" lon="5.86745">
        <ele>45</ele>
        <time>2020-09-01T07:03:34.000Z</time>
      </trkpt>
      <trkpt lat="43.08093" lon="5.86728">
        <ele>45.400001525879</ele>
        <time>2020-09-01T07:03:37.000Z</time>
      </trkpt>
      <trkpt lat="43.08096" lon="5.8671">
        <ele>45.599998474121</ele>
        <time>2020-09-01T07:03:40.000Z</time>
      </trkpt>
      <trkpt lat="43.08096" lon="5.86697">
        <ele>45.799999237061</ele>
        <time>2020-09-01T07:03:42.000Z</time>
      </trkpt>
      <trkpt lat="43.08096" lon="5.86691">
        <ele>46</ele>
        <time>2020-09-01T07:03:43.000Z</time>
      </trkpt>
      <trkpt lat="43.08095" lon="5.86648">
        <ele>46.400001525879</ele>
        <time>2020-09-01T07:03:50.000Z</time>
      </trkpt>
      <trkpt lat="43.08096" lon="5.86631">
        <ele>46.799999237061</ele>
        <time>2020-09-01T07:03:53.000Z</time>
      </trkpt>
      <trkpt lat="43.08096" lon="5.86626">
        <ele>47</ele>
        <time>2020-09-01T07:03:54.000Z</time>
      </trkpt>
      <trkpt lat="43.08096" lon="5.86619">
        <ele>47</ele>
        <time>2020-09-01T07:03:55.000Z</time>
      </trkpt>
      <trkpt lat="43.08098" lon="5.86593">
        <ele>46.599998474121</ele>
        <time>2020-09-01T07:03:59.000Z</time>
      </trkpt>
      <trkpt lat="43.08099" lon="5.86584">
        <ele>46.400001525879</ele>
        <time>2020-09-01T07:04:00.000Z</time>
      </trkpt>
      <trkpt lat="43.08101" lon="5.86575">
        <ele>46</ele>
        <time>2020-09-01T07:04:01.000Z</time>
      </trkpt>
      <trkpt lat="43.08104" lon="5.86562">
        <ele>45</ele>
        <time>2020-09-01T07:04:03.000Z</time>
      </trkpt>
      <trkpt lat="43.08105" lon="5.86557">
        <ele>44.799999237061</ele>
        <time>2020-09-01T07:04:04.000Z</time>
      </trkpt>
      <trkpt lat="43.08107" lon="5.86551">
        <ele>45</ele>
        <time>2020-09-01T07:04:05.000Z</time>
      </trkpt>
      <trkpt lat="43.08112" lon="5.86536">
        <ele>46.200000762939</ele>
        <time>2020-09-01T07:04:08.000Z</time>
      </trkpt>
      <trkpt lat="43.08112" lon="5.86532">
        <ele>46.799999237061</ele>
        <time>2020-09-01T07:04:09.000Z</time>
      </trkpt>
      <trkpt lat="43.08108" lon="5.8652">
        <ele>47.400001525879</ele>
        <time>2020-09-01T07:04:11.000Z</time>
      </trkpt>
      <trkpt lat="43.08107" lon="5.86513">
        <ele>47.599998474121</ele>
        <time>2020-09-01T07:04:12.000Z</time>
      </trkpt>
      <trkpt lat="43.08106" lon="5.86507">
        <ele>47.599998474121</ele>
        <time>2020-09-01T07:04:13.000Z</time>
      </trkpt>
      <trkpt lat="43.081" lon="5.86478">
        <ele>48.400001525879</ele>
        <time>2020-09-01T07:04:18.000Z</time>
      </trkpt>
      <trkpt lat="43.0809" lon="5.8643">
        <ele>49.400001525879</ele>
        <time>2020-09-01T07:04:26.000Z</time>
      </trkpt>
      <trkpt lat="43.08087" lon="5.86418">
        <ele>49.599998474121</ele>
        <time>2020-09-01T07:04:28.000Z</time>
      </trkpt>
      <trkpt lat="43.08084" lon="5.864">
        <ele>49.799999237061</ele>
        <time>2020-09-01T07:04:31.000Z</time>
      </trkpt>
      <trkpt lat="43.08082" lon="5.86375">
        <ele>50.599998474121</ele>
        <time>2020-09-01T07:04:35.000Z</time>
      </trkpt>
      <trkpt lat="43.08083" lon="5.86344">
        <ele>50.799999237061</ele>
        <time>2020-09-01T07:04:40.000Z</time>
      </trkpt>
      <trkpt lat="43.08084" lon="5.86338">
        <ele>50.799999237061</ele>
        <time>2020-09-01T07:04:41.000Z</time>
      </trkpt>
      <trkpt lat="43.08091" lon="5.86295">
        <ele>50.200000762939</ele>
        <time>2020-09-01T07:04:48.000Z</time>
      </trkpt>
      <trkpt lat="43.08091" lon="5.86282">
        <ele>50</ele>
        <time>2020-09-01T07:04:50.000Z</time>
      </trkpt>
      <trkpt lat="43.0809" lon="5.86271">
        <ele>49.599998474121</ele>
        <time>2020-09-01T07:04:52.000Z</time>
      </trkpt>
      <trkpt lat="43.08089" lon="5.86264">
        <ele>49.400001525879</ele>
        <time>2020-09-01T07:04:53.000Z</time>
      </trkpt>
      <trkpt lat="43.08083" lon="5.86242">
        <ele>49.200000762939</ele>
        <time>2020-09-01T07:04:57.000Z</time>
      </trkpt>
      <trkpt lat="43.08077" lon="5.86226">
        <ele>49.400001525879</ele>
        <time>2020-09-01T07:05:00.000Z</time>
      </trkpt>
      <trkpt lat="43.08064" lon="5.86186">
        <ele>49.599998474121</ele>
        <time>2020-09-01T07:05:07.000Z</time>
      </trkpt>
      <trkpt lat="43.08063" lon="5.86179">
        <ele>49.799999237061</ele>
        <time>2020-09-01T07:05:08.000Z</time>
      </trkpt>
      <trkpt lat="43.08065" lon="5.86148">
        <ele>50.200000762939</ele>
        <time>2020-09-01T07:05:13.000Z</time>
      </trkpt>
      <trkpt lat="43.08067" lon="5.86137">
        <ele>50.599998474121</ele>
        <time>2020-09-01T07:05:15.000Z</time>
      </trkpt>
      <trkpt lat="43.08068" lon="5.86122">
        <ele>51.799999237061</ele>
        <time>2020-09-01T07:05:18.000Z</time>
      </trkpt>
      <trkpt lat="43.08068" lon="5.8611">
        <ele>52.400001525879</ele>
        <time>2020-09-01T07:05:20.000Z</time>
      </trkpt>
      <trkpt lat="43.08068" lon="5.86105">
        <ele>52.799999237061</ele>
        <time>2020-09-01T07:05:21.000Z</time>
      </trkpt>
      <trkpt lat="43.08067" lon="5.86081">
        <ele>54</ele>
        <time>2020-09-01T07:05:25.000Z</time>
      </trkpt>
      <trkpt lat="43.08067" lon="5.8607">
        <ele>54.400001525879</ele>
        <time>2020-09-01T07:05:27.000Z</time>
      </trkpt>
      <trkpt lat="43.08068" lon="5.86059">
        <ele>55.200000762939</ele>
        <time>2020-09-01T07:05:29.000Z</time>
      </trkpt>
      <trkpt lat="43.08071" lon="5.86039">
        <ele>56.400001525879</ele>
        <time>2020-09-01T07:05:32.000Z</time>
      </trkpt>
      <trkpt lat="43.08072" lon="5.86033">
        <ele>56.400001525879</ele>
        <time>2020-09-01T07:05:33.000Z</time>
      </trkpt>
      <trkpt lat="43.08076" lon="5.85981">
        <ele>56.799999237061</ele>
        <time>2020-09-01T07:05:41.000Z</time>
      </trkpt>
      <trkpt lat="43.08077" lon="5.85976">
        <ele>56.599998474121</ele>
        <time>2020-09-01T07:05:42.000Z</time>
      </trkpt>
      <trkpt lat="43.08075" lon="5.85963">
        <ele>56.599998474121</ele>
        <time>2020-09-01T07:05:45.000Z</time>
      </trkpt>
      <trkpt lat="43.08067" lon="5.85947">
        <ele>56.799999237061</ele>
        <time>2020-09-01T07:05:48.000Z</time>
      </trkpt>
      <trkpt lat="43.08063" lon="5.85935">
        <ele>57.799999237061</ele>
        <time>2020-09-01T07:05:50.000Z</time>
      </trkpt>
      <trkpt lat="43.08058" lon="5.85917">
        <ele>58.799999237061</ele>
        <time>2020-09-01T07:05:53.000Z</time>
      </trkpt>
      <trkpt lat="43.08055" lon="5.85906">
        <ele>59.200000762939</ele>
        <time>2020-09-01T07:05:55.000Z</time>
      </trkpt>
      <trkpt lat="43.08054" lon="5.85901">
        <ele>59.200000762939</ele>
        <time>2020-09-01T07:05:56.000Z</time>
      </trkpt>
      <trkpt lat="43.08044" lon="5.85892">
        <ele>59.400001525879</ele>
        <time>2020-09-01T07:05:59.000Z</time>
      </trkpt>
      <trkpt lat="43.08026" lon="5.85894">
        <ele>59.799999237061</ele>
        <time>2020-09-01T07:06:03.000Z</time>
      </trkpt>
      <trkpt lat="43.08016" lon="5.85897">
        <ele>59.799999237061</ele>
        <time>2020-09-01T07:06:05.000Z</time>
      </trkpt>
      <trkpt lat="43.08006" lon="5.859">
        <ele>59.799999237061</ele>
        <time>2020-09-01T07:06:07.000Z</time>
      </trkpt>
      <trkpt lat="43.08001" lon="5.85901">
        <ele>60</ele>
        <time>2020-09-01T07:06:08.000Z</time>
      </trkpt>
      <trkpt lat="43.07982" lon="5.85907">
        <ele>60.599998474121</ele>
        <time>2020-09-01T07:06:12.000Z</time>
      </trkpt>
      <trkpt lat="43.0797" lon="5.85908">
        <ele>60.799999237061</ele>
        <time>2020-09-01T07:06:15.000Z</time>
      </trkpt>
      <trkpt lat="43.07965" lon="5.85908">
        <ele>60.799999237061</ele>
        <time>2020-09-01T07:06:16.000Z</time>
      </trkpt>
      <trkpt lat="43.07937" lon="5.85915">
        <ele>61.799999237061</ele>
        <time>2020-09-01T07:06:22.000Z</time>
      </trkpt>
      <trkpt lat="43.07933" lon="5.85916">
        <ele>62</ele>
        <time>2020-09-01T07:06:23.000Z</time>
      </trkpt>
      <trkpt lat="43.07901" lon="5.85921">
        <ele>62.599998474121</ele>
        <time>2020-09-01T07:06:30.000Z</time>
      </trkpt>
      <trkpt lat="43.07877" lon="5.85921">
        <ele>63</ele>
        <time>2020-09-01T07:06:35.000Z</time>
      </trkpt>
      <trkpt lat="43.07864" lon="5.85922">
        <ele>63</ele>
        <time>2020-09-01T07:06:38.000Z</time>
      </trkpt>
      <trkpt lat="43.07832" lon="5.85922">
        <ele>63.799999237061</ele>
        <time>2020-09-01T07:06:45.000Z</time>
      </trkpt>
      <trkpt lat="43.07823" lon="5.85923">
        <ele>64</ele>
        <time>2020-09-01T07:06:47.000Z</time>
      </trkpt>
      <trkpt lat="43.07805" lon="5.85923">
        <ele>64.400001525879</ele>
        <time>2020-09-01T07:06:51.000Z</time>
      </trkpt>
      <trkpt lat="43.07788" lon="5.85924">
        <ele>65</ele>
        <time>2020-09-01T07:06:55.000Z</time>
      </trkpt>
      <trkpt lat="43.07774" lon="5.85924">
        <ele>65.199996948242</ele>
        <time>2020-09-01T07:06:58.000Z</time>
      </trkpt>
      <trkpt lat="43.0777" lon="5.85924">
        <ele>65.400001525879</ele>
        <time>2020-09-01T07:06:59.000Z</time>
      </trkpt>
      <trkpt lat="43.07747" lon="5.85926">
        <ele>66</ele>
        <time>2020-09-01T07:07:04.000Z</time>
      </trkpt>
      <trkpt lat="43.07728" lon="5.85926">
        <ele>66.400001525879</ele>
        <time>2020-09-01T07:07:08.000Z</time>
      </trkpt>
      <trkpt lat="43.07705" lon="5.85921">
        <ele>67</ele>
        <time>2020-09-01T07:07:13.000Z</time>
      </trkpt>
      <trkpt lat="43.07693" lon="5.85917">
        <ele>67.599998474121</ele>
        <time>2020-09-01T07:07:16.000Z</time>
      </trkpt>
      <trkpt lat="43.07685" lon="5.85914">
        <ele>68</ele>
        <time>2020-09-01T07:07:18.000Z</time>
      </trkpt>
      <trkpt lat="43.07672" lon="5.8591">
        <ele>69.199996948242</ele>
        <time>2020-09-01T07:07:21.000Z</time>
      </trkpt>
      <trkpt lat="43.07656" lon="5.85903">
        <ele>70</ele>
        <time>2020-09-01T07:07:25.000Z</time>
      </trkpt>
      <trkpt lat="43.07653" lon="5.85901">
        <ele>70.199996948242</ele>
        <time>2020-09-01T07:07:26.000Z</time>
      </trkpt>
      <trkpt lat="43.0763" lon="5.85887">
        <ele>71.400001525879</ele>
        <time>2020-09-01T07:07:32.000Z</time>
      </trkpt>
      <trkpt lat="43.07623" lon="5.85882">
        <ele>71.800003051758</ele>
        <time>2020-09-01T07:07:34.000Z</time>
      </trkpt>
      <trkpt lat="43.07612" lon="5.85874">
        <ele>72.599998474121</ele>
        <time>2020-09-01T07:07:37.000Z</time>
      </trkpt>
      <trkpt lat="43.07593" lon="5.85863">
        <ele>73.199996948242</ele>
        <time>2020-09-01T07:07:42.000Z</time>
      </trkpt>
      <trkpt lat="43.07564" lon="5.85844">
        <ele>73.599998474121</ele>
        <time>2020-09-01T07:07:50.000Z</time>
      </trkpt>
      <trkpt lat="43.07561" lon="5.85842">
        <ele>73.599998474121</ele>
        <time>2020-09-01T07:07:51.000Z</time>
      </trkpt>
      <trkpt lat="43.07542" lon="5.85832">
        <ele>74.800003051758</ele>
        <time>2020-09-01T07:07:56.000Z</time>
      </trkpt>
      <trkpt lat="43.07527" lon="5.85824">
        <ele>75.199996948242</ele>
        <time>2020-09-01T07:08:00.000Z</time>
      </trkpt>
      <trkpt lat="43.07495" lon="5.858">
        <ele>75.800003051758</ele>
        <time>2020-09-01T07:08:09.000Z</time>
      </trkpt>
      <trkpt lat="43.07491" lon="5.85797">
        <ele>75.800003051758</ele>
        <time>2020-09-01T07:08:10.000Z</time>
      </trkpt>
      <trkpt lat="43.07475" lon="5.85779">
        <ele>76.400001525879</ele>
        <time>2020-09-01T07:08:15.000Z</time>
      </trkpt>
      <trkpt lat="43.07458" lon="5.85762">
        <ele>76.800003051758</ele>
        <time>2020-09-01T07:08:20.000Z</time>
      </trkpt>
      <trkpt lat="43.07454" lon="5.85759">
        <ele>76.800003051758</ele>
        <time>2020-09-01T07:08:21.000Z</time>
      </trkpt>
      <trkpt lat="43.07446" lon="5.85754">
        <ele>77</ele>
        <time>2020-09-01T07:08:23.000Z</time>
      </trkpt>
      <trkpt lat="43.07412" lon="5.85743">
        <ele>76.400001525879</ele>
        <time>2020-09-01T07:08:30.000Z</time>
      </trkpt>
      <trkpt lat="43.07392" lon="5.85736">
        <ele>75.800003051758</ele>
        <time>2020-09-01T07:08:34.000Z</time>
      </trkpt>
      <trkpt lat="43.07369" lon="5.85729">
        <ele>75.400001525879</ele>
        <time>2020-09-01T07:08:39.000Z</time>
      </trkpt>
      <trkpt lat="43.07337" lon="5.85721">
        <ele>74.599998474121</ele>
        <time>2020-09-01T07:08:45.000Z</time>
      </trkpt>
      <trkpt lat="43.07326" lon="5.85717">
        <ele>74.199996948242</ele>
        <time>2020-09-01T07:08:47.000Z</time>
      </trkpt>
      <trkpt lat="43.07311" lon="5.85709">
        <ele>74</ele>
        <time>2020-09-01T07:08:50.000Z</time>
      </trkpt>
      <trkpt lat="43.07304" lon="5.857">
        <ele>74</ele>
        <time>2020-09-01T07:08:52.000Z</time>
      </trkpt>
      <trkpt lat="43.07281" lon="5.85667">
        <ele>74.599998474121</ele>
        <time>2020-09-01T07:08:59.000Z</time>
      </trkpt>
      <trkpt lat="43.07269" lon="5.85643">
        <ele>76</ele>
        <time>2020-09-01T07:09:04.000Z</time>
      </trkpt>
      <trkpt lat="43.07262" lon="5.85627">
        <ele>76.599998474121</ele>
        <time>2020-09-01T07:09:07.000Z</time>
      </trkpt>
      <trkpt lat="43.07257" lon="5.85617">
        <ele>77</ele>
        <time>2020-09-01T07:09:09.000Z</time>
      </trkpt>
      <trkpt lat="43.07247" lon="5.85596">
        <ele>77.800003051758</ele>
        <time>2020-09-01T07:09:13.000Z</time>
      </trkpt>
      <trkpt lat="43.07244" lon="5.85591">
        <ele>78.199996948242</ele>
        <time>2020-09-01T07:09:14.000Z</time>
      </trkpt>
      <trkpt lat="43.07236" lon="5.8557">
        <ele>79.199996948242</ele>
        <time>2020-09-01T07:09:18.000Z</time>
      </trkpt>
      <trkpt lat="43.07229" lon="5.85551">
        <ele>79.800003051758</ele>
        <time>2020-09-01T07:09:22.000Z</time>
      </trkpt>
      <trkpt lat="43.07226" lon="5.85539">
        <ele>80.599998474121</ele>
        <time>2020-09-01T07:09:24.000Z</time>
      </trkpt>
      <trkpt lat="43.07219" lon="5.85516">
        <ele>81.599998474121</ele>
        <time>2020-09-01T07:09:28.000Z</time>
      </trkpt>
      <trkpt lat="43.07216" lon="5.8551">
        <ele>81.599998474121</ele>
        <time>2020-09-01T07:09:29.000Z</time>
      </trkpt>
      <trkpt lat="43.07211" lon="5.85499">
        <ele>81.599998474121</ele>
        <time>2020-09-01T07:09:31.000Z</time>
      </trkpt>
      <trkpt lat="43.07204" lon="5.85489">
        <ele>81.400001525879</ele>
        <time>2020-09-01T07:09:33.000Z</time>
      </trkpt>
      <trkpt lat="43.07189" lon="5.85466">
        <ele>81</ele>
        <time>2020-09-01T07:09:38.000Z</time>
      </trkpt>
      <trkpt lat="43.07179" lon="5.85453">
        <ele>80.599998474121</ele>
        <time>2020-09-01T07:09:41.000Z</time>
      </trkpt>
      <trkpt lat="43.07165" lon="5.85436">
        <ele>80.599998474121</ele>
        <time>2020-09-01T07:09:45.000Z</time>
      </trkpt>
      <trkpt lat="43.07152" lon="5.85419">
        <ele>80.800003051758</ele>
        <time>2020-09-01T07:09:49.000Z</time>
      </trkpt>
      <trkpt lat="43.07149" lon="5.85408">
        <ele>81</ele>
        <time>2020-09-01T07:09:51.000Z</time>
      </trkpt>
      <trkpt lat="43.07146" lon="5.85387">
        <ele>81</ele>
        <time>2020-09-01T07:09:55.000Z</time>
      </trkpt>
      <trkpt lat="43.07148" lon="5.85383">
        <ele>80.800003051758</ele>
        <time>2020-09-01T07:09:56.000Z</time>
      </trkpt>
      <trkpt lat="43.07151" lon="5.8537">
        <ele>80.199996948242</ele>
        <time>2020-09-01T07:10:00.000Z</time>
      </trkpt>
      <trkpt lat="43.07151" lon="5.85367">
        <ele>80.400001525879</ele>
        <time>2020-09-01T07:10:02.000Z</time>
      </trkpt>
      <trkpt lat="43.07152" lon="5.85364">
        <ele>80.599998474121</ele>
        <time>2020-09-01T07:10:04.000Z</time>
      </trkpt>
      <trkpt lat="43.07158" lon="5.8537">
        <ele>81</ele>
        <time>2020-09-01T07:10:08.000Z</time>
      </trkpt>
      <trkpt lat="43.07159" lon="5.85374">
        <ele>81</ele>
        <time>2020-09-01T07:10:09.000Z</time>
      </trkpt>
      <trkpt lat="43.07166" lon="5.85389">
        <ele>81.199996948242</ele>
        <time>2020-09-01T07:10:13.000Z</time>
      </trkpt>
      <trkpt lat="43.07166" lon="5.85392">
        <ele>81</ele>
        <time>2020-09-01T07:10:14.000Z</time>
      </trkpt>
      <trkpt lat="43.07166" lon="5.85392">
        <ele>80.800003051758</ele>
        <time>2020-09-01T07:10:16.000Z</time>
      </trkpt>
      <trkpt lat="43.07165" lon="5.85394">
        <ele>80.800003051758</ele>
        <time>2020-09-01T07:10:23.000Z</time>
      </trkpt>
      <trkpt lat="43.07165" lon="5.85394">
        <ele>80.599998474121</ele>
        <time>2020-09-01T07:10:40.000Z</time>
      </trkpt>
      <trkpt lat="43.07166" lon="5.85396">
        <ele>80.800003051758</ele>
        <time>2020-09-01T07:11:00.000Z</time>
      </trkpt>
      <trkpt lat="43.07166" lon="5.85394">
        <ele>81</ele>
        <time>2020-09-01T07:11:08.000Z</time>
      </trkpt>
      <trkpt lat="43.07168" lon="5.85393">
        <ele>80.800003051758</ele>
        <time>2020-09-01T07:11:13.000Z</time>
      </trkpt>
      <trkpt lat="43.07168" lon="5.85387">
        <ele>81</ele>
        <time>2020-09-01T07:11:18.000Z</time>
      </trkpt>
      <trkpt lat="43.07167" lon="5.85385">
        <ele>81</ele>
        <time>2020-09-01T07:11:19.000Z</time>
      </trkpt>
      <trkpt lat="43.07163" lon="5.85376">
        <ele>81</ele>
        <time>2020-09-01T07:11:22.000Z</time>
      </trkpt>
      <trkpt lat="43.07151" lon="5.85363">
        <ele>81.199996948242</ele>
        <time>2020-09-01T07:11:28.000Z</time>
      </trkpt>
      <trkpt lat="43.07151" lon="5.85363">
        <ele>81</ele>
        <time>2020-09-01T07:11:33.000Z</time>
      </trkpt>
      <trkpt lat="43.07147" lon="5.85359">
        <ele>80.800003051758</ele>
        <time>2020-09-01T07:11:49.000Z</time>
      </trkpt>
      <trkpt lat="43.07136" lon="5.85362">
        <ele>80.599998474121</ele>
        <time>2020-09-01T07:11:52.000Z</time>
      </trkpt>
      <trkpt lat="43.07134" lon="5.85374">
        <ele>80</ele>
        <time>2020-09-01T07:11:55.000Z</time>
      </trkpt>
      <trkpt lat="43.0714" lon="5.85384">
        <ele>79.800003051758</ele>
        <time>2020-09-01T07:11:57.000Z</time>
      </trkpt>
      <trkpt lat="43.07145" lon="5.85394">
        <ele>79.599998474121</ele>
        <time>2020-09-01T07:11:59.000Z</time>
      </trkpt>
      <trkpt lat="43.07149" lon="5.85405">
        <ele>79.599998474121</ele>
        <time>2020-09-01T07:12:01.000Z</time>
      </trkpt>
      <trkpt lat="43.07148" lon="5.85421">
        <ele>80</ele>
        <time>2020-09-01T07:12:04.000Z</time>
      </trkpt>
      <trkpt lat="43.07143" lon="5.85426">
        <ele>80.800003051758</ele>
        <time>2020-09-01T07:12:06.000Z</time>
      </trkpt>
      <trkpt lat="43.0714" lon="5.85428">
        <ele>81</ele>
        <time>2020-09-01T07:12:07.000Z</time>
      </trkpt>
      <trkpt lat="43.07138" lon="5.85431">
        <ele>82</ele>
        <time>2020-09-01T07:12:09.000Z</time>
      </trkpt>
      <trkpt lat="43.07137" lon="5.85439">
        <ele>83</ele>
        <time>2020-09-01T07:12:12.000Z</time>
      </trkpt>
      <trkpt lat="43.07137" lon="5.85443">
        <ele>83.199996948242</ele>
        <time>2020-09-01T07:12:13.000Z</time>
      </trkpt>
      <trkpt lat="43.07136" lon="5.8545">
        <ele>84.199996948242</ele>
        <time>2020-09-01T07:12:16.000Z</time>
      </trkpt>
      <trkpt lat="43.07136" lon="5.85453">
        <ele>84.599998474121</ele>
        <time>2020-09-01T07:12:17.000Z</time>
      </trkpt>
      <trkpt lat="43.07136" lon="5.85454">
        <ele>85.400001525879</ele>
        <time>2020-09-01T07:12:18.000Z</time>
      </trkpt>
      <trkpt lat="43.07136" lon="5.85457">
        <ele>87</ele>
        <time>2020-09-01T07:12:20.000Z</time>
      </trkpt>
      <trkpt lat="43.07134" lon="5.85461">
        <ele>88.199996948242</ele>
        <time>2020-09-01T07:12:22.000Z</time>
      </trkpt>
      <trkpt lat="43.07134" lon="5.85473">
        <ele>89</ele>
        <time>2020-09-01T07:12:25.000Z</time>
      </trkpt>
      <trkpt lat="43.07135" lon="5.85482">
        <ele>89</ele>
        <time>2020-09-01T07:12:27.000Z</time>
      </trkpt>
      <trkpt lat="43.07136" lon="5.85501">
        <ele>89.199996948242</ele>
        <time>2020-09-01T07:12:31.000Z</time>
      </trkpt>
      <trkpt lat="43.07134" lon="5.85515">
        <ele>89.800003051758</ele>
        <time>2020-09-01T07:12:34.000Z</time>
      </trkpt>
      <trkpt lat="43.07132" lon="5.85532">
        <ele>90.400001525879</ele>
        <time>2020-09-01T07:12:37.000Z</time>
      </trkpt>
      <trkpt lat="43.07133" lon="5.85542">
        <ele>90.599998474121</ele>
        <time>2020-09-01T07:12:39.000Z</time>
      </trkpt>
      <trkpt lat="43.07134" lon="5.85548">
        <ele>90.800003051758</ele>
        <time>2020-09-01T07:12:40.000Z</time>
      </trkpt>
      <trkpt lat="43.07142" lon="5.85567">
        <ele>90.199996948242</ele>
        <time>2020-09-01T07:12:44.000Z</time>
      </trkpt>
      <trkpt lat="43.07156" lon="5.85583">
        <ele>89</ele>
        <time>2020-09-01T07:12:47.000Z</time>
      </trkpt>
      <trkpt lat="43.0716" lon="5.8559">
        <ele>88.400001525879</ele>
        <time>2020-09-01T07:12:48.000Z</time>
      </trkpt>
      <trkpt lat="43.07165" lon="5.85607">
        <ele>87.800003051758</ele>
        <time>2020-09-01T07:12:50.000Z</time>
      </trkpt>
      <trkpt lat="43.07167" lon="5.85615">
        <ele>87.400001525879</ele>
        <time>2020-09-01T07:12:51.000Z</time>
      </trkpt>
      <trkpt lat="43.07169" lon="5.85631">
        <ele>86.400001525879</ele>
        <time>2020-09-01T07:12:53.000Z</time>
      </trkpt>
      <trkpt lat="43.0717" lon="5.85652">
        <ele>86.199996948242</ele>
        <time>2020-09-01T07:12:56.000Z</time>
      </trkpt>
      <trkpt lat="43.07169" lon="5.85692">
        <ele>87.599998474121</ele>
        <time>2020-09-01T07:13:02.000Z</time>
      </trkpt>
      <trkpt lat="43.07167" lon="5.85704">
        <ele>87.800003051758</ele>
        <time>2020-09-01T07:13:04.000Z</time>
      </trkpt>
      <trkpt lat="43.07168" lon="5.85713">
        <ele>88</ele>
        <time>2020-09-01T07:13:06.000Z</time>
      </trkpt>
      <trkpt lat="43.07171" lon="5.85715">
        <ele>88.199996948242</ele>
        <time>2020-09-01T07:13:07.000Z</time>
      </trkpt>
      <trkpt lat="43.07181" lon="5.85736">
        <ele>88</ele>
        <time>2020-09-01T07:13:11.000Z</time>
      </trkpt>
      <trkpt lat="43.07191" lon="5.85749">
        <ele>87</ele>
        <time>2020-09-01T07:13:14.000Z</time>
      </trkpt>
      <trkpt lat="43.07197" lon="5.85754">
        <ele>86.400001525879</ele>
        <time>2020-09-01T07:13:15.000Z</time>
      </trkpt>
      <trkpt lat="43.07203" lon="5.85759">
        <ele>86</ele>
        <time>2020-09-01T07:13:16.000Z</time>
      </trkpt>
      <trkpt lat="43.07209" lon="5.85763">
        <ele>85.599998474121</ele>
        <time>2020-09-01T07:13:17.000Z</time>
      </trkpt>
      <trkpt lat="43.07216" lon="5.85764">
        <ele>85.199996948242</ele>
        <time>2020-09-01T07:13:18.000Z</time>
      </trkpt>
      <trkpt lat="43.07227" lon="5.85768">
        <ele>84.400001525879</ele>
        <time>2020-09-01T07:13:20.000Z</time>
      </trkpt>
      <trkpt lat="43.07233" lon="5.85768">
        <ele>84</ele>
        <time>2020-09-01T07:13:21.000Z</time>
      </trkpt>
      <trkpt lat="43.07251" lon="5.85771">
        <ele>83</ele>
        <time>2020-09-01T07:13:24.000Z</time>
      </trkpt>
      <trkpt lat="43.07257" lon="5.85771">
        <ele>82.599998474121</ele>
        <time>2020-09-01T07:13:25.000Z</time>
      </trkpt>
      <trkpt lat="43.07277" lon="5.85772">
        <ele>81.199996948242</ele>
        <time>2020-09-01T07:13:28.000Z</time>
      </trkpt>
      <trkpt lat="43.07284" lon="5.85774">
        <ele>80.400001525879</ele>
        <time>2020-09-01T07:13:29.000Z</time>
      </trkpt>
      <trkpt lat="43.07291" lon="5.85775">
        <ele>79.400001525879</ele>
        <time>2020-09-01T07:13:30.000Z</time>
      </trkpt>
      <trkpt lat="43.07306" lon="5.85779">
        <ele>77.599998474121</ele>
        <time>2020-09-01T07:13:32.000Z</time>
      </trkpt>
      <trkpt lat="43.07312" lon="5.85782">
        <ele>76.599998474121</ele>
        <time>2020-09-01T07:13:33.000Z</time>
      </trkpt>
      <trkpt lat="43.07314" lon="5.85786">
        <ele>75.599998474121</ele>
        <time>2020-09-01T07:13:34.000Z</time>
      </trkpt>
      <trkpt lat="43.07316" lon="5.85793">
        <ele>74.800003051758</ele>
        <time>2020-09-01T07:13:35.000Z</time>
      </trkpt>
      <trkpt lat="43.07317" lon="5.85798">
        <ele>74.199996948242</ele>
        <time>2020-09-01T07:13:36.000Z</time>
      </trkpt>
      <trkpt lat="43.07317" lon="5.85816">
        <ele>73.199996948242</ele>
        <time>2020-09-01T07:13:39.000Z</time>
      </trkpt>
      <trkpt lat="43.07316" lon="5.85823">
        <ele>73.199996948242</ele>
        <time>2020-09-01T07:13:40.000Z</time>
      </trkpt>
      <trkpt lat="43.07315" lon="5.85836">
        <ele>73.400001525879</ele>
        <time>2020-09-01T07:13:42.000Z</time>
      </trkpt>
      <trkpt lat="43.07312" lon="5.85844">
        <ele>74</ele>
        <time>2020-09-01T07:13:44.000Z</time>
      </trkpt>
      <trkpt lat="43.07313" lon="5.85847">
        <ele>74.199996948242</ele>
        <time>2020-09-01T07:13:45.000Z</time>
      </trkpt>
      <trkpt lat="43.07314" lon="5.85851">
        <ele>74.599998474121</ele>
        <time>2020-09-01T07:13:46.000Z</time>
      </trkpt>
      <trkpt lat="43.07315" lon="5.85855">
        <ele>75</ele>
        <time>2020-09-01T07:13:47.000Z</time>
      </trkpt>
      <trkpt lat="43.07314" lon="5.85864">
        <ele>75.599998474121</ele>
        <time>2020-09-01T07:13:49.000Z</time>
      </trkpt>
      <trkpt lat="43.07315" lon="5.85874">
        <ele>76</ele>
        <time>2020-09-01T07:13:51.000Z</time>
      </trkpt>
      <trkpt lat="43.07311" lon="5.859">
        <ele>76.199996948242</ele>
        <time>2020-09-01T07:13:56.000Z</time>
      </trkpt>
      <trkpt lat="43.07309" lon="5.8591">
        <ele>76.599998474121</ele>
        <time>2020-09-01T07:13:58.000Z</time>
      </trkpt>
      <trkpt lat="43.07306" lon="5.85922">
        <ele>76.599998474121</ele>
        <time>2020-09-01T07:14:00.000Z</time>
      </trkpt>
      <trkpt lat="43.07301" lon="5.85933">
        <ele>76.599998474121</ele>
        <time>2020-09-01T07:14:02.000Z</time>
      </trkpt>
      <trkpt lat="43.07296" lon="5.85943">
        <ele>76.599998474121</ele>
        <time>2020-09-01T07:14:04.000Z</time>
      </trkpt>
      <trkpt lat="43.07294" lon="5.85956">
        <ele>76.599998474121</ele>
        <time>2020-09-01T07:14:06.000Z</time>
      </trkpt>
      <trkpt lat="43.07288" lon="5.85996">
        <ele>76.199996948242</ele>
        <time>2020-09-01T07:14:12.000Z</time>
      </trkpt>
      <trkpt lat="43.07289" lon="5.86001">
        <ele>76.199996948242</ele>
        <time>2020-09-01T07:14:13.000Z</time>
      </trkpt>
      <trkpt lat="43.07297" lon="5.86018">
        <ele>76</ele>
        <time>2020-09-01T07:14:17.000Z</time>
      </trkpt>
      <trkpt lat="43.07303" lon="5.86026">
        <ele>75.800003051758</ele>
        <time>2020-09-01T07:14:19.000Z</time>
      </trkpt>
      <trkpt lat="43.07313" lon="5.86031">
        <ele>75.800003051758</ele>
        <time>2020-09-01T07:14:21.000Z</time>
      </trkpt>
      <trkpt lat="43.07317" lon="5.86034">
        <ele>75.400001525879</ele>
        <time>2020-09-01T07:14:22.000Z</time>
      </trkpt>
      <trkpt lat="43.07337" lon="5.86046">
        <ele>74.199996948242</ele>
        <time>2020-09-01T07:14:27.000Z</time>
      </trkpt>
      <trkpt lat="43.0734" lon="5.86049">
        <ele>74</ele>
        <time>2020-09-01T07:14:28.000Z</time>
      </trkpt>
      <trkpt lat="43.07351" lon="5.86062">
        <ele>73.599998474121</ele>
        <time>2020-09-01T07:14:32.000Z</time>
      </trkpt>
      <trkpt lat="43.07352" lon="5.86066">
        <ele>73.599998474121</ele>
        <time>2020-09-01T07:14:33.000Z</time>
      </trkpt>
      <trkpt lat="43.07356" lon="5.86082">
        <ele>73.800003051758</ele>
        <time>2020-09-01T07:14:37.000Z</time>
      </trkpt>
      <trkpt lat="43.0736" lon="5.8609">
        <ele>73.800003051758</ele>
        <time>2020-09-01T07:14:39.000Z</time>
      </trkpt>
      <trkpt lat="43.0736" lon="5.86099">
        <ele>74</ele>
        <time>2020-09-01T07:14:41.000Z</time>
      </trkpt>
      <trkpt lat="43.07356" lon="5.86122">
        <ele>75.400001525879</ele>
        <time>2020-09-01T07:14:46.000Z</time>
      </trkpt>
      <trkpt lat="43.07346" lon="5.86136">
        <ele>76.400001525879</ele>
        <time>2020-09-01T07:14:50.000Z</time>
      </trkpt>
      <trkpt lat="43.07343" lon="5.86139">
        <ele>76.599998474121</ele>
        <time>2020-09-01T07:14:51.000Z</time>
      </trkpt>
      <trkpt lat="43.07336" lon="5.86146">
        <ele>77</ele>
        <time>2020-09-01T07:14:53.000Z</time>
      </trkpt>
      <trkpt lat="43.07329" lon="5.86153">
        <ele>77.400001525879</ele>
        <time>2020-09-01T07:14:55.000Z</time>
      </trkpt>
      <trkpt lat="43.07325" lon="5.86155">
        <ele>77.400001525879</ele>
        <time>2020-09-01T07:14:56.000Z</time>
      </trkpt>
      <trkpt lat="43.07322" lon="5.86158">
        <ele>77.599998474121</ele>
        <time>2020-09-01T07:14:57.000Z</time>
      </trkpt>
      <trkpt lat="43.07315" lon="5.86164">
        <ele>77.800003051758</ele>
        <time>2020-09-01T07:14:59.000Z</time>
      </trkpt>
      <trkpt lat="43.07311" lon="5.86167">
        <ele>78</ele>
        <time>2020-09-01T07:15:00.000Z</time>
      </trkpt>
      <trkpt lat="43.07301" lon="5.8618">
        <ele>78.800003051758</ele>
        <time>2020-09-01T07:15:04.000Z</time>
      </trkpt>
      <trkpt lat="43.07295" lon="5.86188">
        <ele>79</ele>
        <time>2020-09-01T07:15:06.000Z</time>
      </trkpt>
      <trkpt lat="43.07281" lon="5.86204">
        <ele>79.400001525879</ele>
        <time>2020-09-01T07:15:11.000Z</time>
      </trkpt>
      <trkpt lat="43.07271" lon="5.86221">
        <ele>79.800003051758</ele>
        <time>2020-09-01T07:15:15.000Z</time>
      </trkpt>
      <trkpt lat="43.07268" lon="5.86228">
        <ele>80</ele>
        <time>2020-09-01T07:15:17.000Z</time>
      </trkpt>
      <trkpt lat="43.07263" lon="5.86232">
        <ele>80.199996948242</ele>
        <time>2020-09-01T07:15:19.000Z</time>
      </trkpt>
      <trkpt lat="43.0726" lon="5.86246">
        <ele>80.400001525879</ele>
        <time>2020-09-01T07:15:22.000Z</time>
      </trkpt>
      <trkpt lat="43.07254" lon="5.86255">
        <ele>80.599998474121</ele>
        <time>2020-09-01T07:15:24.000Z</time>
      </trkpt>
      <trkpt lat="43.07251" lon="5.86259">
        <ele>80.800003051758</ele>
        <time>2020-09-01T07:15:25.000Z</time>
      </trkpt>
      <trkpt lat="43.07246" lon="5.86268">
        <ele>81</ele>
        <time>2020-09-01T07:15:27.000Z</time>
      </trkpt>
      <trkpt lat="43.07239" lon="5.86275">
        <ele>81</ele>
        <time>2020-09-01T07:15:29.000Z</time>
      </trkpt>
      <trkpt lat="43.07232" lon="5.86288">
        <ele>81</ele>
        <time>2020-09-01T07:15:32.000Z</time>
      </trkpt>
      <trkpt lat="43.07229" lon="5.86293">
        <ele>80.800003051758</ele>
        <time>2020-09-01T07:15:33.000Z</time>
      </trkpt>
      <trkpt lat="43.07224" lon="5.86304">
        <ele>81</ele>
        <time>2020-09-01T07:15:35.000Z</time>
      </trkpt>
      <trkpt lat="43.07218" lon="5.86312">
        <ele>80.599998474121</ele>
        <time>2020-09-01T07:15:37.000Z</time>
      </trkpt>
      <trkpt lat="43.07211" lon="5.86319">
        <ele>80.599998474121</ele>
        <time>2020-09-01T07:15:39.000Z</time>
      </trkpt>
      <trkpt lat="43.07208" lon="5.86333">
        <ele>80.400001525879</ele>
        <time>2020-09-01T07:15:42.000Z</time>
      </trkpt>
      <trkpt lat="43.07208" lon="5.86339">
        <ele>80.400001525879</ele>
        <time>2020-09-01T07:15:43.000Z</time>
      </trkpt>
      <trkpt lat="43.07207" lon="5.86359">
        <ele>81.599998474121</ele>
        <time>2020-09-01T07:15:47.000Z</time>
      </trkpt>
      <trkpt lat="43.07207" lon="5.86365">
        <ele>82.199996948242</ele>
        <time>2020-09-01T07:15:48.000Z</time>
      </trkpt>
      <trkpt lat="43.07206" lon="5.86376">
        <ele>82.599998474121</ele>
        <time>2020-09-01T07:15:50.000Z</time>
      </trkpt>
      <trkpt lat="43.07207" lon="5.86386">
        <ele>83.199996948242</ele>
        <time>2020-09-01T07:15:52.000Z</time>
      </trkpt>
      <trkpt lat="43.07209" lon="5.864">
        <ele>84</ele>
        <time>2020-09-01T07:15:55.000Z</time>
      </trkpt>
      <trkpt lat="43.0721" lon="5.86405">
        <ele>84.400001525879</ele>
        <time>2020-09-01T07:15:56.000Z</time>
      </trkpt>
      <trkpt lat="43.07212" lon="5.86412">
        <ele>85.199996948242</ele>
        <time>2020-09-01T07:15:58.000Z</time>
      </trkpt>
      <trkpt lat="43.07214" lon="5.86415">
        <ele>85.599998474121</ele>
        <time>2020-09-01T07:15:59.000Z</time>
      </trkpt>
      <trkpt lat="43.07221" lon="5.86424">
        <ele>86.599998474121</ele>
        <time>2020-09-01T07:16:02.000Z</time>
      </trkpt>
      <trkpt lat="43.07224" lon="5.86426">
        <ele>87</ele>
        <time>2020-09-01T07:16:03.000Z</time>
      </trkpt>
      <trkpt lat="43.07229" lon="5.86431">
        <ele>87.800003051758</ele>
        <time>2020-09-01T07:16:05.000Z</time>
      </trkpt>
      <trkpt lat="43.07239" lon="5.86437">
        <ele>89</ele>
        <time>2020-09-01T07:16:08.000Z</time>
      </trkpt>
      <trkpt lat="43.07241" lon="5.86441">
        <ele>89.400001525879</ele>
        <time>2020-09-01T07:16:09.000Z</time>
      </trkpt>
      <trkpt lat="43.07247" lon="5.86447">
        <ele>90.400001525879</ele>
        <time>2020-09-01T07:16:11.000Z</time>
      </trkpt>
      <trkpt lat="43.07253" lon="5.86452">
        <ele>91.400001525879</ele>
        <time>2020-09-01T07:16:14.000Z</time>
      </trkpt>
      <trkpt lat="43.07258" lon="5.86465">
        <ele>92.599998474121</ele>
        <time>2020-09-01T07:16:18.000Z</time>
      </trkpt>
      <trkpt lat="43.07259" lon="5.86488">
        <ele>93.400001525879</ele>
        <time>2020-09-01T07:16:23.000Z</time>
      </trkpt>
      <trkpt lat="43.07257" lon="5.86491">
        <ele>93.599998474121</ele>
        <time>2020-09-01T07:16:24.000Z</time>
      </trkpt>
      <trkpt lat="43.07256" lon="5.86503">
        <ele>94</ele>
        <time>2020-09-01T07:16:26.000Z</time>
      </trkpt>
      <trkpt lat="43.07261" lon="5.86514">
        <ele>94.400001525879</ele>
        <time>2020-09-01T07:16:29.000Z</time>
      </trkpt>
      <trkpt lat="43.07264" lon="5.86517">
        <ele>94.199996948242</ele>
        <time>2020-09-01T07:16:30.000Z</time>
      </trkpt>
      <trkpt lat="43.07267" lon="5.86524">
        <ele>94.599998474121</ele>
        <time>2020-09-01T07:16:33.000Z</time>
      </trkpt>
      <trkpt lat="43.07267" lon="5.86528">
        <ele>95</ele>
        <time>2020-09-01T07:16:34.000Z</time>
      </trkpt>
      <trkpt lat="43.07268" lon="5.8654">
        <ele>96.400001525879</ele>
        <time>2020-09-01T07:16:37.000Z</time>
      </trkpt>
      <trkpt lat="43.07266" lon="5.86543">
        <ele>96.599998474121</ele>
        <time>2020-09-01T07:16:38.000Z</time>
      </trkpt>
      <trkpt lat="43.07263" lon="5.86555">
        <ele>97.400001525879</ele>
        <time>2020-09-01T07:16:42.000Z</time>
      </trkpt>
      <trkpt lat="43.07263" lon="5.86565">
        <ele>98</ele>
        <time>2020-09-01T07:16:45.000Z</time>
      </trkpt>
      <trkpt lat="43.07263" lon="5.86569">
        <ele>98.599998474121</ele>
        <time>2020-09-01T07:16:46.000Z</time>
      </trkpt>
      <trkpt lat="43.07262" lon="5.86584">
        <ele>100</ele>
        <time>2020-09-01T07:16:49.000Z</time>
      </trkpt>
      <trkpt lat="43.07263" lon="5.86595">
        <ele>100.19999694824</ele>
        <time>2020-09-01T07:16:51.000Z</time>
      </trkpt>
      <trkpt lat="43.07264" lon="5.86598">
        <ele>100.19999694824</ele>
        <time>2020-09-01T07:16:52.000Z</time>
      </trkpt>
      <trkpt lat="43.07266" lon="5.86603">
        <ele>100.59999847412</ele>
        <time>2020-09-01T07:16:54.000Z</time>
      </trkpt>
      <trkpt lat="43.07266" lon="5.86608">
        <ele>101</ele>
        <time>2020-09-01T07:16:56.000Z</time>
      </trkpt>
      <trkpt lat="43.0727" lon="5.86611">
        <ele>101.19999694824</ele>
        <time>2020-09-01T07:16:58.000Z</time>
      </trkpt>
      <trkpt lat="43.07272" lon="5.86624">
        <ele>101.40000152588</ele>
        <time>2020-09-01T07:17:02.000Z</time>
      </trkpt>
      <trkpt lat="43.07268" lon="5.86629">
        <ele>101</ele>
        <time>2020-09-01T07:17:04.000Z</time>
      </trkpt>
      <trkpt lat="43.07266" lon="5.86633">
        <ele>99.800003051758</ele>
        <time>2020-09-01T07:17:06.000Z</time>
      </trkpt>
      <trkpt lat="43.07265" lon="5.86634">
        <ele>98.599998474121</ele>
        <time>2020-09-01T07:17:09.000Z</time>
      </trkpt>
      <trkpt lat="43.07265" lon="5.86635">
        <ele>98.400001525879</ele>
        <time>2020-09-01T07:17:10.000Z</time>
      </trkpt>
      <trkpt lat="43.07262" lon="5.86649">
        <ele>98</ele>
        <time>2020-09-01T07:17:14.000Z</time>
      </trkpt>
      <trkpt lat="43.07262" lon="5.8665">
        <ele>97.400001525879</ele>
        <time>2020-09-01T07:17:16.000Z</time>
      </trkpt>
      <trkpt lat="43.07263" lon="5.8665">
        <ele>97</ele>
        <time>2020-09-01T07:17:17.000Z</time>
      </trkpt>
      <trkpt lat="43.07263" lon="5.86651">
        <ele>96.199996948242</ele>
        <time>2020-09-01T07:17:19.000Z</time>
      </trkpt>
      <trkpt lat="43.07263" lon="5.86653">
        <ele>95.599998474121</ele>
        <time>2020-09-01T07:17:27.000Z</time>
      </trkpt>
      <trkpt lat="43.07271" lon="5.86656">
        <ele>95.599998474121</ele>
        <time>2020-09-01T07:17:31.000Z</time>
      </trkpt>
      <trkpt lat="43.07286" lon="5.86664">
        <ele>95.199996948242</ele>
        <time>2020-09-01T07:17:35.000Z</time>
      </trkpt>
      <trkpt lat="43.07297" lon="5.86679">
        <ele>93.800003051758</ele>
        <time>2020-09-01T07:17:39.000Z</time>
      </trkpt>
      <trkpt lat="43.07307" lon="5.86694">
        <ele>92.599998474121</ele>
        <time>2020-09-01T07:17:42.000Z</time>
      </trkpt>
      <trkpt lat="43.0731" lon="5.86699">
        <ele>92</ele>
        <time>2020-09-01T07:17:43.000Z</time>
      </trkpt>
      <trkpt lat="43.07315" lon="5.86702">
        <ele>91.800003051758</ele>
        <time>2020-09-01T07:17:44.000Z</time>
      </trkpt>
      <trkpt lat="43.07324" lon="5.86706">
        <ele>91.199996948242</ele>
        <time>2020-09-01T07:17:46.000Z</time>
      </trkpt>
      <trkpt lat="43.07339" lon="5.86713">
        <ele>90.400001525879</ele>
        <time>2020-09-01T07:17:50.000Z</time>
      </trkpt>
      <trkpt lat="43.07344" lon="5.86714">
        <ele>90.599998474121</ele>
        <time>2020-09-01T07:17:51.000Z</time>
      </trkpt>
      <trkpt lat="43.07348" lon="5.86716">
        <ele>90.400001525879</ele>
        <time>2020-09-01T07:17:52.000Z</time>
      </trkpt>
      <trkpt lat="43.07358" lon="5.86719">
        <ele>90.400001525879</ele>
        <time>2020-09-01T07:17:54.000Z</time>
      </trkpt>
      <trkpt lat="43.07369" lon="5.86721">
        <ele>90.599998474121</ele>
        <time>2020-09-01T07:17:56.000Z</time>
      </trkpt>
      <trkpt lat="43.07378" lon="5.86724">
        <ele>90.599998474121</ele>
        <time>2020-09-01T07:17:58.000Z</time>
      </trkpt>
      <trkpt lat="43.07383" lon="5.86728">
        <ele>90.800003051758</ele>
        <time>2020-09-01T07:17:59.000Z</time>
      </trkpt>
      <trkpt lat="43.07393" lon="5.8674">
        <ele>91.400001525879</ele>
        <time>2020-09-01T07:18:02.000Z</time>
      </trkpt>
      <trkpt lat="43.07404" lon="5.86757">
        <ele>91.800003051758</ele>
        <time>2020-09-01T07:18:06.000Z</time>
      </trkpt>
      <trkpt lat="43.07419" lon="5.86765">
        <ele>90.800003051758</ele>
        <time>2020-09-01T07:18:10.000Z</time>
      </trkpt>
      <trkpt lat="43.07428" lon="5.86779">
        <ele>89.400001525879</ele>
        <time>2020-09-01T07:18:13.000Z</time>
      </trkpt>
      <trkpt lat="43.07434" lon="5.86777">
        <ele>87.199996948242</ele>
        <time>2020-09-01T07:18:15.000Z</time>
      </trkpt>
      <trkpt lat="43.07438" lon="5.86774">
        <ele>85.599998474121</ele>
        <time>2020-09-01T07:18:16.000Z</time>
      </trkpt>
      <trkpt lat="43.07447" lon="5.86771">
        <ele>84.199996948242</ele>
        <time>2020-09-01T07:18:18.000Z</time>
      </trkpt>
      <trkpt lat="43.07451" lon="5.86769">
        <ele>83.800003051758</ele>
        <time>2020-09-01T07:18:19.000Z</time>
      </trkpt>
      <trkpt lat="43.07461" lon="5.86765">
        <ele>83</ele>
        <time>2020-09-01T07:18:21.000Z</time>
      </trkpt>
      <trkpt lat="43.07472" lon="5.86761">
        <ele>81.599998474121</ele>
        <time>2020-09-01T07:18:23.000Z</time>
      </trkpt>
      <trkpt lat="43.07483" lon="5.86763">
        <ele>80.400001525879</ele>
        <time>2020-09-01T07:18:25.000Z</time>
      </trkpt>
      <trkpt lat="43.07498" lon="5.8677">
        <ele>79.199996948242</ele>
        <time>2020-09-01T07:18:28.000Z</time>
      </trkpt>
      <trkpt lat="43.07507" lon="5.86776">
        <ele>78.599998474121</ele>
        <time>2020-09-01T07:18:30.000Z</time>
      </trkpt>
      <trkpt lat="43.07507" lon="5.86786">
        <ele>78.199996948242</ele>
        <time>2020-09-01T07:18:32.000Z</time>
      </trkpt>
      <trkpt lat="43.07507" lon="5.86792">
        <ele>78.199996948242</ele>
        <time>2020-09-01T07:18:33.000Z</time>
      </trkpt>
      <trkpt lat="43.07508" lon="5.86802">
        <ele>77.199996948242</ele>
        <time>2020-09-01T07:18:35.000Z</time>
      </trkpt>
      <trkpt lat="43.07508" lon="5.86807">
        <ele>76.199996948242</ele>
        <time>2020-09-01T07:18:36.000Z</time>
      </trkpt>
      <trkpt lat="43.07511" lon="5.86814">
        <ele>74.400001525879</ele>
        <time>2020-09-01T07:18:38.000Z</time>
      </trkpt>
      <trkpt lat="43.07512" lon="5.86817">
        <ele>73.599998474121</ele>
        <time>2020-09-01T07:18:39.000Z</time>
      </trkpt>
      <trkpt lat="43.07513" lon="5.86819">
        <ele>73</ele>
        <time>2020-09-01T07:18:40.000Z</time>
      </trkpt>
      <trkpt lat="43.07517" lon="5.86827">
        <ele>72</ele>
        <time>2020-09-01T07:18:42.000Z</time>
      </trkpt>
      <trkpt lat="43.07519" lon="5.86833">
        <ele>71</ele>
        <time>2020-09-01T07:18:44.000Z</time>
      </trkpt>
      <trkpt lat="43.07516" lon="5.86838">
        <ele>69.599998474121</ele>
        <time>2020-09-01T07:18:46.000Z</time>
      </trkpt>
      <trkpt lat="43.07508" lon="5.86839">
        <ele>68.800003051758</ele>
        <time>2020-09-01T07:18:48.000Z</time>
      </trkpt>
      <trkpt lat="43.07505" lon="5.8684">
        <ele>68</ele>
        <time>2020-09-01T07:18:49.000Z</time>
      </trkpt>
      <trkpt lat="43.07503" lon="5.86843">
        <ele>66.800003051758</ele>
        <time>2020-09-01T07:18:50.000Z</time>
      </trkpt>
      <trkpt lat="43.07504" lon="5.8685">
        <ele>64.800003051758</ele>
        <time>2020-09-01T07:18:52.000Z</time>
      </trkpt>
      <trkpt lat="43.07507" lon="5.86857">
        <ele>62.799999237061</ele>
        <time>2020-09-01T07:18:54.000Z</time>
      </trkpt>
      <trkpt lat="43.07512" lon="5.86867">
        <ele>62</ele>
        <time>2020-09-01T07:18:56.000Z</time>
      </trkpt>
      <trkpt lat="43.07513" lon="5.86872">
        <ele>61.400001525879</ele>
        <time>2020-09-01T07:18:57.000Z</time>
      </trkpt>
      <trkpt lat="43.07513" lon="5.86876">
        <ele>60.400001525879</ele>
        <time>2020-09-01T07:18:58.000Z</time>
      </trkpt>
      <trkpt lat="43.07515" lon="5.86877">
        <ele>60.200000762939</ele>
        <time>2020-09-01T07:18:59.000Z</time>
      </trkpt>
      <trkpt lat="43.0752" lon="5.86883">
        <ele>58.599998474121</ele>
        <time>2020-09-01T07:19:01.000Z</time>
      </trkpt>
      <trkpt lat="43.07525" lon="5.86885">
        <ele>58</ele>
        <time>2020-09-01T07:19:02.000Z</time>
      </trkpt>
      <trkpt lat="43.0753" lon="5.86887">
        <ele>57.599998474121</ele>
        <time>2020-09-01T07:19:03.000Z</time>
      </trkpt>
      <trkpt lat="43.07541" lon="5.86886">
        <ele>56.400001525879</ele>
        <time>2020-09-01T07:19:05.000Z</time>
      </trkpt>
      <trkpt lat="43.07546" lon="5.86885">
        <ele>55.799999237061</ele>
        <time>2020-09-01T07:19:06.000Z</time>
      </trkpt>
      <trkpt lat="43.07551" lon="5.86884">
        <ele>55.200000762939</ele>
        <time>2020-09-01T07:19:07.000Z</time>
      </trkpt>
      <trkpt lat="43.07559" lon="5.86878">
        <ele>54.200000762939</ele>
        <time>2020-09-01T07:19:09.000Z</time>
      </trkpt>
      <trkpt lat="43.07564" lon="5.86876">
        <ele>54</ele>
        <time>2020-09-01T07:19:10.000Z</time>
      </trkpt>
      <trkpt lat="43.07568" lon="5.86877">
        <ele>53.799999237061</ele>
        <time>2020-09-01T07:19:11.000Z</time>
      </trkpt>
      <trkpt lat="43.07572" lon="5.86878">
        <ele>53.799999237061</ele>
        <time>2020-09-01T07:19:12.000Z</time>
      </trkpt>
      <trkpt lat="43.07583" lon="5.86887">
        <ele>53.400001525879</ele>
        <time>2020-09-01T07:19:15.000Z</time>
      </trkpt>
      <trkpt lat="43.07587" lon="5.86886">
        <ele>53</ele>
        <time>2020-09-01T07:19:16.000Z</time>
      </trkpt>
      <trkpt lat="43.07591" lon="5.86883">
        <ele>52.400001525879</ele>
        <time>2020-09-01T07:19:17.000Z</time>
      </trkpt>
      <trkpt lat="43.07596" lon="5.86881">
        <ele>51.799999237061</ele>
        <time>2020-09-01T07:19:18.000Z</time>
      </trkpt>
      <trkpt lat="43.076" lon="5.86879">
        <ele>51.599998474121</ele>
        <time>2020-09-01T07:19:19.000Z</time>
      </trkpt>
      <trkpt lat="43.07604" lon="5.86875">
        <ele>51</ele>
        <time>2020-09-01T07:19:20.000Z</time>
      </trkpt>
      <trkpt lat="43.07608" lon="5.86871">
        <ele>50.799999237061</ele>
        <time>2020-09-01T07:19:21.000Z</time>
      </trkpt>
      <trkpt lat="43.07623" lon="5.86856">
        <ele>50.400001525879</ele>
        <time>2020-09-01T07:19:25.000Z</time>
      </trkpt>
      <trkpt lat="43.07633" lon="5.86842">
        <ele>49.799999237061</ele>
        <time>2020-09-01T07:19:28.000Z</time>
      </trkpt>
      <trkpt lat="43.07637" lon="5.86832">
        <ele>49.599998474121</ele>
        <time>2020-09-01T07:19:30.000Z</time>
      </trkpt>
      <trkpt lat="43.0764" lon="5.86822">
        <ele>50.200000762939</ele>
        <time>2020-09-01T07:19:32.000Z</time>
      </trkpt>
      <trkpt lat="43.07645" lon="5.86815">
        <ele>50.799999237061</ele>
        <time>2020-09-01T07:19:34.000Z</time>
      </trkpt>
      <trkpt lat="43.07648" lon="5.86812">
        <ele>51</ele>
        <time>2020-09-01T07:19:35.000Z</time>
      </trkpt>
      <trkpt lat="43.07656" lon="5.86806">
        <ele>50.799999237061</ele>
        <time>2020-09-01T07:19:37.000Z</time>
      </trkpt>
      <trkpt lat="43.0766" lon="5.86804">
        <ele>50.799999237061</ele>
        <time>2020-09-01T07:19:38.000Z</time>
      </trkpt>
      <trkpt lat="43.07665" lon="5.86804">
        <ele>50.799999237061</ele>
        <time>2020-09-01T07:19:39.000Z</time>
      </trkpt>
      <trkpt lat="43.07669" lon="5.868">
        <ele>50.799999237061</ele>
        <time>2020-09-01T07:19:41.000Z</time>
      </trkpt>
      <trkpt lat="43.07674" lon="5.86791">
        <ele>51</ele>
        <time>2020-09-01T07:19:43.000Z</time>
      </trkpt>
      <trkpt lat="43.07676" lon="5.86786">
        <ele>51.200000762939</ele>
        <time>2020-09-01T07:19:44.000Z</time>
      </trkpt>
      <trkpt lat="43.07679" lon="5.86771">
        <ele>52</ele>
        <time>2020-09-01T07:19:47.000Z</time>
      </trkpt>
      <trkpt lat="43.07679" lon="5.86767">
        <ele>52.200000762939</ele>
        <time>2020-09-01T07:19:48.000Z</time>
      </trkpt>
      <trkpt lat="43.07684" lon="5.86758">
        <ele>52.599998474121</ele>
        <time>2020-09-01T07:19:50.000Z</time>
      </trkpt>
      <trkpt lat="43.07688" lon="5.86756">
        <ele>52.599998474121</ele>
        <time>2020-09-01T07:19:51.000Z</time>
      </trkpt>
      <trkpt lat="43.07694" lon="5.86745">
        <ele>52.400001525879</ele>
        <time>2020-09-01T07:19:54.000Z</time>
      </trkpt>
      <trkpt lat="43.07704" lon="5.86734">
        <ele>51.799999237061</ele>
        <time>2020-09-01T07:19:57.000Z</time>
      </trkpt>
      <trkpt lat="43.07707" lon="5.86731">
        <ele>52</ele>
        <time>2020-09-01T07:19:58.000Z</time>
      </trkpt>
      <trkpt lat="43.07718" lon="5.86723">
        <ele>52.799999237061</ele>
        <time>2020-09-01T07:20:01.000Z</time>
      </trkpt>
      <trkpt lat="43.07722" lon="5.86721">
        <ele>53</ele>
        <time>2020-09-01T07:20:02.000Z</time>
      </trkpt>
      <trkpt lat="43.07736" lon="5.86712">
        <ele>52.599998474121</ele>
        <time>2020-09-01T07:20:05.000Z</time>
      </trkpt>
      <trkpt lat="43.07739" lon="5.86708">
        <ele>52.400001525879</ele>
        <time>2020-09-01T07:20:06.000Z</time>
      </trkpt>
      <trkpt lat="43.07748" lon="5.86697">
        <ele>52.799999237061</ele>
        <time>2020-09-01T07:20:09.000Z</time>
      </trkpt>
      <trkpt lat="43.07765" lon="5.8669">
        <ele>54.200000762939</ele>
        <time>2020-09-01T07:20:13.000Z</time>
      </trkpt>
      <trkpt lat="43.07775" lon="5.86687">
        <ele>53.799999237061</ele>
        <time>2020-09-01T07:20:15.000Z</time>
      </trkpt>
      <trkpt lat="43.07784" lon="5.86682">
        <ele>53.400001525879</ele>
        <time>2020-09-01T07:20:17.000Z</time>
      </trkpt>
      <trkpt lat="43.07788" lon="5.86678">
        <ele>53.400001525879</ele>
        <time>2020-09-01T07:20:18.000Z</time>
      </trkpt>
      <trkpt lat="43.07795" lon="5.8667">
        <ele>53</ele>
        <time>2020-09-01T07:20:20.000Z</time>
      </trkpt>
      <trkpt lat="43.07798" lon="5.86665">
        <ele>53</ele>
        <time>2020-09-01T07:20:21.000Z</time>
      </trkpt>
      <trkpt lat="43.07805" lon="5.86658">
        <ele>53.200000762939</ele>
        <time>2020-09-01T07:20:23.000Z</time>
      </trkpt>
      <trkpt lat="43.0782" lon="5.86652">
        <ele>52.599998474121</ele>
        <time>2020-09-01T07:20:27.000Z</time>
      </trkpt>
      <trkpt lat="43.07823" lon="5.86649">
        <ele>52.599998474121</ele>
        <time>2020-09-01T07:20:28.000Z</time>
      </trkpt>
      <trkpt lat="43.07828" lon="5.86646">
        <ele>52.599998474121</ele>
        <time>2020-09-01T07:20:29.000Z</time>
      </trkpt>
      <trkpt lat="43.07836" lon="5.86638">
        <ele>52.799999237061</ele>
        <time>2020-09-01T07:20:31.000Z</time>
      </trkpt>
      <trkpt lat="43.07845" lon="5.86628">
        <ele>52.599998474121</ele>
        <time>2020-09-01T07:20:34.000Z</time>
      </trkpt>
      <trkpt lat="43.07849" lon="5.86625">
        <ele>52.799999237061</ele>
        <time>2020-09-01T07:20:35.000Z</time>
      </trkpt>
      <trkpt lat="43.07861" lon="5.86608">
        <ele>52.799999237061</ele>
        <time>2020-09-01T07:20:39.000Z</time>
      </trkpt>
      <trkpt lat="43.07866" lon="5.86598">
        <ele>52.799999237061</ele>
        <time>2020-09-01T07:20:41.000Z</time>
      </trkpt>
      <trkpt lat="43.07875" lon="5.86581">
        <ele>53.200000762939</ele>
        <time>2020-09-01T07:20:44.000Z</time>
      </trkpt>
      <trkpt lat="43.07883" lon="5.86564">
        <ele>53.599998474121</ele>
        <time>2020-09-01T07:20:47.000Z</time>
      </trkpt>
      <trkpt lat="43.07888" lon="5.86555">
        <ele>53.799999237061</ele>
        <time>2020-09-01T07:20:49.000Z</time>
      </trkpt>
      <trkpt lat="43.07896" lon="5.86534">
        <ele>53.599998474121</ele>
        <time>2020-09-01T07:20:53.000Z</time>
      </trkpt>
      <trkpt lat="43.07904" lon="5.86513">
        <ele>54</ele>
        <time>2020-09-01T07:20:57.000Z</time>
      </trkpt>
      <trkpt lat="43.07907" lon="5.86502">
        <ele>54.200000762939</ele>
        <time>2020-09-01T07:20:59.000Z</time>
      </trkpt>
      <trkpt lat="43.07912" lon="5.86485">
        <ele>54.400001525879</ele>
        <time>2020-09-01T07:21:02.000Z</time>
      </trkpt>
      <trkpt lat="43.07917" lon="5.86463">
        <ele>55</ele>
        <time>2020-09-01T07:21:06.000Z</time>
      </trkpt>
      <trkpt lat="43.07921" lon="5.86441">
        <ele>55.200000762939</ele>
        <time>2020-09-01T07:21:10.000Z</time>
      </trkpt>
      <trkpt lat="43.07923" lon="5.86436">
        <ele>55</ele>
        <time>2020-09-01T07:21:11.000Z</time>
      </trkpt>
      <trkpt lat="43.0793" lon="5.86428">
        <ele>55</ele>
        <time>2020-09-01T07:21:14.000Z</time>
      </trkpt>
      <trkpt lat="43.0793" lon="5.86412">
        <ele>54</ele>
        <time>2020-09-01T07:21:17.000Z</time>
      </trkpt>
      <trkpt lat="43.0793" lon="5.86393">
        <ele>53.799999237061</ele>
        <time>2020-09-01T07:21:20.000Z</time>
      </trkpt>
      <trkpt lat="43.07931" lon="5.86387">
        <ele>54</ele>
        <time>2020-09-01T07:21:21.000Z</time>
      </trkpt>
      <trkpt lat="43.07937" lon="5.86351">
        <ele>53.799999237061</ele>
        <time>2020-09-01T07:21:28.000Z</time>
      </trkpt>
      <trkpt lat="43.07944" lon="5.86315">
        <ele>54.799999237061</ele>
        <time>2020-09-01T07:21:35.000Z</time>
      </trkpt>
      <trkpt lat="43.07955" lon="5.86276">
        <ele>54.799999237061</ele>
        <time>2020-09-01T07:21:42.000Z</time>
      </trkpt>
      <trkpt lat="43.0796" lon="5.86253">
        <ele>54.799999237061</ele>
        <time>2020-09-01T07:21:46.000Z</time>
      </trkpt>
      <trkpt lat="43.07962" lon="5.86241">
        <ele>54.599998474121</ele>
        <time>2020-09-01T07:21:48.000Z</time>
      </trkpt>
      <trkpt lat="43.07974" lon="5.86189">
        <ele>54.799999237061</ele>
        <time>2020-09-01T07:21:57.000Z</time>
      </trkpt>
      <trkpt lat="43.07975" lon="5.86178">
        <ele>54.799999237061</ele>
        <time>2020-09-01T07:21:59.000Z</time>
      </trkpt>
      <trkpt lat="43.07976" lon="5.86165">
        <ele>55</ele>
        <time>2020-09-01T07:22:01.000Z</time>
      </trkpt>
      <trkpt lat="43.07974" lon="5.86153">
        <ele>54.799999237061</ele>
        <time>2020-09-01T07:22:03.000Z</time>
      </trkpt>
      <trkpt lat="43.0797" lon="5.86142">
        <ele>54.400001525879</ele>
        <time>2020-09-01T07:22:05.000Z</time>
      </trkpt>
      <trkpt lat="43.07965" lon="5.86127">
        <ele>54.200000762939</ele>
        <time>2020-09-01T07:22:08.000Z</time>
      </trkpt>
      <trkpt lat="43.07952" lon="5.86116">
        <ele>54.799999237061</ele>
        <time>2020-09-01T07:22:12.000Z</time>
      </trkpt>
      <trkpt lat="43.07948" lon="5.86117">
        <ele>55.200000762939</ele>
        <time>2020-09-01T07:22:13.000Z</time>
      </trkpt>
      <trkpt lat="43.07945" lon="5.8612">
        <ele>55.400001525879</ele>
        <time>2020-09-01T07:22:14.000Z</time>
      </trkpt>
      <trkpt lat="43.07942" lon="5.86123">
        <ele>55.400001525879</ele>
        <time>2020-09-01T07:22:15.000Z</time>
      </trkpt>
      <trkpt lat="43.07936" lon="5.86129">
        <ele>55.799999237061</ele>
        <time>2020-09-01T07:22:17.000Z</time>
      </trkpt>
      <trkpt lat="43.07929" lon="5.86137">
        <ele>56.599998474121</ele>
        <time>2020-09-01T07:22:20.000Z</time>
      </trkpt>
      <trkpt lat="43.07928" lon="5.86138">
        <ele>57</ele>
        <time>2020-09-01T07:22:21.000Z</time>
      </trkpt>
      <trkpt lat="43.07926" lon="5.8614">
        <ele>58</ele>
        <time>2020-09-01T07:22:23.000Z</time>
      </trkpt>
      <trkpt lat="43.07924" lon="5.86142">
        <ele>59</ele>
        <time>2020-09-01T07:22:25.000Z</time>
      </trkpt>
      <trkpt lat="43.07923" lon="5.86143">
        <ele>59.599998474121</ele>
        <time>2020-09-01T07:22:26.000Z</time>
      </trkpt>
      <trkpt lat="43.0792" lon="5.86144">
        <ele>60.200000762939</ele>
        <time>2020-09-01T07:22:28.000Z</time>
      </trkpt>
      <trkpt lat="43.0792" lon="5.86145">
        <ele>60.200000762939</ele>
        <time>2020-09-01T07:22:29.000Z</time>
      </trkpt>
      <trkpt lat="43.07918" lon="5.86148">
        <ele>60.599998474121</ele>
        <time>2020-09-01T07:22:31.000Z</time>
      </trkpt>
      <trkpt lat="43.07914" lon="5.86151">
        <ele>61.200000762939</ele>
        <time>2020-09-01T07:22:33.000Z</time>
      </trkpt>
      <trkpt lat="43.07908" lon="5.86157">
        <ele>62</ele>
        <time>2020-09-01T07:22:36.000Z</time>
      </trkpt>
      <trkpt lat="43.07906" lon="5.86159">
        <ele>62.400001525879</ele>
        <time>2020-09-01T07:22:37.000Z</time>
      </trkpt>
      <trkpt lat="43.07903" lon="5.86166">
        <ele>63</ele>
        <time>2020-09-01T07:22:39.000Z</time>
      </trkpt>
      <trkpt lat="43.07902" lon="5.8617">
        <ele>63.599998474121</ele>
        <time>2020-09-01T07:22:40.000Z</time>
      </trkpt>
      <trkpt lat="43.079" lon="5.86175">
        <ele>64</ele>
        <time>2020-09-01T07:22:41.000Z</time>
      </trkpt>
      <trkpt lat="43.07896" lon="5.86185">
        <ele>65</ele>
        <time>2020-09-01T07:22:43.000Z</time>
      </trkpt>
      <trkpt lat="43.07891" lon="5.86193">
        <ele>66</ele>
        <time>2020-09-01T07:22:45.000Z</time>
      </trkpt>
      <trkpt lat="43.07889" lon="5.86196">
        <ele>66.199996948242</ele>
        <time>2020-09-01T07:22:46.000Z</time>
      </trkpt>
      <trkpt lat="43.07878" lon="5.86218">
        <ele>67</ele>
        <time>2020-09-01T07:22:51.000Z</time>
      </trkpt>
      <trkpt lat="43.07876" lon="5.86221">
        <ele>67</ele>
        <time>2020-09-01T07:22:52.000Z</time>
      </trkpt>
      <trkpt lat="43.07863" lon="5.86232">
        <ele>68.199996948242</ele>
        <time>2020-09-01T07:22:57.000Z</time>
      </trkpt>
      <trkpt lat="43.07851" lon="5.86224">
        <ele>69.400001525879</ele>
        <time>2020-09-01T07:23:01.000Z</time>
      </trkpt>
      <trkpt lat="43.0784" lon="5.86219">
        <ele>70</ele>
        <time>2020-09-01T07:23:05.000Z</time>
      </trkpt>
      <trkpt lat="43.07831" lon="5.86218">
        <ele>70.400001525879</ele>
        <time>2020-09-01T07:23:08.000Z</time>
      </trkpt>
      <trkpt lat="43.07824" lon="5.86219">
        <ele>70.800003051758</ele>
        <time>2020-09-01T07:23:10.000Z</time>
      </trkpt>
      <trkpt lat="43.07807" lon="5.86221">
        <ele>71.599998474121</ele>
        <time>2020-09-01T07:23:15.000Z</time>
      </trkpt>
      <trkpt lat="43.078" lon="5.86224">
        <ele>72.199996948242</ele>
        <time>2020-09-01T07:23:17.000Z</time>
      </trkpt>
      <trkpt lat="43.07796" lon="5.86229">
        <ele>72.800003051758</ele>
        <time>2020-09-01T07:23:19.000Z</time>
      </trkpt>
      <trkpt lat="43.07792" lon="5.86228">
        <ele>73.199996948242</ele>
        <time>2020-09-01T07:23:20.000Z</time>
      </trkpt>
      <trkpt lat="43.07782" lon="5.86228">
        <ele>73.599998474121</ele>
        <time>2020-09-01T07:23:23.000Z</time>
      </trkpt>
      <trkpt lat="43.07771" lon="5.86228">
        <ele>73.400001525879</ele>
        <time>2020-09-01T07:23:26.000Z</time>
      </trkpt>
      <trkpt lat="43.07762" lon="5.86225">
        <ele>73</ele>
        <time>2020-09-01T07:23:28.000Z</time>
      </trkpt>
      <trkpt lat="43.07744" lon="5.86224">
        <ele>72.199996948242</ele>
        <time>2020-09-01T07:23:32.000Z</time>
      </trkpt>
      <trkpt lat="43.07736" lon="5.86227">
        <ele>71.400001525879</ele>
        <time>2020-09-01T07:23:34.000Z</time>
      </trkpt>
      <trkpt lat="43.07731" lon="5.86227">
        <ele>71</ele>
        <time>2020-09-01T07:23:35.000Z</time>
      </trkpt>
      <trkpt lat="43.07727" lon="5.86228">
        <ele>70.199996948242</ele>
        <time>2020-09-01T07:23:36.000Z</time>
      </trkpt>
      <trkpt lat="43.07724" lon="5.86228">
        <ele>69.599998474121</ele>
        <time>2020-09-01T07:23:37.000Z</time>
      </trkpt>
      <trkpt lat="43.07721" lon="5.86227">
        <ele>69.199996948242</ele>
        <time>2020-09-01T07:23:38.000Z</time>
      </trkpt>
      <trkpt lat="43.07719" lon="5.86225">
        <ele>68.800003051758</ele>
        <time>2020-09-01T07:23:39.000Z</time>
      </trkpt>
      <trkpt lat="43.07709" lon="5.86218">
        <ele>68.599998474121</ele>
        <time>2020-09-01T07:23:42.000Z</time>
      </trkpt>
      <trkpt lat="43.07703" lon="5.86215">
        <ele>68.400001525879</ele>
        <time>2020-09-01T07:23:44.000Z</time>
      </trkpt>
      <trkpt lat="43.07698" lon="5.86211">
        <ele>68.599998474121</ele>
        <time>2020-09-01T07:23:46.000Z</time>
      </trkpt>
      <trkpt lat="43.07692" lon="5.86206">
        <ele>70</ele>
        <time>2020-09-01T07:23:50.000Z</time>
      </trkpt>
      <trkpt lat="43.07689" lon="5.86205">
        <ele>70.199996948242</ele>
        <time>2020-09-01T07:23:51.000Z</time>
      </trkpt>
      <trkpt lat="43.07685" lon="5.86206">
        <ele>71.199996948242</ele>
        <time>2020-09-01T07:23:53.000Z</time>
      </trkpt>
      <trkpt lat="43.07683" lon="5.86206">
        <ele>71.400001525879</ele>
        <time>2020-09-01T07:23:54.000Z</time>
      </trkpt>
      <trkpt lat="43.07679" lon="5.86207">
        <ele>72.199996948242</ele>
        <time>2020-09-01T07:23:56.000Z</time>
      </trkpt>
      <trkpt lat="43.07675" lon="5.86211">
        <ele>73.400001525879</ele>
        <time>2020-09-01T07:23:58.000Z</time>
      </trkpt>
      <trkpt lat="43.07668" lon="5.86211">
        <ele>74.599998474121</ele>
        <time>2020-09-01T07:24:01.000Z</time>
      </trkpt>
      <trkpt lat="43.07666" lon="5.8621">
        <ele>75</ele>
        <time>2020-09-01T07:24:02.000Z</time>
      </trkpt>
      <trkpt lat="43.07665" lon="5.86209">
        <ele>75.599998474121</ele>
        <time>2020-09-01T07:24:03.000Z</time>
      </trkpt>
      <trkpt lat="43.0766" lon="5.86204">
        <ele>77</ele>
        <time>2020-09-01T07:24:06.000Z</time>
      </trkpt>
      <trkpt lat="43.07651" lon="5.86199">
        <ele>78.199996948242</ele>
        <time>2020-09-01T07:24:10.000Z</time>
      </trkpt>
      <trkpt lat="43.07649" lon="5.86198">
        <ele>78.599998474121</ele>
        <time>2020-09-01T07:24:11.000Z</time>
      </trkpt>
      <trkpt lat="43.07648" lon="5.86198">
        <ele>79.400001525879</ele>
        <time>2020-09-01T07:24:12.000Z</time>
      </trkpt>
      <trkpt lat="43.07647" lon="5.86199">
        <ele>80</ele>
        <time>2020-09-01T07:24:13.000Z</time>
      </trkpt>
      <trkpt lat="43.07646" lon="5.862">
        <ele>80.599998474121</ele>
        <time>2020-09-01T07:24:14.000Z</time>
      </trkpt>
      <trkpt lat="43.07644" lon="5.86201">
        <ele>81.400001525879</ele>
        <time>2020-09-01T07:24:15.000Z</time>
      </trkpt>
      <trkpt lat="43.07643" lon="5.86202">
        <ele>82</ele>
        <time>2020-09-01T07:24:16.000Z</time>
      </trkpt>
      <trkpt lat="43.07635" lon="5.86205">
        <ele>83.199996948242</ele>
        <time>2020-09-01T07:24:19.000Z</time>
      </trkpt>
      <trkpt lat="43.07633" lon="5.86206">
        <ele>83.800003051758</ele>
        <time>2020-09-01T07:24:20.000Z</time>
      </trkpt>
      <trkpt lat="43.0763" lon="5.8621">
        <ele>84.599998474121</ele>
        <time>2020-09-01T07:24:22.000Z</time>
      </trkpt>
      <trkpt lat="43.07626" lon="5.86215">
        <ele>85.599998474121</ele>
        <time>2020-09-01T07:24:24.000Z</time>
      </trkpt>
      <trkpt lat="43.07624" lon="5.86218">
        <ele>86</ele>
        <time>2020-09-01T07:24:25.000Z</time>
      </trkpt>
      <trkpt lat="43.07622" lon="5.86222">
        <ele>87</ele>
        <time>2020-09-01T07:24:27.000Z</time>
      </trkpt>
      <trkpt lat="43.0762" lon="5.86225">
        <ele>87.599998474121</ele>
        <time>2020-09-01T07:24:28.000Z</time>
      </trkpt>
      <trkpt lat="43.07619" lon="5.86228">
        <ele>88.400001525879</ele>
        <time>2020-09-01T07:24:29.000Z</time>
      </trkpt>
      <trkpt lat="43.07618" lon="5.86232">
        <ele>89.199996948242</ele>
        <time>2020-09-01T07:24:30.000Z</time>
      </trkpt>
      <trkpt lat="43.07616" lon="5.86235">
        <ele>89.800003051758</ele>
        <time>2020-09-01T07:24:31.000Z</time>
      </trkpt>
      <trkpt lat="43.07614" lon="5.86236">
        <ele>90.400001525879</ele>
        <time>2020-09-01T07:24:32.000Z</time>
      </trkpt>
      <trkpt lat="43.07613" lon="5.86237">
        <ele>90.800003051758</ele>
        <time>2020-09-01T07:24:33.000Z</time>
      </trkpt>
      <trkpt lat="43.07611" lon="5.86242">
        <ele>91.800003051758</ele>
        <time>2020-09-01T07:24:36.000Z</time>
      </trkpt>
      <trkpt lat="43.07611" lon="5.86244">
        <ele>92</ele>
        <time>2020-09-01T07:24:37.000Z</time>
      </trkpt>
      <trkpt lat="43.07606" lon="5.86255">
        <ele>92.400001525879</ele>
        <time>2020-09-01T07:24:41.000Z</time>
      </trkpt>
      <trkpt lat="43.07602" lon="5.86264">
        <ele>92.599998474121</ele>
        <time>2020-09-01T07:24:45.000Z</time>
      </trkpt>
      <trkpt lat="43.076" lon="5.86265">
        <ele>92.599998474121</ele>
        <time>2020-09-01T07:24:46.000Z</time>
      </trkpt>
      <trkpt lat="43.07598" lon="5.86264">
        <ele>92.800003051758</ele>
        <time>2020-09-01T07:24:48.000Z</time>
      </trkpt>
      <trkpt lat="43.0759" lon="5.86262">
        <ele>92.400001525879</ele>
        <time>2020-09-01T07:24:52.000Z</time>
      </trkpt>
      <trkpt lat="43.07584" lon="5.86259">
        <ele>91.599998474121</ele>
        <time>2020-09-01T07:24:55.000Z</time>
      </trkpt>
      <trkpt lat="43.07581" lon="5.86258">
        <ele>91</ele>
        <time>2020-09-01T07:24:56.000Z</time>
      </trkpt>
      <trkpt lat="43.07578" lon="5.86251">
        <ele>90</ele>
        <time>2020-09-01T07:24:58.000Z</time>
      </trkpt>
      <trkpt lat="43.07571" lon="5.86249">
        <ele>88.800003051758</ele>
        <time>2020-09-01T07:25:00.000Z</time>
      </trkpt>
      <trkpt lat="43.07568" lon="5.86247">
        <ele>88.199996948242</ele>
        <time>2020-09-01T07:25:01.000Z</time>
      </trkpt>
      <trkpt lat="43.07567" lon="5.86245">
        <ele>87.599998474121</ele>
        <time>2020-09-01T07:25:02.000Z</time>
      </trkpt>
      <trkpt lat="43.07562" lon="5.86246">
        <ele>85.800003051758</ele>
        <time>2020-09-01T07:25:04.000Z</time>
      </trkpt>
      <trkpt lat="43.07559" lon="5.86248">
        <ele>84.400001525879</ele>
        <time>2020-09-01T07:25:05.000Z</time>
      </trkpt>
      <trkpt lat="43.07556" lon="5.86247">
        <ele>83</ele>
        <time>2020-09-01T07:25:06.000Z</time>
      </trkpt>
      <trkpt lat="43.07555" lon="5.86247">
        <ele>82</ele>
        <time>2020-09-01T07:25:07.000Z</time>
      </trkpt>
      <trkpt lat="43.07554" lon="5.86248">
        <ele>81</ele>
        <time>2020-09-01T07:25:08.000Z</time>
      </trkpt>
      <trkpt lat="43.07551" lon="5.86252">
        <ele>80.199996948242</ele>
        <time>2020-09-01T07:25:10.000Z</time>
      </trkpt>
      <trkpt lat="43.07549" lon="5.86252">
        <ele>80</ele>
        <time>2020-09-01T07:25:11.000Z</time>
      </trkpt>
      <trkpt lat="43.07544" lon="5.86257">
        <ele>79</ele>
        <time>2020-09-01T07:25:14.000Z</time>
      </trkpt>
      <trkpt lat="43.07542" lon="5.86256">
        <ele>78.800003051758</ele>
        <time>2020-09-01T07:25:15.000Z</time>
      </trkpt>
      <trkpt lat="43.07537" lon="5.8625">
        <ele>78.199996948242</ele>
        <time>2020-09-01T07:25:17.000Z</time>
      </trkpt>
      <trkpt lat="43.07534" lon="5.86245">
        <ele>77.599998474121</ele>
        <time>2020-09-01T07:25:19.000Z</time>
      </trkpt>
      <trkpt lat="43.07532" lon="5.86242">
        <ele>77.599998474121</ele>
        <time>2020-09-01T07:25:20.000Z</time>
      </trkpt>
      <trkpt lat="43.0753" lon="5.8624">
        <ele>77.400001525879</ele>
        <time>2020-09-01T07:25:21.000Z</time>
      </trkpt>
      <trkpt lat="43.07526" lon="5.86236">
        <ele>76.800003051758</ele>
        <time>2020-09-01T07:25:23.000Z</time>
      </trkpt>
      <trkpt lat="43.07525" lon="5.86233">
        <ele>76.599998474121</ele>
        <time>2020-09-01T07:25:24.000Z</time>
      </trkpt>
      <trkpt lat="43.07523" lon="5.86219">
        <ele>77.400001525879</ele>
        <time>2020-09-01T07:25:28.000Z</time>
      </trkpt>
      <trkpt lat="43.07524" lon="5.86214">
        <ele>77.599998474121</ele>
        <time>2020-09-01T07:25:29.000Z</time>
      </trkpt>
      <trkpt lat="43.07523" lon="5.86207">
        <ele>77.599998474121</ele>
        <time>2020-09-01T07:25:30.000Z</time>
      </trkpt>
      <trkpt lat="43.07524" lon="5.86194">
        <ele>77.199996948242</ele>
        <time>2020-09-01T07:25:32.000Z</time>
      </trkpt>
      <trkpt lat="43.0752" lon="5.86165">
        <ele>75.400001525879</ele>
        <time>2020-09-01T07:25:36.000Z</time>
      </trkpt>
      <trkpt lat="43.07515" lon="5.8615">
        <ele>74.199996948242</ele>
        <time>2020-09-01T07:25:39.000Z</time>
      </trkpt>
      <trkpt lat="43.07513" lon="5.86145">
        <ele>74.199996948242</ele>
        <time>2020-09-01T07:25:40.000Z</time>
      </trkpt>
      <trkpt lat="43.07511" lon="5.86141">
        <ele>74</ele>
        <time>2020-09-01T07:25:41.000Z</time>
      </trkpt>
      <trkpt lat="43.07495" lon="5.86126">
        <ele>74</ele>
        <time>2020-09-01T07:25:46.000Z</time>
      </trkpt>
      <trkpt lat="43.07491" lon="5.86124">
        <ele>74.199996948242</ele>
        <time>2020-09-01T07:25:47.000Z</time>
      </trkpt>
      <trkpt lat="43.07478" lon="5.86117">
        <ele>73.599998474121</ele>
        <time>2020-09-01T07:25:50.000Z</time>
      </trkpt>
      <trkpt lat="43.07473" lon="5.86113">
        <ele>73.199996948242</ele>
        <time>2020-09-01T07:25:51.000Z</time>
      </trkpt>
      <trkpt lat="43.07457" lon="5.86107">
        <ele>72.599998474121</ele>
        <time>2020-09-01T07:25:54.000Z</time>
      </trkpt>
      <trkpt lat="43.07453" lon="5.86105">
        <ele>72.599998474121</ele>
        <time>2020-09-01T07:25:55.000Z</time>
      </trkpt>
      <trkpt lat="43.07452" lon="5.86097">
        <ele>72.400001525879</ele>
        <time>2020-09-01T07:25:57.000Z</time>
      </trkpt>
      <trkpt lat="43.07452" lon="5.86093">
        <ele>72.199996948242</ele>
        <time>2020-09-01T07:25:58.000Z</time>
      </trkpt>
      <trkpt lat="43.07451" lon="5.86074">
        <ele>71.599998474121</ele>
        <time>2020-09-01T07:26:01.000Z</time>
      </trkpt>
      <trkpt lat="43.07448" lon="5.86062">
        <ele>70.599998474121</ele>
        <time>2020-09-01T07:26:03.000Z</time>
      </trkpt>
      <trkpt lat="43.0744" lon="5.86053">
        <ele>69.599998474121</ele>
        <time>2020-09-01T07:26:05.000Z</time>
      </trkpt>
      <trkpt lat="43.07429" lon="5.86049">
        <ele>68.400001525879</ele>
        <time>2020-09-01T07:26:08.000Z</time>
      </trkpt>
      <trkpt lat="43.07424" lon="5.8604">
        <ele>68.199996948242</ele>
        <time>2020-09-01T07:26:11.000Z</time>
      </trkpt>
      <trkpt lat="43.07415" lon="5.86034">
        <ele>68.199996948242</ele>
        <time>2020-09-01T07:26:14.000Z</time>
      </trkpt>
      <trkpt lat="43.07417" lon="5.8603">
        <ele>68</ele>
        <time>2020-09-01T07:26:16.000Z</time>
      </trkpt>
      <trkpt lat="43.07431" lon="5.86022">
        <ele>68.599998474121</ele>
        <time>2020-09-01T07:26:20.000Z</time>
      </trkpt>
      <trkpt lat="43.07438" lon="5.86016">
        <ele>68.199996948242</ele>
        <time>2020-09-01T07:26:22.000Z</time>
      </trkpt>
      <trkpt lat="43.0744" lon="5.86008">
        <ele>67.800003051758</ele>
        <time>2020-09-01T07:26:24.000Z</time>
      </trkpt>
      <trkpt lat="43.07441" lon="5.85995">
        <ele>67.400001525879</ele>
        <time>2020-09-01T07:26:26.000Z</time>
      </trkpt>
      <trkpt lat="43.07437" lon="5.85983">
        <ele>67.400001525879</ele>
        <time>2020-09-01T07:26:28.000Z</time>
      </trkpt>
      <trkpt lat="43.07422" lon="5.85962">
        <ele>67.599998474121</ele>
        <time>2020-09-01T07:26:33.000Z</time>
      </trkpt>
      <trkpt lat="43.07416" lon="5.85955">
        <ele>67.800003051758</ele>
        <time>2020-09-01T07:26:35.000Z</time>
      </trkpt>
      <trkpt lat="43.07412" lon="5.85949">
        <ele>68.400001525879</ele>
        <time>2020-09-01T07:26:37.000Z</time>
      </trkpt>
      <trkpt lat="43.074" lon="5.8593">
        <ele>69.400001525879</ele>
        <time>2020-09-01T07:26:42.000Z</time>
      </trkpt>
      <trkpt lat="43.07398" lon="5.85926">
        <ele>69.599998474121</ele>
        <time>2020-09-01T07:26:43.000Z</time>
      </trkpt>
      <trkpt lat="43.07393" lon="5.8591">
        <ele>70</ele>
        <time>2020-09-01T07:26:47.000Z</time>
      </trkpt>
      <trkpt lat="43.07392" lon="5.85898">
        <ele>70.599998474121</ele>
        <time>2020-09-01T07:26:50.000Z</time>
      </trkpt>
      <trkpt lat="43.07391" lon="5.85893">
        <ele>70.800003051758</ele>
        <time>2020-09-01T07:26:51.000Z</time>
      </trkpt>
      <trkpt lat="43.07388" lon="5.8589">
        <ele>71.199996948242</ele>
        <time>2020-09-01T07:26:52.000Z</time>
      </trkpt>
      <trkpt lat="43.07376" lon="5.85882">
        <ele>70.400001525879</ele>
        <time>2020-09-01T07:26:55.000Z</time>
      </trkpt>
      <trkpt lat="43.07366" lon="5.85871">
        <ele>69.599998474121</ele>
        <time>2020-09-01T07:26:58.000Z</time>
      </trkpt>
      <trkpt lat="43.07362" lon="5.85869">
        <ele>69.599998474121</ele>
        <time>2020-09-01T07:26:59.000Z</time>
      </trkpt>
      <trkpt lat="43.07353" lon="5.85863">
        <ele>70.199996948242</ele>
        <time>2020-09-01T07:27:02.000Z</time>
      </trkpt>
      <trkpt lat="43.07349" lon="5.85854">
        <ele>70.599998474121</ele>
        <time>2020-09-01T07:27:04.000Z</time>
      </trkpt>
      <trkpt lat="43.07343" lon="5.85847">
        <ele>70.599998474121</ele>
        <time>2020-09-01T07:27:06.000Z</time>
      </trkpt>
      <trkpt lat="43.07332" lon="5.85834">
        <ele>71.199996948242</ele>
        <time>2020-09-01T07:27:10.000Z</time>
      </trkpt>
      <trkpt lat="43.07329" lon="5.8583">
        <ele>71.599998474121</ele>
        <time>2020-09-01T07:27:11.000Z</time>
      </trkpt>
      <trkpt lat="43.07323" lon="5.85817">
        <ele>72.400001525879</ele>
        <time>2020-09-01T07:27:14.000Z</time>
      </trkpt>
      <trkpt lat="43.07323" lon="5.85812">
        <ele>72.400001525879</ele>
        <time>2020-09-01T07:27:15.000Z</time>
      </trkpt>
      <trkpt lat="43.07322" lon="5.85803">
        <ele>72.599998474121</ele>
        <time>2020-09-01T07:27:17.000Z</time>
      </trkpt>
      <trkpt lat="43.07312" lon="5.85789">
        <ele>71.599998474121</ele>
        <time>2020-09-01T07:27:21.000Z</time>
      </trkpt>
      <trkpt lat="43.07297" lon="5.85784">
        <ele>72</ele>
        <time>2020-09-01T07:27:25.000Z</time>
      </trkpt>
      <trkpt lat="43.07289" lon="5.85783">
        <ele>73</ele>
        <time>2020-09-01T07:27:27.000Z</time>
      </trkpt>
      <trkpt lat="43.07282" lon="5.85782">
        <ele>74.400001525879</ele>
        <time>2020-09-01T07:27:29.000Z</time>
      </trkpt>
      <trkpt lat="43.07277" lon="5.85782">
        <ele>75.400001525879</ele>
        <time>2020-09-01T07:27:30.000Z</time>
      </trkpt>
      <trkpt lat="43.07269" lon="5.85782">
        <ele>76.599998474121</ele>
        <time>2020-09-01T07:27:32.000Z</time>
      </trkpt>
      <trkpt lat="43.07258" lon="5.85779">
        <ele>77.400001525879</ele>
        <time>2020-09-01T07:27:35.000Z</time>
      </trkpt>
      <trkpt lat="43.07254" lon="5.85779">
        <ele>77.800003051758</ele>
        <time>2020-09-01T07:27:36.000Z</time>
      </trkpt>
      <trkpt lat="43.07245" lon="5.85776">
        <ele>79.199996948242</ele>
        <time>2020-09-01T07:27:38.000Z</time>
      </trkpt>
      <trkpt lat="43.07237" lon="5.85775">
        <ele>80</ele>
        <time>2020-09-01T07:27:40.000Z</time>
      </trkpt>
      <trkpt lat="43.07233" lon="5.85775">
        <ele>80.400001525879</ele>
        <time>2020-09-01T07:27:41.000Z</time>
      </trkpt>
      <trkpt lat="43.07229" lon="5.85773">
        <ele>80.800003051758</ele>
        <time>2020-09-01T07:27:42.000Z</time>
      </trkpt>
      <trkpt lat="43.0722" lon="5.8577">
        <ele>81.599998474121</ele>
        <time>2020-09-01T07:27:44.000Z</time>
      </trkpt>
      <trkpt lat="43.07216" lon="5.8577">
        <ele>81.800003051758</ele>
        <time>2020-09-01T07:27:45.000Z</time>
      </trkpt>
      <trkpt lat="43.07201" lon="5.8576">
        <ele>82.800003051758</ele>
        <time>2020-09-01T07:27:49.000Z</time>
      </trkpt>
      <trkpt lat="43.07187" lon="5.85749">
        <ele>84.199996948242</ele>
        <time>2020-09-01T07:27:53.000Z</time>
      </trkpt>
      <trkpt lat="43.07181" lon="5.85744">
        <ele>85</ele>
        <time>2020-09-01T07:27:55.000Z</time>
      </trkpt>
      <trkpt lat="43.07177" lon="5.85742">
        <ele>85.400001525879</ele>
        <time>2020-09-01T07:27:56.000Z</time>
      </trkpt>
      <trkpt lat="43.07169" lon="5.85745">
        <ele>86.199996948242</ele>
        <time>2020-09-01T07:27:59.000Z</time>
      </trkpt>
      <trkpt lat="43.07165" lon="5.85746">
        <ele>86.400001525879</ele>
        <time>2020-09-01T07:28:00.000Z</time>
      </trkpt>
      <trkpt lat="43.07156" lon="5.85752">
        <ele>87.599998474121</ele>
        <time>2020-09-01T07:28:03.000Z</time>
      </trkpt>
      <trkpt lat="43.0715" lon="5.85754">
        <ele>88.599998474121</ele>
        <time>2020-09-01T07:28:05.000Z</time>
      </trkpt>
      <trkpt lat="43.07142" lon="5.85755">
        <ele>90.199996948242</ele>
        <time>2020-09-01T07:28:07.000Z</time>
      </trkpt>
      <trkpt lat="43.07131" lon="5.8576">
        <ele>91.800003051758</ele>
        <time>2020-09-01T07:28:10.000Z</time>
      </trkpt>
      <trkpt lat="43.07121" lon="5.8576">
        <ele>93.199996948242</ele>
        <time>2020-09-01T07:28:13.000Z</time>
      </trkpt>
      <trkpt lat="43.07117" lon="5.85759">
        <ele>93.599998474121</ele>
        <time>2020-09-01T07:28:14.000Z</time>
      </trkpt>
      <trkpt lat="43.07109" lon="5.8576">
        <ele>94.400001525879</ele>
        <time>2020-09-01T07:28:16.000Z</time>
      </trkpt>
      <trkpt lat="43.07101" lon="5.85758">
        <ele>95.199996948242</ele>
        <time>2020-09-01T07:28:18.000Z</time>
      </trkpt>
      <trkpt lat="43.07098" lon="5.85756">
        <ele>95.800003051758</ele>
        <time>2020-09-01T07:28:19.000Z</time>
      </trkpt>
      <trkpt lat="43.07091" lon="5.85751">
        <ele>97</ele>
        <time>2020-09-01T07:28:21.000Z</time>
      </trkpt>
      <trkpt lat="43.07084" lon="5.85748">
        <ele>98.199996948242</ele>
        <time>2020-09-01T07:28:23.000Z</time>
      </trkpt>
      <trkpt lat="43.07077" lon="5.85749">
        <ele>99.400001525879</ele>
        <time>2020-09-01T07:28:25.000Z</time>
      </trkpt>
      <trkpt lat="43.07067" lon="5.85746">
        <ele>100.19999694824</ele>
        <time>2020-09-01T07:28:28.000Z</time>
      </trkpt>
      <trkpt lat="43.07063" lon="5.85742">
        <ele>100.40000152588</ele>
        <time>2020-09-01T07:28:29.000Z</time>
      </trkpt>
      <trkpt lat="43.07052" lon="5.85735">
        <ele>100.40000152588</ele>
        <time>2020-09-01T07:28:31.000Z</time>
      </trkpt>
      <trkpt lat="43.07042" lon="5.85725">
        <ele>99.199996948242</ele>
        <time>2020-09-01T07:28:33.000Z</time>
      </trkpt>
      <trkpt lat="43.07041" lon="5.85719">
        <ele>98.599998474121</ele>
        <time>2020-09-01T07:28:34.000Z</time>
      </trkpt>
      <trkpt lat="43.07042" lon="5.85713">
        <ele>98</ele>
        <time>2020-09-01T07:28:35.000Z</time>
      </trkpt>
      <trkpt lat="43.07045" lon="5.85701">
        <ele>97</ele>
        <time>2020-09-01T07:28:37.000Z</time>
      </trkpt>
      <trkpt lat="43.07046" lon="5.85697">
        <ele>96.599998474121</ele>
        <time>2020-09-01T07:28:38.000Z</time>
      </trkpt>
      <trkpt lat="43.07053" lon="5.85679">
        <ele>97.199996948242</ele>
        <time>2020-09-01T07:28:42.000Z</time>
      </trkpt>
      <trkpt lat="43.0707" lon="5.85649">
        <ele>96.599998474121</ele>
        <time>2020-09-01T07:28:48.000Z</time>
      </trkpt>
      <trkpt lat="43.0708" lon="5.85632">
        <ele>95.599998474121</ele>
        <time>2020-09-01T07:28:52.000Z</time>
      </trkpt>
      <trkpt lat="43.07083" lon="5.85626">
        <ele>95.199996948242</ele>
        <time>2020-09-01T07:28:53.000Z</time>
      </trkpt>
      <trkpt lat="43.07085" lon="5.85615">
        <ele>94.599998474121</ele>
        <time>2020-09-01T07:28:56.000Z</time>
      </trkpt>
      <trkpt lat="43.07084" lon="5.8561">
        <ele>93.800003051758</ele>
        <time>2020-09-01T07:28:58.000Z</time>
      </trkpt>
      <trkpt lat="43.07081" lon="5.85611">
        <ele>94</ele>
        <time>2020-09-01T07:29:00.000Z</time>
      </trkpt>
      <trkpt lat="43.07072" lon="5.85614">
        <ele>95</ele>
        <time>2020-09-01T07:29:03.000Z</time>
      </trkpt>
      <trkpt lat="43.0707" lon="5.85613">
        <ele>95.199996948242</ele>
        <time>2020-09-01T07:29:04.000Z</time>
      </trkpt>
      <trkpt lat="43.07063" lon="5.85605">
        <ele>96.400001525879</ele>
        <time>2020-09-01T07:29:07.000Z</time>
      </trkpt>
      <trkpt lat="43.07063" lon="5.85601">
        <ele>96.800003051758</ele>
        <time>2020-09-01T07:29:08.000Z</time>
      </trkpt>
      <trkpt lat="43.07062" lon="5.85597">
        <ele>97.199996948242</ele>
        <time>2020-09-01T07:29:09.000Z</time>
      </trkpt>
      <trkpt lat="43.07061" lon="5.85593">
        <ele>97.800003051758</ele>
        <time>2020-09-01T07:29:10.000Z</time>
      </trkpt>
      <trkpt lat="43.07061" lon="5.85585">
        <ele>99.199996948242</ele>
        <time>2020-09-01T07:29:12.000Z</time>
      </trkpt>
      <trkpt lat="43.0706" lon="5.85581">
        <ele>100</ele>
        <time>2020-09-01T07:29:13.000Z</time>
      </trkpt>
      <trkpt lat="43.0706" lon="5.85579">
        <ele>100.59999847412</ele>
        <time>2020-09-01T07:29:14.000Z</time>
      </trkpt>
      <trkpt lat="43.07057" lon="5.85571">
        <ele>102.19999694824</ele>
        <time>2020-09-01T07:29:16.000Z</time>
      </trkpt>
      <trkpt lat="43.07055" lon="5.85568">
        <ele>103</ele>
        <time>2020-09-01T07:29:17.000Z</time>
      </trkpt>
      <trkpt lat="43.07053" lon="5.85565">
        <ele>103.40000152588</ele>
        <time>2020-09-01T07:29:18.000Z</time>
      </trkpt>
      <trkpt lat="43.07049" lon="5.85562">
        <ele>104.59999847412</ele>
        <time>2020-09-01T07:29:20.000Z</time>
      </trkpt>
      <trkpt lat="43.07043" lon="5.8556">
        <ele>105.59999847412</ele>
        <time>2020-09-01T07:29:22.000Z</time>
      </trkpt>
      <trkpt lat="43.0704" lon="5.85561">
        <ele>106</ele>
        <time>2020-09-01T07:29:23.000Z</time>
      </trkpt>
      <trkpt lat="43.07033" lon="5.85566">
        <ele>107.19999694824</ele>
        <time>2020-09-01T07:29:26.000Z</time>
      </trkpt>
      <trkpt lat="43.07026" lon="5.85573">
        <ele>108.59999847412</ele>
        <time>2020-09-01T07:29:29.000Z</time>
      </trkpt>
      <trkpt lat="43.07018" lon="5.85583">
        <ele>110</ele>
        <time>2020-09-01T07:29:32.000Z</time>
      </trkpt>
      <trkpt lat="43.07016" lon="5.85587">
        <ele>110.19999694824</ele>
        <time>2020-09-01T07:29:33.000Z</time>
      </trkpt>
      <trkpt lat="43.07005" lon="5.85605">
        <ele>111.19999694824</ele>
        <time>2020-09-01T07:29:38.000Z</time>
      </trkpt>
      <trkpt lat="43.07003" lon="5.85608">
        <ele>111.40000152588</ele>
        <time>2020-09-01T07:29:39.000Z</time>
      </trkpt>
      <trkpt lat="43.06997" lon="5.85618">
        <ele>112.19999694824</ele>
        <time>2020-09-01T07:29:42.000Z</time>
      </trkpt>
      <trkpt lat="43.0699" lon="5.85626">
        <ele>112.59999847412</ele>
        <time>2020-09-01T07:29:45.000Z</time>
      </trkpt>
      <trkpt lat="43.06981" lon="5.85631">
        <ele>113.40000152588</ele>
        <time>2020-09-01T07:29:48.000Z</time>
      </trkpt>
      <trkpt lat="43.06976" lon="5.85634">
        <ele>114.19999694824</ele>
        <time>2020-09-01T07:29:50.000Z</time>
      </trkpt>
      <trkpt lat="43.06973" lon="5.85636">
        <ele>114.59999847412</ele>
        <time>2020-09-01T07:29:51.000Z</time>
      </trkpt>
      <trkpt lat="43.06966" lon="5.85642">
        <ele>115.80000305176</ele>
        <time>2020-09-01T07:29:54.000Z</time>
      </trkpt>
      <trkpt lat="43.0696" lon="5.85645">
        <ele>116.80000305176</ele>
        <time>2020-09-01T07:29:56.000Z</time>
      </trkpt>
      <trkpt lat="43.06955" lon="5.85649">
        <ele>117.80000305176</ele>
        <time>2020-09-01T07:29:58.000Z</time>
      </trkpt>
      <trkpt lat="43.06949" lon="5.85657">
        <ele>119</ele>
        <time>2020-09-01T07:30:01.000Z</time>
      </trkpt>
      <trkpt lat="43.06947" lon="5.85659">
        <ele>119.40000152588</ele>
        <time>2020-09-01T07:30:02.000Z</time>
      </trkpt>
      <trkpt lat="43.06944" lon="5.85663">
        <ele>120.59999847412</ele>
        <time>2020-09-01T07:30:04.000Z</time>
      </trkpt>
      <trkpt lat="43.0694" lon="5.85667">
        <ele>122.19999694824</ele>
        <time>2020-09-01T07:30:06.000Z</time>
      </trkpt>
      <trkpt lat="43.06937" lon="5.85672">
        <ele>123.40000152588</ele>
        <time>2020-09-01T07:30:08.000Z</time>
      </trkpt>
      <trkpt lat="43.06925" lon="5.85688">
        <ele>123.80000305176</ele>
        <time>2020-09-01T07:30:14.000Z</time>
      </trkpt>
      <trkpt lat="43.0691" lon="5.85713">
        <ele>123</ele>
        <time>2020-09-01T07:30:20.000Z</time>
      </trkpt>
      <trkpt lat="43.06896" lon="5.8574">
        <ele>124</ele>
        <time>2020-09-01T07:30:27.000Z</time>
      </trkpt>
      <trkpt lat="43.06889" lon="5.8575">
        <ele>124.59999847412</ele>
        <time>2020-09-01T07:30:30.000Z</time>
      </trkpt>
      <trkpt lat="43.06884" lon="5.8576">
        <ele>125.19999694824</ele>
        <time>2020-09-01T07:30:33.000Z</time>
      </trkpt>
      <trkpt lat="43.06883" lon="5.85777">
        <ele>125.59999847412</ele>
        <time>2020-09-01T07:30:37.000Z</time>
      </trkpt>
      <trkpt lat="43.06884" lon="5.85811">
        <ele>126.59999847412</ele>
        <time>2020-09-01T07:30:44.000Z</time>
      </trkpt>
      <trkpt lat="43.06884" lon="5.85827">
        <ele>126.59999847412</ele>
        <time>2020-09-01T07:30:47.000Z</time>
      </trkpt>
      <trkpt lat="43.06887" lon="5.85833">
        <ele>126.59999847412</ele>
        <time>2020-09-01T07:30:49.000Z</time>
      </trkpt>
      <trkpt lat="43.06889" lon="5.85833">
        <ele>126.80000305176</ele>
        <time>2020-09-01T07:30:50.000Z</time>
      </trkpt>
      <trkpt lat="43.06894" lon="5.85827">
        <ele>127.19999694824</ele>
        <time>2020-09-01T07:30:53.000Z</time>
      </trkpt>
      <trkpt lat="43.06906" lon="5.85822">
        <ele>126.80000305176</ele>
        <time>2020-09-01T07:30:57.000Z</time>
      </trkpt>
      <trkpt lat="43.06918" lon="5.85821">
        <ele>127</ele>
        <time>2020-09-01T07:31:01.000Z</time>
      </trkpt>
      <trkpt lat="43.06927" lon="5.85824">
        <ele>127.80000305176</ele>
        <time>2020-09-01T07:31:04.000Z</time>
      </trkpt>
      <trkpt lat="43.0693" lon="5.85828">
        <ele>128</ele>
        <time>2020-09-01T07:31:05.000Z</time>
      </trkpt>
      <trkpt lat="43.06944" lon="5.85836">
        <ele>128</ele>
        <time>2020-09-01T07:31:09.000Z</time>
      </trkpt>
      <trkpt lat="43.06953" lon="5.85841">
        <ele>127.59999847412</ele>
        <time>2020-09-01T07:31:11.000Z</time>
      </trkpt>
      <trkpt lat="43.06965" lon="5.85844">
        <ele>127</ele>
        <time>2020-09-01T07:31:14.000Z</time>
      </trkpt>
      <trkpt lat="43.06969" lon="5.85845">
        <ele>126.80000305176</ele>
        <time>2020-09-01T07:31:15.000Z</time>
      </trkpt>
      <trkpt lat="43.06974" lon="5.8585">
        <ele>127</ele>
        <time>2020-09-01T07:31:17.000Z</time>
      </trkpt>
      <trkpt lat="43.06975" lon="5.85852">
        <ele>127</ele>
        <time>2020-09-01T07:31:18.000Z</time>
      </trkpt>
      <trkpt lat="43.06983" lon="5.85854">
        <ele>127.59999847412</ele>
        <time>2020-09-01T07:31:21.000Z</time>
      </trkpt>
      <trkpt lat="43.06989" lon="5.85856">
        <ele>127</ele>
        <time>2020-09-01T07:31:23.000Z</time>
      </trkpt>
      <trkpt lat="43.06991" lon="5.85859">
        <ele>125.40000152588</ele>
        <time>2020-09-01T07:31:25.000Z</time>
      </trkpt>
      <trkpt lat="43.06993" lon="5.85859">
        <ele>124.19999694824</ele>
        <time>2020-09-01T07:31:26.000Z</time>
      </trkpt>
      <trkpt lat="43.06997" lon="5.8586">
        <ele>122.80000305176</ele>
        <time>2020-09-01T07:31:28.000Z</time>
      </trkpt>
      <trkpt lat="43.07" lon="5.85861">
        <ele>122.19999694824</ele>
        <time>2020-09-01T07:31:29.000Z</time>
      </trkpt>
      <trkpt lat="43.07003" lon="5.85862">
        <ele>121.80000305176</ele>
        <time>2020-09-01T07:31:30.000Z</time>
      </trkpt>
      <trkpt lat="43.07008" lon="5.85865">
        <ele>120.40000152588</ele>
        <time>2020-09-01T07:31:32.000Z</time>
      </trkpt>
      <trkpt lat="43.07014" lon="5.85867">
        <ele>118.40000152588</ele>
        <time>2020-09-01T07:31:34.000Z</time>
      </trkpt>
      <trkpt lat="43.07018" lon="5.85865">
        <ele>116.59999847412</ele>
        <time>2020-09-01T07:31:35.000Z</time>
      </trkpt>
      <trkpt lat="43.0702" lon="5.85862">
        <ele>115.40000152588</ele>
        <time>2020-09-01T07:31:36.000Z</time>
      </trkpt>
      <trkpt lat="43.07024" lon="5.8586">
        <ele>114</ele>
        <time>2020-09-01T07:31:37.000Z</time>
      </trkpt>
      <trkpt lat="43.07028" lon="5.85858">
        <ele>112.80000305176</ele>
        <time>2020-09-01T07:31:38.000Z</time>
      </trkpt>
      <trkpt lat="43.07031" lon="5.85855">
        <ele>111.40000152588</ele>
        <time>2020-09-01T07:31:39.000Z</time>
      </trkpt>
      <trkpt lat="43.07036" lon="5.8585">
        <ele>110.40000152588</ele>
        <time>2020-09-01T07:31:40.000Z</time>
      </trkpt>
      <trkpt lat="43.07042" lon="5.85845">
        <ele>109.40000152588</ele>
        <time>2020-09-01T07:31:41.000Z</time>
      </trkpt>
      <trkpt lat="43.07045" lon="5.85841">
        <ele>108.59999847412</ele>
        <time>2020-09-01T07:31:42.000Z</time>
      </trkpt>
      <trkpt lat="43.07047" lon="5.85836">
        <ele>107.40000152588</ele>
        <time>2020-09-01T07:31:43.000Z</time>
      </trkpt>
      <trkpt lat="43.07049" lon="5.85833">
        <ele>106.40000152588</ele>
        <time>2020-09-01T07:31:44.000Z</time>
      </trkpt>
      <trkpt lat="43.07052" lon="5.8583">
        <ele>105.59999847412</ele>
        <time>2020-09-01T07:31:45.000Z</time>
      </trkpt>
      <trkpt lat="43.07058" lon="5.8583">
        <ele>104.40000152588</ele>
        <time>2020-09-01T07:31:47.000Z</time>
      </trkpt>
      <trkpt lat="43.07068" lon="5.85841">
        <ele>103.40000152588</ele>
        <time>2020-09-01T07:31:51.000Z</time>
      </trkpt>
      <trkpt lat="43.07077" lon="5.85857">
        <ele>104.59999847412</ele>
        <time>2020-09-01T07:31:56.000Z</time>
      </trkpt>
      <trkpt lat="43.07082" lon="5.85868">
        <ele>105.80000305176</ele>
        <time>2020-09-01T07:31:59.000Z</time>
      </trkpt>
      <trkpt lat="43.07086" lon="5.85879">
        <ele>107</ele>
        <time>2020-09-01T07:32:02.000Z</time>
      </trkpt>
      <trkpt lat="43.07086" lon="5.85888">
        <ele>107.59999847412</ele>
        <time>2020-09-01T07:32:04.000Z</time>
      </trkpt>
      <trkpt lat="43.07086" lon="5.85893">
        <ele>108</ele>
        <time>2020-09-01T07:32:05.000Z</time>
      </trkpt>
      <trkpt lat="43.07081" lon="5.85919">
        <ele>109.19999694824</ele>
        <time>2020-09-01T07:32:11.000Z</time>
      </trkpt>
      <trkpt lat="43.07074" lon="5.85962">
        <ele>109.59999847412</ele>
        <time>2020-09-01T07:32:20.000Z</time>
      </trkpt>
      <trkpt lat="43.07068" lon="5.86005">
        <ele>109</ele>
        <time>2020-09-01T07:32:28.000Z</time>
      </trkpt>
      <trkpt lat="43.07067" lon="5.86011">
        <ele>108.80000305176</ele>
        <time>2020-09-01T07:32:29.000Z</time>
      </trkpt>
      <trkpt lat="43.07059" lon="5.86026">
        <ele>108.19999694824</ele>
        <time>2020-09-01T07:32:32.000Z</time>
      </trkpt>
      <trkpt lat="43.07055" lon="5.86029">
        <ele>107.59999847412</ele>
        <time>2020-09-01T07:32:33.000Z</time>
      </trkpt>
      <trkpt lat="43.07046" lon="5.86028">
        <ele>106.80000305176</ele>
        <time>2020-09-01T07:32:35.000Z</time>
      </trkpt>
      <trkpt lat="43.07041" lon="5.86025">
        <ele>106.40000152588</ele>
        <time>2020-09-01T07:32:36.000Z</time>
      </trkpt>
      <trkpt lat="43.07028" lon="5.86015">
        <ele>105.59999847412</ele>
        <time>2020-09-01T07:32:39.000Z</time>
      </trkpt>
      <trkpt lat="43.07022" lon="5.86012">
        <ele>105.40000152588</ele>
        <time>2020-09-01T07:32:40.000Z</time>
      </trkpt>
      <trkpt lat="43.07006" lon="5.86008">
        <ele>104.59999847412</ele>
        <time>2020-09-01T07:32:43.000Z</time>
      </trkpt>
      <trkpt lat="43.06997" lon="5.86008">
        <ele>104.40000152588</ele>
        <time>2020-09-01T07:32:45.000Z</time>
      </trkpt>
      <trkpt lat="43.06992" lon="5.86008">
        <ele>104.40000152588</ele>
        <time>2020-09-01T07:32:46.000Z</time>
      </trkpt>
      <trkpt lat="43.06977" lon="5.86007">
        <ele>104.40000152588</ele>
        <time>2020-09-01T07:32:49.000Z</time>
      </trkpt>
      <trkpt lat="43.0695" lon="5.85998">
        <ele>103.59999847412</ele>
        <time>2020-09-01T07:32:54.000Z</time>
      </trkpt>
      <trkpt lat="43.06945" lon="5.85994">
        <ele>103</ele>
        <time>2020-09-01T07:32:55.000Z</time>
      </trkpt>
      <trkpt lat="43.06917" lon="5.85979">
        <ele>101.80000305176</ele>
        <time>2020-09-01T07:33:00.000Z</time>
      </trkpt>
      <trkpt lat="43.06911" lon="5.85976">
        <ele>101.80000305176</ele>
        <time>2020-09-01T07:33:01.000Z</time>
      </trkpt>
      <trkpt lat="43.06901" lon="5.85972">
        <ele>101.59999847412</ele>
        <time>2020-09-01T07:33:03.000Z</time>
      </trkpt>
      <trkpt lat="43.06891" lon="5.85976">
        <ele>101.59999847412</ele>
        <time>2020-09-01T07:33:05.000Z</time>
      </trkpt>
      <trkpt lat="43.06887" lon="5.85993">
        <ele>101</ele>
        <time>2020-09-01T07:33:07.000Z</time>
      </trkpt>
      <trkpt lat="43.06888" lon="5.86003">
        <ele>100.59999847412</ele>
        <time>2020-09-01T07:33:08.000Z</time>
      </trkpt>
      <trkpt lat="43.06885" lon="5.86023">
        <ele>98.599998474121</ele>
        <time>2020-09-01T07:33:10.000Z</time>
      </trkpt>
      <trkpt lat="43.06876" lon="5.8604">
        <ele>97</ele>
        <time>2020-09-01T07:33:12.000Z</time>
      </trkpt>
      <trkpt lat="43.0687" lon="5.86046">
        <ele>96.800003051758</ele>
        <time>2020-09-01T07:33:13.000Z</time>
      </trkpt>
      <trkpt lat="43.06856" lon="5.86052">
        <ele>95.800003051758</ele>
        <time>2020-09-01T07:33:15.000Z</time>
      </trkpt>
      <trkpt lat="43.0685" lon="5.86055">
        <ele>95.599998474121</ele>
        <time>2020-09-01T07:33:16.000Z</time>
      </trkpt>
      <trkpt lat="43.06836" lon="5.8606">
        <ele>94.400001525879</ele>
        <time>2020-09-01T07:33:18.000Z</time>
      </trkpt>
      <trkpt lat="43.06831" lon="5.86064">
        <ele>94.400001525879</ele>
        <time>2020-09-01T07:33:19.000Z</time>
      </trkpt>
      <trkpt lat="43.06828" lon="5.86071">
        <ele>94.199996948242</ele>
        <time>2020-09-01T07:33:20.000Z</time>
      </trkpt>
      <trkpt lat="43.06831" lon="5.86083">
        <ele>94</ele>
        <time>2020-09-01T07:33:22.000Z</time>
      </trkpt>
      <trkpt lat="43.06846" lon="5.86093">
        <ele>93</ele>
        <time>2020-09-01T07:33:25.000Z</time>
      </trkpt>
      <trkpt lat="43.06871" lon="5.8611">
        <ele>92.800003051758</ele>
        <time>2020-09-01T07:33:30.000Z</time>
      </trkpt>
      <trkpt lat="43.06876" lon="5.86113">
        <ele>92.599998474121</ele>
        <time>2020-09-01T07:33:31.000Z</time>
      </trkpt>
      <trkpt lat="43.06893" lon="5.86126">
        <ele>92.199996948242</ele>
        <time>2020-09-01T07:33:35.000Z</time>
      </trkpt>
      <trkpt lat="43.06902" lon="5.86134">
        <ele>92.199996948242</ele>
        <time>2020-09-01T07:33:37.000Z</time>
      </trkpt>
      <trkpt lat="43.06906" lon="5.86138">
        <ele>92</ele>
        <time>2020-09-01T07:33:38.000Z</time>
      </trkpt>
      <trkpt lat="43.06913" lon="5.86147">
        <ele>91.800003051758</ele>
        <time>2020-09-01T07:33:40.000Z</time>
      </trkpt>
      <trkpt lat="43.06917" lon="5.86154">
        <ele>91.400001525879</ele>
        <time>2020-09-01T07:33:41.000Z</time>
      </trkpt>
      <trkpt lat="43.06923" lon="5.86168">
        <ele>90.800003051758</ele>
        <time>2020-09-01T07:33:43.000Z</time>
      </trkpt>
      <trkpt lat="43.06925" lon="5.86175">
        <ele>90.199996948242</ele>
        <time>2020-09-01T07:33:44.000Z</time>
      </trkpt>
      <trkpt lat="43.06928" lon="5.86192">
        <ele>89.800003051758</ele>
        <time>2020-09-01T07:33:46.000Z</time>
      </trkpt>
      <trkpt lat="43.06933" lon="5.86209">
        <ele>88.800003051758</ele>
        <time>2020-09-01T07:33:48.000Z</time>
      </trkpt>
      <trkpt lat="43.06944" lon="5.86218">
        <ele>87.599998474121</ele>
        <time>2020-09-01T07:33:50.000Z</time>
      </trkpt>
      <trkpt lat="43.0696" lon="5.86234">
        <ele>86.400001525879</ele>
        <time>2020-09-01T07:33:53.000Z</time>
      </trkpt>
      <trkpt lat="43.06964" lon="5.86241">
        <ele>86.199996948242</ele>
        <time>2020-09-01T07:33:54.000Z</time>
      </trkpt>
      <trkpt lat="43.06968" lon="5.86249">
        <ele>85.800003051758</ele>
        <time>2020-09-01T07:33:55.000Z</time>
      </trkpt>
      <trkpt lat="43.06971" lon="5.86256">
        <ele>85.400001525879</ele>
        <time>2020-09-01T07:33:56.000Z</time>
      </trkpt>
      <trkpt lat="43.0698" lon="5.86282">
        <ele>84</ele>
        <time>2020-09-01T07:33:59.000Z</time>
      </trkpt>
      <trkpt lat="43.06981" lon="5.86302">
        <ele>82.800003051758</ele>
        <time>2020-09-01T07:34:01.000Z</time>
      </trkpt>
      <trkpt lat="43.06979" lon="5.86312">
        <ele>82</ele>
        <time>2020-09-01T07:34:02.000Z</time>
      </trkpt>
      <trkpt lat="43.06975" lon="5.8632">
        <ele>81.199996948242</ele>
        <time>2020-09-01T07:34:03.000Z</time>
      </trkpt>
      <trkpt lat="43.06972" lon="5.86327">
        <ele>80.599998474121</ele>
        <time>2020-09-01T07:34:04.000Z</time>
      </trkpt>
      <trkpt lat="43.06968" lon="5.86338">
        <ele>80.400001525879</ele>
        <time>2020-09-01T07:34:05.000Z</time>
      </trkpt>
      <trkpt lat="43.06968" lon="5.86345">
        <ele>80</ele>
        <time>2020-09-01T07:34:06.000Z</time>
      </trkpt>
      <trkpt lat="43.06971" lon="5.86367">
        <ele>78.599998474121</ele>
        <time>2020-09-01T07:34:08.000Z</time>
      </trkpt>
      <trkpt lat="43.06972" lon="5.86376">
        <ele>78.400001525879</ele>
        <time>2020-09-01T07:34:09.000Z</time>
      </trkpt>
      <trkpt lat="43.06972" lon="5.86384">
        <ele>77.800003051758</ele>
        <time>2020-09-01T07:34:10.000Z</time>
      </trkpt>
      <trkpt lat="43.06969" lon="5.86393">
        <ele>77.599998474121</ele>
        <time>2020-09-01T07:34:11.000Z</time>
      </trkpt>
      <trkpt lat="43.06954" lon="5.86412">
        <ele>77</ele>
        <time>2020-09-01T07:34:14.000Z</time>
      </trkpt>
      <trkpt lat="43.06947" lon="5.86418">
        <ele>76.599998474121</ele>
        <time>2020-09-01T07:34:15.000Z</time>
      </trkpt>
      <trkpt lat="43.0694" lon="5.86425">
        <ele>76</ele>
        <time>2020-09-01T07:34:16.000Z</time>
      </trkpt>
      <trkpt lat="43.06927" lon="5.86437">
        <ele>74.199996948242</ele>
        <time>2020-09-01T07:34:18.000Z</time>
      </trkpt>
      <trkpt lat="43.06913" lon="5.86447">
        <ele>72.800003051758</ele>
        <time>2020-09-01T07:34:20.000Z</time>
      </trkpt>
      <trkpt lat="43.06894" lon="5.86458">
        <ele>71.800003051758</ele>
        <time>2020-09-01T07:34:23.000Z</time>
      </trkpt>
      <trkpt lat="43.06887" lon="5.86461">
        <ele>71.400001525879</ele>
        <time>2020-09-01T07:34:24.000Z</time>
      </trkpt>
      <trkpt lat="43.0688" lon="5.86463">
        <ele>71.199996948242</ele>
        <time>2020-09-01T07:34:25.000Z</time>
      </trkpt>
      <trkpt lat="43.06868" lon="5.86467">
        <ele>70.800003051758</ele>
        <time>2020-09-01T07:34:27.000Z</time>
      </trkpt>
      <trkpt lat="43.06862" lon="5.86481">
        <ele>70.800003051758</ele>
        <time>2020-09-01T07:34:29.000Z</time>
      </trkpt>
      <trkpt lat="43.06864" lon="5.86501">
        <ele>70</ele>
        <time>2020-09-01T07:34:31.000Z</time>
      </trkpt>
      <trkpt lat="43.06864" lon="5.86511">
        <ele>69.400001525879</ele>
        <time>2020-09-01T07:34:32.000Z</time>
      </trkpt>
      <trkpt lat="43.06858" lon="5.86524">
        <ele>67.199996948242</ele>
        <time>2020-09-01T07:34:34.000Z</time>
      </trkpt>
      <trkpt lat="43.0685" lon="5.86534">
        <ele>66</ele>
        <time>2020-09-01T07:34:36.000Z</time>
      </trkpt>
      <trkpt lat="43.06841" lon="5.86549">
        <ele>66.800003051758</ele>
        <time>2020-09-01T07:34:39.000Z</time>
      </trkpt>
      <trkpt lat="43.06838" lon="5.86554">
        <ele>67</ele>
        <time>2020-09-01T07:34:40.000Z</time>
      </trkpt>
      <trkpt lat="43.0683" lon="5.86568">
        <ele>67.800003051758</ele>
        <time>2020-09-01T07:34:43.000Z</time>
      </trkpt>
      <trkpt lat="43.06828" lon="5.86571">
        <ele>68</ele>
        <time>2020-09-01T07:34:44.000Z</time>
      </trkpt>
      <trkpt lat="43.06823" lon="5.86579">
        <ele>68.199996948242</ele>
        <time>2020-09-01T07:34:46.000Z</time>
      </trkpt>
      <trkpt lat="43.06811" lon="5.86597">
        <ele>69.199996948242</ele>
        <time>2020-09-01T07:34:51.000Z</time>
      </trkpt>
      <trkpt lat="43.06806" lon="5.86604">
        <ele>70</ele>
        <time>2020-09-01T07:34:53.000Z</time>
      </trkpt>
      <trkpt lat="43.06804" lon="5.86606">
        <ele>70.199996948242</ele>
        <time>2020-09-01T07:34:54.000Z</time>
      </trkpt>
      <trkpt lat="43.06795" lon="5.86616">
        <ele>71.400001525879</ele>
        <time>2020-09-01T07:34:57.000Z</time>
      </trkpt>
      <trkpt lat="43.06783" lon="5.86624">
        <ele>72.400001525879</ele>
        <time>2020-09-01T07:35:01.000Z</time>
      </trkpt>
      <trkpt lat="43.06767" lon="5.86635">
        <ele>73.599998474121</ele>
        <time>2020-09-01T07:35:06.000Z</time>
      </trkpt>
      <trkpt lat="43.06758" lon="5.86642">
        <ele>74.199996948242</ele>
        <time>2020-09-01T07:35:09.000Z</time>
      </trkpt>
      <trkpt lat="43.06753" lon="5.86649">
        <ele>74.599998474121</ele>
        <time>2020-09-01T07:35:11.000Z</time>
      </trkpt>
      <trkpt lat="43.06744" lon="5.86664">
        <ele>76</ele>
        <time>2020-09-01T07:35:15.000Z</time>
      </trkpt>
      <trkpt lat="43.06741" lon="5.86678">
        <ele>77</ele>
        <time>2020-09-01T07:35:18.000Z</time>
      </trkpt>
      <trkpt lat="43.0674" lon="5.86692">
        <ele>78</ele>
        <time>2020-09-01T07:35:21.000Z</time>
      </trkpt>
      <trkpt lat="43.0674" lon="5.86697">
        <ele>78.199996948242</ele>
        <time>2020-09-01T07:35:22.000Z</time>
      </trkpt>
      <trkpt lat="43.06742" lon="5.86723">
        <ele>79.199996948242</ele>
        <time>2020-09-01T07:35:27.000Z</time>
      </trkpt>
      <trkpt lat="43.06743" lon="5.86732">
        <ele>79.800003051758</ele>
        <time>2020-09-01T07:35:29.000Z</time>
      </trkpt>
      <trkpt lat="43.06742" lon="5.86742">
        <ele>80.599998474121</ele>
        <time>2020-09-01T07:35:31.000Z</time>
      </trkpt>
      <trkpt lat="43.0674" lon="5.86756">
        <ele>81.800003051758</ele>
        <time>2020-09-01T07:35:34.000Z</time>
      </trkpt>
      <trkpt lat="43.06737" lon="5.86761">
        <ele>82.199996948242</ele>
        <time>2020-09-01T07:35:35.000Z</time>
      </trkpt>
      <trkpt lat="43.0673" lon="5.86773">
        <ele>83.199996948242</ele>
        <time>2020-09-01T07:35:38.000Z</time>
      </trkpt>
      <trkpt lat="43.06723" lon="5.86777">
        <ele>83.599998474121</ele>
        <time>2020-09-01T07:35:40.000Z</time>
      </trkpt>
      <trkpt lat="43.06715" lon="5.86779">
        <ele>84.400001525879</ele>
        <time>2020-09-01T07:35:42.000Z</time>
      </trkpt>
      <trkpt lat="43.06703" lon="5.86776">
        <ele>85.599998474121</ele>
        <time>2020-09-01T07:35:45.000Z</time>
      </trkpt>
      <trkpt lat="43.06696" lon="5.86772">
        <ele>86.599998474121</ele>
        <time>2020-09-01T07:35:47.000Z</time>
      </trkpt>
      <trkpt lat="43.0669" lon="5.86766">
        <ele>87.800003051758</ele>
        <time>2020-09-01T07:35:49.000Z</time>
      </trkpt>
      <trkpt lat="43.06687" lon="5.86761">
        <ele>88.199996948242</ele>
        <time>2020-09-01T07:35:50.000Z</time>
      </trkpt>
      <trkpt lat="43.06683" lon="5.86754">
        <ele>89</ele>
        <time>2020-09-01T07:35:52.000Z</time>
      </trkpt>
      <trkpt lat="43.06675" lon="5.86742">
        <ele>90.199996948242</ele>
        <time>2020-09-01T07:35:55.000Z</time>
      </trkpt>
      <trkpt lat="43.06667" lon="5.86732">
        <ele>90.800003051758</ele>
        <time>2020-09-01T07:35:58.000Z</time>
      </trkpt>
      <trkpt lat="43.06665" lon="5.86729">
        <ele>91.199996948242</ele>
        <time>2020-09-01T07:35:59.000Z</time>
      </trkpt>
      <trkpt lat="43.06653" lon="5.86717">
        <ele>92.599998474121</ele>
        <time>2020-09-01T07:36:03.000Z</time>
      </trkpt>
      <trkpt lat="43.0665" lon="5.86714">
        <ele>93</ele>
        <time>2020-09-01T07:36:04.000Z</time>
      </trkpt>
      <trkpt lat="43.06643" lon="5.86709">
        <ele>93.800003051758</ele>
        <time>2020-09-01T07:36:06.000Z</time>
      </trkpt>
      <trkpt lat="43.06635" lon="5.867">
        <ele>95</ele>
        <time>2020-09-01T07:36:09.000Z</time>
      </trkpt>
      <trkpt lat="43.06622" lon="5.86689">
        <ele>96.400001525879</ele>
        <time>2020-09-01T07:36:13.000Z</time>
      </trkpt>
      <trkpt lat="43.06616" lon="5.86678">
        <ele>97.199996948242</ele>
        <time>2020-09-01T07:36:16.000Z</time>
      </trkpt>
      <trkpt lat="43.06616" lon="5.86672">
        <ele>97.599998474121</ele>
        <time>2020-09-01T07:36:17.000Z</time>
      </trkpt>
      <trkpt lat="43.06616" lon="5.86658">
        <ele>98.599998474121</ele>
        <time>2020-09-01T07:36:20.000Z</time>
      </trkpt>
      <trkpt lat="43.06618" lon="5.86649">
        <ele>99</ele>
        <time>2020-09-01T07:36:22.000Z</time>
      </trkpt>
      <trkpt lat="43.06621" lon="5.86633">
        <ele>99.599998474121</ele>
        <time>2020-09-01T07:36:25.000Z</time>
      </trkpt>
      <trkpt lat="43.06622" lon="5.86628">
        <ele>100</ele>
        <time>2020-09-01T07:36:26.000Z</time>
      </trkpt>
      <trkpt lat="43.06625" lon="5.86623">
        <ele>100</ele>
        <time>2020-09-01T07:36:27.000Z</time>
      </trkpt>
      <trkpt lat="43.06636" lon="5.866">
        <ele>100.40000152588</ele>
        <time>2020-09-01T07:36:32.000Z</time>
      </trkpt>
      <trkpt lat="43.06634" lon="5.8659">
        <ele>101</ele>
        <time>2020-09-01T07:36:34.000Z</time>
      </trkpt>
      <trkpt lat="43.0663" lon="5.86579">
        <ele>101.40000152588</ele>
        <time>2020-09-01T07:36:36.000Z</time>
      </trkpt>
      <trkpt lat="43.06627" lon="5.86569">
        <ele>102</ele>
        <time>2020-09-01T07:36:38.000Z</time>
      </trkpt>
      <trkpt lat="43.06622" lon="5.86547">
        <ele>103.19999694824</ele>
        <time>2020-09-01T07:36:42.000Z</time>
      </trkpt>
      <trkpt lat="43.06621" lon="5.86542">
        <ele>103.40000152588</ele>
        <time>2020-09-01T07:36:43.000Z</time>
      </trkpt>
      <trkpt lat="43.06619" lon="5.8652">
        <ele>104.19999694824</ele>
        <time>2020-09-01T07:36:47.000Z</time>
      </trkpt>
      <trkpt lat="43.06617" lon="5.86509">
        <ele>104.59999847412</ele>
        <time>2020-09-01T07:36:49.000Z</time>
      </trkpt>
      <trkpt lat="43.06615" lon="5.86493">
        <ele>105.40000152588</ele>
        <time>2020-09-01T07:36:52.000Z</time>
      </trkpt>
      <trkpt lat="43.06613" lon="5.86487">
        <ele>105.59999847412</ele>
        <time>2020-09-01T07:36:53.000Z</time>
      </trkpt>
      <trkpt lat="43.0661" lon="5.8647">
        <ele>106.40000152588</ele>
        <time>2020-09-01T07:36:56.000Z</time>
      </trkpt>
      <trkpt lat="43.06609" lon="5.86465">
        <ele>106.59999847412</ele>
        <time>2020-09-01T07:36:57.000Z</time>
      </trkpt>
      <trkpt lat="43.06606" lon="5.86455">
        <ele>107.40000152588</ele>
        <time>2020-09-01T07:36:59.000Z</time>
      </trkpt>
      <trkpt lat="43.06604" lon="5.86449">
        <ele>108</ele>
        <time>2020-09-01T07:37:00.000Z</time>
      </trkpt>
      <trkpt lat="43.06601" lon="5.86438">
        <ele>108.59999847412</ele>
        <time>2020-09-01T07:37:02.000Z</time>
      </trkpt>
      <trkpt lat="43.06597" lon="5.86429">
        <ele>109</ele>
        <time>2020-09-01T07:37:04.000Z</time>
      </trkpt>
      <trkpt lat="43.06583" lon="5.86407">
        <ele>109.59999847412</ele>
        <time>2020-09-01T07:37:09.000Z</time>
      </trkpt>
      <trkpt lat="43.06577" lon="5.86397">
        <ele>110</ele>
        <time>2020-09-01T07:37:11.000Z</time>
      </trkpt>
      <trkpt lat="43.06563" lon="5.8638">
        <ele>110.80000305176</ele>
        <time>2020-09-01T07:37:16.000Z</time>
      </trkpt>
      <trkpt lat="43.06553" lon="5.86371">
        <ele>112.19999694824</ele>
        <time>2020-09-01T07:37:19.000Z</time>
      </trkpt>
      <trkpt lat="43.06547" lon="5.86362">
        <ele>112.80000305176</ele>
        <time>2020-09-01T07:37:21.000Z</time>
      </trkpt>
      <trkpt lat="43.06546" lon="5.86357">
        <ele>113</ele>
        <time>2020-09-01T07:37:22.000Z</time>
      </trkpt>
      <trkpt lat="43.06544" lon="5.86351">
        <ele>113.19999694824</ele>
        <time>2020-09-01T07:37:23.000Z</time>
      </trkpt>
      <trkpt lat="43.06546" lon="5.86335">
        <ele>113.80000305176</ele>
        <time>2020-09-01T07:37:26.000Z</time>
      </trkpt>
      <trkpt lat="43.0655" lon="5.86325">
        <ele>114.40000152588</ele>
        <time>2020-09-01T07:37:28.000Z</time>
      </trkpt>
      <trkpt lat="43.06557" lon="5.86318">
        <ele>115</ele>
        <time>2020-09-01T07:37:30.000Z</time>
      </trkpt>
      <trkpt lat="43.06565" lon="5.86319">
        <ele>115.80000305176</ele>
        <time>2020-09-01T07:37:32.000Z</time>
      </trkpt>
      <trkpt lat="43.06569" lon="5.86321">
        <ele>116</ele>
        <time>2020-09-01T07:37:33.000Z</time>
      </trkpt>
      <trkpt lat="43.06576" lon="5.86326">
        <ele>116.59999847412</ele>
        <time>2020-09-01T07:37:35.000Z</time>
      </trkpt>
      <trkpt lat="43.0658" lon="5.86328">
        <ele>117</ele>
        <time>2020-09-01T07:37:36.000Z</time>
      </trkpt>
      <trkpt lat="43.06597" lon="5.86335">
        <ele>118</ele>
        <time>2020-09-01T07:37:40.000Z</time>
      </trkpt>
      <trkpt lat="43.06602" lon="5.86337">
        <ele>118.19999694824</ele>
        <time>2020-09-01T07:37:41.000Z</time>
      </trkpt>
      <trkpt lat="43.06627" lon="5.86339">
        <ele>119.40000152588</ele>
        <time>2020-09-01T07:37:47.000Z</time>
      </trkpt>
      <trkpt lat="43.06641" lon="5.86338">
        <ele>120.40000152588</ele>
        <time>2020-09-01T07:37:50.000Z</time>
      </trkpt>
      <trkpt lat="43.06649" lon="5.86337">
        <ele>120.80000305176</ele>
        <time>2020-09-01T07:37:52.000Z</time>
      </trkpt>
      <trkpt lat="43.06658" lon="5.86342">
        <ele>121.40000152588</ele>
        <time>2020-09-01T07:37:54.000Z</time>
      </trkpt>
      <trkpt lat="43.06666" lon="5.86349">
        <ele>122</ele>
        <time>2020-09-01T07:37:56.000Z</time>
      </trkpt>
      <trkpt lat="43.06672" lon="5.86356">
        <ele>122.59999847412</ele>
        <time>2020-09-01T07:37:58.000Z</time>
      </trkpt>
      <trkpt lat="43.06675" lon="5.86359">
        <ele>122.80000305176</ele>
        <time>2020-09-01T07:37:59.000Z</time>
      </trkpt>
      <trkpt lat="43.06681" lon="5.86367">
        <ele>123</ele>
        <time>2020-09-01T07:38:01.000Z</time>
      </trkpt>
      <trkpt lat="43.06688" lon="5.86373">
        <ele>123.59999847412</ele>
        <time>2020-09-01T07:38:03.000Z</time>
      </trkpt>
      <trkpt lat="43.06692" lon="5.86374">
        <ele>124</ele>
        <time>2020-09-01T07:38:04.000Z</time>
      </trkpt>
      <trkpt lat="43.06701" lon="5.86372">
        <ele>124.80000305176</ele>
        <time>2020-09-01T07:38:06.000Z</time>
      </trkpt>
      <trkpt lat="43.06704" lon="5.86368">
        <ele>125.19999694824</ele>
        <time>2020-09-01T07:38:07.000Z</time>
      </trkpt>
      <trkpt lat="43.06708" lon="5.86365">
        <ele>125.40000152588</ele>
        <time>2020-09-01T07:38:08.000Z</time>
      </trkpt>
      <trkpt lat="43.06714" lon="5.86359">
        <ele>125.80000305176</ele>
        <time>2020-09-01T07:38:10.000Z</time>
      </trkpt>
      <trkpt lat="43.06726" lon="5.86349">
        <ele>126.59999847412</ele>
        <time>2020-09-01T07:38:13.000Z</time>
      </trkpt>
      <trkpt lat="43.06729" lon="5.86347">
        <ele>126.80000305176</ele>
        <time>2020-09-01T07:38:14.000Z</time>
      </trkpt>
      <trkpt lat="43.06734" lon="5.86347">
        <ele>127</ele>
        <time>2020-09-01T07:38:15.000Z</time>
      </trkpt>
      <trkpt lat="43.06749" lon="5.86343">
        <ele>127.80000305176</ele>
        <time>2020-09-01T07:38:19.000Z</time>
      </trkpt>
      <trkpt lat="43.06753" lon="5.86338">
        <ele>128</ele>
        <time>2020-09-01T07:38:21.000Z</time>
      </trkpt>
      <trkpt lat="43.06757" lon="5.86331">
        <ele>128.60000610352</ele>
        <time>2020-09-01T07:38:23.000Z</time>
      </trkpt>
      <trkpt lat="43.06759" lon="5.86324">
        <ele>129.19999694824</ele>
        <time>2020-09-01T07:38:25.000Z</time>
      </trkpt>
      <trkpt lat="43.06764" lon="5.86307">
        <ele>129.80000305176</ele>
        <time>2020-09-01T07:38:29.000Z</time>
      </trkpt>
      <trkpt lat="43.06768" lon="5.86298">
        <ele>130.19999694824</ele>
        <time>2020-09-01T07:38:31.000Z</time>
      </trkpt>
      <trkpt lat="43.06774" lon="5.86291">
        <ele>130.60000610352</ele>
        <time>2020-09-01T07:38:33.000Z</time>
      </trkpt>
      <trkpt lat="43.06793" lon="5.86275">
        <ele>131.39999389648</ele>
        <time>2020-09-01T07:38:38.000Z</time>
      </trkpt>
      <trkpt lat="43.06796" lon="5.86272">
        <ele>131.39999389648</ele>
        <time>2020-09-01T07:38:39.000Z</time>
      </trkpt>
      <trkpt lat="43.06806" lon="5.86252">
        <ele>132.60000610352</ele>
        <time>2020-09-01T07:38:43.000Z</time>
      </trkpt>
      <trkpt lat="43.06806" lon="5.86247">
        <ele>132.80000305176</ele>
        <time>2020-09-01T07:38:44.000Z</time>
      </trkpt>
      <trkpt lat="43.06805" lon="5.86236">
        <ele>133.19999694824</ele>
        <time>2020-09-01T07:38:46.000Z</time>
      </trkpt>
      <trkpt lat="43.06803" lon="5.8623">
        <ele>133.39999389648</ele>
        <time>2020-09-01T07:38:47.000Z</time>
      </trkpt>
      <trkpt lat="43.06801" lon="5.86226">
        <ele>133.39999389648</ele>
        <time>2020-09-01T07:38:48.000Z</time>
      </trkpt>
      <trkpt lat="43.06795" lon="5.86219">
        <ele>133.60000610352</ele>
        <time>2020-09-01T07:38:50.000Z</time>
      </trkpt>
      <trkpt lat="43.06792" lon="5.86215">
        <ele>133.60000610352</ele>
        <time>2020-09-01T07:38:51.000Z</time>
      </trkpt>
      <trkpt lat="43.06787" lon="5.86209">
        <ele>133.60000610352</ele>
        <time>2020-09-01T07:38:53.000Z</time>
      </trkpt>
      <trkpt lat="43.06785" lon="5.86207">
        <ele>133.60000610352</ele>
        <time>2020-09-01T07:38:56.000Z</time>
      </trkpt>
      <trkpt lat="43.06784" lon="5.86207">
        <ele>133.19999694824</ele>
        <time>2020-09-01T07:39:04.000Z</time>
      </trkpt>
      <trkpt lat="43.06779" lon="5.86201">
        <ele>133.19999694824</ele>
        <time>2020-09-01T07:39:14.000Z</time>
      </trkpt>
      <trkpt lat="43.0677" lon="5.86186">
        <ele>133</ele>
        <time>2020-09-01T07:39:19.000Z</time>
      </trkpt>
      <trkpt lat="43.06756" lon="5.8617">
        <ele>132.60000610352</ele>
        <time>2020-09-01T07:39:24.000Z</time>
      </trkpt>
      <trkpt lat="43.06752" lon="5.86167">
        <ele>132.39999389648</ele>
        <time>2020-09-01T07:39:25.000Z</time>
      </trkpt>
      <trkpt lat="43.0673" lon="5.86152">
        <ele>132</ele>
        <time>2020-09-01T07:39:30.000Z</time>
      </trkpt>
      <trkpt lat="43.06711" lon="5.86141">
        <ele>131.19999694824</ele>
        <time>2020-09-01T07:39:34.000Z</time>
      </trkpt>
      <trkpt lat="43.06701" lon="5.86135">
        <ele>130.60000610352</ele>
        <time>2020-09-01T07:39:36.000Z</time>
      </trkpt>
      <trkpt lat="43.06698" lon="5.86128">
        <ele>130</ele>
        <time>2020-09-01T07:39:37.000Z</time>
      </trkpt>
      <trkpt lat="43.06697" lon="5.86121">
        <ele>129.80000305176</ele>
        <time>2020-09-01T07:39:38.000Z</time>
      </trkpt>
      <trkpt lat="43.06701" lon="5.86101">
        <ele>129.60000610352</ele>
        <time>2020-09-01T07:39:41.000Z</time>
      </trkpt>
      <trkpt lat="43.067" lon="5.86073">
        <ele>129.19999694824</ele>
        <time>2020-09-01T07:39:45.000Z</time>
      </trkpt>
      <trkpt lat="43.067" lon="5.86067">
        <ele>129.19999694824</ele>
        <time>2020-09-01T07:39:46.000Z</time>
      </trkpt>
      <trkpt lat="43.06699" lon="5.86059">
        <ele>129</ele>
        <time>2020-09-01T07:39:47.000Z</time>
      </trkpt>
      <trkpt lat="43.06705" lon="5.8605">
        <ele>129.19999694824</ele>
        <time>2020-09-01T07:39:49.000Z</time>
      </trkpt>
      <trkpt lat="43.06719" lon="5.86047">
        <ele>129.19999694824</ele>
        <time>2020-09-01T07:39:52.000Z</time>
      </trkpt>
      <trkpt lat="43.06725" lon="5.86046">
        <ele>129</ele>
        <time>2020-09-01T07:39:53.000Z</time>
      </trkpt>
      <trkpt lat="43.0673" lon="5.86045">
        <ele>128.80000305176</ele>
        <time>2020-09-01T07:39:54.000Z</time>
      </trkpt>
      <trkpt lat="43.06739" lon="5.86036">
        <ele>128.60000610352</ele>
        <time>2020-09-01T07:39:56.000Z</time>
      </trkpt>
      <trkpt lat="43.06742" lon="5.86022">
        <ele>128</ele>
        <time>2020-09-01T07:39:58.000Z</time>
      </trkpt>
      <trkpt lat="43.06741" lon="5.86015">
        <ele>127.80000305176</ele>
        <time>2020-09-01T07:39:59.000Z</time>
      </trkpt>
      <trkpt lat="43.06739" lon="5.86001">
        <ele>127.80000305176</ele>
        <time>2020-09-01T07:40:01.000Z</time>
      </trkpt>
      <trkpt lat="43.06738" lon="5.85987">
        <ele>128.19999694824</ele>
        <time>2020-09-01T07:40:03.000Z</time>
      </trkpt>
      <trkpt lat="43.06741" lon="5.85973">
        <ele>128.39999389648</ele>
        <time>2020-09-01T07:40:05.000Z</time>
      </trkpt>
      <trkpt lat="43.06756" lon="5.85967">
        <ele>128.19999694824</ele>
        <time>2020-09-01T07:40:08.000Z</time>
      </trkpt>
      <trkpt lat="43.06766" lon="5.85969">
        <ele>128</ele>
        <time>2020-09-01T07:40:10.000Z</time>
      </trkpt>
      <trkpt lat="43.06783" lon="5.85969">
        <ele>128.19999694824</ele>
        <time>2020-09-01T07:40:13.000Z</time>
      </trkpt>
      <trkpt lat="43.06802" lon="5.85958">
        <ele>128.19999694824</ele>
        <time>2020-09-01T07:40:17.000Z</time>
      </trkpt>
      <trkpt lat="43.06817" lon="5.85936">
        <ele>126.80000305176</ele>
        <time>2020-09-01T07:40:21.000Z</time>
      </trkpt>
      <trkpt lat="43.06823" lon="5.85921">
        <ele>126.59999847412</ele>
        <time>2020-09-01T07:40:23.000Z</time>
      </trkpt>
      <trkpt lat="43.06831" lon="5.85903">
        <ele>126.59999847412</ele>
        <time>2020-09-01T07:40:26.000Z</time>
      </trkpt>
      <trkpt lat="43.06837" lon="5.85892">
        <ele>126.59999847412</ele>
        <time>2020-09-01T07:40:28.000Z</time>
      </trkpt>
      <trkpt lat="43.0685" lon="5.8588">
        <ele>126.80000305176</ele>
        <time>2020-09-01T07:40:31.000Z</time>
      </trkpt>
      <trkpt lat="43.06881" lon="5.85852">
        <ele>127.19999694824</ele>
        <time>2020-09-01T07:40:39.000Z</time>
      </trkpt>
      <trkpt lat="43.06887" lon="5.85846">
        <ele>127.19999694824</ele>
        <time>2020-09-01T07:40:43.000Z</time>
      </trkpt>
      <trkpt lat="43.06887" lon="5.85847">
        <ele>127.59999847412</ele>
        <time>2020-09-01T07:40:49.000Z</time>
      </trkpt>
      <trkpt lat="43.06887" lon="5.85848">
        <ele>127.80000305176</ele>
        <time>2020-09-01T07:40:51.000Z</time>
      </trkpt>
      <trkpt lat="43.06887" lon="5.85848">
        <ele>127.19999694824</ele>
        <time>2020-09-01T07:40:59.000Z</time>
      </trkpt>
      <trkpt lat="43.06887" lon="5.85849">
        <ele>126.80000305176</ele>
        <time>2020-09-01T07:41:07.000Z</time>
      </trkpt>
      <trkpt lat="43.06887" lon="5.85849">
        <ele>127.40000152588</ele>
        <time>2020-09-01T07:41:13.000Z</time>
      </trkpt>
      <trkpt lat="43.06884" lon="5.85852">
        <ele>127.40000152588</ele>
        <time>2020-09-01T07:41:28.000Z</time>
      </trkpt>
      <trkpt lat="43.06885" lon="5.85853">
        <ele>127.59999847412</ele>
        <time>2020-09-01T07:41:39.000Z</time>
      </trkpt>
      <trkpt lat="43.06884" lon="5.85851">
        <ele>127.80000305176</ele>
        <time>2020-09-01T07:41:47.000Z</time>
      </trkpt>
      <trkpt lat="43.06885" lon="5.85851">
        <ele>128.19999694824</ele>
        <time>2020-09-01T07:41:56.000Z</time>
      </trkpt>
      <trkpt lat="43.06885" lon="5.8585">
        <ele>127.80000305176</ele>
        <time>2020-09-01T07:42:08.000Z</time>
      </trkpt>
      <trkpt lat="43.06885" lon="5.8585">
        <ele>127.80000305176</ele>
        <time>2020-09-01T07:42:17.000Z</time>
      </trkpt>
      <trkpt lat="43.06885" lon="5.8585">
        <ele>128</ele>
        <time>2020-09-01T07:42:27.000Z</time>
      </trkpt>
      <trkpt lat="43.06885" lon="5.85849">
        <ele>127.80000305176</ele>
        <time>2020-09-01T07:42:38.000Z</time>
      </trkpt>
      <trkpt lat="43.06885" lon="5.85849">
        <ele>128.19999694824</ele>
        <time>2020-09-01T07:42:46.000Z</time>
      </trkpt>
      <trkpt lat="43.06885" lon="5.85849">
        <ele>128</ele>
        <time>2020-09-01T07:42:53.000Z</time>
      </trkpt>
      <trkpt lat="43.06885" lon="5.85849">
        <ele>128</ele>
        <time>2020-09-01T07:43:00.000Z</time>
      </trkpt>
      <trkpt lat="43.06884" lon="5.85848">
        <ele>128.19999694824</ele>
        <time>2020-09-01T07:43:07.000Z</time>
      </trkpt>
      <trkpt lat="43.06885" lon="5.85842">
        <ele>128</ele>
        <time>2020-09-01T07:43:12.000Z</time>
      </trkpt>
      <trkpt lat="43.06885" lon="5.85842">
        <ele>128</ele>
        <time>2020-09-01T07:43:17.000Z</time>
      </trkpt>
      <trkpt lat="43.06884" lon="5.85838">
        <ele>128</ele>
        <time>2020-09-01T07:43:28.000Z</time>
      </trkpt>
      <trkpt lat="43.06882" lon="5.85824">
        <ele>127.80000305176</ele>
        <time>2020-09-01T07:43:32.000Z</time>
      </trkpt>
      <trkpt lat="43.06881" lon="5.85819">
        <ele>127.59999847412</ele>
        <time>2020-09-01T07:43:33.000Z</time>
      </trkpt>
      <trkpt lat="43.06876" lon="5.85811">
        <ele>127.40000152588</ele>
        <time>2020-09-01T07:43:35.000Z</time>
      </trkpt>
      <trkpt lat="43.0687" lon="5.85805">
        <ele>127.59999847412</ele>
        <time>2020-09-01T07:43:38.000Z</time>
      </trkpt>
      <trkpt lat="43.06868" lon="5.85802">
        <ele>127.80000305176</ele>
        <time>2020-09-01T07:43:39.000Z</time>
      </trkpt>
      <trkpt lat="43.06866" lon="5.85798">
        <ele>128.80000305176</ele>
        <time>2020-09-01T07:43:41.000Z</time>
      </trkpt>
      <trkpt lat="43.06861" lon="5.85795">
        <ele>130</ele>
        <time>2020-09-01T07:43:43.000Z</time>
      </trkpt>
      <trkpt lat="43.06853" lon="5.85791">
        <ele>131</ele>
        <time>2020-09-01T07:43:46.000Z</time>
      </trkpt>
      <trkpt lat="43.06846" lon="5.85788">
        <ele>131.39999389648</ele>
        <time>2020-09-01T07:43:48.000Z</time>
      </trkpt>
      <trkpt lat="43.06837" lon="5.85775">
        <ele>131.19999694824</ele>
        <time>2020-09-01T07:43:52.000Z</time>
      </trkpt>
      <trkpt lat="43.06832" lon="5.85763">
        <ele>131.80000305176</ele>
        <time>2020-09-01T07:43:56.000Z</time>
      </trkpt>
      <trkpt lat="43.0683" lon="5.85757">
        <ele>132.19999694824</ele>
        <time>2020-09-01T07:43:58.000Z</time>
      </trkpt>
      <trkpt lat="43.06827" lon="5.85749">
        <ele>132.60000610352</ele>
        <time>2020-09-01T07:44:00.000Z</time>
      </trkpt>
      <trkpt lat="43.06822" lon="5.85737">
        <ele>133</ele>
        <time>2020-09-01T07:44:03.000Z</time>
      </trkpt>
      <trkpt lat="43.06821" lon="5.85733">
        <ele>133</ele>
        <time>2020-09-01T07:44:04.000Z</time>
      </trkpt>
      <trkpt lat="43.0682" lon="5.85728">
        <ele>133.39999389648</ele>
        <time>2020-09-01T07:44:05.000Z</time>
      </trkpt>
      <trkpt lat="43.06816" lon="5.85713">
        <ele>133.60000610352</ele>
        <time>2020-09-01T07:44:08.000Z</time>
      </trkpt>
      <trkpt lat="43.06815" lon="5.85708">
        <ele>133.80000305176</ele>
        <time>2020-09-01T07:44:09.000Z</time>
      </trkpt>
      <trkpt lat="43.06808" lon="5.85704">
        <ele>134</ele>
        <time>2020-09-01T07:44:12.000Z</time>
      </trkpt>
      <trkpt lat="43.06801" lon="5.85712">
        <ele>134.39999389648</ele>
        <time>2020-09-01T07:44:15.000Z</time>
      </trkpt>
      <trkpt lat="43.06799" lon="5.85716">
        <ele>134.60000610352</ele>
        <time>2020-09-01T07:44:16.000Z</time>
      </trkpt>
      <trkpt lat="43.06794" lon="5.8573">
        <ele>135</ele>
        <time>2020-09-01T07:44:19.000Z</time>
      </trkpt>
      <trkpt lat="43.0679" lon="5.85743">
        <ele>135.80000305176</ele>
        <time>2020-09-01T07:44:22.000Z</time>
      </trkpt>
      <trkpt lat="43.06788" lon="5.85759">
        <ele>137.19999694824</ele>
        <time>2020-09-01T07:44:26.000Z</time>
      </trkpt>
      <trkpt lat="43.06786" lon="5.85763">
        <ele>137.60000610352</ele>
        <time>2020-09-01T07:44:27.000Z</time>
      </trkpt>
      <trkpt lat="43.06784" lon="5.85771">
        <ele>138.19999694824</ele>
        <time>2020-09-01T07:44:29.000Z</time>
      </trkpt>
      <trkpt lat="43.06782" lon="5.8578">
        <ele>139.19999694824</ele>
        <time>2020-09-01T07:44:31.000Z</time>
      </trkpt>
      <trkpt lat="43.0678" lon="5.85789">
        <ele>140</ele>
        <time>2020-09-01T07:44:33.000Z</time>
      </trkpt>
      <trkpt lat="43.06779" lon="5.85793">
        <ele>140.60000610352</ele>
        <time>2020-09-01T07:44:34.000Z</time>
      </trkpt>
      <trkpt lat="43.06777" lon="5.85802">
        <ele>141.80000305176</ele>
        <time>2020-09-01T07:44:36.000Z</time>
      </trkpt>
      <trkpt lat="43.06775" lon="5.85811">
        <ele>143.19999694824</ele>
        <time>2020-09-01T07:44:38.000Z</time>
      </trkpt>
      <trkpt lat="43.06773" lon="5.8582">
        <ele>144.19999694824</ele>
        <time>2020-09-01T07:44:40.000Z</time>
      </trkpt>
      <trkpt lat="43.06772" lon="5.85824">
        <ele>144.60000610352</ele>
        <time>2020-09-01T07:44:41.000Z</time>
      </trkpt>
      <trkpt lat="43.06764" lon="5.85841">
        <ele>145.19999694824</ele>
        <time>2020-09-01T07:44:46.000Z</time>
      </trkpt>
      <trkpt lat="43.06756" lon="5.85858">
        <ele>146</ele>
        <time>2020-09-01T07:44:51.000Z</time>
      </trkpt>
      <trkpt lat="43.0675" lon="5.85861">
        <ele>146.39999389648</ele>
        <time>2020-09-01T07:44:53.000Z</time>
      </trkpt>
      <trkpt lat="43.06745" lon="5.85865">
        <ele>146.80000305176</ele>
        <time>2020-09-01T07:44:55.000Z</time>
      </trkpt>
      <trkpt lat="43.06731" lon="5.85875">
        <ele>147.60000610352</ele>
        <time>2020-09-01T07:45:00.000Z</time>
      </trkpt>
      <trkpt lat="43.06721" lon="5.85873">
        <ele>148.60000610352</ele>
        <time>2020-09-01T07:45:03.000Z</time>
      </trkpt>
      <trkpt lat="43.06714" lon="5.85868">
        <ele>149</ele>
        <time>2020-09-01T07:45:05.000Z</time>
      </trkpt>
      <trkpt lat="43.06707" lon="5.8586">
        <ele>149.60000610352</ele>
        <time>2020-09-01T07:45:08.000Z</time>
      </trkpt>
      <trkpt lat="43.06705" lon="5.85859">
        <ele>150</ele>
        <time>2020-09-01T07:45:09.000Z</time>
      </trkpt>
      <trkpt lat="43.06699" lon="5.85854">
        <ele>151.19999694824</ele>
        <time>2020-09-01T07:45:11.000Z</time>
      </trkpt>
      <trkpt lat="43.06691" lon="5.85849">
        <ele>152.60000610352</ele>
        <time>2020-09-01T07:45:14.000Z</time>
      </trkpt>
      <trkpt lat="43.06679" lon="5.85847">
        <ele>153.80000305176</ele>
        <time>2020-09-01T07:45:18.000Z</time>
      </trkpt>
      <trkpt lat="43.06677" lon="5.85847">
        <ele>154.19999694824</ele>
        <time>2020-09-01T07:45:19.000Z</time>
      </trkpt>
      <trkpt lat="43.06671" lon="5.8585">
        <ele>155</ele>
        <time>2020-09-01T07:45:21.000Z</time>
      </trkpt>
      <trkpt lat="43.06665" lon="5.85859">
        <ele>155.80000305176</ele>
        <time>2020-09-01T07:45:24.000Z</time>
      </trkpt>
      <trkpt lat="43.06663" lon="5.85863">
        <ele>156</ele>
        <time>2020-09-01T07:45:25.000Z</time>
      </trkpt>
      <trkpt lat="43.06657" lon="5.85873">
        <ele>157.39999389648</ele>
        <time>2020-09-01T07:45:29.000Z</time>
      </trkpt>
      <trkpt lat="43.0665" lon="5.85886">
        <ele>158.60000610352</ele>
        <time>2020-09-01T07:45:34.000Z</time>
      </trkpt>
      <trkpt lat="43.06644" lon="5.85891">
        <ele>159.80000305176</ele>
        <time>2020-09-01T07:45:37.000Z</time>
      </trkpt>
      <trkpt lat="43.0664" lon="5.85894">
        <ele>160.39999389648</ele>
        <time>2020-09-01T07:45:39.000Z</time>
      </trkpt>
      <trkpt lat="43.06634" lon="5.85896">
        <ele>160.60000610352</ele>
        <time>2020-09-01T07:45:41.000Z</time>
      </trkpt>
      <trkpt lat="43.06631" lon="5.85898">
        <ele>160.80000305176</ele>
        <time>2020-09-01T07:45:42.000Z</time>
      </trkpt>
      <trkpt lat="43.06623" lon="5.85902">
        <ele>161.39999389648</ele>
        <time>2020-09-01T07:45:45.000Z</time>
      </trkpt>
      <trkpt lat="43.0662" lon="5.85903">
        <ele>161.80000305176</ele>
        <time>2020-09-01T07:45:46.000Z</time>
      </trkpt>
      <trkpt lat="43.06613" lon="5.85908">
        <ele>163</ele>
        <time>2020-09-01T07:45:49.000Z</time>
      </trkpt>
      <trkpt lat="43.0661" lon="5.8591">
        <ele>163.39999389648</ele>
        <time>2020-09-01T07:45:50.000Z</time>
      </trkpt>
      <trkpt lat="43.06604" lon="5.85912">
        <ele>164.19999694824</ele>
        <time>2020-09-01T07:45:52.000Z</time>
      </trkpt>
      <trkpt lat="43.06599" lon="5.85911">
        <ele>164.80000305176</ele>
        <time>2020-09-01T07:45:54.000Z</time>
      </trkpt>
      <trkpt lat="43.06596" lon="5.85909">
        <ele>165.19999694824</ele>
        <time>2020-09-01T07:45:55.000Z</time>
      </trkpt>
      <trkpt lat="43.06577" lon="5.859">
        <ele>165.39999389648</ele>
        <time>2020-09-01T07:46:01.000Z</time>
      </trkpt>
      <trkpt lat="43.06561" lon="5.85893">
        <ele>166.19999694824</ele>
        <time>2020-09-01T07:46:07.000Z</time>
      </trkpt>
      <trkpt lat="43.06559" lon="5.85894">
        <ele>166.60000610352</ele>
        <time>2020-09-01T07:46:08.000Z</time>
      </trkpt>
      <trkpt lat="43.06552" lon="5.85902">
        <ele>167.39999389648</ele>
        <time>2020-09-01T07:46:11.000Z</time>
      </trkpt>
      <trkpt lat="43.0655" lon="5.85905">
        <ele>167.80000305176</ele>
        <time>2020-09-01T07:46:12.000Z</time>
      </trkpt>
      <trkpt lat="43.06545" lon="5.8591">
        <ele>168.60000610352</ele>
        <time>2020-09-01T07:46:14.000Z</time>
      </trkpt>
      <trkpt lat="43.06538" lon="5.8592">
        <ele>169.19999694824</ele>
        <time>2020-09-01T07:46:17.000Z</time>
      </trkpt>
      <trkpt lat="43.06531" lon="5.85933">
        <ele>170</ele>
        <time>2020-09-01T07:46:22.000Z</time>
      </trkpt>
      <trkpt lat="43.06528" lon="5.85948">
        <ele>171</ele>
        <time>2020-09-01T07:46:26.000Z</time>
      </trkpt>
      <trkpt lat="43.06527" lon="5.85953">
        <ele>171</ele>
        <time>2020-09-01T07:46:27.000Z</time>
      </trkpt>
      <trkpt lat="43.06525" lon="5.85972">
        <ele>172</ele>
        <time>2020-09-01T07:46:32.000Z</time>
      </trkpt>
      <trkpt lat="43.06525" lon="5.85976">
        <ele>172.39999389648</ele>
        <time>2020-09-01T07:46:33.000Z</time>
      </trkpt>
      <trkpt lat="43.06524" lon="5.85989">
        <ele>173.80000305176</ele>
        <time>2020-09-01T07:46:37.000Z</time>
      </trkpt>
      <trkpt lat="43.06523" lon="5.85999">
        <ele>175</ele>
        <time>2020-09-01T07:46:40.000Z</time>
      </trkpt>
      <trkpt lat="43.06521" lon="5.86008">
        <ele>176.39999389648</ele>
        <time>2020-09-01T07:46:43.000Z</time>
      </trkpt>
      <trkpt lat="43.06521" lon="5.86016">
        <ele>177.39999389648</ele>
        <time>2020-09-01T07:46:45.000Z</time>
      </trkpt>
      <trkpt lat="43.06518" lon="5.86029">
        <ele>178.60000610352</ele>
        <time>2020-09-01T07:46:48.000Z</time>
      </trkpt>
      <trkpt lat="43.06516" lon="5.86032">
        <ele>178.80000305176</ele>
        <time>2020-09-01T07:46:49.000Z</time>
      </trkpt>
      <trkpt lat="43.06508" lon="5.86048">
        <ele>179.39999389648</ele>
        <time>2020-09-01T07:46:54.000Z</time>
      </trkpt>
      <trkpt lat="43.06502" lon="5.86054">
        <ele>179.80000305176</ele>
        <time>2020-09-01T07:46:56.000Z</time>
      </trkpt>
      <trkpt lat="43.06494" lon="5.86061">
        <ele>179.80000305176</ele>
        <time>2020-09-01T07:46:59.000Z</time>
      </trkpt>
      <trkpt lat="43.06476" lon="5.86069">
        <ele>180.19999694824</ele>
        <time>2020-09-01T07:47:05.000Z</time>
      </trkpt>
      <trkpt lat="43.06473" lon="5.86068">
        <ele>180.80000305176</ele>
        <time>2020-09-01T07:47:06.000Z</time>
      </trkpt>
      <trkpt lat="43.06464" lon="5.86061">
        <ele>181.39999389648</ele>
        <time>2020-09-01T07:47:10.000Z</time>
      </trkpt>
      <trkpt lat="43.06452" lon="5.86058">
        <ele>181.60000610352</ele>
        <time>2020-09-01T07:47:15.000Z</time>
      </trkpt>
      <trkpt lat="43.0645" lon="5.86058">
        <ele>181.80000305176</ele>
        <time>2020-09-01T07:47:16.000Z</time>
      </trkpt>
      <trkpt lat="43.06437" lon="5.86054">
        <ele>182.80000305176</ele>
        <time>2020-09-01T07:47:20.000Z</time>
      </trkpt>
      <trkpt lat="43.06432" lon="5.86051">
        <ele>182.80000305176</ele>
        <time>2020-09-01T07:47:21.000Z</time>
      </trkpt>
      <trkpt lat="43.06424" lon="5.86047">
        <ele>182.60000610352</ele>
        <time>2020-09-01T07:47:23.000Z</time>
      </trkpt>
      <trkpt lat="43.06421" lon="5.86046">
        <ele>181.60000610352</ele>
        <time>2020-09-01T07:47:24.000Z</time>
      </trkpt>
      <trkpt lat="43.06399" lon="5.86049">
        <ele>182</ele>
        <time>2020-09-01T07:47:30.000Z</time>
      </trkpt>
      <trkpt lat="43.06385" lon="5.86044">
        <ele>182.80000305176</ele>
        <time>2020-09-01T07:47:34.000Z</time>
      </trkpt>
      <trkpt lat="43.06381" lon="5.86042">
        <ele>183</ele>
        <time>2020-09-01T07:47:35.000Z</time>
      </trkpt>
      <trkpt lat="43.06366" lon="5.86032">
        <ele>183.19999694824</ele>
        <time>2020-09-01T07:47:39.000Z</time>
      </trkpt>
      <trkpt lat="43.06362" lon="5.86028">
        <ele>183</ele>
        <time>2020-09-01T07:47:40.000Z</time>
      </trkpt>
      <trkpt lat="43.0635" lon="5.86007">
        <ele>182.39999389648</ele>
        <time>2020-09-01T07:47:44.000Z</time>
      </trkpt>
      <trkpt lat="43.06336" lon="5.86003">
        <ele>181.80000305176</ele>
        <time>2020-09-01T07:47:47.000Z</time>
      </trkpt>
      <trkpt lat="43.06324" lon="5.86014">
        <ele>181.39999389648</ele>
        <time>2020-09-01T07:47:50.000Z</time>
      </trkpt>
      <trkpt lat="43.0632" lon="5.86018">
        <ele>181.19999694824</ele>
        <time>2020-09-01T07:47:51.000Z</time>
      </trkpt>
      <trkpt lat="43.06317" lon="5.86021">
        <ele>181.19999694824</ele>
        <time>2020-09-01T07:47:52.000Z</time>
      </trkpt>
      <trkpt lat="43.06309" lon="5.86027">
        <ele>180.80000305176</ele>
        <time>2020-09-01T07:47:54.000Z</time>
      </trkpt>
      <trkpt lat="43.06299" lon="5.86032">
        <ele>180.19999694824</ele>
        <time>2020-09-01T07:47:56.000Z</time>
      </trkpt>
      <trkpt lat="43.06289" lon="5.86035">
        <ele>179.80000305176</ele>
        <time>2020-09-01T07:47:58.000Z</time>
      </trkpt>
      <trkpt lat="43.06285" lon="5.86033">
        <ele>179.60000610352</ele>
        <time>2020-09-01T07:47:59.000Z</time>
      </trkpt>
      <trkpt lat="43.06281" lon="5.86028">
        <ele>179.39999389648</ele>
        <time>2020-09-01T07:48:00.000Z</time>
      </trkpt>
      <trkpt lat="43.06275" lon="5.86011">
        <ele>179.19999694824</ele>
        <time>2020-09-01T07:48:03.000Z</time>
      </trkpt>
      <trkpt lat="43.06273" lon="5.86006">
        <ele>179.19999694824</ele>
        <time>2020-09-01T07:48:04.000Z</time>
      </trkpt>
      <trkpt lat="43.06263" lon="5.85986">
        <ele>179.19999694824</ele>
        <time>2020-09-01T07:48:08.000Z</time>
      </trkpt>
      <trkpt lat="43.06258" lon="5.85976">
        <ele>179.19999694824</ele>
        <time>2020-09-01T07:48:10.000Z</time>
      </trkpt>
      <trkpt lat="43.06252" lon="5.85966">
        <ele>178.80000305176</ele>
        <time>2020-09-01T07:48:12.000Z</time>
      </trkpt>
      <trkpt lat="43.06246" lon="5.85957">
        <ele>178.39999389648</ele>
        <time>2020-09-01T07:48:14.000Z</time>
      </trkpt>
      <trkpt lat="43.06242" lon="5.85951">
        <ele>178.39999389648</ele>
        <time>2020-09-01T07:48:15.000Z</time>
      </trkpt>
      <trkpt lat="43.06229" lon="5.85929">
        <ele>178.19999694824</ele>
        <time>2020-09-01T07:48:19.000Z</time>
      </trkpt>
      <trkpt lat="43.06214" lon="5.85907">
        <ele>178</ele>
        <time>2020-09-01T07:48:23.000Z</time>
      </trkpt>
      <trkpt lat="43.06209" lon="5.85895">
        <ele>177.80000305176</ele>
        <time>2020-09-01T07:48:25.000Z</time>
      </trkpt>
      <trkpt lat="43.06203" lon="5.85878">
        <ele>177.60000610352</ele>
        <time>2020-09-01T07:48:28.000Z</time>
      </trkpt>
      <trkpt lat="43.06196" lon="5.85873">
        <ele>177.80000305176</ele>
        <time>2020-09-01T07:48:30.000Z</time>
      </trkpt>
      <trkpt lat="43.06188" lon="5.85884">
        <ele>178</ele>
        <time>2020-09-01T07:48:33.000Z</time>
      </trkpt>
      <trkpt lat="43.06186" lon="5.85889">
        <ele>178</ele>
        <time>2020-09-01T07:48:34.000Z</time>
      </trkpt>
      <trkpt lat="43.06172" lon="5.85915">
        <ele>178.19999694824</ele>
        <time>2020-09-01T07:48:39.000Z</time>
      </trkpt>
      <trkpt lat="43.06167" lon="5.85925">
        <ele>178</ele>
        <time>2020-09-01T07:48:41.000Z</time>
      </trkpt>
      <trkpt lat="43.06163" lon="5.85942">
        <ele>178.19999694824</ele>
        <time>2020-09-01T07:48:44.000Z</time>
      </trkpt>
      <trkpt lat="43.06156" lon="5.85975">
        <ele>178.80000305176</ele>
        <time>2020-09-01T07:48:50.000Z</time>
      </trkpt>
      <trkpt lat="43.06153" lon="5.85979">
        <ele>178.80000305176</ele>
        <time>2020-09-01T07:48:51.000Z</time>
      </trkpt>
      <trkpt lat="43.06134" lon="5.86004">
        <ele>178.60000610352</ele>
        <time>2020-09-01T07:48:57.000Z</time>
      </trkpt>
      <trkpt lat="43.06125" lon="5.86013">
        <ele>178.80000305176</ele>
        <time>2020-09-01T07:49:00.000Z</time>
      </trkpt>
      <trkpt lat="43.06113" lon="5.86015">
        <ele>179</ele>
        <time>2020-09-01T07:49:03.000Z</time>
      </trkpt>
      <trkpt lat="43.06102" lon="5.86008">
        <ele>179.39999389648</ele>
        <time>2020-09-01T07:49:06.000Z</time>
      </trkpt>
      <trkpt lat="43.06099" lon="5.86005">
        <ele>179.39999389648</ele>
        <time>2020-09-01T07:49:07.000Z</time>
      </trkpt>
      <trkpt lat="43.06078" lon="5.85984">
        <ele>180.60000610352</ele>
        <time>2020-09-01T07:49:14.000Z</time>
      </trkpt>
      <trkpt lat="43.06074" lon="5.85981">
        <ele>180.80000305176</ele>
        <time>2020-09-01T07:49:15.000Z</time>
      </trkpt>
      <trkpt lat="43.0606" lon="5.85972">
        <ele>181.60000610352</ele>
        <time>2020-09-01T07:49:19.000Z</time>
      </trkpt>
      <trkpt lat="43.06053" lon="5.85967">
        <ele>182.19999694824</ele>
        <time>2020-09-01T07:49:21.000Z</time>
      </trkpt>
      <trkpt lat="43.06047" lon="5.85962">
        <ele>182.39999389648</ele>
        <time>2020-09-01T07:49:23.000Z</time>
      </trkpt>
      <trkpt lat="43.06044" lon="5.8596">
        <ele>182.60000610352</ele>
        <time>2020-09-01T07:49:24.000Z</time>
      </trkpt>
      <trkpt lat="43.06037" lon="5.8596">
        <ele>183</ele>
        <time>2020-09-01T07:49:26.000Z</time>
      </trkpt>
      <trkpt lat="43.06028" lon="5.85967">
        <ele>183.80000305176</ele>
        <time>2020-09-01T07:49:29.000Z</time>
      </trkpt>
      <trkpt lat="43.06027" lon="5.85972">
        <ele>183.80000305176</ele>
        <time>2020-09-01T07:49:30.000Z</time>
      </trkpt>
      <trkpt lat="43.06025" lon="5.85993">
        <ele>183.80000305176</ele>
        <time>2020-09-01T07:49:34.000Z</time>
      </trkpt>
      <trkpt lat="43.06019" lon="5.86008">
        <ele>183.80000305176</ele>
        <time>2020-09-01T07:49:37.000Z</time>
      </trkpt>
      <trkpt lat="43.06006" lon="5.86037">
        <ele>184</ele>
        <time>2020-09-01T07:49:43.000Z</time>
      </trkpt>
      <trkpt lat="43.05993" lon="5.86035">
        <ele>183.80000305176</ele>
        <time>2020-09-01T07:49:46.000Z</time>
      </trkpt>
      <trkpt lat="43.05985" lon="5.86031">
        <ele>183.80000305176</ele>
        <time>2020-09-01T07:49:48.000Z</time>
      </trkpt>
      <trkpt lat="43.05973" lon="5.86026">
        <ele>183.80000305176</ele>
        <time>2020-09-01T07:49:51.000Z</time>
      </trkpt>
      <trkpt lat="43.05964" lon="5.86026">
        <ele>183.80000305176</ele>
        <time>2020-09-01T07:49:55.000Z</time>
      </trkpt>
      <trkpt lat="43.05962" lon="5.86025">
        <ele>183.80000305176</ele>
        <time>2020-09-01T07:49:56.000Z</time>
      </trkpt>
      <trkpt lat="43.0596" lon="5.86015">
        <ele>183.60000610352</ele>
        <time>2020-09-01T07:49:59.000Z</time>
      </trkpt>
      <trkpt lat="43.05958" lon="5.8601">
        <ele>183</ele>
        <time>2020-09-01T07:50:00.000Z</time>
      </trkpt>
      <trkpt lat="43.05957" lon="5.86005">
        <ele>182.60000610352</ele>
        <time>2020-09-01T07:50:01.000Z</time>
      </trkpt>
      <trkpt lat="43.05955" lon="5.86">
        <ele>181</ele>
        <time>2020-09-01T07:50:03.000Z</time>
      </trkpt>
      <trkpt lat="43.05954" lon="5.85995">
        <ele>179.60000610352</ele>
        <time>2020-09-01T07:50:05.000Z</time>
      </trkpt>
      <trkpt lat="43.05953" lon="5.85993">
        <ele>178.60000610352</ele>
        <time>2020-09-01T07:50:06.000Z</time>
      </trkpt>
      <trkpt lat="43.05951" lon="5.85991">
        <ele>177.80000305176</ele>
        <time>2020-09-01T07:50:07.000Z</time>
      </trkpt>
      <trkpt lat="43.0595" lon="5.85988">
        <ele>177.39999389648</ele>
        <time>2020-09-01T07:50:08.000Z</time>
      </trkpt>
      <trkpt lat="43.05948" lon="5.85985">
        <ele>176.60000610352</ele>
        <time>2020-09-01T07:50:09.000Z</time>
      </trkpt>
      <trkpt lat="43.05946" lon="5.85983">
        <ele>176</ele>
        <time>2020-09-01T07:50:10.000Z</time>
      </trkpt>
      <trkpt lat="43.05944" lon="5.85979">
        <ele>175.19999694824</ele>
        <time>2020-09-01T07:50:11.000Z</time>
      </trkpt>
      <trkpt lat="43.05943" lon="5.85975">
        <ele>174.60000610352</ele>
        <time>2020-09-01T07:50:12.000Z</time>
      </trkpt>
      <trkpt lat="43.05942" lon="5.85972">
        <ele>173.80000305176</ele>
        <time>2020-09-01T07:50:13.000Z</time>
      </trkpt>
      <trkpt lat="43.05939" lon="5.85969">
        <ele>171.80000305176</ele>
        <time>2020-09-01T07:50:15.000Z</time>
      </trkpt>
      <trkpt lat="43.05936" lon="5.85962">
        <ele>170.19999694824</ele>
        <time>2020-09-01T07:50:17.000Z</time>
      </trkpt>
      <trkpt lat="43.05933" lon="5.85954">
        <ele>168.19999694824</ele>
        <time>2020-09-01T07:50:19.000Z</time>
      </trkpt>
      <trkpt lat="43.05931" lon="5.8595">
        <ele>167</ele>
        <time>2020-09-01T07:50:20.000Z</time>
      </trkpt>
      <trkpt lat="43.05929" lon="5.85946">
        <ele>165.60000610352</ele>
        <time>2020-09-01T07:50:21.000Z</time>
      </trkpt>
      <trkpt lat="43.05927" lon="5.85942">
        <ele>164.19999694824</ele>
        <time>2020-09-01T07:50:22.000Z</time>
      </trkpt>
      <trkpt lat="43.05923" lon="5.8594">
        <ele>163</ele>
        <time>2020-09-01T07:50:23.000Z</time>
      </trkpt>
      <trkpt lat="43.05915" lon="5.85934">
        <ele>161.19999694824</ele>
        <time>2020-09-01T07:50:25.000Z</time>
      </trkpt>
      <trkpt lat="43.05909" lon="5.85927">
        <ele>159.80000305176</ele>
        <time>2020-09-01T07:50:27.000Z</time>
      </trkpt>
      <trkpt lat="43.05906" lon="5.85917">
        <ele>158.80000305176</ele>
        <time>2020-09-01T07:50:29.000Z</time>
      </trkpt>
      <trkpt lat="43.05904" lon="5.85911">
        <ele>158.60000610352</ele>
        <time>2020-09-01T07:50:30.000Z</time>
      </trkpt>
      <trkpt lat="43.05903" lon="5.85908">
        <ele>158.39999389648</ele>
        <time>2020-09-01T07:50:31.000Z</time>
      </trkpt>
      <trkpt lat="43.05902" lon="5.85904">
        <ele>157.80000305176</ele>
        <time>2020-09-01T07:50:32.000Z</time>
      </trkpt>
      <trkpt lat="43.05902" lon="5.859">
        <ele>157.60000610352</ele>
        <time>2020-09-01T07:50:33.000Z</time>
      </trkpt>
      <trkpt lat="43.05902" lon="5.85893">
        <ele>156.80000305176</ele>
        <time>2020-09-01T07:50:35.000Z</time>
      </trkpt>
      <trkpt lat="43.05901" lon="5.85889">
        <ele>156.19999694824</ele>
        <time>2020-09-01T07:50:36.000Z</time>
      </trkpt>
      <trkpt lat="43.059" lon="5.85882">
        <ele>155.60000610352</ele>
        <time>2020-09-01T07:50:38.000Z</time>
      </trkpt>
      <trkpt lat="43.05899" lon="5.85878">
        <ele>154.80000305176</ele>
        <time>2020-09-01T07:50:39.000Z</time>
      </trkpt>
      <trkpt lat="43.05897" lon="5.85862">
        <ele>153.60000610352</ele>
        <time>2020-09-01T07:50:42.000Z</time>
      </trkpt>
      <trkpt lat="43.05897" lon="5.85851">
        <ele>152.80000305176</ele>
        <time>2020-09-01T07:50:44.000Z</time>
      </trkpt>
      <trkpt lat="43.05896" lon="5.85847">
        <ele>152.60000610352</ele>
        <time>2020-09-01T07:50:45.000Z</time>
      </trkpt>
      <trkpt lat="43.05895" lon="5.85842">
        <ele>152.60000610352</ele>
        <time>2020-09-01T07:50:46.000Z</time>
      </trkpt>
      <trkpt lat="43.0589" lon="5.85817">
        <ele>152.80000305176</ele>
        <time>2020-09-01T07:50:50.000Z</time>
      </trkpt>
      <trkpt lat="43.05889" lon="5.8581">
        <ele>153</ele>
        <time>2020-09-01T07:50:51.000Z</time>
      </trkpt>
      <trkpt lat="43.05885" lon="5.85796">
        <ele>152.80000305176</ele>
        <time>2020-09-01T07:50:53.000Z</time>
      </trkpt>
      <trkpt lat="43.05881" lon="5.85786">
        <ele>151.80000305176</ele>
        <time>2020-09-01T07:50:55.000Z</time>
      </trkpt>
      <trkpt lat="43.05878" lon="5.85783">
        <ele>150.80000305176</ele>
        <time>2020-09-01T07:50:56.000Z</time>
      </trkpt>
      <trkpt lat="43.05875" lon="5.85782">
        <ele>149.60000610352</ele>
        <time>2020-09-01T07:50:57.000Z</time>
      </trkpt>
      <trkpt lat="43.05873" lon="5.85783">
        <ele>149.19999694824</ele>
        <time>2020-09-01T07:50:58.000Z</time>
      </trkpt>
      <trkpt lat="43.05872" lon="5.85786">
        <ele>148.39999389648</ele>
        <time>2020-09-01T07:50:59.000Z</time>
      </trkpt>
      <trkpt lat="43.05872" lon="5.85792">
        <ele>148.19999694824</ele>
        <time>2020-09-01T07:51:01.000Z</time>
      </trkpt>
      <trkpt lat="43.05872" lon="5.85806">
        <ele>148.80000305176</ele>
        <time>2020-09-01T07:51:06.000Z</time>
      </trkpt>
      <trkpt lat="43.05876" lon="5.85818">
        <ele>149.39999389648</ele>
        <time>2020-09-01T07:51:10.000Z</time>
      </trkpt>
      <trkpt lat="43.05879" lon="5.85829">
        <ele>149</ele>
        <time>2020-09-01T07:51:15.000Z</time>
      </trkpt>
      <trkpt lat="43.05878" lon="5.85832">
        <ele>149.39999389648</ele>
        <time>2020-09-01T07:51:22.000Z</time>
      </trkpt>
      <trkpt lat="43.05878" lon="5.85832">
        <ele>149.39999389648</ele>
        <time>2020-09-01T07:51:23.000Z</time>
      </trkpt>
      <trkpt lat="43.05878" lon="5.85832">
        <ele>149.39999389648</ele>
        <time>2020-09-01T07:51:28.000Z</time>
      </trkpt>
      <trkpt lat="43.05878" lon="5.85832">
        <ele>149</ele>
        <time>2020-09-01T07:51:34.000Z</time>
      </trkpt>
      <trkpt lat="43.05878" lon="5.85831">
        <ele>149</ele>
        <time>2020-09-01T07:51:35.000Z</time>
      </trkpt>
      <trkpt lat="43.05878" lon="5.8583">
        <ele>149.19999694824</ele>
        <time>2020-09-01T07:51:38.000Z</time>
      </trkpt>
      <trkpt lat="43.05878" lon="5.85829">
        <ele>148.80000305176</ele>
        <time>2020-09-01T07:51:45.000Z</time>
      </trkpt>
      <trkpt lat="43.05879" lon="5.8583">
        <ele>148.80000305176</ele>
        <time>2020-09-01T07:51:52.000Z</time>
      </trkpt>
      <trkpt lat="43.05879" lon="5.85829">
        <ele>148.80000305176</ele>
        <time>2020-09-01T07:52:04.000Z</time>
      </trkpt>
      <trkpt lat="43.05879" lon="5.8583">
        <ele>148.80000305176</ele>
        <time>2020-09-01T07:52:13.000Z</time>
      </trkpt>
      <trkpt lat="43.05879" lon="5.85829">
        <ele>149.39999389648</ele>
        <time>2020-09-01T07:52:21.000Z</time>
      </trkpt>
      <trkpt lat="43.0588" lon="5.85832">
        <ele>149</ele>
        <time>2020-09-01T07:52:28.000Z</time>
      </trkpt>
      <trkpt lat="43.05881" lon="5.85833">
        <ele>148.80000305176</ele>
        <time>2020-09-01T07:52:33.000Z</time>
      </trkpt>
      <trkpt lat="43.05881" lon="5.85831">
        <ele>149.19999694824</ele>
        <time>2020-09-01T07:52:37.000Z</time>
      </trkpt>
      <trkpt lat="43.05882" lon="5.8582">
        <ele>149.19999694824</ele>
        <time>2020-09-01T07:52:42.000Z</time>
      </trkpt>
      <trkpt lat="43.05877" lon="5.85799">
        <ele>149</ele>
        <time>2020-09-01T07:52:47.000Z</time>
      </trkpt>
      <trkpt lat="43.05863" lon="5.85775">
        <ele>148.60000610352</ele>
        <time>2020-09-01T07:52:53.000Z</time>
      </trkpt>
      <trkpt lat="43.05861" lon="5.85772">
        <ele>148.39999389648</ele>
        <time>2020-09-01T07:52:54.000Z</time>
      </trkpt>
      <trkpt lat="43.05854" lon="5.85759">
        <ele>148.60000610352</ele>
        <time>2020-09-01T07:52:58.000Z</time>
      </trkpt>
      <trkpt lat="43.05851" lon="5.8575">
        <ele>150</ele>
        <time>2020-09-01T07:53:01.000Z</time>
      </trkpt>
      <trkpt lat="43.05849" lon="5.85744">
        <ele>151</ele>
        <time>2020-09-01T07:53:03.000Z</time>
      </trkpt>
      <trkpt lat="43.05847" lon="5.85742">
        <ele>151.19999694824</ele>
        <time>2020-09-01T07:53:04.000Z</time>
      </trkpt>
      <trkpt lat="43.05837" lon="5.85734">
        <ele>152.39999389648</ele>
        <time>2020-09-01T07:53:08.000Z</time>
      </trkpt>
      <trkpt lat="43.05834" lon="5.85733">
        <ele>152.60000610352</ele>
        <time>2020-09-01T07:53:09.000Z</time>
      </trkpt>
      <trkpt lat="43.05814" lon="5.85734">
        <ele>153</ele>
        <time>2020-09-01T07:53:16.000Z</time>
      </trkpt>
      <trkpt lat="43.05808" lon="5.85736">
        <ele>153.39999389648</ele>
        <time>2020-09-01T07:53:18.000Z</time>
      </trkpt>
      <trkpt lat="43.05799" lon="5.85743">
        <ele>154.60000610352</ele>
        <time>2020-09-01T07:53:22.000Z</time>
      </trkpt>
      <trkpt lat="43.05788" lon="5.85751">
        <ele>156</ele>
        <time>2020-09-01T07:53:26.000Z</time>
      </trkpt>
      <trkpt lat="43.05778" lon="5.8576">
        <ele>156.80000305176</ele>
        <time>2020-09-01T07:53:30.000Z</time>
      </trkpt>
      <trkpt lat="43.05775" lon="5.85763">
        <ele>157.19999694824</ele>
        <time>2020-09-01T07:53:31.000Z</time>
      </trkpt>
      <trkpt lat="43.05768" lon="5.85769">
        <ele>158.19999694824</ele>
        <time>2020-09-01T07:53:34.000Z</time>
      </trkpt>
      <trkpt lat="43.05759" lon="5.85779">
        <ele>159.39999389648</ele>
        <time>2020-09-01T07:53:38.000Z</time>
      </trkpt>
      <trkpt lat="43.05738" lon="5.85797">
        <ele>160.19999694824</ele>
        <time>2020-09-01T07:53:46.000Z</time>
      </trkpt>
      <trkpt lat="43.05717" lon="5.85806">
        <ele>159.60000610352</ele>
        <time>2020-09-01T07:53:50.000Z</time>
      </trkpt>
      <trkpt lat="43.05706" lon="5.85812">
        <ele>158.39999389648</ele>
        <time>2020-09-01T07:53:52.000Z</time>
      </trkpt>
      <trkpt lat="43.057" lon="5.85814">
        <ele>157.60000610352</ele>
        <time>2020-09-01T07:53:53.000Z</time>
      </trkpt>
      <trkpt lat="43.05695" lon="5.85815">
        <ele>157</ele>
        <time>2020-09-01T07:53:54.000Z</time>
      </trkpt>
      <trkpt lat="43.0569" lon="5.85815">
        <ele>157</ele>
        <time>2020-09-01T07:53:55.000Z</time>
      </trkpt>
      <trkpt lat="43.05675" lon="5.85816">
        <ele>158.19999694824</ele>
        <time>2020-09-01T07:53:59.000Z</time>
      </trkpt>
      <trkpt lat="43.05667" lon="5.85817">
        <ele>158.80000305176</ele>
        <time>2020-09-01T07:54:01.000Z</time>
      </trkpt>
      <trkpt lat="43.0566" lon="5.85817">
        <ele>159.39999389648</ele>
        <time>2020-09-01T07:54:03.000Z</time>
      </trkpt>
      <trkpt lat="43.05648" lon="5.8582">
        <ele>160.80000305176</ele>
        <time>2020-09-01T07:54:07.000Z</time>
      </trkpt>
      <trkpt lat="43.05642" lon="5.85821">
        <ele>162</ele>
        <time>2020-09-01T07:54:09.000Z</time>
      </trkpt>
      <trkpt lat="43.05637" lon="5.85823">
        <ele>163</ele>
        <time>2020-09-01T07:54:11.000Z</time>
      </trkpt>
      <trkpt lat="43.0563" lon="5.85823">
        <ele>164</ele>
        <time>2020-09-01T07:54:13.000Z</time>
      </trkpt>
      <trkpt lat="43.05628" lon="5.85823">
        <ele>164.19999694824</ele>
        <time>2020-09-01T07:54:14.000Z</time>
      </trkpt>
      <trkpt lat="43.0562" lon="5.85824">
        <ele>165.60000610352</ele>
        <time>2020-09-01T07:54:17.000Z</time>
      </trkpt>
      <trkpt lat="43.05613" lon="5.85824">
        <ele>167</ele>
        <time>2020-09-01T07:54:20.000Z</time>
      </trkpt>
      <trkpt lat="43.05605" lon="5.85825">
        <ele>168.39999389648</ele>
        <time>2020-09-01T07:54:23.000Z</time>
      </trkpt>
      <trkpt lat="43.05597" lon="5.85826">
        <ele>169.60000610352</ele>
        <time>2020-09-01T07:54:26.000Z</time>
      </trkpt>
      <trkpt lat="43.05593" lon="5.85827">
        <ele>170.80000305176</ele>
        <time>2020-09-01T07:54:28.000Z</time>
      </trkpt>
      <trkpt lat="43.05588" lon="5.85828">
        <ele>172</ele>
        <time>2020-09-01T07:54:30.000Z</time>
      </trkpt>
      <trkpt lat="43.05583" lon="5.8583">
        <ele>173.39999389648</ele>
        <time>2020-09-01T07:54:32.000Z</time>
      </trkpt>
      <trkpt lat="43.05578" lon="5.85832">
        <ele>174.19999694824</ele>
        <time>2020-09-01T07:54:34.000Z</time>
      </trkpt>
      <trkpt lat="43.05575" lon="5.85832">
        <ele>174.60000610352</ele>
        <time>2020-09-01T07:54:35.000Z</time>
      </trkpt>
      <trkpt lat="43.05567" lon="5.85832">
        <ele>176</ele>
        <time>2020-09-01T07:54:38.000Z</time>
      </trkpt>
      <trkpt lat="43.05559" lon="5.85831">
        <ele>177</ele>
        <time>2020-09-01T07:54:41.000Z</time>
      </trkpt>
      <trkpt lat="43.05549" lon="5.85831">
        <ele>178.39999389648</ele>
        <time>2020-09-01T07:54:45.000Z</time>
      </trkpt>
      <trkpt lat="43.05541" lon="5.8583">
        <ele>179.80000305176</ele>
        <time>2020-09-01T07:54:48.000Z</time>
      </trkpt>
      <trkpt lat="43.05536" lon="5.85829">
        <ele>180.80000305176</ele>
        <time>2020-09-01T07:54:50.000Z</time>
      </trkpt>
      <trkpt lat="43.05529" lon="5.85828">
        <ele>182</ele>
        <time>2020-09-01T07:54:53.000Z</time>
      </trkpt>
      <trkpt lat="43.05521" lon="5.85827">
        <ele>183.19999694824</ele>
        <time>2020-09-01T07:54:56.000Z</time>
      </trkpt>
      <trkpt lat="43.05513" lon="5.85826">
        <ele>184</ele>
        <time>2020-09-01T07:54:59.000Z</time>
      </trkpt>
      <trkpt lat="43.0551" lon="5.85826">
        <ele>184.39999389648</ele>
        <time>2020-09-01T07:55:00.000Z</time>
      </trkpt>
      <trkpt lat="43.055" lon="5.85828">
        <ele>185.60000610352</ele>
        <time>2020-09-01T07:55:04.000Z</time>
      </trkpt>
      <trkpt lat="43.05494" lon="5.85829">
        <ele>186.19999694824</ele>
        <time>2020-09-01T07:55:06.000Z</time>
      </trkpt>
      <trkpt lat="43.05489" lon="5.8583">
        <ele>186.80000305176</ele>
        <time>2020-09-01T07:55:08.000Z</time>
      </trkpt>
      <trkpt lat="43.05479" lon="5.85827">
        <ele>187.80000305176</ele>
        <time>2020-09-01T07:55:12.000Z</time>
      </trkpt>
      <trkpt lat="43.05475" lon="5.85815">
        <ele>188.80000305176</ele>
        <time>2020-09-01T07:55:16.000Z</time>
      </trkpt>
      <trkpt lat="43.05475" lon="5.85811">
        <ele>189.19999694824</ele>
        <time>2020-09-01T07:55:17.000Z</time>
      </trkpt>
      <trkpt lat="43.05475" lon="5.85805">
        <ele>190.19999694824</ele>
        <time>2020-09-01T07:55:19.000Z</time>
      </trkpt>
      <trkpt lat="43.05476" lon="5.85796">
        <ele>191.60000610352</ele>
        <time>2020-09-01T07:55:22.000Z</time>
      </trkpt>
      <trkpt lat="43.05477" lon="5.85793">
        <ele>192.19999694824</ele>
        <time>2020-09-01T07:55:23.000Z</time>
      </trkpt>
      <trkpt lat="43.05478" lon="5.8579">
        <ele>192.80000305176</ele>
        <time>2020-09-01T07:55:24.000Z</time>
      </trkpt>
      <trkpt lat="43.05481" lon="5.8578">
        <ele>194.19999694824</ele>
        <time>2020-09-01T07:55:27.000Z</time>
      </trkpt>
      <trkpt lat="43.05485" lon="5.85773">
        <ele>195.60000610352</ele>
        <time>2020-09-01T07:55:30.000Z</time>
      </trkpt>
      <trkpt lat="43.05487" lon="5.85771">
        <ele>196.19999694824</ele>
        <time>2020-09-01T07:55:31.000Z</time>
      </trkpt>
      <trkpt lat="43.05488" lon="5.85768">
        <ele>196.80000305176</ele>
        <time>2020-09-01T07:55:32.000Z</time>
      </trkpt>
      <trkpt lat="43.05494" lon="5.85762">
        <ele>198</ele>
        <time>2020-09-01T07:55:35.000Z</time>
      </trkpt>
      <trkpt lat="43.055" lon="5.85756">
        <ele>199</ele>
        <time>2020-09-01T07:55:38.000Z</time>
      </trkpt>
      <trkpt lat="43.05502" lon="5.85755">
        <ele>199.19999694824</ele>
        <time>2020-09-01T07:55:39.000Z</time>
      </trkpt>
      <trkpt lat="43.05509" lon="5.8575">
        <ele>200.39999389648</ele>
        <time>2020-09-01T07:55:42.000Z</time>
      </trkpt>
      <trkpt lat="43.05516" lon="5.85746">
        <ele>201.39999389648</ele>
        <time>2020-09-01T07:55:45.000Z</time>
      </trkpt>
      <trkpt lat="43.05523" lon="5.85742">
        <ele>202.39999389648</ele>
        <time>2020-09-01T07:55:48.000Z</time>
      </trkpt>
      <trkpt lat="43.05525" lon="5.85741">
        <ele>202.60000610352</ele>
        <time>2020-09-01T07:55:49.000Z</time>
      </trkpt>
      <trkpt lat="43.05532" lon="5.85738">
        <ele>203.80000305176</ele>
        <time>2020-09-01T07:55:52.000Z</time>
      </trkpt>
      <trkpt lat="43.05542" lon="5.85733">
        <ele>204.80000305176</ele>
        <time>2020-09-01T07:55:56.000Z</time>
      </trkpt>
      <trkpt lat="43.05548" lon="5.85729">
        <ele>205.80000305176</ele>
        <time>2020-09-01T07:55:59.000Z</time>
      </trkpt>
      <trkpt lat="43.0555" lon="5.85728">
        <ele>206.19999694824</ele>
        <time>2020-09-01T07:56:00.000Z</time>
      </trkpt>
      <trkpt lat="43.05558" lon="5.85723">
        <ele>207.39999389648</ele>
        <time>2020-09-01T07:56:04.000Z</time>
      </trkpt>
      <trkpt lat="43.05563" lon="5.85719">
        <ele>207.80000305176</ele>
        <time>2020-09-01T07:56:06.000Z</time>
      </trkpt>
      <trkpt lat="43.05569" lon="5.85715">
        <ele>208.39999389648</ele>
        <time>2020-09-01T07:56:09.000Z</time>
      </trkpt>
      <trkpt lat="43.05578" lon="5.85708">
        <ele>209.60000610352</ele>
        <time>2020-09-01T07:56:13.000Z</time>
      </trkpt>
      <trkpt lat="43.05579" lon="5.85706">
        <ele>209.80000305176</ele>
        <time>2020-09-01T07:56:14.000Z</time>
      </trkpt>
      <trkpt lat="43.05587" lon="5.85698">
        <ele>210.80000305176</ele>
        <time>2020-09-01T07:56:18.000Z</time>
      </trkpt>
      <trkpt lat="43.05599" lon="5.85682">
        <ele>211</ele>
        <time>2020-09-01T07:56:24.000Z</time>
      </trkpt>
      <trkpt lat="43.05608" lon="5.85659">
        <ele>210.80000305176</ele>
        <time>2020-09-01T07:56:30.000Z</time>
      </trkpt>
      <trkpt lat="43.05615" lon="5.85632">
        <ele>211.80000305176</ele>
        <time>2020-09-01T07:56:37.000Z</time>
      </trkpt>
      <trkpt lat="43.05615" lon="5.85628">
        <ele>212.19999694824</ele>
        <time>2020-09-01T07:56:38.000Z</time>
      </trkpt>
      <trkpt lat="43.05612" lon="5.8562">
        <ele>213</ele>
        <time>2020-09-01T07:56:41.000Z</time>
      </trkpt>
      <trkpt lat="43.05609" lon="5.85616">
        <ele>213.60000610352</ele>
        <time>2020-09-01T07:56:43.000Z</time>
      </trkpt>
      <trkpt lat="43.05604" lon="5.85614">
        <ele>214.19999694824</ele>
        <time>2020-09-01T07:56:45.000Z</time>
      </trkpt>
      <trkpt lat="43.05599" lon="5.85614">
        <ele>215.39999389648</ele>
        <time>2020-09-01T07:56:47.000Z</time>
      </trkpt>
      <trkpt lat="43.05595" lon="5.85615">
        <ele>216.80000305176</ele>
        <time>2020-09-01T07:56:49.000Z</time>
      </trkpt>
      <trkpt lat="43.05587" lon="5.85618">
        <ele>218.19999694824</ele>
        <time>2020-09-01T07:56:52.000Z</time>
      </trkpt>
      <trkpt lat="43.05577" lon="5.85623">
        <ele>219.39999389648</ele>
        <time>2020-09-01T07:56:56.000Z</time>
      </trkpt>
      <trkpt lat="43.05573" lon="5.85626">
        <ele>219.80000305176</ele>
        <time>2020-09-01T07:56:58.000Z</time>
      </trkpt>
      <trkpt lat="43.0556" lon="5.85634">
        <ele>220.39999389648</ele>
        <time>2020-09-01T07:57:03.000Z</time>
      </trkpt>
      <trkpt lat="43.05553" lon="5.85638">
        <ele>221.19999694824</ele>
        <time>2020-09-01T07:57:06.000Z</time>
      </trkpt>
      <trkpt lat="43.05551" lon="5.8564">
        <ele>221.60000610352</ele>
        <time>2020-09-01T07:57:07.000Z</time>
      </trkpt>
      <trkpt lat="43.05542" lon="5.85646">
        <ele>223</ele>
        <time>2020-09-01T07:57:11.000Z</time>
      </trkpt>
      <trkpt lat="43.05531" lon="5.85649">
        <ele>223.60000610352</ele>
        <time>2020-09-01T07:57:15.000Z</time>
      </trkpt>
      <trkpt lat="43.05522" lon="5.85651">
        <ele>224</ele>
        <time>2020-09-01T07:57:18.000Z</time>
      </trkpt>
      <trkpt lat="43.05509" lon="5.85653">
        <ele>225.19999694824</ele>
        <time>2020-09-01T07:57:23.000Z</time>
      </trkpt>
      <trkpt lat="43.05506" lon="5.85653">
        <ele>225.60000610352</ele>
        <time>2020-09-01T07:57:24.000Z</time>
      </trkpt>
      <trkpt lat="43.05498" lon="5.85654">
        <ele>226.39999389648</ele>
        <time>2020-09-01T07:57:27.000Z</time>
      </trkpt>
      <trkpt lat="43.05488" lon="5.85657">
        <ele>227.60000610352</ele>
        <time>2020-09-01T07:57:31.000Z</time>
      </trkpt>
      <trkpt lat="43.05475" lon="5.8566">
        <ele>228.80000305176</ele>
        <time>2020-09-01T07:57:36.000Z</time>
      </trkpt>
      <trkpt lat="43.05468" lon="5.85661">
        <ele>229.80000305176</ele>
        <time>2020-09-01T07:57:39.000Z</time>
      </trkpt>
      <trkpt lat="43.05465" lon="5.85662">
        <ele>230.19999694824</ele>
        <time>2020-09-01T07:57:40.000Z</time>
      </trkpt>
      <trkpt lat="43.05456" lon="5.85666">
        <ele>231.39999389648</ele>
        <time>2020-09-01T07:57:44.000Z</time>
      </trkpt>
      <trkpt lat="43.05448" lon="5.8567">
        <ele>232.19999694824</ele>
        <time>2020-09-01T07:57:47.000Z</time>
      </trkpt>
      <trkpt lat="43.05446" lon="5.85671">
        <ele>232.39999389648</ele>
        <time>2020-09-01T07:57:48.000Z</time>
      </trkpt>
      <trkpt lat="43.05434" lon="5.85679">
        <ele>233.60000610352</ele>
        <time>2020-09-01T07:57:53.000Z</time>
      </trkpt>
      <trkpt lat="43.05432" lon="5.85681">
        <ele>233.80000305176</ele>
        <time>2020-09-01T07:57:54.000Z</time>
      </trkpt>
      <trkpt lat="43.05425" lon="5.85686">
        <ele>234.80000305176</ele>
        <time>2020-09-01T07:57:57.000Z</time>
      </trkpt>
      <trkpt lat="43.05414" lon="5.85687">
        <ele>236.19999694824</ele>
        <time>2020-09-01T07:58:01.000Z</time>
      </trkpt>
      <trkpt lat="43.05404" lon="5.85685">
        <ele>237.80000305176</ele>
        <time>2020-09-01T07:58:05.000Z</time>
      </trkpt>
      <trkpt lat="43.05396" lon="5.85683">
        <ele>239.19999694824</ele>
        <time>2020-09-01T07:58:08.000Z</time>
      </trkpt>
      <trkpt lat="43.05391" lon="5.85678">
        <ele>240.60000610352</ele>
        <time>2020-09-01T07:58:11.000Z</time>
      </trkpt>
      <trkpt lat="43.0539" lon="5.85675">
        <ele>241.19999694824</ele>
        <time>2020-09-01T07:58:12.000Z</time>
      </trkpt>
      <trkpt lat="43.0539" lon="5.85672">
        <ele>242</ele>
        <time>2020-09-01T07:58:13.000Z</time>
      </trkpt>
      <trkpt lat="43.05392" lon="5.85667">
        <ele>243</ele>
        <time>2020-09-01T07:58:15.000Z</time>
      </trkpt>
      <trkpt lat="43.05395" lon="5.85663">
        <ele>244.19999694824</ele>
        <time>2020-09-01T07:58:17.000Z</time>
      </trkpt>
      <trkpt lat="43.05397" lon="5.85661">
        <ele>244.60000610352</ele>
        <time>2020-09-01T07:58:18.000Z</time>
      </trkpt>
      <trkpt lat="43.05401" lon="5.85658">
        <ele>245.39999389648</ele>
        <time>2020-09-01T07:58:20.000Z</time>
      </trkpt>
      <trkpt lat="43.05403" lon="5.85656">
        <ele>245.80000305176</ele>
        <time>2020-09-01T07:58:21.000Z</time>
      </trkpt>
      <trkpt lat="43.05408" lon="5.85653">
        <ele>246.60000610352</ele>
        <time>2020-09-01T07:58:23.000Z</time>
      </trkpt>
      <trkpt lat="43.05414" lon="5.85648">
        <ele>247.60000610352</ele>
        <time>2020-09-01T07:58:26.000Z</time>
      </trkpt>
      <trkpt lat="43.05416" lon="5.85646">
        <ele>247.80000305176</ele>
        <time>2020-09-01T07:58:27.000Z</time>
      </trkpt>
      <trkpt lat="43.05429" lon="5.85635">
        <ele>248.80000305176</ele>
        <time>2020-09-01T07:58:33.000Z</time>
      </trkpt>
      <trkpt lat="43.05433" lon="5.85632">
        <ele>249.19999694824</ele>
        <time>2020-09-01T07:58:35.000Z</time>
      </trkpt>
      <trkpt lat="43.0544" lon="5.85628">
        <ele>250.19999694824</ele>
        <time>2020-09-01T07:58:38.000Z</time>
      </trkpt>
      <trkpt lat="43.05446" lon="5.85623">
        <ele>251</ele>
        <time>2020-09-01T07:58:42.000Z</time>
      </trkpt>
      <trkpt lat="43.05448" lon="5.85621">
        <ele>251.39999389648</ele>
        <time>2020-09-01T07:58:43.000Z</time>
      </trkpt>
      <trkpt lat="43.05451" lon="5.85617">
        <ele>252</ele>
        <time>2020-09-01T07:58:46.000Z</time>
      </trkpt>
      <trkpt lat="43.0545" lon="5.85614">
        <ele>252.39999389648</ele>
        <time>2020-09-01T07:58:47.000Z</time>
      </trkpt>
      <trkpt lat="43.05449" lon="5.85612">
        <ele>252.60000610352</ele>
        <time>2020-09-01T07:58:48.000Z</time>
      </trkpt>
      <trkpt lat="43.05444" lon="5.8561">
        <ele>253</ele>
        <time>2020-09-01T07:58:50.000Z</time>
      </trkpt>
      <trkpt lat="43.05439" lon="5.85611">
        <ele>253.80000305176</ele>
        <time>2020-09-01T07:58:52.000Z</time>
      </trkpt>
      <trkpt lat="43.05433" lon="5.85612">
        <ele>254.80000305176</ele>
        <time>2020-09-01T07:58:54.000Z</time>
      </trkpt>
      <trkpt lat="43.0543" lon="5.85612">
        <ele>255.19999694824</ele>
        <time>2020-09-01T07:58:55.000Z</time>
      </trkpt>
      <trkpt lat="43.05428" lon="5.85612">
        <ele>256</ele>
        <time>2020-09-01T07:58:56.000Z</time>
      </trkpt>
      <trkpt lat="43.05422" lon="5.85611">
        <ele>257.39999389648</ele>
        <time>2020-09-01T07:58:59.000Z</time>
      </trkpt>
      <trkpt lat="43.05419" lon="5.85611">
        <ele>258</ele>
        <time>2020-09-01T07:59:00.000Z</time>
      </trkpt>
      <trkpt lat="43.05417" lon="5.85612">
        <ele>258.39999389648</ele>
        <time>2020-09-01T07:59:01.000Z</time>
      </trkpt>
      <trkpt lat="43.05413" lon="5.85612">
        <ele>259.60000610352</ele>
        <time>2020-09-01T07:59:03.000Z</time>
      </trkpt>
      <trkpt lat="43.05404" lon="5.85612">
        <ele>260.60000610352</ele>
        <time>2020-09-01T07:59:07.000Z</time>
      </trkpt>
      <trkpt lat="43.05399" lon="5.85613">
        <ele>261.20001220703</ele>
        <time>2020-09-01T07:59:09.000Z</time>
      </trkpt>
      <trkpt lat="43.05395" lon="5.85613">
        <ele>261.79998779297</ele>
        <time>2020-09-01T07:59:11.000Z</time>
      </trkpt>
      <trkpt lat="43.0539" lon="5.85613">
        <ele>263</ele>
        <time>2020-09-01T07:59:13.000Z</time>
      </trkpt>
      <trkpt lat="43.05386" lon="5.85613">
        <ele>264.20001220703</ele>
        <time>2020-09-01T07:59:15.000Z</time>
      </trkpt>
      <trkpt lat="43.05382" lon="5.85612">
        <ele>265.39999389648</ele>
        <time>2020-09-01T07:59:17.000Z</time>
      </trkpt>
      <trkpt lat="43.05376" lon="5.85611">
        <ele>266.79998779297</ele>
        <time>2020-09-01T07:59:20.000Z</time>
      </trkpt>
      <trkpt lat="43.05372" lon="5.8561">
        <ele>267.60000610352</ele>
        <time>2020-09-01T07:59:22.000Z</time>
      </trkpt>
      <trkpt lat="43.0537" lon="5.8561">
        <ele>268</ele>
        <time>2020-09-01T07:59:23.000Z</time>
      </trkpt>
      <trkpt lat="43.05363" lon="5.85609">
        <ele>269</ele>
        <time>2020-09-01T07:59:26.000Z</time>
      </trkpt>
      <trkpt lat="43.05359" lon="5.85608">
        <ele>269.79998779297</ele>
        <time>2020-09-01T07:59:28.000Z</time>
      </trkpt>
      <trkpt lat="43.05357" lon="5.85607">
        <ele>270.39999389648</ele>
        <time>2020-09-01T07:59:29.000Z</time>
      </trkpt>
      <trkpt lat="43.05353" lon="5.85606">
        <ele>271.60000610352</ele>
        <time>2020-09-01T07:59:31.000Z</time>
      </trkpt>
      <trkpt lat="43.05349" lon="5.85606">
        <ele>272.79998779297</ele>
        <time>2020-09-01T07:59:33.000Z</time>
      </trkpt>
      <trkpt lat="43.05343" lon="5.85606">
        <ele>274.20001220703</ele>
        <time>2020-09-01T07:59:36.000Z</time>
      </trkpt>
      <trkpt lat="43.05335" lon="5.85606">
        <ele>275.20001220703</ele>
        <time>2020-09-01T07:59:40.000Z</time>
      </trkpt>
      <trkpt lat="43.05332" lon="5.85606">
        <ele>275.60000610352</ele>
        <time>2020-09-01T07:59:41.000Z</time>
      </trkpt>
      <trkpt lat="43.05328" lon="5.85606">
        <ele>276.20001220703</ele>
        <time>2020-09-01T07:59:43.000Z</time>
      </trkpt>
      <trkpt lat="43.0532" lon="5.85608">
        <ele>277.60000610352</ele>
        <time>2020-09-01T07:59:47.000Z</time>
      </trkpt>
      <trkpt lat="43.05315" lon="5.8561">
        <ele>279</ele>
        <time>2020-09-01T07:59:50.000Z</time>
      </trkpt>
      <trkpt lat="43.05309" lon="5.85614">
        <ele>280.20001220703</ele>
        <time>2020-09-01T07:59:53.000Z</time>
      </trkpt>
      <trkpt lat="43.05302" lon="5.85615">
        <ele>281.39999389648</ele>
        <time>2020-09-01T07:59:57.000Z</time>
      </trkpt>
      <trkpt lat="43.05299" lon="5.85613">
        <ele>281.79998779297</ele>
        <time>2020-09-01T07:59:59.000Z</time>
      </trkpt>
      <trkpt lat="43.05298" lon="5.85608">
        <ele>282.39999389648</ele>
        <time>2020-09-01T08:00:01.000Z</time>
      </trkpt>
      <trkpt lat="43.05299" lon="5.85606">
        <ele>283</ele>
        <time>2020-09-01T08:00:02.000Z</time>
      </trkpt>
      <trkpt lat="43.053" lon="5.85603">
        <ele>283.79998779297</ele>
        <time>2020-09-01T08:00:04.000Z</time>
      </trkpt>
      <trkpt lat="43.05304" lon="5.85597">
        <ele>284.79998779297</ele>
        <time>2020-09-01T08:00:07.000Z</time>
      </trkpt>
      <trkpt lat="43.05307" lon="5.85593">
        <ele>285.79998779297</ele>
        <time>2020-09-01T08:00:09.000Z</time>
      </trkpt>
      <trkpt lat="43.05309" lon="5.85591">
        <ele>286.20001220703</ele>
        <time>2020-09-01T08:00:10.000Z</time>
      </trkpt>
      <trkpt lat="43.05317" lon="5.85582">
        <ele>287.39999389648</ele>
        <time>2020-09-01T08:00:15.000Z</time>
      </trkpt>
      <trkpt lat="43.05319" lon="5.8558">
        <ele>287.60000610352</ele>
        <time>2020-09-01T08:00:16.000Z</time>
      </trkpt>
      <trkpt lat="43.05326" lon="5.85574">
        <ele>288.60000610352</ele>
        <time>2020-09-01T08:00:20.000Z</time>
      </trkpt>
      <trkpt lat="43.05332" lon="5.85571">
        <ele>289.39999389648</ele>
        <time>2020-09-01T08:00:23.000Z</time>
      </trkpt>
      <trkpt lat="43.05336" lon="5.8557">
        <ele>289.79998779297</ele>
        <time>2020-09-01T08:00:25.000Z</time>
      </trkpt>
      <trkpt lat="43.05346" lon="5.85568">
        <ele>291.20001220703</ele>
        <time>2020-09-01T08:00:30.000Z</time>
      </trkpt>
      <trkpt lat="43.05348" lon="5.85564">
        <ele>291.60000610352</ele>
        <time>2020-09-01T08:00:32.000Z</time>
      </trkpt>
      <trkpt lat="43.05348" lon="5.85558">
        <ele>292</ele>
        <time>2020-09-01T08:00:34.000Z</time>
      </trkpt>
      <trkpt lat="43.05346" lon="5.85557">
        <ele>292.20001220703</ele>
        <time>2020-09-01T08:00:36.000Z</time>
      </trkpt>
      <trkpt lat="43.0534" lon="5.85554">
        <ele>292.60000610352</ele>
        <time>2020-09-01T08:00:38.000Z</time>
      </trkpt>
      <trkpt lat="43.05335" lon="5.85555">
        <ele>293.20001220703</ele>
        <time>2020-09-01T08:00:40.000Z</time>
      </trkpt>
      <trkpt lat="43.0533" lon="5.85555">
        <ele>294.20001220703</ele>
        <time>2020-09-01T08:00:42.000Z</time>
      </trkpt>
      <trkpt lat="43.05323" lon="5.85557">
        <ele>295.39999389648</ele>
        <time>2020-09-01T08:00:45.000Z</time>
      </trkpt>
      <trkpt lat="43.05321" lon="5.85558">
        <ele>295.60000610352</ele>
        <time>2020-09-01T08:00:46.000Z</time>
      </trkpt>
      <trkpt lat="43.05313" lon="5.8556">
        <ele>296.39999389648</ele>
        <time>2020-09-01T08:00:50.000Z</time>
      </trkpt>
      <trkpt lat="43.05311" lon="5.85558">
        <ele>296.60000610352</ele>
        <time>2020-09-01T08:00:51.000Z</time>
      </trkpt>
      <trkpt lat="43.05311" lon="5.85556">
        <ele>297</ele>
        <time>2020-09-01T08:00:52.000Z</time>
      </trkpt>
      <trkpt lat="43.05313" lon="5.85551">
        <ele>297.60000610352</ele>
        <time>2020-09-01T08:00:54.000Z</time>
      </trkpt>
      <trkpt lat="43.05316" lon="5.85548">
        <ele>298.39999389648</ele>
        <time>2020-09-01T08:00:56.000Z</time>
      </trkpt>
      <trkpt lat="43.05318" lon="5.85547">
        <ele>298.79998779297</ele>
        <time>2020-09-01T08:00:57.000Z</time>
      </trkpt>
      <trkpt lat="43.05324" lon="5.85543">
        <ele>300</ele>
        <time>2020-09-01T08:01:00.000Z</time>
      </trkpt>
      <trkpt lat="43.05332" lon="5.85536">
        <ele>300.39999389648</ele>
        <time>2020-09-01T08:01:04.000Z</time>
      </trkpt>
      <trkpt lat="43.05342" lon="5.85525">
        <ele>301</ele>
        <time>2020-09-01T08:01:09.000Z</time>
      </trkpt>
      <trkpt lat="43.05346" lon="5.85521">
        <ele>301.20001220703</ele>
        <time>2020-09-01T08:01:11.000Z</time>
      </trkpt>
      <trkpt lat="43.05352" lon="5.85512">
        <ele>302.20001220703</ele>
        <time>2020-09-01T08:01:15.000Z</time>
      </trkpt>
      <trkpt lat="43.05356" lon="5.85505">
        <ele>302.79998779297</ele>
        <time>2020-09-01T08:01:18.000Z</time>
      </trkpt>
      <trkpt lat="43.0536" lon="5.85492">
        <ele>303</ele>
        <time>2020-09-01T08:01:22.000Z</time>
      </trkpt>
      <trkpt lat="43.05357" lon="5.85476">
        <ele>303</ele>
        <time>2020-09-01T08:01:27.000Z</time>
      </trkpt>
      <trkpt lat="43.05356" lon="5.85456">
        <ele>303.20001220703</ele>
        <time>2020-09-01T08:01:33.000Z</time>
      </trkpt>
      <trkpt lat="43.05356" lon="5.85423">
        <ele>302.60000610352</ele>
        <time>2020-09-01T08:01:42.000Z</time>
      </trkpt>
      <trkpt lat="43.05352" lon="5.8539">
        <ele>301.79998779297</ele>
        <time>2020-09-01T08:01:49.000Z</time>
      </trkpt>
      <trkpt lat="43.05349" lon="5.85379">
        <ele>301.39999389648</ele>
        <time>2020-09-01T08:01:51.000Z</time>
      </trkpt>
      <trkpt lat="43.05347" lon="5.85374">
        <ele>301.20001220703</ele>
        <time>2020-09-01T08:01:52.000Z</time>
      </trkpt>
      <trkpt lat="43.05342" lon="5.85364">
        <ele>300.79998779297</ele>
        <time>2020-09-01T08:01:54.000Z</time>
      </trkpt>
      <trkpt lat="43.05333" lon="5.85348">
        <ele>300.20001220703</ele>
        <time>2020-09-01T08:01:57.000Z</time>
      </trkpt>
      <trkpt lat="43.05323" lon="5.8533">
        <ele>299.60000610352</ele>
        <time>2020-09-01T08:02:01.000Z</time>
      </trkpt>
      <trkpt lat="43.05319" lon="5.85304">
        <ele>299.39999389648</ele>
        <time>2020-09-01T08:02:06.000Z</time>
      </trkpt>
      <trkpt lat="43.05318" lon="5.8528">
        <ele>299</ele>
        <time>2020-09-01T08:02:10.000Z</time>
      </trkpt>
      <trkpt lat="43.05318" lon="5.85266">
        <ele>298.60000610352</ele>
        <time>2020-09-01T08:02:12.000Z</time>
      </trkpt>
      <trkpt lat="43.05319" lon="5.85253">
        <ele>298.20001220703</ele>
        <time>2020-09-01T08:02:14.000Z</time>
      </trkpt>
      <trkpt lat="43.05323" lon="5.85241">
        <ele>298</ele>
        <time>2020-09-01T08:02:16.000Z</time>
      </trkpt>
      <trkpt lat="43.05327" lon="5.85234">
        <ele>297.79998779297</ele>
        <time>2020-09-01T08:02:17.000Z</time>
      </trkpt>
      <trkpt lat="43.05329" lon="5.85227">
        <ele>297.60000610352</ele>
        <time>2020-09-01T08:02:18.000Z</time>
      </trkpt>
      <trkpt lat="43.05331" lon="5.85207">
        <ele>297.20001220703</ele>
        <time>2020-09-01T08:02:21.000Z</time>
      </trkpt>
      <trkpt lat="43.05331" lon="5.85194">
        <ele>296.79998779297</ele>
        <time>2020-09-01T08:02:23.000Z</time>
      </trkpt>
      <trkpt lat="43.05331" lon="5.85169">
        <ele>296.39999389648</ele>
        <time>2020-09-01T08:02:27.000Z</time>
      </trkpt>
      <trkpt lat="43.05331" lon="5.85163">
        <ele>296.39999389648</ele>
        <time>2020-09-01T08:02:28.000Z</time>
      </trkpt>
      <trkpt lat="43.05337" lon="5.85128">
        <ele>297.79998779297</ele>
        <time>2020-09-01T08:02:34.000Z</time>
      </trkpt>
      <trkpt lat="43.05337" lon="5.85121">
        <ele>298</ele>
        <time>2020-09-01T08:02:35.000Z</time>
      </trkpt>
      <trkpt lat="43.05335" lon="5.85101">
        <ele>299</ele>
        <time>2020-09-01T08:02:39.000Z</time>
      </trkpt>
      <trkpt lat="43.05333" lon="5.85096">
        <ele>299.20001220703</ele>
        <time>2020-09-01T08:02:40.000Z</time>
      </trkpt>
      <trkpt lat="43.05328" lon="5.8508">
        <ele>300.20001220703</ele>
        <time>2020-09-01T08:02:43.000Z</time>
      </trkpt>
      <trkpt lat="43.05324" lon="5.85058">
        <ele>301.39999389648</ele>
        <time>2020-09-01T08:02:47.000Z</time>
      </trkpt>
      <trkpt lat="43.05325" lon="5.85037">
        <ele>302.60000610352</ele>
        <time>2020-09-01T08:02:51.000Z</time>
      </trkpt>
      <trkpt lat="43.05327" lon="5.85027">
        <ele>303</ele>
        <time>2020-09-01T08:02:53.000Z</time>
      </trkpt>
      <trkpt lat="43.05333" lon="5.85007">
        <ele>303.60000610352</ele>
        <time>2020-09-01T08:02:57.000Z</time>
      </trkpt>
      <trkpt lat="43.05338" lon="5.84999">
        <ele>304</ele>
        <time>2020-09-01T08:02:59.000Z</time>
      </trkpt>
      <trkpt lat="43.05347" lon="5.84991">
        <ele>304.79998779297</ele>
        <time>2020-09-01T08:03:02.000Z</time>
      </trkpt>
      <trkpt lat="43.05353" lon="5.84985">
        <ele>305</ele>
        <time>2020-09-01T08:03:04.000Z</time>
      </trkpt>
      <trkpt lat="43.05359" lon="5.84967">
        <ele>305.79998779297</ele>
        <time>2020-09-01T08:03:08.000Z</time>
      </trkpt>
      <trkpt lat="43.05361" lon="5.84931">
        <ele>306.20001220703</ele>
        <time>2020-09-01T08:03:14.000Z</time>
      </trkpt>
      <trkpt lat="43.05362" lon="5.84913">
        <ele>306.39999389648</ele>
        <time>2020-09-01T08:03:17.000Z</time>
      </trkpt>
      <trkpt lat="43.05365" lon="5.84902">
        <ele>306.39999389648</ele>
        <time>2020-09-01T08:03:19.000Z</time>
      </trkpt>
      <trkpt lat="43.0537" lon="5.8489">
        <ele>306.39999389648</ele>
        <time>2020-09-01T08:03:21.000Z</time>
      </trkpt>
      <trkpt lat="43.05381" lon="5.84869">
        <ele>306.20001220703</ele>
        <time>2020-09-01T08:03:25.000Z</time>
      </trkpt>
      <trkpt lat="43.05384" lon="5.84865">
        <ele>306.20001220703</ele>
        <time>2020-09-01T08:03:26.000Z</time>
      </trkpt>
      <trkpt lat="43.05401" lon="5.84844">
        <ele>306.39999389648</ele>
        <time>2020-09-01T08:03:31.000Z</time>
      </trkpt>
      <trkpt lat="43.05412" lon="5.84826">
        <ele>306.60000610352</ele>
        <time>2020-09-01T08:03:35.000Z</time>
      </trkpt>
      <trkpt lat="43.05417" lon="5.84818">
        <ele>307</ele>
        <time>2020-09-01T08:03:37.000Z</time>
      </trkpt>
      <trkpt lat="43.05421" lon="5.84805">
        <ele>308.60000610352</ele>
        <time>2020-09-01T08:03:40.000Z</time>
      </trkpt>
      <trkpt lat="43.05421" lon="5.848">
        <ele>309</ele>
        <time>2020-09-01T08:03:41.000Z</time>
      </trkpt>
      <trkpt lat="43.05419" lon="5.84793">
        <ele>309.60000610352</ele>
        <time>2020-09-01T08:03:43.000Z</time>
      </trkpt>
      <trkpt lat="43.05417" lon="5.84789">
        <ele>309.79998779297</ele>
        <time>2020-09-01T08:03:44.000Z</time>
      </trkpt>
      <trkpt lat="43.05416" lon="5.84785">
        <ele>309.79998779297</ele>
        <time>2020-09-01T08:03:45.000Z</time>
      </trkpt>
      <trkpt lat="43.05412" lon="5.84767">
        <ele>310.60000610352</ele>
        <time>2020-09-01T08:03:49.000Z</time>
      </trkpt>
      <trkpt lat="43.05412" lon="5.84762">
        <ele>310.79998779297</ele>
        <time>2020-09-01T08:03:50.000Z</time>
      </trkpt>
      <trkpt lat="43.05413" lon="5.84742">
        <ele>311.79998779297</ele>
        <time>2020-09-01T08:03:54.000Z</time>
      </trkpt>
      <trkpt lat="43.05416" lon="5.84721">
        <ele>312.39999389648</ele>
        <time>2020-09-01T08:03:58.000Z</time>
      </trkpt>
      <trkpt lat="43.05423" lon="5.84699">
        <ele>312.79998779297</ele>
        <time>2020-09-01T08:04:03.000Z</time>
      </trkpt>
      <trkpt lat="43.05425" lon="5.84696">
        <ele>312.79998779297</ele>
        <time>2020-09-01T08:04:04.000Z</time>
      </trkpt>
      <trkpt lat="43.05431" lon="5.8468">
        <ele>313.79998779297</ele>
        <time>2020-09-01T08:04:08.000Z</time>
      </trkpt>
      <trkpt lat="43.05431" lon="5.84675">
        <ele>313.79998779297</ele>
        <time>2020-09-01T08:04:09.000Z</time>
      </trkpt>
      <trkpt lat="43.05425" lon="5.84655">
        <ele>314.79998779297</ele>
        <time>2020-09-01T08:04:13.000Z</time>
      </trkpt>
      <trkpt lat="43.05424" lon="5.84651">
        <ele>315</ele>
        <time>2020-09-01T08:04:14.000Z</time>
      </trkpt>
      <trkpt lat="43.05419" lon="5.84639">
        <ele>316.39999389648</ele>
        <time>2020-09-01T08:04:17.000Z</time>
      </trkpt>
      <trkpt lat="43.05413" lon="5.84629">
        <ele>317.39999389648</ele>
        <time>2020-09-01T08:04:20.000Z</time>
      </trkpt>
      <trkpt lat="43.0541" lon="5.84626">
        <ele>317.79998779297</ele>
        <time>2020-09-01T08:04:21.000Z</time>
      </trkpt>
      <trkpt lat="43.05398" lon="5.84618">
        <ele>318.60000610352</ele>
        <time>2020-09-01T08:04:25.000Z</time>
      </trkpt>
      <trkpt lat="43.05392" lon="5.84615">
        <ele>319.20001220703</ele>
        <time>2020-09-01T08:04:27.000Z</time>
      </trkpt>
      <trkpt lat="43.05385" lon="5.84611">
        <ele>320</ele>
        <time>2020-09-01T08:04:29.000Z</time>
      </trkpt>
      <trkpt lat="43.05375" lon="5.84604">
        <ele>321</ele>
        <time>2020-09-01T08:04:32.000Z</time>
      </trkpt>
      <trkpt lat="43.0537" lon="5.84598">
        <ele>321.60000610352</ele>
        <time>2020-09-01T08:04:34.000Z</time>
      </trkpt>
      <trkpt lat="43.05367" lon="5.84595">
        <ele>322</ele>
        <time>2020-09-01T08:04:35.000Z</time>
      </trkpt>
      <trkpt lat="43.05363" lon="5.84588">
        <ele>323.20001220703</ele>
        <time>2020-09-01T08:04:37.000Z</time>
      </trkpt>
      <trkpt lat="43.05358" lon="5.84578">
        <ele>324.39999389648</ele>
        <time>2020-09-01T08:04:40.000Z</time>
      </trkpt>
      <trkpt lat="43.05357" lon="5.84574">
        <ele>324.79998779297</ele>
        <time>2020-09-01T08:04:41.000Z</time>
      </trkpt>
      <trkpt lat="43.05356" lon="5.84565">
        <ele>325.39999389648</ele>
        <time>2020-09-01T08:04:44.000Z</time>
      </trkpt>
      <trkpt lat="43.05355" lon="5.84562">
        <ele>325.79998779297</ele>
        <time>2020-09-01T08:04:45.000Z</time>
      </trkpt>
      <trkpt lat="43.05351" lon="5.84559">
        <ele>326.60000610352</ele>
        <time>2020-09-01T08:04:47.000Z</time>
      </trkpt>
      <trkpt lat="43.05347" lon="5.84568">
        <ele>328</ele>
        <time>2020-09-01T08:04:50.000Z</time>
      </trkpt>
      <trkpt lat="43.05347" lon="5.84578">
        <ele>328.79998779297</ele>
        <time>2020-09-01T08:04:52.000Z</time>
      </trkpt>
      <trkpt lat="43.05347" lon="5.84583">
        <ele>329.20001220703</ele>
        <time>2020-09-01T08:04:53.000Z</time>
      </trkpt>
      <trkpt lat="43.05348" lon="5.84593">
        <ele>330</ele>
        <time>2020-09-01T08:04:55.000Z</time>
      </trkpt>
      <trkpt lat="43.05348" lon="5.84597">
        <ele>330.60000610352</ele>
        <time>2020-09-01T08:04:56.000Z</time>
      </trkpt>
      <trkpt lat="43.05348" lon="5.84609">
        <ele>331.60000610352</ele>
        <time>2020-09-01T08:04:59.000Z</time>
      </trkpt>
      <trkpt lat="43.05349" lon="5.84625">
        <ele>332.79998779297</ele>
        <time>2020-09-01T08:05:03.000Z</time>
      </trkpt>
      <trkpt lat="43.05351" lon="5.84633">
        <ele>334</ele>
        <time>2020-09-01T08:05:05.000Z</time>
      </trkpt>
      <trkpt lat="43.05353" lon="5.8464">
        <ele>335.39999389648</ele>
        <time>2020-09-01T08:05:07.000Z</time>
      </trkpt>
      <trkpt lat="43.05355" lon="5.84647">
        <ele>336.39999389648</ele>
        <time>2020-09-01T08:05:09.000Z</time>
      </trkpt>
      <trkpt lat="43.05358" lon="5.84654">
        <ele>337.20001220703</ele>
        <time>2020-09-01T08:05:11.000Z</time>
      </trkpt>
      <trkpt lat="43.05359" lon="5.84658">
        <ele>337.79998779297</ele>
        <time>2020-09-01T08:05:12.000Z</time>
      </trkpt>
      <trkpt lat="43.05359" lon="5.84669">
        <ele>339</ele>
        <time>2020-09-01T08:05:15.000Z</time>
      </trkpt>
      <trkpt lat="43.05358" lon="5.84672">
        <ele>339.20001220703</ele>
        <time>2020-09-01T08:05:16.000Z</time>
      </trkpt>
      <trkpt lat="43.05355" lon="5.84679">
        <ele>340</ele>
        <time>2020-09-01T08:05:18.000Z</time>
      </trkpt>
      <trkpt lat="43.05351" lon="5.84683">
        <ele>340.79998779297</ele>
        <time>2020-09-01T08:05:20.000Z</time>
      </trkpt>
      <trkpt lat="43.05348" lon="5.84684">
        <ele>341.20001220703</ele>
        <time>2020-09-01T08:05:21.000Z</time>
      </trkpt>
      <trkpt lat="43.05345" lon="5.84681">
        <ele>342.39999389648</ele>
        <time>2020-09-01T08:05:23.000Z</time>
      </trkpt>
      <trkpt lat="43.05343" lon="5.84679">
        <ele>343.20001220703</ele>
        <time>2020-09-01T08:05:24.000Z</time>
      </trkpt>
      <trkpt lat="43.05341" lon="5.84677">
        <ele>344</ele>
        <time>2020-09-01T08:05:25.000Z</time>
      </trkpt>
      <trkpt lat="43.05338" lon="5.84672">
        <ele>345.39999389648</ele>
        <time>2020-09-01T08:05:27.000Z</time>
      </trkpt>
      <trkpt lat="43.05335" lon="5.84668">
        <ele>346.60000610352</ele>
        <time>2020-09-01T08:05:29.000Z</time>
      </trkpt>
      <trkpt lat="43.05331" lon="5.84665">
        <ele>347.79998779297</ele>
        <time>2020-09-01T08:05:31.000Z</time>
      </trkpt>
      <trkpt lat="43.0533" lon="5.84667">
        <ele>348</ele>
        <time>2020-09-01T08:05:32.000Z</time>
      </trkpt>
      <trkpt lat="43.05331" lon="5.84676">
        <ele>348.79998779297</ele>
        <time>2020-09-01T08:05:35.000Z</time>
      </trkpt>
      <trkpt lat="43.05331" lon="5.84679">
        <ele>349</ele>
        <time>2020-09-01T08:05:36.000Z</time>
      </trkpt>
      <trkpt lat="43.05331" lon="5.84685">
        <ele>349.60000610352</ele>
        <time>2020-09-01T08:05:38.000Z</time>
      </trkpt>
      <trkpt lat="43.0533" lon="5.84688">
        <ele>350</ele>
        <time>2020-09-01T08:05:39.000Z</time>
      </trkpt>
      <trkpt lat="43.05328" lon="5.8469">
        <ele>350.60000610352</ele>
        <time>2020-09-01T08:05:40.000Z</time>
      </trkpt>
      <trkpt lat="43.05325" lon="5.84691">
        <ele>351</ele>
        <time>2020-09-01T08:05:41.000Z</time>
      </trkpt>
      <trkpt lat="43.05321" lon="5.84694">
        <ele>352.39999389648</ele>
        <time>2020-09-01T08:05:43.000Z</time>
      </trkpt>
      <trkpt lat="43.05318" lon="5.84696">
        <ele>353.60000610352</ele>
        <time>2020-09-01T08:05:45.000Z</time>
      </trkpt>
      <trkpt lat="43.05314" lon="5.84701">
        <ele>354.39999389648</ele>
        <time>2020-09-01T08:05:48.000Z</time>
      </trkpt>
      <trkpt lat="43.05313" lon="5.84707">
        <ele>354.39999389648</ele>
        <time>2020-09-01T08:05:50.000Z</time>
      </trkpt>
      <trkpt lat="43.05312" lon="5.84713">
        <ele>354.39999389648</ele>
        <time>2020-09-01T08:05:52.000Z</time>
      </trkpt>
      <trkpt lat="43.05312" lon="5.84729">
        <ele>354.39999389648</ele>
        <time>2020-09-01T08:05:57.000Z</time>
      </trkpt>
      <trkpt lat="43.05314" lon="5.84733">
        <ele>354.39999389648</ele>
        <time>2020-09-01T08:06:02.000Z</time>
      </trkpt>
      <trkpt lat="43.05313" lon="5.84733">
        <ele>354.39999389648</ele>
        <time>2020-09-01T08:06:08.000Z</time>
      </trkpt>
      <trkpt lat="43.05313" lon="5.84733">
        <ele>354.60000610352</ele>
        <time>2020-09-01T08:06:13.000Z</time>
      </trkpt>
      <trkpt lat="43.05314" lon="5.84734">
        <ele>354.79998779297</ele>
        <time>2020-09-01T08:06:16.000Z</time>
      </trkpt>
      <trkpt lat="43.05316" lon="5.84736">
        <ele>354.79998779297</ele>
        <time>2020-09-01T08:06:22.000Z</time>
      </trkpt>
      <trkpt lat="43.05319" lon="5.84741">
        <ele>354.39999389648</ele>
        <time>2020-09-01T08:06:28.000Z</time>
      </trkpt>
      <trkpt lat="43.05322" lon="5.84744">
        <ele>355.20001220703</ele>
        <time>2020-09-01T08:06:35.000Z</time>
      </trkpt>
      <trkpt lat="43.05322" lon="5.84745">
        <ele>355.60000610352</ele>
        <time>2020-09-01T08:06:44.000Z</time>
      </trkpt>
      <trkpt lat="43.05323" lon="5.84747">
        <ele>355.79998779297</ele>
        <time>2020-09-01T08:06:46.000Z</time>
      </trkpt>
      <trkpt lat="43.05325" lon="5.84747">
        <ele>355.39999389648</ele>
        <time>2020-09-01T08:06:51.000Z</time>
      </trkpt>
      <trkpt lat="43.0533" lon="5.84746">
        <ele>355.79998779297</ele>
        <time>2020-09-01T08:06:57.000Z</time>
      </trkpt>
      <trkpt lat="43.0533" lon="5.84746">
        <ele>354</ele>
        <time>2020-09-01T08:06:58.000Z</time>
      </trkpt>
      <trkpt lat="43.0533" lon="5.84746">
        <ele>355.39999389648</ele>
        <time>2020-09-01T08:07:03.000Z</time>
      </trkpt>
      <trkpt lat="43.05331" lon="5.84747">
        <ele>355.39999389648</ele>
        <time>2020-09-01T08:07:07.000Z</time>
      </trkpt>
      <trkpt lat="43.05331" lon="5.84746">
        <ele>352.60000610352</ele>
        <time>2020-09-01T08:07:12.000Z</time>
      </trkpt>
      <trkpt lat="43.05331" lon="5.84747">
        <ele>351</ele>
        <time>2020-09-01T08:07:13.000Z</time>
      </trkpt>
      <trkpt lat="43.05331" lon="5.84747">
        <ele>349.20001220703</ele>
        <time>2020-09-01T08:07:14.000Z</time>
      </trkpt>
      <trkpt lat="43.05331" lon="5.84747">
        <ele>344.20001220703</ele>
        <time>2020-09-01T08:07:15.000Z</time>
      </trkpt>
      <trkpt lat="43.0533" lon="5.84746">
        <ele>341.60000610352</ele>
        <time>2020-09-01T08:07:16.000Z</time>
      </trkpt>
      <trkpt lat="43.0533" lon="5.84746">
        <ele>338.39999389648</ele>
        <time>2020-09-01T08:07:17.000Z</time>
      </trkpt>
      <trkpt lat="43.0533" lon="5.84746">
        <ele>336</ele>
        <time>2020-09-01T08:07:18.000Z</time>
      </trkpt>
      <trkpt lat="43.0533" lon="5.84746">
        <ele>334.20001220703</ele>
        <time>2020-09-01T08:07:19.000Z</time>
      </trkpt>
      <trkpt lat="43.05331" lon="5.84746">
        <ele>332.39999389648</ele>
        <time>2020-09-01T08:07:23.000Z</time>
      </trkpt>
      <trkpt lat="43.05331" lon="5.84746">
        <ele>332.39999389648</ele>
        <time>2020-09-01T08:07:28.000Z</time>
      </trkpt>
      <trkpt lat="43.05331" lon="5.84746">
        <ele>332.60000610352</ele>
        <time>2020-09-01T08:07:36.000Z</time>
      </trkpt>
      <trkpt lat="43.05331" lon="5.84746">
        <ele>332.39999389648</ele>
        <time>2020-09-01T08:07:44.000Z</time>
      </trkpt>
      <trkpt lat="43.0533" lon="5.84747">
        <ele>332.60000610352</ele>
        <time>2020-09-01T08:07:51.000Z</time>
      </trkpt>
      <trkpt lat="43.05326" lon="5.84748">
        <ele>332.79998779297</ele>
        <time>2020-09-01T08:07:58.000Z</time>
      </trkpt>
      <trkpt lat="43.05324" lon="5.84746">
        <ele>333</ele>
        <time>2020-09-01T08:08:02.000Z</time>
      </trkpt>
      <trkpt lat="43.05322" lon="5.84744">
        <ele>333</ele>
        <time>2020-09-01T08:08:08.000Z</time>
      </trkpt>
      <trkpt lat="43.0532" lon="5.84741">
        <ele>333.60000610352</ele>
        <time>2020-09-01T08:08:12.000Z</time>
      </trkpt>
      <trkpt lat="43.0532" lon="5.8474">
        <ele>333.60000610352</ele>
        <time>2020-09-01T08:08:14.000Z</time>
      </trkpt>
      <trkpt lat="43.05321" lon="5.84741">
        <ele>334</ele>
        <time>2020-09-01T08:08:19.000Z</time>
      </trkpt>
      <trkpt lat="43.05322" lon="5.84743">
        <ele>334.79998779297</ele>
        <time>2020-09-01T08:08:22.000Z</time>
      </trkpt>
      <trkpt lat="43.05322" lon="5.84743">
        <ele>335.79998779297</ele>
        <time>2020-09-01T08:08:25.000Z</time>
      </trkpt>
      <trkpt lat="43.05322" lon="5.84743">
        <ele>336.20001220703</ele>
        <time>2020-09-01T08:08:26.000Z</time>
      </trkpt>
      <trkpt lat="43.05321" lon="5.84743">
        <ele>336.79998779297</ele>
        <time>2020-09-01T08:08:31.000Z</time>
      </trkpt>
      <trkpt lat="43.05321" lon="5.84743">
        <ele>337.20001220703</ele>
        <time>2020-09-01T08:08:33.000Z</time>
      </trkpt>
      <trkpt lat="43.05322" lon="5.84743">
        <ele>338</ele>
        <time>2020-09-01T08:08:38.000Z</time>
      </trkpt>
      <trkpt lat="43.05322" lon="5.84743">
        <ele>339</ele>
        <time>2020-09-01T08:08:45.000Z</time>
      </trkpt>
      <trkpt lat="43.05321" lon="5.84744">
        <ele>339.79998779297</ele>
        <time>2020-09-01T08:08:48.000Z</time>
      </trkpt>
      <trkpt lat="43.05321" lon="5.84744">
        <ele>340.20001220703</ele>
        <time>2020-09-01T08:08:50.000Z</time>
      </trkpt>
      <trkpt lat="43.05321" lon="5.84744">
        <ele>341.20001220703</ele>
        <time>2020-09-01T08:08:55.000Z</time>
      </trkpt>
      <trkpt lat="43.05321" lon="5.84744">
        <ele>341.20001220703</ele>
        <time>2020-09-01T08:08:56.000Z</time>
      </trkpt>
      <trkpt lat="43.05319" lon="5.84742">
        <ele>342.20001220703</ele>
        <time>2020-09-01T08:09:02.000Z</time>
      </trkpt>
      <trkpt lat="43.05319" lon="5.84742">
        <ele>342.39999389648</ele>
        <time>2020-09-01T08:09:03.000Z</time>
      </trkpt>
      <trkpt lat="43.05317" lon="5.84741">
        <ele>342.79998779297</ele>
        <time>2020-09-01T08:09:07.000Z</time>
      </trkpt>
      <trkpt lat="43.05316" lon="5.84738">
        <ele>343.20001220703</ele>
        <time>2020-09-01T08:09:12.000Z</time>
      </trkpt>
      <trkpt lat="43.05315" lon="5.84737">
        <ele>343.60000610352</ele>
        <time>2020-09-01T08:09:14.000Z</time>
      </trkpt>
      <trkpt lat="43.05314" lon="5.84737">
        <ele>344.39999389648</ele>
        <time>2020-09-01T08:09:20.000Z</time>
      </trkpt>
      <trkpt lat="43.05314" lon="5.84737">
        <ele>344.79998779297</ele>
        <time>2020-09-01T08:09:22.000Z</time>
      </trkpt>
      <trkpt lat="43.05314" lon="5.84734">
        <ele>345.79998779297</ele>
        <time>2020-09-01T08:09:27.000Z</time>
      </trkpt>
      <trkpt lat="43.05314" lon="5.84735">
        <ele>345.79998779297</ele>
        <time>2020-09-01T08:09:28.000Z</time>
      </trkpt>
      <trkpt lat="43.05314" lon="5.84736">
        <ele>346.79998779297</ele>
        <time>2020-09-01T08:09:34.000Z</time>
      </trkpt>
      <trkpt lat="43.05315" lon="5.84736">
        <ele>347</ele>
        <time>2020-09-01T08:09:35.000Z</time>
      </trkpt>
      <trkpt lat="43.05315" lon="5.84736">
        <ele>348</ele>
        <time>2020-09-01T08:09:40.000Z</time>
      </trkpt>
      <trkpt lat="43.05315" lon="5.84735">
        <ele>349.20001220703</ele>
        <time>2020-09-01T08:09:44.000Z</time>
      </trkpt>
      <trkpt lat="43.05315" lon="5.84736">
        <ele>350.20001220703</ele>
        <time>2020-09-01T08:09:50.000Z</time>
      </trkpt>
      <trkpt lat="43.05315" lon="5.84735">
        <ele>350.60000610352</ele>
        <time>2020-09-01T08:09:53.000Z</time>
      </trkpt>
      <trkpt lat="43.05315" lon="5.84735">
        <ele>347.20001220703</ele>
        <time>2020-09-01T08:09:59.000Z</time>
      </trkpt>
      <trkpt lat="43.05315" lon="5.84735">
        <ele>344.39999389648</ele>
        <time>2020-09-01T08:10:00.000Z</time>
      </trkpt>
      <trkpt lat="43.05315" lon="5.84735">
        <ele>342.20001220703</ele>
        <time>2020-09-01T08:10:01.000Z</time>
      </trkpt>
      <trkpt lat="43.05315" lon="5.84735">
        <ele>340</ele>
        <time>2020-09-01T08:10:02.000Z</time>
      </trkpt>
      <trkpt lat="43.05315" lon="5.84735">
        <ele>339</ele>
        <time>2020-09-01T08:10:03.000Z</time>
      </trkpt>
      <trkpt lat="43.05315" lon="5.84735">
        <ele>341.20001220703</ele>
        <time>2020-09-01T08:10:04.000Z</time>
      </trkpt>
      <trkpt lat="43.05315" lon="5.84735">
        <ele>344.60000610352</ele>
        <time>2020-09-01T08:10:05.000Z</time>
      </trkpt>
      <trkpt lat="43.05315" lon="5.84735">
        <ele>348</ele>
        <time>2020-09-01T08:10:06.000Z</time>
      </trkpt>
      <trkpt lat="43.05315" lon="5.84735">
        <ele>351.39999389648</ele>
        <time>2020-09-01T08:10:07.000Z</time>
      </trkpt>
      <trkpt lat="43.05315" lon="5.84735">
        <ele>353.60000610352</ele>
        <time>2020-09-01T08:10:08.000Z</time>
      </trkpt>
      <trkpt lat="43.05315" lon="5.84735">
        <ele>353.79998779297</ele>
        <time>2020-09-01T08:10:10.000Z</time>
      </trkpt>
      <trkpt lat="43.05315" lon="5.84735">
        <ele>352.20001220703</ele>
        <time>2020-09-01T08:10:17.000Z</time>
      </trkpt>
      <trkpt lat="43.05314" lon="5.84734">
        <ele>349.39999389648</ele>
        <time>2020-09-01T08:10:19.000Z</time>
      </trkpt>
      <trkpt lat="43.05314" lon="5.84734">
        <ele>348.39999389648</ele>
        <time>2020-09-01T08:10:20.000Z</time>
      </trkpt>
      <trkpt lat="43.05314" lon="5.84734">
        <ele>353.39999389648</ele>
        <time>2020-09-01T08:10:21.000Z</time>
      </trkpt>
      <trkpt lat="43.05314" lon="5.84733">
        <ele>354.60000610352</ele>
        <time>2020-09-01T08:10:22.000Z</time>
      </trkpt>
      <trkpt lat="43.05314" lon="5.84732">
        <ele>354.39999389648</ele>
        <time>2020-09-01T08:10:28.000Z</time>
      </trkpt>
      <trkpt lat="43.05314" lon="5.84733">
        <ele>355</ele>
        <time>2020-09-01T08:10:53.000Z</time>
      </trkpt>
      <trkpt lat="43.05316" lon="5.84734">
        <ele>355.20001220703</ele>
        <time>2020-09-01T08:11:00.000Z</time>
      </trkpt>
      <trkpt lat="43.05315" lon="5.84733">
        <ele>355.39999389648</ele>
        <time>2020-09-01T08:11:05.000Z</time>
      </trkpt>
      <trkpt lat="43.05313" lon="5.84722">
        <ele>354.79998779297</ele>
        <time>2020-09-01T08:11:09.000Z</time>
      </trkpt>
      <trkpt lat="43.05315" lon="5.84703">
        <ele>353.60000610352</ele>
        <time>2020-09-01T08:11:15.000Z</time>
      </trkpt>
      <trkpt lat="43.05316" lon="5.84698">
        <ele>353.39999389648</ele>
        <time>2020-09-01T08:11:17.000Z</time>
      </trkpt>
      <trkpt lat="43.05317" lon="5.84696">
        <ele>353.39999389648</ele>
        <time>2020-09-01T08:11:18.000Z</time>
      </trkpt>
      <trkpt lat="43.05323" lon="5.84692">
        <ele>353.60000610352</ele>
        <time>2020-09-01T08:11:22.000Z</time>
      </trkpt>
      <trkpt lat="43.05331" lon="5.84682">
        <ele>353</ele>
        <time>2020-09-01T08:11:26.000Z</time>
      </trkpt>
      <trkpt lat="43.05331" lon="5.84675">
        <ele>352.20001220703</ele>
        <time>2020-09-01T08:11:28.000Z</time>
      </trkpt>
      <trkpt lat="43.0533" lon="5.84671">
        <ele>351.79998779297</ele>
        <time>2020-09-01T08:11:29.000Z</time>
      </trkpt>
      <trkpt lat="43.05331" lon="5.84668">
        <ele>351</ele>
        <time>2020-09-01T08:11:30.000Z</time>
      </trkpt>
      <trkpt lat="43.05336" lon="5.84667">
        <ele>350.39999389648</ele>
        <time>2020-09-01T08:11:32.000Z</time>
      </trkpt>
      <trkpt lat="43.05338" lon="5.84669">
        <ele>349.79998779297</ele>
        <time>2020-09-01T08:11:33.000Z</time>
      </trkpt>
      <trkpt lat="43.05342" lon="5.84675">
        <ele>348.60000610352</ele>
        <time>2020-09-01T08:11:35.000Z</time>
      </trkpt>
      <trkpt lat="43.05343" lon="5.84677">
        <ele>348</ele>
        <time>2020-09-01T08:11:36.000Z</time>
      </trkpt>
      <trkpt lat="43.05344" lon="5.84678">
        <ele>347.39999389648</ele>
        <time>2020-09-01T08:11:37.000Z</time>
      </trkpt>
      <trkpt lat="43.05344" lon="5.84678">
        <ele>346.20001220703</ele>
        <time>2020-09-01T08:11:39.000Z</time>
      </trkpt>
      <trkpt lat="43.05344" lon="5.84678">
        <ele>345.79998779297</ele>
        <time>2020-09-01T08:11:40.000Z</time>
      </trkpt>
      <trkpt lat="43.05342" lon="5.84677">
        <ele>345.60000610352</ele>
        <time>2020-09-01T08:11:45.000Z</time>
      </trkpt>
      <trkpt lat="43.05342" lon="5.84677">
        <ele>346</ele>
        <time>2020-09-01T08:11:51.000Z</time>
      </trkpt>
      <trkpt lat="43.05344" lon="5.84674">
        <ele>345.79998779297</ele>
        <time>2020-09-01T08:11:56.000Z</time>
      </trkpt>
      <trkpt lat="43.05346" lon="5.84672">
        <ele>345.20001220703</ele>
        <time>2020-09-01T08:11:59.000Z</time>
      </trkpt>
      <trkpt lat="43.05347" lon="5.84672">
        <ele>344.79998779297</ele>
        <time>2020-09-01T08:12:00.000Z</time>
      </trkpt>
      <trkpt lat="43.05351" lon="5.84672">
        <ele>344.39999389648</ele>
        <time>2020-09-01T08:12:02.000Z</time>
      </trkpt>
      <trkpt lat="43.05353" lon="5.84673">
        <ele>343.79998779297</ele>
        <time>2020-09-01T08:12:03.000Z</time>
      </trkpt>
      <trkpt lat="43.05356" lon="5.84675">
        <ele>343</ele>
        <time>2020-09-01T08:12:05.000Z</time>
      </trkpt>
      <trkpt lat="43.05358" lon="5.84673">
        <ele>342.60000610352</ele>
        <time>2020-09-01T08:12:06.000Z</time>
      </trkpt>
      <trkpt lat="43.05359" lon="5.84664">
        <ele>341.79998779297</ele>
        <time>2020-09-01T08:12:08.000Z</time>
      </trkpt>
      <trkpt lat="43.05359" lon="5.84659">
        <ele>341.60000610352</ele>
        <time>2020-09-01T08:12:09.000Z</time>
      </trkpt>
      <trkpt lat="43.05354" lon="5.84644">
        <ele>340.39999389648</ele>
        <time>2020-09-01T08:12:11.000Z</time>
      </trkpt>
      <trkpt lat="43.05349" lon="5.84625">
        <ele>338.79998779297</ele>
        <time>2020-09-01T08:12:13.000Z</time>
      </trkpt>
      <trkpt lat="43.05348" lon="5.84615">
        <ele>337.79998779297</ele>
        <time>2020-09-01T08:12:14.000Z</time>
      </trkpt>
      <trkpt lat="43.05347" lon="5.84602">
        <ele>336.60000610352</ele>
        <time>2020-09-01T08:12:15.000Z</time>
      </trkpt>
      <trkpt lat="43.05347" lon="5.84592">
        <ele>335.39999389648</ele>
        <time>2020-09-01T08:12:16.000Z</time>
      </trkpt>
      <trkpt lat="43.05346" lon="5.84583">
        <ele>334.20001220703</ele>
        <time>2020-09-01T08:12:17.000Z</time>
      </trkpt>
      <trkpt lat="43.05345" lon="5.84576">
        <ele>333</ele>
        <time>2020-09-01T08:12:18.000Z</time>
      </trkpt>
      <trkpt lat="43.05345" lon="5.8457">
        <ele>332</ele>
        <time>2020-09-01T08:12:19.000Z</time>
      </trkpt>
      <trkpt lat="43.05347" lon="5.84565">
        <ele>330.60000610352</ele>
        <time>2020-09-01T08:12:20.000Z</time>
      </trkpt>
      <trkpt lat="43.05352" lon="5.84563">
        <ele>329.60000610352</ele>
        <time>2020-09-01T08:12:22.000Z</time>
      </trkpt>
      <trkpt lat="43.05356" lon="5.84567">
        <ele>329.39999389648</ele>
        <time>2020-09-01T08:12:23.000Z</time>
      </trkpt>
      <trkpt lat="43.05358" lon="5.84573">
        <ele>329</ele>
        <time>2020-09-01T08:12:24.000Z</time>
      </trkpt>
      <trkpt lat="43.05369" lon="5.84596">
        <ele>328.20001220703</ele>
        <time>2020-09-01T08:12:27.000Z</time>
      </trkpt>
      <trkpt lat="43.05382" lon="5.84607">
        <ele>326.20001220703</ele>
        <time>2020-09-01T08:12:29.000Z</time>
      </trkpt>
      <trkpt lat="43.0539" lon="5.84612">
        <ele>324.79998779297</ele>
        <time>2020-09-01T08:12:30.000Z</time>
      </trkpt>
      <trkpt lat="43.05397" lon="5.84617">
        <ele>323.39999389648</ele>
        <time>2020-09-01T08:12:31.000Z</time>
      </trkpt>
      <trkpt lat="43.05405" lon="5.84621">
        <ele>322.20001220703</ele>
        <time>2020-09-01T08:12:32.000Z</time>
      </trkpt>
      <trkpt lat="43.05412" lon="5.84627">
        <ele>321.20001220703</ele>
        <time>2020-09-01T08:12:33.000Z</time>
      </trkpt>
      <trkpt lat="43.05416" lon="5.84634">
        <ele>320.60000610352</ele>
        <time>2020-09-01T08:12:34.000Z</time>
      </trkpt>
      <trkpt lat="43.05421" lon="5.84642">
        <ele>319.79998779297</ele>
        <time>2020-09-01T08:12:35.000Z</time>
      </trkpt>
      <trkpt lat="43.05425" lon="5.84649">
        <ele>318.39999389648</ele>
        <time>2020-09-01T08:12:37.000Z</time>
      </trkpt>
      <trkpt lat="43.05426" lon="5.84651">
        <ele>317.39999389648</ele>
        <time>2020-09-01T08:12:38.000Z</time>
      </trkpt>
      <trkpt lat="43.05431" lon="5.84668">
        <ele>316.39999389648</ele>
        <time>2020-09-01T08:12:42.000Z</time>
      </trkpt>
      <trkpt lat="43.05433" lon="5.84674">
        <ele>316.20001220703</ele>
        <time>2020-09-01T08:12:43.000Z</time>
      </trkpt>
      <trkpt lat="43.05445" lon="5.84675">
        <ele>315.79998779297</ele>
        <time>2020-09-01T08:12:45.000Z</time>
      </trkpt>
      <trkpt lat="43.05451" lon="5.84671">
        <ele>315.20001220703</ele>
        <time>2020-09-01T08:12:46.000Z</time>
      </trkpt>
      <trkpt lat="43.05467" lon="5.8466">
        <ele>312.60000610352</ele>
        <time>2020-09-01T08:12:48.000Z</time>
      </trkpt>
      <trkpt lat="43.05474" lon="5.84655">
        <ele>311</ele>
        <time>2020-09-01T08:12:49.000Z</time>
      </trkpt>
      <trkpt lat="43.05483" lon="5.84647">
        <ele>309.39999389648</ele>
        <time>2020-09-01T08:12:50.000Z</time>
      </trkpt>
      <trkpt lat="43.0549" lon="5.84638">
        <ele>307.79998779297</ele>
        <time>2020-09-01T08:12:51.000Z</time>
      </trkpt>
      <trkpt lat="43.05496" lon="5.8463">
        <ele>306.20001220703</ele>
        <time>2020-09-01T08:12:52.000Z</time>
      </trkpt>
      <trkpt lat="43.05506" lon="5.84621">
        <ele>305</ele>
        <time>2020-09-01T08:12:53.000Z</time>
      </trkpt>
      <trkpt lat="43.05515" lon="5.84615">
        <ele>304</ele>
        <time>2020-09-01T08:12:54.000Z</time>
      </trkpt>
      <trkpt lat="43.05525" lon="5.84607">
        <ele>302.60000610352</ele>
        <time>2020-09-01T08:12:55.000Z</time>
      </trkpt>
      <trkpt lat="43.05543" lon="5.84587">
        <ele>302</ele>
        <time>2020-09-01T08:12:57.000Z</time>
      </trkpt>
      <trkpt lat="43.05551" lon="5.84577">
        <ele>301.39999389648</ele>
        <time>2020-09-01T08:12:58.000Z</time>
      </trkpt>
      <trkpt lat="43.05559" lon="5.84565">
        <ele>300.39999389648</ele>
        <time>2020-09-01T08:12:59.000Z</time>
      </trkpt>
      <trkpt lat="43.05567" lon="5.84554">
        <ele>299.39999389648</ele>
        <time>2020-09-01T08:13:00.000Z</time>
      </trkpt>
      <trkpt lat="43.05579" lon="5.84532">
        <ele>297.60000610352</ele>
        <time>2020-09-01T08:13:02.000Z</time>
      </trkpt>
      <trkpt lat="43.05586" lon="5.84523">
        <ele>297.39999389648</ele>
        <time>2020-09-01T08:13:03.000Z</time>
      </trkpt>
      <trkpt lat="43.05603" lon="5.84508">
        <ele>296.60000610352</ele>
        <time>2020-09-01T08:13:05.000Z</time>
      </trkpt>
      <trkpt lat="43.0561" lon="5.84503">
        <ele>296</ele>
        <time>2020-09-01T08:13:06.000Z</time>
      </trkpt>
      <trkpt lat="43.05617" lon="5.845">
        <ele>295.20001220703</ele>
        <time>2020-09-01T08:13:07.000Z</time>
      </trkpt>
      <trkpt lat="43.05622" lon="5.84498">
        <ele>293.79998779297</ele>
        <time>2020-09-01T08:13:08.000Z</time>
      </trkpt>
      <trkpt lat="43.05626" lon="5.84497">
        <ele>293</ele>
        <time>2020-09-01T08:13:09.000Z</time>
      </trkpt>
      <trkpt lat="43.05629" lon="5.84496">
        <ele>292.39999389648</ele>
        <time>2020-09-01T08:13:10.000Z</time>
      </trkpt>
      <trkpt lat="43.05631" lon="5.84496">
        <ele>292.20001220703</ele>
        <time>2020-09-01T08:13:11.000Z</time>
      </trkpt>
      <trkpt lat="43.05632" lon="5.84496">
        <ele>292.20001220703</ele>
        <time>2020-09-01T08:13:12.000Z</time>
      </trkpt>
      <trkpt lat="43.05632" lon="5.84496">
        <ele>291.79998779297</ele>
        <time>2020-09-01T08:13:18.000Z</time>
      </trkpt>
      <trkpt lat="43.05632" lon="5.84496">
        <ele>291.39999389648</ele>
        <time>2020-09-01T08:13:31.000Z</time>
      </trkpt>
      <trkpt lat="43.05631" lon="5.84497">
        <ele>292.60000610352</ele>
        <time>2020-09-01T08:13:47.000Z</time>
      </trkpt>
      <trkpt lat="43.05631" lon="5.84497">
        <ele>292.79998779297</ele>
        <time>2020-09-01T08:13:49.000Z</time>
      </trkpt>
      <trkpt lat="43.0563" lon="5.84497">
        <ele>293.60000610352</ele>
        <time>2020-09-01T08:14:17.000Z</time>
      </trkpt>
      <trkpt lat="43.0563" lon="5.84497">
        <ele>293.60000610352</ele>
        <time>2020-09-01T08:14:18.000Z</time>
      </trkpt>
      <trkpt lat="43.05636" lon="5.84499">
        <ele>293</ele>
        <time>2020-09-01T08:14:34.000Z</time>
      </trkpt>
      <trkpt lat="43.0565" lon="5.84503">
        <ele>292.60000610352</ele>
        <time>2020-09-01T08:14:38.000Z</time>
      </trkpt>
      <trkpt lat="43.05659" lon="5.84502">
        <ele>292.39999389648</ele>
        <time>2020-09-01T08:14:40.000Z</time>
      </trkpt>
      <trkpt lat="43.05665" lon="5.84503">
        <ele>292.20001220703</ele>
        <time>2020-09-01T08:14:41.000Z</time>
      </trkpt>
      <trkpt lat="43.05671" lon="5.84505">
        <ele>291.39999389648</ele>
        <time>2020-09-01T08:14:42.000Z</time>
      </trkpt>
      <trkpt lat="43.05683" lon="5.8451">
        <ele>290</ele>
        <time>2020-09-01T08:14:44.000Z</time>
      </trkpt>
      <trkpt lat="43.05697" lon="5.84515">
        <ele>288.39999389648</ele>
        <time>2020-09-01T08:14:46.000Z</time>
      </trkpt>
      <trkpt lat="43.05724" lon="5.84514">
        <ele>287</ele>
        <time>2020-09-01T08:14:49.000Z</time>
      </trkpt>
      <trkpt lat="43.05734" lon="5.84513">
        <ele>286.39999389648</ele>
        <time>2020-09-01T08:14:50.000Z</time>
      </trkpt>
      <trkpt lat="43.05745" lon="5.84512">
        <ele>285.39999389648</ele>
        <time>2020-09-01T08:14:51.000Z</time>
      </trkpt>
      <trkpt lat="43.05755" lon="5.84511">
        <ele>284.39999389648</ele>
        <time>2020-09-01T08:14:52.000Z</time>
      </trkpt>
      <trkpt lat="43.05774" lon="5.84506">
        <ele>284.39999389648</ele>
        <time>2020-09-01T08:14:54.000Z</time>
      </trkpt>
      <trkpt lat="43.05784" lon="5.84504">
        <ele>283.39999389648</ele>
        <time>2020-09-01T08:14:55.000Z</time>
      </trkpt>
      <trkpt lat="43.05793" lon="5.84504">
        <ele>282.39999389648</ele>
        <time>2020-09-01T08:14:56.000Z</time>
      </trkpt>
      <trkpt lat="43.05812" lon="5.84505">
        <ele>281</ele>
        <time>2020-09-01T08:14:58.000Z</time>
      </trkpt>
      <trkpt lat="43.05823" lon="5.84504">
        <ele>279.60000610352</ele>
        <time>2020-09-01T08:14:59.000Z</time>
      </trkpt>
      <trkpt lat="43.05834" lon="5.84505">
        <ele>276.79998779297</ele>
        <time>2020-09-01T08:15:00.000Z</time>
      </trkpt>
      <trkpt lat="43.05844" lon="5.84507">
        <ele>274.79998779297</ele>
        <time>2020-09-01T08:15:01.000Z</time>
      </trkpt>
      <trkpt lat="43.05852" lon="5.84508">
        <ele>273</ele>
        <time>2020-09-01T08:15:02.000Z</time>
      </trkpt>
      <trkpt lat="43.0586" lon="5.84508">
        <ele>271.39999389648</ele>
        <time>2020-09-01T08:15:03.000Z</time>
      </trkpt>
      <trkpt lat="43.05877" lon="5.845">
        <ele>270</ele>
        <time>2020-09-01T08:15:05.000Z</time>
      </trkpt>
      <trkpt lat="43.05885" lon="5.84499">
        <ele>268.79998779297</ele>
        <time>2020-09-01T08:15:06.000Z</time>
      </trkpt>
      <trkpt lat="43.05893" lon="5.84502">
        <ele>268.20001220703</ele>
        <time>2020-09-01T08:15:07.000Z</time>
      </trkpt>
      <trkpt lat="43.059" lon="5.8451">
        <ele>266.60000610352</ele>
        <time>2020-09-01T08:15:08.000Z</time>
      </trkpt>
      <trkpt lat="43.05906" lon="5.84519">
        <ele>263.39999389648</ele>
        <time>2020-09-01T08:15:09.000Z</time>
      </trkpt>
      <trkpt lat="43.05913" lon="5.84528">
        <ele>261.39999389648</ele>
        <time>2020-09-01T08:15:10.000Z</time>
      </trkpt>
      <trkpt lat="43.05922" lon="5.84534">
        <ele>260</ele>
        <time>2020-09-01T08:15:11.000Z</time>
      </trkpt>
      <trkpt lat="43.05931" lon="5.84539">
        <ele>259.20001220703</ele>
        <time>2020-09-01T08:15:12.000Z</time>
      </trkpt>
      <trkpt lat="43.05941" lon="5.84543">
        <ele>258.39999389648</ele>
        <time>2020-09-01T08:15:13.000Z</time>
      </trkpt>
      <trkpt lat="43.05961" lon="5.84551">
        <ele>257</ele>
        <time>2020-09-01T08:15:15.000Z</time>
      </trkpt>
      <trkpt lat="43.0597" lon="5.84554">
        <ele>256.20001220703</ele>
        <time>2020-09-01T08:15:16.000Z</time>
      </trkpt>
      <trkpt lat="43.0598" lon="5.84555">
        <ele>255.60000610352</ele>
        <time>2020-09-01T08:15:17.000Z</time>
      </trkpt>
      <trkpt lat="43.05989" lon="5.84555">
        <ele>253.80000305176</ele>
        <time>2020-09-01T08:15:18.000Z</time>
      </trkpt>
      <trkpt lat="43.05999" lon="5.84555">
        <ele>252.39999389648</ele>
        <time>2020-09-01T08:15:19.000Z</time>
      </trkpt>
      <trkpt lat="43.06008" lon="5.84557">
        <ele>251</ele>
        <time>2020-09-01T08:15:20.000Z</time>
      </trkpt>
      <trkpt lat="43.06017" lon="5.84563">
        <ele>249.19999694824</ele>
        <time>2020-09-01T08:15:21.000Z</time>
      </trkpt>
      <trkpt lat="43.06025" lon="5.84573">
        <ele>247.60000610352</ele>
        <time>2020-09-01T08:15:22.000Z</time>
      </trkpt>
      <trkpt lat="43.06031" lon="5.84584">
        <ele>246.19999694824</ele>
        <time>2020-09-01T08:15:23.000Z</time>
      </trkpt>
      <trkpt lat="43.06036" lon="5.84593">
        <ele>244.80000305176</ele>
        <time>2020-09-01T08:15:24.000Z</time>
      </trkpt>
      <trkpt lat="43.06041" lon="5.846">
        <ele>244.19999694824</ele>
        <time>2020-09-01T08:15:25.000Z</time>
      </trkpt>
      <trkpt lat="43.06047" lon="5.84605">
        <ele>243.80000305176</ele>
        <time>2020-09-01T08:15:26.000Z</time>
      </trkpt>
      <trkpt lat="43.0606" lon="5.84612">
        <ele>242.60000610352</ele>
        <time>2020-09-01T08:15:28.000Z</time>
      </trkpt>
      <trkpt lat="43.06082" lon="5.84603">
        <ele>240.60000610352</ele>
        <time>2020-09-01T08:15:31.000Z</time>
      </trkpt>
      <trkpt lat="43.0609" lon="5.84597">
        <ele>239.60000610352</ele>
        <time>2020-09-01T08:15:32.000Z</time>
      </trkpt>
      <trkpt lat="43.06099" lon="5.84591">
        <ele>238.39999389648</ele>
        <time>2020-09-01T08:15:33.000Z</time>
      </trkpt>
      <trkpt lat="43.06107" lon="5.84586">
        <ele>237.19999694824</ele>
        <time>2020-09-01T08:15:34.000Z</time>
      </trkpt>
      <trkpt lat="43.0612" lon="5.84583">
        <ele>235.80000305176</ele>
        <time>2020-09-01T08:15:35.000Z</time>
      </trkpt>
      <trkpt lat="43.06131" lon="5.84583">
        <ele>234.19999694824</ele>
        <time>2020-09-01T08:15:36.000Z</time>
      </trkpt>
      <trkpt lat="43.06143" lon="5.84583">
        <ele>232.60000610352</ele>
        <time>2020-09-01T08:15:37.000Z</time>
      </trkpt>
      <trkpt lat="43.06155" lon="5.84584">
        <ele>230.60000610352</ele>
        <time>2020-09-01T08:15:38.000Z</time>
      </trkpt>
      <trkpt lat="43.06166" lon="5.84584">
        <ele>229.19999694824</ele>
        <time>2020-09-01T08:15:39.000Z</time>
      </trkpt>
      <trkpt lat="43.06178" lon="5.84585">
        <ele>228</ele>
        <time>2020-09-01T08:15:40.000Z</time>
      </trkpt>
      <trkpt lat="43.06191" lon="5.84585">
        <ele>227</ele>
        <time>2020-09-01T08:15:41.000Z</time>
      </trkpt>
      <trkpt lat="43.06203" lon="5.84584">
        <ele>225.60000610352</ele>
        <time>2020-09-01T08:15:42.000Z</time>
      </trkpt>
      <trkpt lat="43.06215" lon="5.84582">
        <ele>224.39999389648</ele>
        <time>2020-09-01T08:15:43.000Z</time>
      </trkpt>
      <trkpt lat="43.06227" lon="5.8458">
        <ele>222.80000305176</ele>
        <time>2020-09-01T08:15:44.000Z</time>
      </trkpt>
      <trkpt lat="43.0624" lon="5.84579">
        <ele>220.80000305176</ele>
        <time>2020-09-01T08:15:45.000Z</time>
      </trkpt>
      <trkpt lat="43.06251" lon="5.84579">
        <ele>219.60000610352</ele>
        <time>2020-09-01T08:15:46.000Z</time>
      </trkpt>
      <trkpt lat="43.06263" lon="5.84579">
        <ele>218</ele>
        <time>2020-09-01T08:15:47.000Z</time>
      </trkpt>
      <trkpt lat="43.06274" lon="5.84581">
        <ele>216.60000610352</ele>
        <time>2020-09-01T08:15:48.000Z</time>
      </trkpt>
      <trkpt lat="43.06284" lon="5.84584">
        <ele>215.60000610352</ele>
        <time>2020-09-01T08:15:49.000Z</time>
      </trkpt>
      <trkpt lat="43.06314" lon="5.84597">
        <ele>214</ele>
        <time>2020-09-01T08:15:52.000Z</time>
      </trkpt>
      <trkpt lat="43.06322" lon="5.84606">
        <ele>213</ele>
        <time>2020-09-01T08:15:53.000Z</time>
      </trkpt>
      <trkpt lat="43.06324" lon="5.84618">
        <ele>212.39999389648</ele>
        <time>2020-09-01T08:15:54.000Z</time>
      </trkpt>
      <trkpt lat="43.06323" lon="5.84631">
        <ele>212</ele>
        <time>2020-09-01T08:15:55.000Z</time>
      </trkpt>
      <trkpt lat="43.06319" lon="5.84641">
        <ele>210.60000610352</ele>
        <time>2020-09-01T08:15:56.000Z</time>
      </trkpt>
      <trkpt lat="43.06313" lon="5.84648">
        <ele>210.60000610352</ele>
        <time>2020-09-01T08:15:57.000Z</time>
      </trkpt>
      <trkpt lat="43.06306" lon="5.84654">
        <ele>211</ele>
        <time>2020-09-01T08:15:59.000Z</time>
      </trkpt>
      <trkpt lat="43.06305" lon="5.84673">
        <ele>211.80000305176</ele>
        <time>2020-09-01T08:16:02.000Z</time>
      </trkpt>
      <trkpt lat="43.06301" lon="5.84694">
        <ele>210.60000610352</ele>
        <time>2020-09-01T08:16:05.000Z</time>
      </trkpt>
      <trkpt lat="43.06298" lon="5.84697">
        <ele>209.39999389648</ele>
        <time>2020-09-01T08:16:06.000Z</time>
      </trkpt>
      <trkpt lat="43.06295" lon="5.84699">
        <ele>208.19999694824</ele>
        <time>2020-09-01T08:16:07.000Z</time>
      </trkpt>
      <trkpt lat="43.06292" lon="5.847">
        <ele>207.39999389648</ele>
        <time>2020-09-01T08:16:08.000Z</time>
      </trkpt>
      <trkpt lat="43.0629" lon="5.84702">
        <ele>206.60000610352</ele>
        <time>2020-09-01T08:16:09.000Z</time>
      </trkpt>
      <trkpt lat="43.06289" lon="5.84703">
        <ele>206.19999694824</ele>
        <time>2020-09-01T08:16:10.000Z</time>
      </trkpt>
      <trkpt lat="43.06288" lon="5.84707">
        <ele>205.19999694824</ele>
        <time>2020-09-01T08:16:11.000Z</time>
      </trkpt>
      <trkpt lat="43.06287" lon="5.84709">
        <ele>204.60000610352</ele>
        <time>2020-09-01T08:16:12.000Z</time>
      </trkpt>
      <trkpt lat="43.06286" lon="5.84712">
        <ele>203.80000305176</ele>
        <time>2020-09-01T08:16:13.000Z</time>
      </trkpt>
      <trkpt lat="43.06283" lon="5.84715">
        <ele>202.80000305176</ele>
        <time>2020-09-01T08:16:15.000Z</time>
      </trkpt>
      <trkpt lat="43.0628" lon="5.84717">
        <ele>202</ele>
        <time>2020-09-01T08:16:17.000Z</time>
      </trkpt>
      <trkpt lat="43.06279" lon="5.84719">
        <ele>201.39999389648</ele>
        <time>2020-09-01T08:16:18.000Z</time>
      </trkpt>
      <trkpt lat="43.06278" lon="5.84722">
        <ele>201.19999694824</ele>
        <time>2020-09-01T08:16:19.000Z</time>
      </trkpt>
      <trkpt lat="43.06275" lon="5.84726">
        <ele>199.80000305176</ele>
        <time>2020-09-01T08:16:21.000Z</time>
      </trkpt>
      <trkpt lat="43.06274" lon="5.84725">
        <ele>198.80000305176</ele>
        <time>2020-09-01T08:16:22.000Z</time>
      </trkpt>
      <trkpt lat="43.06273" lon="5.84726">
        <ele>196.80000305176</ele>
        <time>2020-09-01T08:16:24.000Z</time>
      </trkpt>
      <trkpt lat="43.06269" lon="5.84725">
        <ele>195.39999389648</ele>
        <time>2020-09-01T08:16:26.000Z</time>
      </trkpt>
      <trkpt lat="43.06268" lon="5.84725">
        <ele>194.80000305176</ele>
        <time>2020-09-01T08:16:27.000Z</time>
      </trkpt>
      <trkpt lat="43.06266" lon="5.84726">
        <ele>194.19999694824</ele>
        <time>2020-09-01T08:16:28.000Z</time>
      </trkpt>
      <trkpt lat="43.06261" lon="5.84727">
        <ele>193</ele>
        <time>2020-09-01T08:16:30.000Z</time>
      </trkpt>
      <trkpt lat="43.06259" lon="5.84729">
        <ele>192.19999694824</ele>
        <time>2020-09-01T08:16:31.000Z</time>
      </trkpt>
      <trkpt lat="43.06258" lon="5.84733">
        <ele>191.39999389648</ele>
        <time>2020-09-01T08:16:32.000Z</time>
      </trkpt>
      <trkpt lat="43.06256" lon="5.84738">
        <ele>190</ele>
        <time>2020-09-01T08:16:34.000Z</time>
      </trkpt>
      <trkpt lat="43.06254" lon="5.84739">
        <ele>189.19999694824</ele>
        <time>2020-09-01T08:16:35.000Z</time>
      </trkpt>
      <trkpt lat="43.06252" lon="5.84741">
        <ele>188.80000305176</ele>
        <time>2020-09-01T08:16:36.000Z</time>
      </trkpt>
      <trkpt lat="43.06244" lon="5.84749">
        <ele>187</ele>
        <time>2020-09-01T08:16:39.000Z</time>
      </trkpt>
      <trkpt lat="43.0624" lon="5.84758">
        <ele>185.39999389648</ele>
        <time>2020-09-01T08:16:41.000Z</time>
      </trkpt>
      <trkpt lat="43.06238" lon="5.84762">
        <ele>184.39999389648</ele>
        <time>2020-09-01T08:16:42.000Z</time>
      </trkpt>
      <trkpt lat="43.06239" lon="5.84764">
        <ele>183.60000610352</ele>
        <time>2020-09-01T08:16:43.000Z</time>
      </trkpt>
      <trkpt lat="43.06241" lon="5.84767">
        <ele>182.80000305176</ele>
        <time>2020-09-01T08:16:44.000Z</time>
      </trkpt>
      <trkpt lat="43.06243" lon="5.84772">
        <ele>182.19999694824</ele>
        <time>2020-09-01T08:16:45.000Z</time>
      </trkpt>
      <trkpt lat="43.06241" lon="5.84782">
        <ele>181.39999389648</ele>
        <time>2020-09-01T08:16:47.000Z</time>
      </trkpt>
      <trkpt lat="43.0624" lon="5.84787">
        <ele>181</ele>
        <time>2020-09-01T08:16:48.000Z</time>
      </trkpt>
      <trkpt lat="43.06241" lon="5.84793">
        <ele>179.80000305176</ele>
        <time>2020-09-01T08:16:49.000Z</time>
      </trkpt>
      <trkpt lat="43.06242" lon="5.848">
        <ele>179</ele>
        <time>2020-09-01T08:16:50.000Z</time>
      </trkpt>
      <trkpt lat="43.06242" lon="5.84807">
        <ele>178.19999694824</ele>
        <time>2020-09-01T08:16:51.000Z</time>
      </trkpt>
      <trkpt lat="43.06241" lon="5.84815">
        <ele>176.60000610352</ele>
        <time>2020-09-01T08:16:53.000Z</time>
      </trkpt>
      <trkpt lat="43.06239" lon="5.84818">
        <ele>175.80000305176</ele>
        <time>2020-09-01T08:16:54.000Z</time>
      </trkpt>
      <trkpt lat="43.06237" lon="5.84821">
        <ele>175.39999389648</ele>
        <time>2020-09-01T08:16:55.000Z</time>
      </trkpt>
      <trkpt lat="43.06234" lon="5.84833">
        <ele>173.80000305176</ele>
        <time>2020-09-01T08:16:57.000Z</time>
      </trkpt>
      <trkpt lat="43.06232" lon="5.84839">
        <ele>173</ele>
        <time>2020-09-01T08:16:58.000Z</time>
      </trkpt>
      <trkpt lat="43.06231" lon="5.84845">
        <ele>172.39999389648</ele>
        <time>2020-09-01T08:16:59.000Z</time>
      </trkpt>
      <trkpt lat="43.0623" lon="5.84852">
        <ele>171.39999389648</ele>
        <time>2020-09-01T08:17:00.000Z</time>
      </trkpt>
      <trkpt lat="43.06229" lon="5.84859">
        <ele>170.19999694824</ele>
        <time>2020-09-01T08:17:01.000Z</time>
      </trkpt>
      <trkpt lat="43.06226" lon="5.84863">
        <ele>169</ele>
        <time>2020-09-01T08:17:02.000Z</time>
      </trkpt>
      <trkpt lat="43.06223" lon="5.84872">
        <ele>167.39999389648</ele>
        <time>2020-09-01T08:17:04.000Z</time>
      </trkpt>
      <trkpt lat="43.06225" lon="5.84878">
        <ele>166.60000610352</ele>
        <time>2020-09-01T08:17:05.000Z</time>
      </trkpt>
      <trkpt lat="43.06227" lon="5.84882">
        <ele>166.19999694824</ele>
        <time>2020-09-01T08:17:06.000Z</time>
      </trkpt>
      <trkpt lat="43.06231" lon="5.84885">
        <ele>165.19999694824</ele>
        <time>2020-09-01T08:17:08.000Z</time>
      </trkpt>
      <trkpt lat="43.06233" lon="5.84886">
        <ele>165.19999694824</ele>
        <time>2020-09-01T08:17:09.000Z</time>
      </trkpt>
      <trkpt lat="43.06238" lon="5.84891">
        <ele>165.60000610352</ele>
        <time>2020-09-01T08:17:12.000Z</time>
      </trkpt>
      <trkpt lat="43.06243" lon="5.84894">
        <ele>166.80000305176</ele>
        <time>2020-09-01T08:17:15.000Z</time>
      </trkpt>
      <trkpt lat="43.06243" lon="5.84894">
        <ele>167</ele>
        <time>2020-09-01T08:17:16.000Z</time>
      </trkpt>
      <trkpt lat="43.06243" lon="5.84894">
        <ele>167.19999694824</ele>
        <time>2020-09-01T08:17:17.000Z</time>
      </trkpt>
      <trkpt lat="43.06244" lon="5.84894">
        <ele>167.19999694824</ele>
        <time>2020-09-01T08:17:19.000Z</time>
      </trkpt>
      <trkpt lat="43.06245" lon="5.84898">
        <ele>167</ele>
        <time>2020-09-01T08:17:29.000Z</time>
      </trkpt>
      <trkpt lat="43.06245" lon="5.84906">
        <ele>166.80000305176</ele>
        <time>2020-09-01T08:17:32.000Z</time>
      </trkpt>
      <trkpt lat="43.06247" lon="5.84909">
        <ele>166.60000610352</ele>
        <time>2020-09-01T08:17:33.000Z</time>
      </trkpt>
      <trkpt lat="43.06248" lon="5.84912">
        <ele>166.19999694824</ele>
        <time>2020-09-01T08:17:34.000Z</time>
      </trkpt>
      <trkpt lat="43.06246" lon="5.84919">
        <ele>165.19999694824</ele>
        <time>2020-09-01T08:17:36.000Z</time>
      </trkpt>
      <trkpt lat="43.06247" lon="5.84925">
        <ele>164.19999694824</ele>
        <time>2020-09-01T08:17:38.000Z</time>
      </trkpt>
      <trkpt lat="43.06249" lon="5.8493">
        <ele>163.39999389648</ele>
        <time>2020-09-01T08:17:39.000Z</time>
      </trkpt>
      <trkpt lat="43.06249" lon="5.84935">
        <ele>162.80000305176</ele>
        <time>2020-09-01T08:17:40.000Z</time>
      </trkpt>
      <trkpt lat="43.06251" lon="5.8494">
        <ele>161.60000610352</ele>
        <time>2020-09-01T08:17:42.000Z</time>
      </trkpt>
      <trkpt lat="43.06256" lon="5.84945">
        <ele>160.39999389648</ele>
        <time>2020-09-01T08:17:44.000Z</time>
      </trkpt>
      <trkpt lat="43.06259" lon="5.84946">
        <ele>159.60000610352</ele>
        <time>2020-09-01T08:17:45.000Z</time>
      </trkpt>
      <trkpt lat="43.06266" lon="5.84944">
        <ele>158.60000610352</ele>
        <time>2020-09-01T08:17:47.000Z</time>
      </trkpt>
      <trkpt lat="43.06269" lon="5.84948">
        <ele>158.39999389648</ele>
        <time>2020-09-01T08:17:48.000Z</time>
      </trkpt>
      <trkpt lat="43.06275" lon="5.84954">
        <ele>157.60000610352</ele>
        <time>2020-09-01T08:17:50.000Z</time>
      </trkpt>
      <trkpt lat="43.06282" lon="5.84958">
        <ele>156.19999694824</ele>
        <time>2020-09-01T08:17:52.000Z</time>
      </trkpt>
      <trkpt lat="43.06285" lon="5.84962">
        <ele>155</ele>
        <time>2020-09-01T08:17:53.000Z</time>
      </trkpt>
      <trkpt lat="43.06287" lon="5.84967">
        <ele>154</ele>
        <time>2020-09-01T08:17:54.000Z</time>
      </trkpt>
      <trkpt lat="43.0629" lon="5.84971">
        <ele>152.80000305176</ele>
        <time>2020-09-01T08:17:55.000Z</time>
      </trkpt>
      <trkpt lat="43.06293" lon="5.84974">
        <ele>151.80000305176</ele>
        <time>2020-09-01T08:17:56.000Z</time>
      </trkpt>
      <trkpt lat="43.06296" lon="5.84978">
        <ele>150.80000305176</ele>
        <time>2020-09-01T08:17:57.000Z</time>
      </trkpt>
      <trkpt lat="43.063" lon="5.84981">
        <ele>150</ele>
        <time>2020-09-01T08:17:58.000Z</time>
      </trkpt>
      <trkpt lat="43.06305" lon="5.84984">
        <ele>148.80000305176</ele>
        <time>2020-09-01T08:17:59.000Z</time>
      </trkpt>
      <trkpt lat="43.0631" lon="5.84987">
        <ele>147.39999389648</ele>
        <time>2020-09-01T08:18:00.000Z</time>
      </trkpt>
      <trkpt lat="43.06313" lon="5.84998">
        <ele>145</ele>
        <time>2020-09-01T08:18:02.000Z</time>
      </trkpt>
      <trkpt lat="43.06315" lon="5.85003">
        <ele>143.80000305176</ele>
        <time>2020-09-01T08:18:03.000Z</time>
      </trkpt>
      <trkpt lat="43.06318" lon="5.85015">
        <ele>142.80000305176</ele>
        <time>2020-09-01T08:18:05.000Z</time>
      </trkpt>
      <trkpt lat="43.0632" lon="5.85019">
        <ele>142.19999694824</ele>
        <time>2020-09-01T08:18:06.000Z</time>
      </trkpt>
      <trkpt lat="43.06322" lon="5.85031">
        <ele>141.80000305176</ele>
        <time>2020-09-01T08:18:08.000Z</time>
      </trkpt>
      <trkpt lat="43.06324" lon="5.85037">
        <ele>141.60000610352</ele>
        <time>2020-09-01T08:18:09.000Z</time>
      </trkpt>
      <trkpt lat="43.06326" lon="5.85044">
        <ele>141.19999694824</ele>
        <time>2020-09-01T08:18:10.000Z</time>
      </trkpt>
      <trkpt lat="43.06328" lon="5.8505">
        <ele>140.60000610352</ele>
        <time>2020-09-01T08:18:11.000Z</time>
      </trkpt>
      <trkpt lat="43.06335" lon="5.85066">
        <ele>140.39999389648</ele>
        <time>2020-09-01T08:18:13.000Z</time>
      </trkpt>
      <trkpt lat="43.06344" lon="5.85078">
        <ele>139.60000610352</ele>
        <time>2020-09-01T08:18:15.000Z</time>
      </trkpt>
      <trkpt lat="43.06346" lon="5.85082">
        <ele>139</ele>
        <time>2020-09-01T08:18:16.000Z</time>
      </trkpt>
      <trkpt lat="43.06351" lon="5.85089">
        <ele>137.39999389648</ele>
        <time>2020-09-01T08:18:18.000Z</time>
      </trkpt>
      <trkpt lat="43.06354" lon="5.85089">
        <ele>135.60000610352</ele>
        <time>2020-09-01T08:18:19.000Z</time>
      </trkpt>
      <trkpt lat="43.06362" lon="5.85087">
        <ele>134.60000610352</ele>
        <time>2020-09-01T08:18:21.000Z</time>
      </trkpt>
      <trkpt lat="43.06367" lon="5.85086">
        <ele>134.39999389648</ele>
        <time>2020-09-01T08:18:22.000Z</time>
      </trkpt>
      <trkpt lat="43.06372" lon="5.85086">
        <ele>134</ele>
        <time>2020-09-01T08:18:23.000Z</time>
      </trkpt>
      <trkpt lat="43.06377" lon="5.85093">
        <ele>133.80000305176</ele>
        <time>2020-09-01T08:18:25.000Z</time>
      </trkpt>
      <trkpt lat="43.06382" lon="5.85113">
        <ele>133.80000305176</ele>
        <time>2020-09-01T08:18:29.000Z</time>
      </trkpt>
      <trkpt lat="43.06396" lon="5.85125">
        <ele>134</ele>
        <time>2020-09-01T08:18:32.000Z</time>
      </trkpt>
      <trkpt lat="43.06404" lon="5.85124">
        <ele>133</ele>
        <time>2020-09-01T08:18:34.000Z</time>
      </trkpt>
      <trkpt lat="43.06409" lon="5.85127">
        <ele>132.60000610352</ele>
        <time>2020-09-01T08:18:35.000Z</time>
      </trkpt>
      <trkpt lat="43.06414" lon="5.85137">
        <ele>131.60000610352</ele>
        <time>2020-09-01T08:18:37.000Z</time>
      </trkpt>
      <trkpt lat="43.06414" lon="5.85141">
        <ele>131.19999694824</ele>
        <time>2020-09-01T08:18:38.000Z</time>
      </trkpt>
      <trkpt lat="43.06412" lon="5.85168">
        <ele>130.80000305176</ele>
        <time>2020-09-01T08:18:42.000Z</time>
      </trkpt>
      <trkpt lat="43.06411" lon="5.85175">
        <ele>130.60000610352</ele>
        <time>2020-09-01T08:18:43.000Z</time>
      </trkpt>
      <trkpt lat="43.06411" lon="5.85183">
        <ele>130.39999389648</ele>
        <time>2020-09-01T08:18:44.000Z</time>
      </trkpt>
      <trkpt lat="43.0641" lon="5.85191">
        <ele>129.60000610352</ele>
        <time>2020-09-01T08:18:45.000Z</time>
      </trkpt>
      <trkpt lat="43.06411" lon="5.85199">
        <ele>129</ele>
        <time>2020-09-01T08:18:46.000Z</time>
      </trkpt>
      <trkpt lat="43.06413" lon="5.85207">
        <ele>128.60000610352</ele>
        <time>2020-09-01T08:18:47.000Z</time>
      </trkpt>
      <trkpt lat="43.06421" lon="5.85231">
        <ele>127.40000152588</ele>
        <time>2020-09-01T08:18:50.000Z</time>
      </trkpt>
      <trkpt lat="43.06424" lon="5.85238">
        <ele>126</ele>
        <time>2020-09-01T08:18:51.000Z</time>
      </trkpt>
      <trkpt lat="43.06427" lon="5.85245">
        <ele>125.40000152588</ele>
        <time>2020-09-01T08:18:52.000Z</time>
      </trkpt>
      <trkpt lat="43.06433" lon="5.85259">
        <ele>124.80000305176</ele>
        <time>2020-09-01T08:18:54.000Z</time>
      </trkpt>
      <trkpt lat="43.0644" lon="5.85269">
        <ele>124.80000305176</ele>
        <time>2020-09-01T08:18:56.000Z</time>
      </trkpt>
      <trkpt lat="43.06445" lon="5.85272">
        <ele>124.80000305176</ele>
        <time>2020-09-01T08:18:57.000Z</time>
      </trkpt>
      <trkpt lat="43.06461" lon="5.85275">
        <ele>124.80000305176</ele>
        <time>2020-09-01T08:19:01.000Z</time>
      </trkpt>
      <trkpt lat="43.06475" lon="5.85262">
        <ele>125.80000305176</ele>
        <time>2020-09-01T08:19:06.000Z</time>
      </trkpt>
      <trkpt lat="43.06479" lon="5.85255">
        <ele>126.80000305176</ele>
        <time>2020-09-01T08:19:08.000Z</time>
      </trkpt>
      <trkpt lat="43.06483" lon="5.85247">
        <ele>128.19999694824</ele>
        <time>2020-09-01T08:19:10.000Z</time>
      </trkpt>
      <trkpt lat="43.06488" lon="5.85239">
        <ele>129.39999389648</ele>
        <time>2020-09-01T08:19:12.000Z</time>
      </trkpt>
      <trkpt lat="43.0649" lon="5.85235">
        <ele>130</ele>
        <time>2020-09-01T08:19:13.000Z</time>
      </trkpt>
      <trkpt lat="43.06492" lon="5.85233">
        <ele>130.39999389648</ele>
        <time>2020-09-01T08:19:14.000Z</time>
      </trkpt>
      <trkpt lat="43.06496" lon="5.85226">
        <ele>131.60000610352</ele>
        <time>2020-09-01T08:19:16.000Z</time>
      </trkpt>
      <trkpt lat="43.06501" lon="5.85219">
        <ele>132.80000305176</ele>
        <time>2020-09-01T08:19:18.000Z</time>
      </trkpt>
      <trkpt lat="43.06504" lon="5.85216">
        <ele>133.39999389648</ele>
        <time>2020-09-01T08:19:19.000Z</time>
      </trkpt>
      <trkpt lat="43.06506" lon="5.85213">
        <ele>134.19999694824</ele>
        <time>2020-09-01T08:19:20.000Z</time>
      </trkpt>
      <trkpt lat="43.0651" lon="5.85207">
        <ele>135.39999389648</ele>
        <time>2020-09-01T08:19:22.000Z</time>
      </trkpt>
      <trkpt lat="43.06511" lon="5.85202">
        <ele>136.60000610352</ele>
        <time>2020-09-01T08:19:24.000Z</time>
      </trkpt>
      <trkpt lat="43.06509" lon="5.85199">
        <ele>137</ele>
        <time>2020-09-01T08:19:25.000Z</time>
      </trkpt>
      <trkpt lat="43.06505" lon="5.85197">
        <ele>138.19999694824</ele>
        <time>2020-09-01T08:19:27.000Z</time>
      </trkpt>
      <trkpt lat="43.06499" lon="5.85193">
        <ele>139</ele>
        <time>2020-09-01T08:19:29.000Z</time>
      </trkpt>
      <trkpt lat="43.06495" lon="5.8519">
        <ele>139.39999389648</ele>
        <time>2020-09-01T08:19:30.000Z</time>
      </trkpt>
      <trkpt lat="43.06488" lon="5.85181">
        <ele>140.60000610352</ele>
        <time>2020-09-01T08:19:33.000Z</time>
      </trkpt>
      <trkpt lat="43.06486" lon="5.85178">
        <ele>141</ele>
        <time>2020-09-01T08:19:34.000Z</time>
      </trkpt>
      <trkpt lat="43.06481" lon="5.8517">
        <ele>141.80000305176</ele>
        <time>2020-09-01T08:19:36.000Z</time>
      </trkpt>
      <trkpt lat="43.06479" lon="5.8516">
        <ele>142.80000305176</ele>
        <time>2020-09-01T08:19:38.000Z</time>
      </trkpt>
      <trkpt lat="43.06479" lon="5.85156">
        <ele>143.19999694824</ele>
        <time>2020-09-01T08:19:39.000Z</time>
      </trkpt>
      <trkpt lat="43.06478" lon="5.85152">
        <ele>143.80000305176</ele>
        <time>2020-09-01T08:19:40.000Z</time>
      </trkpt>
      <trkpt lat="43.06476" lon="5.85145">
        <ele>144.80000305176</ele>
        <time>2020-09-01T08:19:42.000Z</time>
      </trkpt>
      <trkpt lat="43.06474" lon="5.85138">
        <ele>146</ele>
        <time>2020-09-01T08:19:44.000Z</time>
      </trkpt>
      <trkpt lat="43.06472" lon="5.85124">
        <ele>147</ele>
        <time>2020-09-01T08:19:47.000Z</time>
      </trkpt>
      <trkpt lat="43.06473" lon="5.85115">
        <ele>147.19999694824</ele>
        <time>2020-09-01T08:19:49.000Z</time>
      </trkpt>
      <trkpt lat="43.06477" lon="5.85097">
        <ele>148.19999694824</ele>
        <time>2020-09-01T08:19:53.000Z</time>
      </trkpt>
      <trkpt lat="43.06478" lon="5.85094">
        <ele>148.80000305176</ele>
        <time>2020-09-01T08:19:54.000Z</time>
      </trkpt>
      <trkpt lat="43.06479" lon="5.85089">
        <ele>149.19999694824</ele>
        <time>2020-09-01T08:19:55.000Z</time>
      </trkpt>
      <trkpt lat="43.06481" lon="5.85081">
        <ele>150.39999389648</ele>
        <time>2020-09-01T08:19:57.000Z</time>
      </trkpt>
      <trkpt lat="43.06483" lon="5.85075">
        <ele>151.39999389648</ele>
        <time>2020-09-01T08:19:59.000Z</time>
      </trkpt>
      <trkpt lat="43.06484" lon="5.85067">
        <ele>152.60000610352</ele>
        <time>2020-09-01T08:20:01.000Z</time>
      </trkpt>
      <trkpt lat="43.06485" lon="5.85058">
        <ele>153.80000305176</ele>
        <time>2020-09-01T08:20:03.000Z</time>
      </trkpt>
      <trkpt lat="43.06488" lon="5.85046">
        <ele>155</ele>
        <time>2020-09-01T08:20:06.000Z</time>
      </trkpt>
      <trkpt lat="43.06491" lon="5.85034">
        <ele>156</ele>
        <time>2020-09-01T08:20:09.000Z</time>
      </trkpt>
      <trkpt lat="43.06494" lon="5.85018">
        <ele>157.39999389648</ele>
        <time>2020-09-01T08:20:13.000Z</time>
      </trkpt>
      <trkpt lat="43.06495" lon="5.85009">
        <ele>158.60000610352</ele>
        <time>2020-09-01T08:20:15.000Z</time>
      </trkpt>
      <trkpt lat="43.06495" lon="5.85005">
        <ele>159.19999694824</ele>
        <time>2020-09-01T08:20:16.000Z</time>
      </trkpt>
      <trkpt lat="43.06495" lon="5.85001">
        <ele>159.80000305176</ele>
        <time>2020-09-01T08:20:17.000Z</time>
      </trkpt>
      <trkpt lat="43.06495" lon="5.84989">
        <ele>161.19999694824</ele>
        <time>2020-09-01T08:20:20.000Z</time>
      </trkpt>
      <trkpt lat="43.06495" lon="5.84981">
        <ele>162.39999389648</ele>
        <time>2020-09-01T08:20:22.000Z</time>
      </trkpt>
      <trkpt lat="43.06495" lon="5.84973">
        <ele>163.39999389648</ele>
        <time>2020-09-01T08:20:24.000Z</time>
      </trkpt>
      <trkpt lat="43.06495" lon="5.84969">
        <ele>164</ele>
        <time>2020-09-01T08:20:25.000Z</time>
      </trkpt>
      <trkpt lat="43.06495" lon="5.84965">
        <ele>164.39999389648</ele>
        <time>2020-09-01T08:20:26.000Z</time>
      </trkpt>
      <trkpt lat="43.06495" lon="5.84953">
        <ele>165.60000610352</ele>
        <time>2020-09-01T08:20:29.000Z</time>
      </trkpt>
      <trkpt lat="43.06493" lon="5.84943">
        <ele>167</ele>
        <time>2020-09-01T08:20:32.000Z</time>
      </trkpt>
      <trkpt lat="43.06493" lon="5.84937">
        <ele>168</ele>
        <time>2020-09-01T08:20:34.000Z</time>
      </trkpt>
      <trkpt lat="43.06492" lon="5.84933">
        <ele>168.60000610352</ele>
        <time>2020-09-01T08:20:35.000Z</time>
      </trkpt>
      <trkpt lat="43.06491" lon="5.84924">
        <ele>169.80000305176</ele>
        <time>2020-09-01T08:20:38.000Z</time>
      </trkpt>
      <trkpt lat="43.06488" lon="5.84916">
        <ele>170</ele>
        <time>2020-09-01T08:20:40.000Z</time>
      </trkpt>
      <trkpt lat="43.06486" lon="5.84909">
        <ele>170.19999694824</ele>
        <time>2020-09-01T08:20:41.000Z</time>
      </trkpt>
      <trkpt lat="43.06479" lon="5.84895">
        <ele>169.39999389648</ele>
        <time>2020-09-01T08:20:43.000Z</time>
      </trkpt>
      <trkpt lat="43.06476" lon="5.84889">
        <ele>169</ele>
        <time>2020-09-01T08:20:44.000Z</time>
      </trkpt>
      <trkpt lat="43.06471" lon="5.84882">
        <ele>168.60000610352</ele>
        <time>2020-09-01T08:20:45.000Z</time>
      </trkpt>
      <trkpt lat="43.06462" lon="5.84873">
        <ele>167.60000610352</ele>
        <time>2020-09-01T08:20:47.000Z</time>
      </trkpt>
      <trkpt lat="43.06457" lon="5.84869">
        <ele>167.19999694824</ele>
        <time>2020-09-01T08:20:48.000Z</time>
      </trkpt>
      <trkpt lat="43.06436" lon="5.84846">
        <ele>168.39999389648</ele>
        <time>2020-09-01T08:20:54.000Z</time>
      </trkpt>
      <trkpt lat="43.06432" lon="5.84843">
        <ele>168.60000610352</ele>
        <time>2020-09-01T08:20:55.000Z</time>
      </trkpt>
      <trkpt lat="43.06416" lon="5.84822">
        <ele>169.19999694824</ele>
        <time>2020-09-01T08:21:00.000Z</time>
      </trkpt>
      <trkpt lat="43.06409" lon="5.84813">
        <ele>169.19999694824</ele>
        <time>2020-09-01T08:21:02.000Z</time>
      </trkpt>
      <trkpt lat="43.06406" lon="5.84801">
        <ele>168.80000305176</ele>
        <time>2020-09-01T08:21:04.000Z</time>
      </trkpt>
      <trkpt lat="43.06412" lon="5.8478">
        <ele>168.19999694824</ele>
        <time>2020-09-01T08:21:07.000Z</time>
      </trkpt>
      <trkpt lat="43.06426" lon="5.84767">
        <ele>167.60000610352</ele>
        <time>2020-09-01T08:21:10.000Z</time>
      </trkpt>
      <trkpt lat="43.06437" lon="5.84774">
        <ele>167.19999694824</ele>
        <time>2020-09-01T08:21:12.000Z</time>
      </trkpt>
      <trkpt lat="43.06448" lon="5.84786">
        <ele>166.39999389648</ele>
        <time>2020-09-01T08:21:14.000Z</time>
      </trkpt>
      <trkpt lat="43.06461" lon="5.84795">
        <ele>165.19999694824</ele>
        <time>2020-09-01T08:21:16.000Z</time>
      </trkpt>
      <trkpt lat="43.06468" lon="5.848">
        <ele>164.19999694824</ele>
        <time>2020-09-01T08:21:17.000Z</time>
      </trkpt>
      <trkpt lat="43.06476" lon="5.84804">
        <ele>162.80000305176</ele>
        <time>2020-09-01T08:21:18.000Z</time>
      </trkpt>
      <trkpt lat="43.06492" lon="5.84812">
        <ele>161</ele>
        <time>2020-09-01T08:21:20.000Z</time>
      </trkpt>
      <trkpt lat="43.065" lon="5.84816">
        <ele>160</ele>
        <time>2020-09-01T08:21:21.000Z</time>
      </trkpt>
      <trkpt lat="43.06509" lon="5.84819">
        <ele>158.60000610352</ele>
        <time>2020-09-01T08:21:22.000Z</time>
      </trkpt>
      <trkpt lat="43.06519" lon="5.84821">
        <ele>157.39999389648</ele>
        <time>2020-09-01T08:21:23.000Z</time>
      </trkpt>
      <trkpt lat="43.06539" lon="5.84821">
        <ele>155</ele>
        <time>2020-09-01T08:21:25.000Z</time>
      </trkpt>
      <trkpt lat="43.06548" lon="5.84819">
        <ele>154</ele>
        <time>2020-09-01T08:21:26.000Z</time>
      </trkpt>
      <trkpt lat="43.06558" lon="5.84817">
        <ele>152.80000305176</ele>
        <time>2020-09-01T08:21:27.000Z</time>
      </trkpt>
      <trkpt lat="43.06576" lon="5.84813">
        <ele>151.19999694824</ele>
        <time>2020-09-01T08:21:29.000Z</time>
      </trkpt>
      <trkpt lat="43.06585" lon="5.84812">
        <ele>150.19999694824</ele>
        <time>2020-09-01T08:21:30.000Z</time>
      </trkpt>
      <trkpt lat="43.06594" lon="5.84812">
        <ele>148.60000610352</ele>
        <time>2020-09-01T08:21:31.000Z</time>
      </trkpt>
      <trkpt lat="43.06604" lon="5.84811">
        <ele>147</ele>
        <time>2020-09-01T08:21:32.000Z</time>
      </trkpt>
      <trkpt lat="43.06613" lon="5.84813">
        <ele>145.80000305176</ele>
        <time>2020-09-01T08:21:33.000Z</time>
      </trkpt>
      <trkpt lat="43.06621" lon="5.84816">
        <ele>144.39999389648</ele>
        <time>2020-09-01T08:21:34.000Z</time>
      </trkpt>
      <trkpt lat="43.06631" lon="5.84819">
        <ele>143.19999694824</ele>
        <time>2020-09-01T08:21:35.000Z</time>
      </trkpt>
      <trkpt lat="43.06638" lon="5.8482">
        <ele>142.39999389648</ele>
        <time>2020-09-01T08:21:36.000Z</time>
      </trkpt>
      <trkpt lat="43.06645" lon="5.8482">
        <ele>141.60000610352</ele>
        <time>2020-09-01T08:21:37.000Z</time>
      </trkpt>
      <trkpt lat="43.06652" lon="5.84819">
        <ele>140.60000610352</ele>
        <time>2020-09-01T08:21:38.000Z</time>
      </trkpt>
      <trkpt lat="43.06659" lon="5.84817">
        <ele>140.39999389648</ele>
        <time>2020-09-01T08:21:39.000Z</time>
      </trkpt>
      <trkpt lat="43.06666" lon="5.84815">
        <ele>139.80000305176</ele>
        <time>2020-09-01T08:21:40.000Z</time>
      </trkpt>
      <trkpt lat="43.06672" lon="5.8481">
        <ele>138.80000305176</ele>
        <time>2020-09-01T08:21:41.000Z</time>
      </trkpt>
      <trkpt lat="43.0668" lon="5.84803">
        <ele>137.80000305176</ele>
        <time>2020-09-01T08:21:43.000Z</time>
      </trkpt>
      <trkpt lat="43.06687" lon="5.84796">
        <ele>138</ele>
        <time>2020-09-01T08:21:45.000Z</time>
      </trkpt>
      <trkpt lat="43.06694" lon="5.84788">
        <ele>139.19999694824</ele>
        <time>2020-09-01T08:21:47.000Z</time>
      </trkpt>
      <trkpt lat="43.067" lon="5.84779">
        <ele>140.19999694824</ele>
        <time>2020-09-01T08:21:49.000Z</time>
      </trkpt>
      <trkpt lat="43.06703" lon="5.84774">
        <ele>140.80000305176</ele>
        <time>2020-09-01T08:21:50.000Z</time>
      </trkpt>
      <trkpt lat="43.06713" lon="5.84761">
        <ele>142</ele>
        <time>2020-09-01T08:21:53.000Z</time>
      </trkpt>
      <trkpt lat="43.06722" lon="5.84756">
        <ele>142.80000305176</ele>
        <time>2020-09-01T08:21:55.000Z</time>
      </trkpt>
      <trkpt lat="43.06726" lon="5.84758">
        <ele>143</ele>
        <time>2020-09-01T08:21:56.000Z</time>
      </trkpt>
      <trkpt lat="43.06733" lon="5.84764">
        <ele>143.60000610352</ele>
        <time>2020-09-01T08:21:58.000Z</time>
      </trkpt>
      <trkpt lat="43.06744" lon="5.84777">
        <ele>144.39999389648</ele>
        <time>2020-09-01T08:22:01.000Z</time>
      </trkpt>
      <trkpt lat="43.06748" lon="5.84781">
        <ele>144.80000305176</ele>
        <time>2020-09-01T08:22:02.000Z</time>
      </trkpt>
      <trkpt lat="43.06752" lon="5.84784">
        <ele>145</ele>
        <time>2020-09-01T08:22:03.000Z</time>
      </trkpt>
      <trkpt lat="43.06762" lon="5.84789">
        <ele>145.39999389648</ele>
        <time>2020-09-01T08:22:05.000Z</time>
      </trkpt>
      <trkpt lat="43.0678" lon="5.84796">
        <ele>145.80000305176</ele>
        <time>2020-09-01T08:22:09.000Z</time>
      </trkpt>
      <trkpt lat="43.06802" lon="5.84801">
        <ele>146.60000610352</ele>
        <time>2020-09-01T08:22:14.000Z</time>
      </trkpt>
      <trkpt lat="43.06809" lon="5.848">
        <ele>147</ele>
        <time>2020-09-01T08:22:16.000Z</time>
      </trkpt>
      <trkpt lat="43.06822" lon="5.848">
        <ele>147.80000305176</ele>
        <time>2020-09-01T08:22:20.000Z</time>
      </trkpt>
      <trkpt lat="43.06825" lon="5.84803">
        <ele>148</ele>
        <time>2020-09-01T08:22:21.000Z</time>
      </trkpt>
      <trkpt lat="43.06829" lon="5.84817">
        <ele>148.80000305176</ele>
        <time>2020-09-01T08:22:24.000Z</time>
      </trkpt>
      <trkpt lat="43.06829" lon="5.84822">
        <ele>149</ele>
        <time>2020-09-01T08:22:25.000Z</time>
      </trkpt>
      <trkpt lat="43.0683" lon="5.84833">
        <ele>149.39999389648</ele>
        <time>2020-09-01T08:22:28.000Z</time>
      </trkpt>
      <trkpt lat="43.06831" lon="5.84839">
        <ele>149.80000305176</ele>
        <time>2020-09-01T08:22:30.000Z</time>
      </trkpt>
      <trkpt lat="43.06833" lon="5.84841">
        <ele>150.19999694824</ele>
        <time>2020-09-01T08:22:31.000Z</time>
      </trkpt>
      <trkpt lat="43.06836" lon="5.84847">
        <ele>151</ele>
        <time>2020-09-01T08:22:33.000Z</time>
      </trkpt>
      <trkpt lat="43.06837" lon="5.84849">
        <ele>151.39999389648</ele>
        <time>2020-09-01T08:22:34.000Z</time>
      </trkpt>
      <trkpt lat="43.06838" lon="5.84853">
        <ele>152</ele>
        <time>2020-09-01T08:22:35.000Z</time>
      </trkpt>
      <trkpt lat="43.06841" lon="5.84866">
        <ele>152.60000610352</ele>
        <time>2020-09-01T08:22:39.000Z</time>
      </trkpt>
      <trkpt lat="43.06843" lon="5.84876">
        <ele>152</ele>
        <time>2020-09-01T08:22:42.000Z</time>
      </trkpt>
      <trkpt lat="43.06847" lon="5.84883">
        <ele>151</ele>
        <time>2020-09-01T08:22:44.000Z</time>
      </trkpt>
      <trkpt lat="43.0685" lon="5.84894">
        <ele>149.60000610352</ele>
        <time>2020-09-01T08:22:47.000Z</time>
      </trkpt>
      <trkpt lat="43.06853" lon="5.84896">
        <ele>149.19999694824</ele>
        <time>2020-09-01T08:22:48.000Z</time>
      </trkpt>
      <trkpt lat="43.06857" lon="5.84901">
        <ele>148.19999694824</ele>
        <time>2020-09-01T08:22:50.000Z</time>
      </trkpt>
      <trkpt lat="43.06859" lon="5.84908">
        <ele>147</ele>
        <time>2020-09-01T08:22:52.000Z</time>
      </trkpt>
      <trkpt lat="43.06862" lon="5.84913">
        <ele>145.39999389648</ele>
        <time>2020-09-01T08:22:54.000Z</time>
      </trkpt>
      <trkpt lat="43.06865" lon="5.84916">
        <ele>145</ele>
        <time>2020-09-01T08:22:55.000Z</time>
      </trkpt>
      <trkpt lat="43.06867" lon="5.8492">
        <ele>144.39999389648</ele>
        <time>2020-09-01T08:22:56.000Z</time>
      </trkpt>
      <trkpt lat="43.06877" lon="5.84931">
        <ele>143.19999694824</ele>
        <time>2020-09-01T08:23:00.000Z</time>
      </trkpt>
      <trkpt lat="43.06879" lon="5.84936">
        <ele>143</ele>
        <time>2020-09-01T08:23:01.000Z</time>
      </trkpt>
      <trkpt lat="43.0688" lon="5.84945">
        <ele>142.39999389648</ele>
        <time>2020-09-01T08:23:03.000Z</time>
      </trkpt>
      <trkpt lat="43.0688" lon="5.84948">
        <ele>142.19999694824</ele>
        <time>2020-09-01T08:23:04.000Z</time>
      </trkpt>
      <trkpt lat="43.0688" lon="5.84952">
        <ele>141.80000305176</ele>
        <time>2020-09-01T08:23:05.000Z</time>
      </trkpt>
      <trkpt lat="43.06881" lon="5.8496">
        <ele>141.19999694824</ele>
        <time>2020-09-01T08:23:07.000Z</time>
      </trkpt>
      <trkpt lat="43.06881" lon="5.84964">
        <ele>140.80000305176</ele>
        <time>2020-09-01T08:23:08.000Z</time>
      </trkpt>
      <trkpt lat="43.0688" lon="5.84971">
        <ele>139.60000610352</ele>
        <time>2020-09-01T08:23:10.000Z</time>
      </trkpt>
      <trkpt lat="43.06877" lon="5.84978">
        <ele>138.39999389648</ele>
        <time>2020-09-01T08:23:12.000Z</time>
      </trkpt>
      <trkpt lat="43.06878" lon="5.84985">
        <ele>136.80000305176</ele>
        <time>2020-09-01T08:23:14.000Z</time>
      </trkpt>
      <trkpt lat="43.0688" lon="5.8499">
        <ele>136</ele>
        <time>2020-09-01T08:23:15.000Z</time>
      </trkpt>
      <trkpt lat="43.06882" lon="5.84993">
        <ele>135.39999389648</ele>
        <time>2020-09-01T08:23:16.000Z</time>
      </trkpt>
      <trkpt lat="43.06888" lon="5.85002">
        <ele>134.19999694824</ele>
        <time>2020-09-01T08:23:18.000Z</time>
      </trkpt>
      <trkpt lat="43.06891" lon="5.85011">
        <ele>133</ele>
        <time>2020-09-01T08:23:20.000Z</time>
      </trkpt>
      <trkpt lat="43.0689" lon="5.85015">
        <ele>132.80000305176</ele>
        <time>2020-09-01T08:23:21.000Z</time>
      </trkpt>
      <trkpt lat="43.06886" lon="5.85023">
        <ele>132</ele>
        <time>2020-09-01T08:23:23.000Z</time>
      </trkpt>
      <trkpt lat="43.06885" lon="5.85025">
        <ele>131.39999389648</ele>
        <time>2020-09-01T08:23:24.000Z</time>
      </trkpt>
      <trkpt lat="43.06885" lon="5.85027">
        <ele>130.60000610352</ele>
        <time>2020-09-01T08:23:25.000Z</time>
      </trkpt>
      <trkpt lat="43.06887" lon="5.85035">
        <ele>129</ele>
        <time>2020-09-01T08:23:27.000Z</time>
      </trkpt>
      <trkpt lat="43.06886" lon="5.85038">
        <ele>128.19999694824</ele>
        <time>2020-09-01T08:23:28.000Z</time>
      </trkpt>
      <trkpt lat="43.06885" lon="5.85042">
        <ele>127.19999694824</ele>
        <time>2020-09-01T08:23:29.000Z</time>
      </trkpt>
      <trkpt lat="43.06881" lon="5.85049">
        <ele>125.40000152588</ele>
        <time>2020-09-01T08:23:31.000Z</time>
      </trkpt>
      <trkpt lat="43.06879" lon="5.85052">
        <ele>124.40000152588</ele>
        <time>2020-09-01T08:23:32.000Z</time>
      </trkpt>
      <trkpt lat="43.06877" lon="5.85054">
        <ele>123.59999847412</ele>
        <time>2020-09-01T08:23:33.000Z</time>
      </trkpt>
      <trkpt lat="43.06876" lon="5.85056">
        <ele>122.40000152588</ele>
        <time>2020-09-01T08:23:34.000Z</time>
      </trkpt>
      <trkpt lat="43.06875" lon="5.85061">
        <ele>120.80000305176</ele>
        <time>2020-09-01T08:23:36.000Z</time>
      </trkpt>
      <trkpt lat="43.06875" lon="5.85064">
        <ele>119.80000305176</ele>
        <time>2020-09-01T08:23:37.000Z</time>
      </trkpt>
      <trkpt lat="43.06875" lon="5.85072">
        <ele>118.40000152588</ele>
        <time>2020-09-01T08:23:39.000Z</time>
      </trkpt>
      <trkpt lat="43.06875" lon="5.85074">
        <ele>117.80000305176</ele>
        <time>2020-09-01T08:23:40.000Z</time>
      </trkpt>
      <trkpt lat="43.06876" lon="5.85075">
        <ele>117</ele>
        <time>2020-09-01T08:23:41.000Z</time>
      </trkpt>
      <trkpt lat="43.06885" lon="5.85085">
        <ele>116.19999694824</ele>
        <time>2020-09-01T08:23:45.000Z</time>
      </trkpt>
      <trkpt lat="43.06898" lon="5.85102">
        <ele>117.19999694824</ele>
        <time>2020-09-01T08:23:49.000Z</time>
      </trkpt>
      <trkpt lat="43.06905" lon="5.85121">
        <ele>116.40000152588</ele>
        <time>2020-09-01T08:23:52.000Z</time>
      </trkpt>
      <trkpt lat="43.06908" lon="5.85128">
        <ele>115.80000305176</ele>
        <time>2020-09-01T08:23:53.000Z</time>
      </trkpt>
      <trkpt lat="43.06911" lon="5.85134">
        <ele>115.40000152588</ele>
        <time>2020-09-01T08:23:54.000Z</time>
      </trkpt>
      <trkpt lat="43.06915" lon="5.85141">
        <ele>115.80000305176</ele>
        <time>2020-09-01T08:23:57.000Z</time>
      </trkpt>
      <trkpt lat="43.06915" lon="5.85142">
        <ele>116.19999694824</ele>
        <time>2020-09-01T08:24:01.000Z</time>
      </trkpt>
      <trkpt lat="43.06915" lon="5.85143">
        <ele>116.40000152588</ele>
        <time>2020-09-01T08:24:09.000Z</time>
      </trkpt>
      <trkpt lat="43.06916" lon="5.85146">
        <ele>116.19999694824</ele>
        <time>2020-09-01T08:24:16.000Z</time>
      </trkpt>
      <trkpt lat="43.06918" lon="5.85152">
        <ele>116.19999694824</ele>
        <time>2020-09-01T08:24:18.000Z</time>
      </trkpt>
      <trkpt lat="43.06925" lon="5.85167">
        <ele>116</ele>
        <time>2020-09-01T08:24:21.000Z</time>
      </trkpt>
      <trkpt lat="43.0693" lon="5.85172">
        <ele>115.59999847412</ele>
        <time>2020-09-01T08:24:22.000Z</time>
      </trkpt>
      <trkpt lat="43.06942" lon="5.85177">
        <ele>114</ele>
        <time>2020-09-01T08:24:24.000Z</time>
      </trkpt>
      <trkpt lat="43.06948" lon="5.85181">
        <ele>113</ele>
        <time>2020-09-01T08:24:25.000Z</time>
      </trkpt>
      <trkpt lat="43.06952" lon="5.85186">
        <ele>112</ele>
        <time>2020-09-01T08:24:26.000Z</time>
      </trkpt>
      <trkpt lat="43.06956" lon="5.85192">
        <ele>110.80000305176</ele>
        <time>2020-09-01T08:24:27.000Z</time>
      </trkpt>
      <trkpt lat="43.06962" lon="5.85205">
        <ele>109</ele>
        <time>2020-09-01T08:24:29.000Z</time>
      </trkpt>
      <trkpt lat="43.06967" lon="5.85213">
        <ele>107.59999847412</ele>
        <time>2020-09-01T08:24:30.000Z</time>
      </trkpt>
      <trkpt lat="43.06974" lon="5.8522">
        <ele>106.40000152588</ele>
        <time>2020-09-01T08:24:31.000Z</time>
      </trkpt>
      <trkpt lat="43.06981" lon="5.85227">
        <ele>105</ele>
        <time>2020-09-01T08:24:32.000Z</time>
      </trkpt>
      <trkpt lat="43.0699" lon="5.85233">
        <ele>103.40000152588</ele>
        <time>2020-09-01T08:24:33.000Z</time>
      </trkpt>
      <trkpt lat="43.06998" lon="5.85237">
        <ele>102.19999694824</ele>
        <time>2020-09-01T08:24:34.000Z</time>
      </trkpt>
      <trkpt lat="43.07007" lon="5.8524">
        <ele>100.40000152588</ele>
        <time>2020-09-01T08:24:35.000Z</time>
      </trkpt>
      <trkpt lat="43.07015" lon="5.8524">
        <ele>99.199996948242</ele>
        <time>2020-09-01T08:24:36.000Z</time>
      </trkpt>
      <trkpt lat="43.07032" lon="5.85237">
        <ele>97.400001525879</ele>
        <time>2020-09-01T08:24:38.000Z</time>
      </trkpt>
      <trkpt lat="43.07051" lon="5.85233">
        <ele>95.800003051758</ele>
        <time>2020-09-01T08:24:40.000Z</time>
      </trkpt>
      <trkpt lat="43.0706" lon="5.85234">
        <ele>95</ele>
        <time>2020-09-01T08:24:41.000Z</time>
      </trkpt>
      <trkpt lat="43.07069" lon="5.85234">
        <ele>94.400001525879</ele>
        <time>2020-09-01T08:24:42.000Z</time>
      </trkpt>
      <trkpt lat="43.07085" lon="5.85236">
        <ele>93.199996948242</ele>
        <time>2020-09-01T08:24:44.000Z</time>
      </trkpt>
      <trkpt lat="43.07092" lon="5.85239">
        <ele>92.599998474121</ele>
        <time>2020-09-01T08:24:45.000Z</time>
      </trkpt>
      <trkpt lat="43.07097" lon="5.85241">
        <ele>92.400001525879</ele>
        <time>2020-09-01T08:24:46.000Z</time>
      </trkpt>
      <trkpt lat="43.07102" lon="5.85243">
        <ele>92</ele>
        <time>2020-09-01T08:24:47.000Z</time>
      </trkpt>
      <trkpt lat="43.07109" lon="5.85241">
        <ele>91</ele>
        <time>2020-09-01T08:24:49.000Z</time>
      </trkpt>
      <trkpt lat="43.07112" lon="5.85238">
        <ele>90.800003051758</ele>
        <time>2020-09-01T08:24:50.000Z</time>
      </trkpt>
      <trkpt lat="43.07114" lon="5.85229">
        <ele>90.199996948242</ele>
        <time>2020-09-01T08:24:52.000Z</time>
      </trkpt>
      <trkpt lat="43.07112" lon="5.8521">
        <ele>89.800003051758</ele>
        <time>2020-09-01T08:24:55.000Z</time>
      </trkpt>
      <trkpt lat="43.07111" lon="5.85205">
        <ele>90</ele>
        <time>2020-09-01T08:24:56.000Z</time>
      </trkpt>
      <trkpt lat="43.0711" lon="5.85175">
        <ele>91.800003051758</ele>
        <time>2020-09-01T08:25:02.000Z</time>
      </trkpt>
      <trkpt lat="43.07108" lon="5.85142">
        <ele>92.800003051758</ele>
        <time>2020-09-01T08:25:09.000Z</time>
      </trkpt>
      <trkpt lat="43.07108" lon="5.85138">
        <ele>92.800003051758</ele>
        <time>2020-09-01T08:25:10.000Z</time>
      </trkpt>
      <trkpt lat="43.0711" lon="5.85106">
        <ele>93.599998474121</ele>
        <time>2020-09-01T08:25:17.000Z</time>
      </trkpt>
      <trkpt lat="43.07121" lon="5.85085">
        <ele>93.800003051758</ele>
        <time>2020-09-01T08:25:22.000Z</time>
      </trkpt>
      <trkpt lat="43.0713" lon="5.8508">
        <ele>93.400001525879</ele>
        <time>2020-09-01T08:25:25.000Z</time>
      </trkpt>
      <trkpt lat="43.07141" lon="5.85083">
        <ele>93.400001525879</ele>
        <time>2020-09-01T08:25:28.000Z</time>
      </trkpt>
      <trkpt lat="43.07158" lon="5.85081">
        <ele>94.199996948242</ele>
        <time>2020-09-01T08:25:33.000Z</time>
      </trkpt>
      <trkpt lat="43.07161" lon="5.85075">
        <ele>95</ele>
        <time>2020-09-01T08:25:35.000Z</time>
      </trkpt>
      <trkpt lat="43.07161" lon="5.8507">
        <ele>95.400001525879</ele>
        <time>2020-09-01T08:25:36.000Z</time>
      </trkpt>
      <trkpt lat="43.07162" lon="5.85064">
        <ele>95.800003051758</ele>
        <time>2020-09-01T08:25:37.000Z</time>
      </trkpt>
      <trkpt lat="43.07162" lon="5.85042">
        <ele>96.599998474121</ele>
        <time>2020-09-01T08:25:41.000Z</time>
      </trkpt>
      <trkpt lat="43.07162" lon="5.85037">
        <ele>96.599998474121</ele>
        <time>2020-09-01T08:25:42.000Z</time>
      </trkpt>
      <trkpt lat="43.07163" lon="5.85022">
        <ele>97</ele>
        <time>2020-09-01T08:25:45.000Z</time>
      </trkpt>
      <trkpt lat="43.07166" lon="5.85003">
        <ele>97.199996948242</ele>
        <time>2020-09-01T08:25:49.000Z</time>
      </trkpt>
      <trkpt lat="43.0717" lon="5.8498">
        <ele>97.599998474121</ele>
        <time>2020-09-01T08:25:53.000Z</time>
      </trkpt>
      <trkpt lat="43.07173" lon="5.84969">
        <ele>98</ele>
        <time>2020-09-01T08:25:55.000Z</time>
      </trkpt>
      <trkpt lat="43.07176" lon="5.84946">
        <ele>98.400001525879</ele>
        <time>2020-09-01T08:26:00.000Z</time>
      </trkpt>
      <trkpt lat="43.07176" lon="5.84936">
        <ele>98.599998474121</ele>
        <time>2020-09-01T08:26:02.000Z</time>
      </trkpt>
      <trkpt lat="43.07179" lon="5.8492">
        <ele>99.400001525879</ele>
        <time>2020-09-01T08:26:06.000Z</time>
      </trkpt>
      <trkpt lat="43.07179" lon="5.84918">
        <ele>99.800003051758</ele>
        <time>2020-09-01T08:26:07.000Z</time>
      </trkpt>
      <trkpt lat="43.07178" lon="5.84907">
        <ele>100.59999847412</ele>
        <time>2020-09-01T08:26:10.000Z</time>
      </trkpt>
      <trkpt lat="43.07176" lon="5.84903">
        <ele>101</ele>
        <time>2020-09-01T08:26:11.000Z</time>
      </trkpt>
      <trkpt lat="43.07171" lon="5.84889">
        <ele>102.19999694824</ele>
        <time>2020-09-01T08:26:15.000Z</time>
      </trkpt>
      <trkpt lat="43.0717" lon="5.84886">
        <ele>102.40000152588</ele>
        <time>2020-09-01T08:26:16.000Z</time>
      </trkpt>
      <trkpt lat="43.07165" lon="5.84875">
        <ele>103.19999694824</ele>
        <time>2020-09-01T08:26:19.000Z</time>
      </trkpt>
      <trkpt lat="43.07161" lon="5.8486">
        <ele>103.80000305176</ele>
        <time>2020-09-01T08:26:23.000Z</time>
      </trkpt>
      <trkpt lat="43.0716" lon="5.84844">
        <ele>104.19999694824</ele>
        <time>2020-09-01T08:26:27.000Z</time>
      </trkpt>
      <trkpt lat="43.07161" lon="5.84836">
        <ele>104.80000305176</ele>
        <time>2020-09-01T08:26:29.000Z</time>
      </trkpt>
      <trkpt lat="43.07161" lon="5.84824">
        <ele>105.40000152588</ele>
        <time>2020-09-01T08:26:32.000Z</time>
      </trkpt>
      <trkpt lat="43.07161" lon="5.84819">
        <ele>106</ele>
        <time>2020-09-01T08:26:34.000Z</time>
      </trkpt>
      <trkpt lat="43.07161" lon="5.84805">
        <ele>106.19999694824</ele>
        <time>2020-09-01T08:26:39.000Z</time>
      </trkpt>
      <trkpt lat="43.07153" lon="5.84789">
        <ele>106.40000152588</ele>
        <time>2020-09-01T08:26:44.000Z</time>
      </trkpt>
      <trkpt lat="43.07149" lon="5.84783">
        <ele>106.40000152588</ele>
        <time>2020-09-01T08:26:46.000Z</time>
      </trkpt>
      <trkpt lat="43.07142" lon="5.8477">
        <ele>106.80000305176</ele>
        <time>2020-09-01T08:26:50.000Z</time>
      </trkpt>
      <trkpt lat="43.07141" lon="5.8476">
        <ele>107.19999694824</ele>
        <time>2020-09-01T08:26:53.000Z</time>
      </trkpt>
      <trkpt lat="43.07142" lon="5.84758">
        <ele>107.40000152588</ele>
        <time>2020-09-01T08:26:54.000Z</time>
      </trkpt>
      <trkpt lat="43.07144" lon="5.84758">
        <ele>107.59999847412</ele>
        <time>2020-09-01T08:26:55.000Z</time>
      </trkpt>
      <trkpt lat="43.07151" lon="5.84761">
        <ele>108.40000152588</ele>
        <time>2020-09-01T08:26:58.000Z</time>
      </trkpt>
      <trkpt lat="43.07157" lon="5.84763">
        <ele>108.80000305176</ele>
        <time>2020-09-01T08:27:00.000Z</time>
      </trkpt>
      <trkpt lat="43.07165" lon="5.84764">
        <ele>109.19999694824</ele>
        <time>2020-09-01T08:27:03.000Z</time>
      </trkpt>
      <trkpt lat="43.07178" lon="5.84772">
        <ele>109.80000305176</ele>
        <time>2020-09-01T08:27:08.000Z</time>
      </trkpt>
      <trkpt lat="43.07183" lon="5.84777">
        <ele>109.80000305176</ele>
        <time>2020-09-01T08:27:10.000Z</time>
      </trkpt>
      <trkpt lat="43.07184" lon="5.84785">
        <ele>110</ele>
        <time>2020-09-01T08:27:12.000Z</time>
      </trkpt>
      <trkpt lat="43.07178" lon="5.84801">
        <ele>110.59999847412</ele>
        <time>2020-09-01T08:27:17.000Z</time>
      </trkpt>
      <trkpt lat="43.07178" lon="5.84815">
        <ele>110.80000305176</ele>
        <time>2020-09-01T08:27:21.000Z</time>
      </trkpt>
      <trkpt lat="43.07179" lon="5.84818">
        <ele>111</ele>
        <time>2020-09-01T08:27:22.000Z</time>
      </trkpt>
      <trkpt lat="43.07187" lon="5.84833">
        <ele>111.40000152588</ele>
        <time>2020-09-01T08:27:26.000Z</time>
      </trkpt>
      <trkpt lat="43.07202" lon="5.84846">
        <ele>111.40000152588</ele>
        <time>2020-09-01T08:27:32.000Z</time>
      </trkpt>
      <trkpt lat="43.07219" lon="5.84856">
        <ele>111.59999847412</ele>
        <time>2020-09-01T08:27:38.000Z</time>
      </trkpt>
      <trkpt lat="43.07227" lon="5.84857">
        <ele>111.80000305176</ele>
        <time>2020-09-01T08:27:40.000Z</time>
      </trkpt>
      <trkpt lat="43.07234" lon="5.84859">
        <ele>112</ele>
        <time>2020-09-01T08:27:42.000Z</time>
      </trkpt>
      <trkpt lat="43.07263" lon="5.8486">
        <ele>112.40000152588</ele>
        <time>2020-09-01T08:27:50.000Z</time>
      </trkpt>
      <trkpt lat="43.07278" lon="5.84864">
        <ele>112.80000305176</ele>
        <time>2020-09-01T08:27:54.000Z</time>
      </trkpt>
      <trkpt lat="43.07281" lon="5.84868">
        <ele>112.80000305176</ele>
        <time>2020-09-01T08:27:55.000Z</time>
      </trkpt>
      <trkpt lat="43.07284" lon="5.8487">
        <ele>113</ele>
        <time>2020-09-01T08:27:56.000Z</time>
      </trkpt>
      <trkpt lat="43.07298" lon="5.84878">
        <ele>113.40000152588</ele>
        <time>2020-09-01T08:28:00.000Z</time>
      </trkpt>
      <trkpt lat="43.07309" lon="5.84891">
        <ele>113.80000305176</ele>
        <time>2020-09-01T08:28:04.000Z</time>
      </trkpt>
      <trkpt lat="43.07312" lon="5.84907">
        <ele>113.80000305176</ele>
        <time>2020-09-01T08:28:07.000Z</time>
      </trkpt>
      <trkpt lat="43.07309" lon="5.84911">
        <ele>113.80000305176</ele>
        <time>2020-09-01T08:28:08.000Z</time>
      </trkpt>
      <trkpt lat="43.07301" lon="5.84919">
        <ele>113.80000305176</ele>
        <time>2020-09-01T08:28:11.000Z</time>
      </trkpt>
      <trkpt lat="43.07298" lon="5.84922">
        <ele>113.80000305176</ele>
        <time>2020-09-01T08:28:12.000Z</time>
      </trkpt>
      <trkpt lat="43.07293" lon="5.84928">
        <ele>114</ele>
        <time>2020-09-01T08:28:14.000Z</time>
      </trkpt>
      <trkpt lat="43.07282" lon="5.84944">
        <ele>114.40000152588</ele>
        <time>2020-09-01T08:28:18.000Z</time>
      </trkpt>
      <trkpt lat="43.0728" lon="5.84948">
        <ele>114.40000152588</ele>
        <time>2020-09-01T08:28:19.000Z</time>
      </trkpt>
      <trkpt lat="43.07273" lon="5.84964">
        <ele>114.59999847412</ele>
        <time>2020-09-01T08:28:22.000Z</time>
      </trkpt>
      <trkpt lat="43.07264" lon="5.84975">
        <ele>114.80000305176</ele>
        <time>2020-09-01T08:28:25.000Z</time>
      </trkpt>
      <trkpt lat="43.07259" lon="5.84983">
        <ele>115.19999694824</ele>
        <time>2020-09-01T08:28:27.000Z</time>
      </trkpt>
      <trkpt lat="43.0725" lon="5.84997">
        <ele>116.19999694824</ele>
        <time>2020-09-01T08:28:31.000Z</time>
      </trkpt>
      <trkpt lat="43.07248" lon="5.85015">
        <ele>117</ele>
        <time>2020-09-01T08:28:35.000Z</time>
      </trkpt>
      <trkpt lat="43.07249" lon="5.85025">
        <ele>117.19999694824</ele>
        <time>2020-09-01T08:28:37.000Z</time>
      </trkpt>
      <trkpt lat="43.07253" lon="5.85048">
        <ele>117.80000305176</ele>
        <time>2020-09-01T08:28:42.000Z</time>
      </trkpt>
      <trkpt lat="43.07257" lon="5.8506">
        <ele>118.40000152588</ele>
        <time>2020-09-01T08:28:45.000Z</time>
      </trkpt>
      <trkpt lat="43.07265" lon="5.85075">
        <ele>119.19999694824</ele>
        <time>2020-09-01T08:28:49.000Z</time>
      </trkpt>
      <trkpt lat="43.07266" lon="5.8508">
        <ele>119.40000152588</ele>
        <time>2020-09-01T08:28:50.000Z</time>
      </trkpt>
      <trkpt lat="43.07266" lon="5.85085">
        <ele>119.59999847412</ele>
        <time>2020-09-01T08:28:51.000Z</time>
      </trkpt>
      <trkpt lat="43.07265" lon="5.85091">
        <ele>119.80000305176</ele>
        <time>2020-09-01T08:28:52.000Z</time>
      </trkpt>
      <trkpt lat="43.07262" lon="5.85113">
        <ele>119.80000305176</ele>
        <time>2020-09-01T08:28:56.000Z</time>
      </trkpt>
      <trkpt lat="43.07264" lon="5.85122">
        <ele>119.59999847412</ele>
        <time>2020-09-01T08:28:58.000Z</time>
      </trkpt>
      <trkpt lat="43.07276" lon="5.85127">
        <ele>119.59999847412</ele>
        <time>2020-09-01T08:29:01.000Z</time>
      </trkpt>
      <trkpt lat="43.07285" lon="5.85124">
        <ele>119.59999847412</ele>
        <time>2020-09-01T08:29:03.000Z</time>
      </trkpt>
      <trkpt lat="43.07298" lon="5.85116">
        <ele>119.59999847412</ele>
        <time>2020-09-01T08:29:06.000Z</time>
      </trkpt>
      <trkpt lat="43.07314" lon="5.85099">
        <ele>119</ele>
        <time>2020-09-01T08:29:10.000Z</time>
      </trkpt>
      <trkpt lat="43.07318" lon="5.85094">
        <ele>118.80000305176</ele>
        <time>2020-09-01T08:29:11.000Z</time>
      </trkpt>
      <trkpt lat="43.07326" lon="5.85085">
        <ele>118.59999847412</ele>
        <time>2020-09-01T08:29:13.000Z</time>
      </trkpt>
      <trkpt lat="43.07329" lon="5.85081">
        <ele>118.40000152588</ele>
        <time>2020-09-01T08:29:14.000Z</time>
      </trkpt>
      <trkpt lat="43.07336" lon="5.85073">
        <ele>118.59999847412</ele>
        <time>2020-09-01T08:29:16.000Z</time>
      </trkpt>
      <trkpt lat="43.0734" lon="5.85069">
        <ele>118.59999847412</ele>
        <time>2020-09-01T08:29:17.000Z</time>
      </trkpt>
      <trkpt lat="43.07343" lon="5.85065">
        <ele>118.59999847412</ele>
        <time>2020-09-01T08:29:18.000Z</time>
      </trkpt>
      <trkpt lat="43.07351" lon="5.85049">
        <ele>118.59999847412</ele>
        <time>2020-09-01T08:29:21.000Z</time>
      </trkpt>
      <trkpt lat="43.0735" lon="5.85031">
        <ele>118.80000305176</ele>
        <time>2020-09-01T08:29:24.000Z</time>
      </trkpt>
      <trkpt lat="43.07349" lon="5.85004">
        <ele>118.80000305176</ele>
        <time>2020-09-01T08:29:28.000Z</time>
      </trkpt>
      <trkpt lat="43.07349" lon="5.84989">
        <ele>118.80000305176</ele>
        <time>2020-09-01T08:29:30.000Z</time>
      </trkpt>
      <trkpt lat="43.07355" lon="5.84954">
        <ele>118.59999847412</ele>
        <time>2020-09-01T08:29:35.000Z</time>
      </trkpt>
      <trkpt lat="43.07353" lon="5.84921">
        <ele>118.80000305176</ele>
        <time>2020-09-01T08:29:40.000Z</time>
      </trkpt>
      <trkpt lat="43.07354" lon="5.84902">
        <ele>119.40000152588</ele>
        <time>2020-09-01T08:29:43.000Z</time>
      </trkpt>
      <trkpt lat="43.07353" lon="5.84897">
        <ele>119.59999847412</ele>
        <time>2020-09-01T08:29:44.000Z</time>
      </trkpt>
      <trkpt lat="43.07353" lon="5.84893">
        <ele>120</ele>
        <time>2020-09-01T08:29:45.000Z</time>
      </trkpt>
      <trkpt lat="43.07352" lon="5.84885">
        <ele>120.80000305176</ele>
        <time>2020-09-01T08:29:47.000Z</time>
      </trkpt>
      <trkpt lat="43.07348" lon="5.84871">
        <ele>122.40000152588</ele>
        <time>2020-09-01T08:29:50.000Z</time>
      </trkpt>
      <trkpt lat="43.07347" lon="5.84866">
        <ele>122.80000305176</ele>
        <time>2020-09-01T08:29:51.000Z</time>
      </trkpt>
      <trkpt lat="43.07348" lon="5.84847">
        <ele>123.19999694824</ele>
        <time>2020-09-01T08:29:54.000Z</time>
      </trkpt>
      <trkpt lat="43.0735" lon="5.8484">
        <ele>123.40000152588</ele>
        <time>2020-09-01T08:29:55.000Z</time>
      </trkpt>
      <trkpt lat="43.07352" lon="5.84834">
        <ele>123.40000152588</ele>
        <time>2020-09-01T08:29:56.000Z</time>
      </trkpt>
      <trkpt lat="43.07359" lon="5.84825">
        <ele>123.19999694824</ele>
        <time>2020-09-01T08:29:58.000Z</time>
      </trkpt>
      <trkpt lat="43.07367" lon="5.84814">
        <ele>123</ele>
        <time>2020-09-01T08:30:00.000Z</time>
      </trkpt>
      <trkpt lat="43.0738" lon="5.84799">
        <ele>122.40000152588</ele>
        <time>2020-09-01T08:30:03.000Z</time>
      </trkpt>
      <trkpt lat="43.07384" lon="5.84796">
        <ele>122.40000152588</ele>
        <time>2020-09-01T08:30:04.000Z</time>
      </trkpt>
      <trkpt lat="43.07389" lon="5.84794">
        <ele>122.40000152588</ele>
        <time>2020-09-01T08:30:05.000Z</time>
      </trkpt>
      <trkpt lat="43.07407" lon="5.84779">
        <ele>122.40000152588</ele>
        <time>2020-09-01T08:30:09.000Z</time>
      </trkpt>
      <trkpt lat="43.07418" lon="5.84767">
        <ele>123.59999847412</ele>
        <time>2020-09-01T08:30:12.000Z</time>
      </trkpt>
      <trkpt lat="43.07429" lon="5.84757">
        <ele>124.40000152588</ele>
        <time>2020-09-01T08:30:15.000Z</time>
      </trkpt>
      <trkpt lat="43.07432" lon="5.84755">
        <ele>124.80000305176</ele>
        <time>2020-09-01T08:30:16.000Z</time>
      </trkpt>
      <trkpt lat="43.07444" lon="5.84745">
        <ele>125.80000305176</ele>
        <time>2020-09-01T08:30:20.000Z</time>
      </trkpt>
      <trkpt lat="43.07447" lon="5.84741">
        <ele>126</ele>
        <time>2020-09-01T08:30:21.000Z</time>
      </trkpt>
      <trkpt lat="43.07461" lon="5.84733">
        <ele>126.80000305176</ele>
        <time>2020-09-01T08:30:25.000Z</time>
      </trkpt>
      <trkpt lat="43.07465" lon="5.8473">
        <ele>127.19999694824</ele>
        <time>2020-09-01T08:30:26.000Z</time>
      </trkpt>
      <trkpt lat="43.07479" lon="5.84713">
        <ele>127.59999847412</ele>
        <time>2020-09-01T08:30:31.000Z</time>
      </trkpt>
      <trkpt lat="43.07486" lon="5.84695">
        <ele>128.39999389648</ele>
        <time>2020-09-01T08:30:35.000Z</time>
      </trkpt>
      <trkpt lat="43.07487" lon="5.84691">
        <ele>128.60000610352</ele>
        <time>2020-09-01T08:30:36.000Z</time>
      </trkpt>
      <trkpt lat="43.07493" lon="5.84684">
        <ele>128.80000305176</ele>
        <time>2020-09-01T08:30:38.000Z</time>
      </trkpt>
      <trkpt lat="43.07502" lon="5.84679">
        <ele>128.80000305176</ele>
        <time>2020-09-01T08:30:40.000Z</time>
      </trkpt>
      <trkpt lat="43.07505" lon="5.84675">
        <ele>128.60000610352</ele>
        <time>2020-09-01T08:30:41.000Z</time>
      </trkpt>
      <trkpt lat="43.07506" lon="5.84668">
        <ele>128.19999694824</ele>
        <time>2020-09-01T08:30:42.000Z</time>
      </trkpt>
      <trkpt lat="43.07511" lon="5.84654">
        <ele>126.80000305176</ele>
        <time>2020-09-01T08:30:44.000Z</time>
      </trkpt>
      <trkpt lat="43.07512" lon="5.84647">
        <ele>126.19999694824</ele>
        <time>2020-09-01T08:30:45.000Z</time>
      </trkpt>
      <trkpt lat="43.07512" lon="5.84643">
        <ele>125.59999847412</ele>
        <time>2020-09-01T08:30:46.000Z</time>
      </trkpt>
      <trkpt lat="43.07516" lon="5.84637">
        <ele>124.40000152588</ele>
        <time>2020-09-01T08:30:48.000Z</time>
      </trkpt>
      <trkpt lat="43.07516" lon="5.84631">
        <ele>124.59999847412</ele>
        <time>2020-09-01T08:30:49.000Z</time>
      </trkpt>
      <trkpt lat="43.07518" lon="5.84613">
        <ele>124.19999694824</ele>
        <time>2020-09-01T08:30:52.000Z</time>
      </trkpt>
      <trkpt lat="43.07521" lon="5.84603">
        <ele>123.80000305176</ele>
        <time>2020-09-01T08:30:55.000Z</time>
      </trkpt>
      <trkpt lat="43.07525" lon="5.84595">
        <ele>123.19999694824</ele>
        <time>2020-09-01T08:30:57.000Z</time>
      </trkpt>
      <trkpt lat="43.07525" lon="5.8459">
        <ele>122.59999847412</ele>
        <time>2020-09-01T08:30:58.000Z</time>
      </trkpt>
      <trkpt lat="43.07526" lon="5.84585">
        <ele>122.40000152588</ele>
        <time>2020-09-01T08:30:59.000Z</time>
      </trkpt>
      <trkpt lat="43.07527" lon="5.84579">
        <ele>121.19999694824</ele>
        <time>2020-09-01T08:31:00.000Z</time>
      </trkpt>
      <trkpt lat="43.07529" lon="5.84571">
        <ele>119.80000305176</ele>
        <time>2020-09-01T08:31:02.000Z</time>
      </trkpt>
      <trkpt lat="43.07528" lon="5.84567">
        <ele>119.40000152588</ele>
        <time>2020-09-01T08:31:03.000Z</time>
      </trkpt>
      <trkpt lat="43.07528" lon="5.84563">
        <ele>118.80000305176</ele>
        <time>2020-09-01T08:31:04.000Z</time>
      </trkpt>
      <trkpt lat="43.07531" lon="5.84548">
        <ele>118</ele>
        <time>2020-09-01T08:31:07.000Z</time>
      </trkpt>
      <trkpt lat="43.0753" lon="5.84542">
        <ele>117.59999847412</ele>
        <time>2020-09-01T08:31:08.000Z</time>
      </trkpt>
      <trkpt lat="43.07528" lon="5.84533">
        <ele>116</ele>
        <time>2020-09-01T08:31:10.000Z</time>
      </trkpt>
      <trkpt lat="43.07526" lon="5.84527">
        <ele>115.19999694824</ele>
        <time>2020-09-01T08:31:11.000Z</time>
      </trkpt>
      <trkpt lat="43.07524" lon="5.8452">
        <ele>114.40000152588</ele>
        <time>2020-09-01T08:31:12.000Z</time>
      </trkpt>
      <trkpt lat="43.07521" lon="5.84513">
        <ele>113.59999847412</ele>
        <time>2020-09-01T08:31:13.000Z</time>
      </trkpt>
      <trkpt lat="43.07518" lon="5.84508">
        <ele>112.40000152588</ele>
        <time>2020-09-01T08:31:14.000Z</time>
      </trkpt>
      <trkpt lat="43.07514" lon="5.84494">
        <ele>110.59999847412</ele>
        <time>2020-09-01T08:31:16.000Z</time>
      </trkpt>
      <trkpt lat="43.07511" lon="5.84487">
        <ele>109.80000305176</ele>
        <time>2020-09-01T08:31:17.000Z</time>
      </trkpt>
      <trkpt lat="43.07509" lon="5.84482">
        <ele>108.59999847412</ele>
        <time>2020-09-01T08:31:18.000Z</time>
      </trkpt>
      <trkpt lat="43.07503" lon="5.84474">
        <ele>107.59999847412</ele>
        <time>2020-09-01T08:31:20.000Z</time>
      </trkpt>
      <trkpt lat="43.07505" lon="5.84463">
        <ele>106.59999847412</ele>
        <time>2020-09-01T08:31:22.000Z</time>
      </trkpt>
      <trkpt lat="43.07508" lon="5.8446">
        <ele>106.59999847412</ele>
        <time>2020-09-01T08:31:23.000Z</time>
      </trkpt>
      <trkpt lat="43.07518" lon="5.84444">
        <ele>105.59999847412</ele>
        <time>2020-09-01T08:31:26.000Z</time>
      </trkpt>
      <trkpt lat="43.07523" lon="5.84442">
        <ele>105.40000152588</ele>
        <time>2020-09-01T08:31:27.000Z</time>
      </trkpt>
      <trkpt lat="43.07535" lon="5.84434">
        <ele>104.59999847412</ele>
        <time>2020-09-01T08:31:29.000Z</time>
      </trkpt>
      <trkpt lat="43.07542" lon="5.8443">
        <ele>104</ele>
        <time>2020-09-01T08:31:30.000Z</time>
      </trkpt>
      <trkpt lat="43.07554" lon="5.84421">
        <ele>102.19999694824</ele>
        <time>2020-09-01T08:31:32.000Z</time>
      </trkpt>
      <trkpt lat="43.07559" lon="5.84414">
        <ele>101.19999694824</ele>
        <time>2020-09-01T08:31:33.000Z</time>
      </trkpt>
      <trkpt lat="43.07563" lon="5.84408">
        <ele>100</ele>
        <time>2020-09-01T08:31:34.000Z</time>
      </trkpt>
      <trkpt lat="43.07568" lon="5.844">
        <ele>99.199996948242</ele>
        <time>2020-09-01T08:31:35.000Z</time>
      </trkpt>
      <trkpt lat="43.07572" lon="5.84391">
        <ele>98.400001525879</ele>
        <time>2020-09-01T08:31:36.000Z</time>
      </trkpt>
      <trkpt lat="43.07576" lon="5.84383">
        <ele>97.599998474121</ele>
        <time>2020-09-01T08:31:37.000Z</time>
      </trkpt>
      <trkpt lat="43.07581" lon="5.84375">
        <ele>97</ele>
        <time>2020-09-01T08:31:38.000Z</time>
      </trkpt>
      <trkpt lat="43.07586" lon="5.84369">
        <ele>96.199996948242</ele>
        <time>2020-09-01T08:31:39.000Z</time>
      </trkpt>
      <trkpt lat="43.07591" lon="5.84361">
        <ele>95.400001525879</ele>
        <time>2020-09-01T08:31:40.000Z</time>
      </trkpt>
      <trkpt lat="43.07595" lon="5.84352">
        <ele>94.400001525879</ele>
        <time>2020-09-01T08:31:41.000Z</time>
      </trkpt>
      <trkpt lat="43.07603" lon="5.84334">
        <ele>92.599998474121</ele>
        <time>2020-09-01T08:31:43.000Z</time>
      </trkpt>
      <trkpt lat="43.07612" lon="5.84318">
        <ele>91.800003051758</ele>
        <time>2020-09-01T08:31:45.000Z</time>
      </trkpt>
      <trkpt lat="43.07614" lon="5.84309">
        <ele>91.400001525879</ele>
        <time>2020-09-01T08:31:46.000Z</time>
      </trkpt>
      <trkpt lat="43.07617" lon="5.84299">
        <ele>90.800003051758</ele>
        <time>2020-09-01T08:31:47.000Z</time>
      </trkpt>
      <trkpt lat="43.07619" lon="5.84291">
        <ele>90</ele>
        <time>2020-09-01T08:31:48.000Z</time>
      </trkpt>
      <trkpt lat="43.07622" lon="5.84285">
        <ele>89.199996948242</ele>
        <time>2020-09-01T08:31:49.000Z</time>
      </trkpt>
      <trkpt lat="43.07626" lon="5.84279">
        <ele>88.800003051758</ele>
        <time>2020-09-01T08:31:50.000Z</time>
      </trkpt>
      <trkpt lat="43.0763" lon="5.84273">
        <ele>88.400001525879</ele>
        <time>2020-09-01T08:31:51.000Z</time>
      </trkpt>
      <trkpt lat="43.0764" lon="5.84257">
        <ele>88.599998474121</ele>
        <time>2020-09-01T08:31:55.000Z</time>
      </trkpt>
      <trkpt lat="43.07655" lon="5.84242">
        <ele>89.400001525879</ele>
        <time>2020-09-01T08:31:59.000Z</time>
      </trkpt>
      <trkpt lat="43.07667" lon="5.84239">
        <ele>89.599998474121</ele>
        <time>2020-09-01T08:32:01.000Z</time>
      </trkpt>
      <trkpt lat="43.07673" lon="5.84236">
        <ele>89.599998474121</ele>
        <time>2020-09-01T08:32:02.000Z</time>
      </trkpt>
      <trkpt lat="43.07678" lon="5.84232">
        <ele>89.599998474121</ele>
        <time>2020-09-01T08:32:03.000Z</time>
      </trkpt>
      <trkpt lat="43.07686" lon="5.84222">
        <ele>88.599998474121</ele>
        <time>2020-09-01T08:32:05.000Z</time>
      </trkpt>
      <trkpt lat="43.07688" lon="5.84214">
        <ele>87.400001525879</ele>
        <time>2020-09-01T08:32:06.000Z</time>
      </trkpt>
      <trkpt lat="43.07691" lon="5.84199">
        <ele>85.800003051758</ele>
        <time>2020-09-01T08:32:08.000Z</time>
      </trkpt>
      <trkpt lat="43.07694" lon="5.84187">
        <ele>84.400001525879</ele>
        <time>2020-09-01T08:32:10.000Z</time>
      </trkpt>
      <trkpt lat="43.07695" lon="5.84167">
        <ele>84.400001525879</ele>
        <time>2020-09-01T08:32:14.000Z</time>
      </trkpt>
      <trkpt lat="43.07695" lon="5.84149">
        <ele>85.599998474121</ele>
        <time>2020-09-01T08:32:17.000Z</time>
      </trkpt>
      <trkpt lat="43.07695" lon="5.84141">
        <ele>85.800003051758</ele>
        <time>2020-09-01T08:32:18.000Z</time>
      </trkpt>
      <trkpt lat="43.07696" lon="5.84128">
        <ele>86.199996948242</ele>
        <time>2020-09-01T08:32:20.000Z</time>
      </trkpt>
      <trkpt lat="43.07697" lon="5.84121">
        <ele>86.400001525879</ele>
        <time>2020-09-01T08:32:21.000Z</time>
      </trkpt>
      <trkpt lat="43.077" lon="5.84117">
        <ele>86.599998474121</ele>
        <time>2020-09-01T08:32:22.000Z</time>
      </trkpt>
      <trkpt lat="43.07704" lon="5.84111">
        <ele>86.599998474121</ele>
        <time>2020-09-01T08:32:23.000Z</time>
      </trkpt>
      <trkpt lat="43.07706" lon="5.84106">
        <ele>86.599998474121</ele>
        <time>2020-09-01T08:32:24.000Z</time>
      </trkpt>
      <trkpt lat="43.07708" lon="5.84092">
        <ele>85.800003051758</ele>
        <time>2020-09-01T08:32:26.000Z</time>
      </trkpt>
      <trkpt lat="43.07709" lon="5.84085">
        <ele>85.400001525879</ele>
        <time>2020-09-01T08:32:27.000Z</time>
      </trkpt>
      <trkpt lat="43.0771" lon="5.8408">
        <ele>85.199996948242</ele>
        <time>2020-09-01T08:32:28.000Z</time>
      </trkpt>
      <trkpt lat="43.07715" lon="5.8407">
        <ele>85</ele>
        <time>2020-09-01T08:32:30.000Z</time>
      </trkpt>
      <trkpt lat="43.07728" lon="5.84058">
        <ele>84.800003051758</ele>
        <time>2020-09-01T08:32:33.000Z</time>
      </trkpt>
      <trkpt lat="43.07734" lon="5.84045">
        <ele>84.400001525879</ele>
        <time>2020-09-01T08:32:35.000Z</time>
      </trkpt>
      <trkpt lat="43.07738" lon="5.84034">
        <ele>83.800003051758</ele>
        <time>2020-09-01T08:32:37.000Z</time>
      </trkpt>
      <trkpt lat="43.07741" lon="5.84022">
        <ele>83.400001525879</ele>
        <time>2020-09-01T08:32:39.000Z</time>
      </trkpt>
      <trkpt lat="43.07745" lon="5.84011">
        <ele>83.599998474121</ele>
        <time>2020-09-01T08:32:41.000Z</time>
      </trkpt>
      <trkpt lat="43.07752" lon="5.83997">
        <ele>84.199996948242</ele>
        <time>2020-09-01T08:32:44.000Z</time>
      </trkpt>
      <trkpt lat="43.07759" lon="5.8398">
        <ele>84</ele>
        <time>2020-09-01T08:32:47.000Z</time>
      </trkpt>
      <trkpt lat="43.07767" lon="5.83953">
        <ele>83.800003051758</ele>
        <time>2020-09-01T08:32:51.000Z</time>
      </trkpt>
      <trkpt lat="43.07776" lon="5.83937">
        <ele>83</ele>
        <time>2020-09-01T08:32:54.000Z</time>
      </trkpt>
      <trkpt lat="43.07779" lon="5.83932">
        <ele>82.800003051758</ele>
        <time>2020-09-01T08:32:55.000Z</time>
      </trkpt>
      <trkpt lat="43.07785" lon="5.83916">
        <ele>83.599998474121</ele>
        <time>2020-09-01T08:32:59.000Z</time>
      </trkpt>
      <trkpt lat="43.0779" lon="5.83906">
        <ele>84.599998474121</ele>
        <time>2020-09-01T08:33:01.000Z</time>
      </trkpt>
      <trkpt lat="43.07791" lon="5.83896">
        <ele>85.599998474121</ele>
        <time>2020-09-01T08:33:03.000Z</time>
      </trkpt>
      <trkpt lat="43.07792" lon="5.83891">
        <ele>85.800003051758</ele>
        <time>2020-09-01T08:33:04.000Z</time>
      </trkpt>
      <trkpt lat="43.07795" lon="5.83879">
        <ele>87</ele>
        <time>2020-09-01T08:33:06.000Z</time>
      </trkpt>
      <trkpt lat="43.078" lon="5.83872">
        <ele>88</ele>
        <time>2020-09-01T08:33:08.000Z</time>
      </trkpt>
      <trkpt lat="43.07807" lon="5.83857">
        <ele>88.800003051758</ele>
        <time>2020-09-01T08:33:12.000Z</time>
      </trkpt>
      <trkpt lat="43.07809" lon="5.83846">
        <ele>89.199996948242</ele>
        <time>2020-09-01T08:33:15.000Z</time>
      </trkpt>
      <trkpt lat="43.07815" lon="5.83834">
        <ele>90.800003051758</ele>
        <time>2020-09-01T08:33:18.000Z</time>
      </trkpt>
      <trkpt lat="43.07819" lon="5.83819">
        <ele>91.800003051758</ele>
        <time>2020-09-01T08:33:21.000Z</time>
      </trkpt>
      <trkpt lat="43.0782" lon="5.83814">
        <ele>92</ele>
        <time>2020-09-01T08:33:22.000Z</time>
      </trkpt>
      <trkpt lat="43.07822" lon="5.83809">
        <ele>92.400001525879</ele>
        <time>2020-09-01T08:33:23.000Z</time>
      </trkpt>
      <trkpt lat="43.07823" lon="5.83805">
        <ele>93.199996948242</ele>
        <time>2020-09-01T08:33:24.000Z</time>
      </trkpt>
      <trkpt lat="43.07827" lon="5.83795">
        <ele>94.400001525879</ele>
        <time>2020-09-01T08:33:26.000Z</time>
      </trkpt>
      <trkpt lat="43.07828" lon="5.83789">
        <ele>94.800003051758</ele>
        <time>2020-09-01T08:33:27.000Z</time>
      </trkpt>
      <trkpt lat="43.07828" lon="5.83777">
        <ele>95</ele>
        <time>2020-09-01T08:33:29.000Z</time>
      </trkpt>
      <trkpt lat="43.07823" lon="5.83761">
        <ele>95</ele>
        <time>2020-09-01T08:33:32.000Z</time>
      </trkpt>
      <trkpt lat="43.07818" lon="5.8375">
        <ele>95</ele>
        <time>2020-09-01T08:33:34.000Z</time>
      </trkpt>
      <trkpt lat="43.07812" lon="5.83742">
        <ele>94.800003051758</ele>
        <time>2020-09-01T08:33:36.000Z</time>
      </trkpt>
      <trkpt lat="43.07811" lon="5.83736">
        <ele>94.800003051758</ele>
        <time>2020-09-01T08:33:37.000Z</time>
      </trkpt>
      <trkpt lat="43.07807" lon="5.83724">
        <ele>94.599998474121</ele>
        <time>2020-09-01T08:33:39.000Z</time>
      </trkpt>
      <trkpt lat="43.07804" lon="5.8371">
        <ele>94</ele>
        <time>2020-09-01T08:33:41.000Z</time>
      </trkpt>
      <trkpt lat="43.07801" lon="5.83705">
        <ele>93.400001525879</ele>
        <time>2020-09-01T08:33:42.000Z</time>
      </trkpt>
      <trkpt lat="43.07798" lon="5.83702">
        <ele>93</ele>
        <time>2020-09-01T08:33:43.000Z</time>
      </trkpt>
      <trkpt lat="43.07785" lon="5.83686">
        <ele>91.599998474121</ele>
        <time>2020-09-01T08:33:47.000Z</time>
      </trkpt>
      <trkpt lat="43.07779" lon="5.83682">
        <ele>91</ele>
        <time>2020-09-01T08:33:48.000Z</time>
      </trkpt>
      <trkpt lat="43.07774" lon="5.83678">
        <ele>90.400001525879</ele>
        <time>2020-09-01T08:33:49.000Z</time>
      </trkpt>
      <trkpt lat="43.07761" lon="5.83669">
        <ele>88</ele>
        <time>2020-09-01T08:33:51.000Z</time>
      </trkpt>
      <trkpt lat="43.07756" lon="5.83663">
        <ele>86.599998474121</ele>
        <time>2020-09-01T08:33:52.000Z</time>
      </trkpt>
      <trkpt lat="43.07751" lon="5.83656">
        <ele>85</ele>
        <time>2020-09-01T08:33:53.000Z</time>
      </trkpt>
      <trkpt lat="43.07746" lon="5.83651">
        <ele>84</ele>
        <time>2020-09-01T08:33:54.000Z</time>
      </trkpt>
      <trkpt lat="43.07739" lon="5.83646">
        <ele>82.800003051758</ele>
        <time>2020-09-01T08:33:55.000Z</time>
      </trkpt>
      <trkpt lat="43.0773" lon="5.83634">
        <ele>81</ele>
        <time>2020-09-01T08:33:57.000Z</time>
      </trkpt>
      <trkpt lat="43.07722" lon="5.83622">
        <ele>80</ele>
        <time>2020-09-01T08:33:59.000Z</time>
      </trkpt>
      <trkpt lat="43.07713" lon="5.83608">
        <ele>79.199996948242</ele>
        <time>2020-09-01T08:34:01.000Z</time>
      </trkpt>
      <trkpt lat="43.07709" lon="5.83602">
        <ele>78.599998474121</ele>
        <time>2020-09-01T08:34:02.000Z</time>
      </trkpt>
      <trkpt lat="43.07707" lon="5.83596">
        <ele>78</ele>
        <time>2020-09-01T08:34:03.000Z</time>
      </trkpt>
      <trkpt lat="43.07705" lon="5.83592">
        <ele>77.599998474121</ele>
        <time>2020-09-01T08:34:04.000Z</time>
      </trkpt>
      <trkpt lat="43.07701" lon="5.83587">
        <ele>77</ele>
        <time>2020-09-01T08:34:05.000Z</time>
      </trkpt>
      <trkpt lat="43.07698" lon="5.83582">
        <ele>76.199996948242</ele>
        <time>2020-09-01T08:34:06.000Z</time>
      </trkpt>
      <trkpt lat="43.07695" lon="5.83577">
        <ele>76</ele>
        <time>2020-09-01T08:34:07.000Z</time>
      </trkpt>
      <trkpt lat="43.07692" lon="5.83566">
        <ele>75.400001525879</ele>
        <time>2020-09-01T08:34:09.000Z</time>
      </trkpt>
      <trkpt lat="43.07692" lon="5.83562">
        <ele>75.199996948242</ele>
        <time>2020-09-01T08:34:10.000Z</time>
      </trkpt>
      <trkpt lat="43.07692" lon="5.83558">
        <ele>74.800003051758</ele>
        <time>2020-09-01T08:34:11.000Z</time>
      </trkpt>
      <trkpt lat="43.0769" lon="5.83553">
        <ele>74.400001525879</ele>
        <time>2020-09-01T08:34:12.000Z</time>
      </trkpt>
      <trkpt lat="43.07688" lon="5.83545">
        <ele>73.800003051758</ele>
        <time>2020-09-01T08:34:13.000Z</time>
      </trkpt>
      <trkpt lat="43.07683" lon="5.83529">
        <ele>72.199996948242</ele>
        <time>2020-09-01T08:34:15.000Z</time>
      </trkpt>
      <trkpt lat="43.07683" lon="5.83523">
        <ele>71.199996948242</ele>
        <time>2020-09-01T08:34:16.000Z</time>
      </trkpt>
      <trkpt lat="43.07686" lon="5.83518">
        <ele>70.400001525879</ele>
        <time>2020-09-01T08:34:17.000Z</time>
      </trkpt>
      <trkpt lat="43.0769" lon="5.83516">
        <ele>69.800003051758</ele>
        <time>2020-09-01T08:34:18.000Z</time>
      </trkpt>
      <trkpt lat="43.07697" lon="5.83508">
        <ele>69.599998474121</ele>
        <time>2020-09-01T08:34:20.000Z</time>
      </trkpt>
      <trkpt lat="43.07701" lon="5.83488">
        <ele>69.400001525879</ele>
        <time>2020-09-01T08:34:24.000Z</time>
      </trkpt>
      <trkpt lat="43.07701" lon="5.83483">
        <ele>69.199996948242</ele>
        <time>2020-09-01T08:34:25.000Z</time>
      </trkpt>
      <trkpt lat="43.07698" lon="5.83467">
        <ele>69.800003051758</ele>
        <time>2020-09-01T08:34:29.000Z</time>
      </trkpt>
      <trkpt lat="43.07695" lon="5.83464">
        <ele>70</ele>
        <time>2020-09-01T08:34:30.000Z</time>
      </trkpt>
      <trkpt lat="43.07687" lon="5.83459">
        <ele>71.199996948242</ele>
        <time>2020-09-01T08:34:33.000Z</time>
      </trkpt>
      <trkpt lat="43.0768" lon="5.83456">
        <ele>71.800003051758</ele>
        <time>2020-09-01T08:34:35.000Z</time>
      </trkpt>
      <trkpt lat="43.07677" lon="5.83452">
        <ele>72.400001525879</ele>
        <time>2020-09-01T08:34:36.000Z</time>
      </trkpt>
      <trkpt lat="43.07673" lon="5.83445">
        <ele>73.400001525879</ele>
        <time>2020-09-01T08:34:38.000Z</time>
      </trkpt>
      <trkpt lat="43.07671" lon="5.83442">
        <ele>73.800003051758</ele>
        <time>2020-09-01T08:34:39.000Z</time>
      </trkpt>
      <trkpt lat="43.07668" lon="5.83439">
        <ele>74.199996948242</ele>
        <time>2020-09-01T08:34:40.000Z</time>
      </trkpt>
      <trkpt lat="43.07666" lon="5.83437">
        <ele>74.599998474121</ele>
        <time>2020-09-01T08:34:41.000Z</time>
      </trkpt>
      <trkpt lat="43.07658" lon="5.83429">
        <ele>75.800003051758</ele>
        <time>2020-09-01T08:34:44.000Z</time>
      </trkpt>
      <trkpt lat="43.07656" lon="5.83426">
        <ele>76.199996948242</ele>
        <time>2020-09-01T08:34:45.000Z</time>
      </trkpt>
      <trkpt lat="43.07651" lon="5.8342">
        <ele>76.800003051758</ele>
        <time>2020-09-01T08:34:47.000Z</time>
      </trkpt>
      <trkpt lat="43.07638" lon="5.83409">
        <ele>77.800003051758</ele>
        <time>2020-09-01T08:34:51.000Z</time>
      </trkpt>
      <trkpt lat="43.07635" lon="5.83407">
        <ele>77.800003051758</ele>
        <time>2020-09-01T08:34:52.000Z</time>
      </trkpt>
      <trkpt lat="43.07625" lon="5.83405">
        <ele>79.400001525879</ele>
        <time>2020-09-01T08:34:55.000Z</time>
      </trkpt>
      <trkpt lat="43.07622" lon="5.83403">
        <ele>80.199996948242</ele>
        <time>2020-09-01T08:34:56.000Z</time>
      </trkpt>
      <trkpt lat="43.0762" lon="5.83401">
        <ele>81</ele>
        <time>2020-09-01T08:34:57.000Z</time>
      </trkpt>
      <trkpt lat="43.07611" lon="5.83396">
        <ele>82.199996948242</ele>
        <time>2020-09-01T08:35:00.000Z</time>
      </trkpt>
      <trkpt lat="43.07602" lon="5.8339">
        <ele>83.599998474121</ele>
        <time>2020-09-01T08:35:03.000Z</time>
      </trkpt>
      <trkpt lat="43.07599" lon="5.83389">
        <ele>84.199996948242</ele>
        <time>2020-09-01T08:35:04.000Z</time>
      </trkpt>
      <trkpt lat="43.07596" lon="5.83387">
        <ele>85</ele>
        <time>2020-09-01T08:35:05.000Z</time>
      </trkpt>
      <trkpt lat="43.0759" lon="5.83383">
        <ele>86.199996948242</ele>
        <time>2020-09-01T08:35:07.000Z</time>
      </trkpt>
      <trkpt lat="43.07584" lon="5.83379">
        <ele>86.800003051758</ele>
        <time>2020-09-01T08:35:09.000Z</time>
      </trkpt>
      <trkpt lat="43.07565" lon="5.83367">
        <ele>87</ele>
        <time>2020-09-01T08:35:14.000Z</time>
      </trkpt>
      <trkpt lat="43.07558" lon="5.83363">
        <ele>87.400001525879</ele>
        <time>2020-09-01T08:35:16.000Z</time>
      </trkpt>
      <trkpt lat="43.07544" lon="5.83356">
        <ele>88.400001525879</ele>
        <time>2020-09-01T08:35:20.000Z</time>
      </trkpt>
      <trkpt lat="43.07541" lon="5.83354">
        <ele>88.599998474121</ele>
        <time>2020-09-01T08:35:21.000Z</time>
      </trkpt>
      <trkpt lat="43.07528" lon="5.83344">
        <ele>89.800003051758</ele>
        <time>2020-09-01T08:35:25.000Z</time>
      </trkpt>
      <trkpt lat="43.07514" lon="5.83334">
        <ele>91</ele>
        <time>2020-09-01T08:35:29.000Z</time>
      </trkpt>
      <trkpt lat="43.07503" lon="5.83327">
        <ele>91.599998474121</ele>
        <time>2020-09-01T08:35:32.000Z</time>
      </trkpt>
      <trkpt lat="43.07497" lon="5.83324">
        <ele>92.199996948242</ele>
        <time>2020-09-01T08:35:34.000Z</time>
      </trkpt>
      <trkpt lat="43.07483" lon="5.83322">
        <ele>93.599998474121</ele>
        <time>2020-09-01T08:35:38.000Z</time>
      </trkpt>
      <trkpt lat="43.07477" lon="5.83322">
        <ele>94.599998474121</ele>
        <time>2020-09-01T08:35:40.000Z</time>
      </trkpt>
      <trkpt lat="43.07468" lon="5.83323">
        <ele>96</ele>
        <time>2020-09-01T08:35:43.000Z</time>
      </trkpt>
      <trkpt lat="43.07465" lon="5.83325">
        <ele>96.599998474121</ele>
        <time>2020-09-01T08:35:44.000Z</time>
      </trkpt>
      <trkpt lat="43.07459" lon="5.8333">
        <ele>97.400001525879</ele>
        <time>2020-09-01T08:35:46.000Z</time>
      </trkpt>
      <trkpt lat="43.07451" lon="5.83339">
        <ele>98.599998474121</ele>
        <time>2020-09-01T08:35:49.000Z</time>
      </trkpt>
      <trkpt lat="43.07448" lon="5.83343">
        <ele>99</ele>
        <time>2020-09-01T08:35:50.000Z</time>
      </trkpt>
      <trkpt lat="43.07437" lon="5.83354">
        <ele>99.599998474121</ele>
        <time>2020-09-01T08:35:54.000Z</time>
      </trkpt>
      <trkpt lat="43.07432" lon="5.83361">
        <ele>100.19999694824</ele>
        <time>2020-09-01T08:35:56.000Z</time>
      </trkpt>
      <trkpt lat="43.07427" lon="5.83368">
        <ele>101</ele>
        <time>2020-09-01T08:35:58.000Z</time>
      </trkpt>
      <trkpt lat="43.07421" lon="5.8338">
        <ele>102.40000152588</ele>
        <time>2020-09-01T08:36:01.000Z</time>
      </trkpt>
      <trkpt lat="43.07419" lon="5.83384">
        <ele>102.80000305176</ele>
        <time>2020-09-01T08:36:02.000Z</time>
      </trkpt>
      <trkpt lat="43.07416" lon="5.83391">
        <ele>103.80000305176</ele>
        <time>2020-09-01T08:36:04.000Z</time>
      </trkpt>
      <trkpt lat="43.07409" lon="5.83401">
        <ele>105</ele>
        <time>2020-09-01T08:36:07.000Z</time>
      </trkpt>
      <trkpt lat="43.07403" lon="5.83403">
        <ele>105.59999847412</ele>
        <time>2020-09-01T08:36:09.000Z</time>
      </trkpt>
      <trkpt lat="43.07393" lon="5.83403">
        <ele>106.40000152588</ele>
        <time>2020-09-01T08:36:12.000Z</time>
      </trkpt>
      <trkpt lat="43.07387" lon="5.83402">
        <ele>107.59999847412</ele>
        <time>2020-09-01T08:36:14.000Z</time>
      </trkpt>
      <trkpt lat="43.0738" lon="5.83401">
        <ele>108.59999847412</ele>
        <time>2020-09-01T08:36:16.000Z</time>
      </trkpt>
      <trkpt lat="43.07374" lon="5.834">
        <ele>109.59999847412</ele>
        <time>2020-09-01T08:36:18.000Z</time>
      </trkpt>
      <trkpt lat="43.07365" lon="5.83399">
        <ele>111</ele>
        <time>2020-09-01T08:36:21.000Z</time>
      </trkpt>
      <trkpt lat="43.07362" lon="5.834">
        <ele>111.59999847412</ele>
        <time>2020-09-01T08:36:22.000Z</time>
      </trkpt>
      <trkpt lat="43.07349" lon="5.83409">
        <ele>112</ele>
        <time>2020-09-01T08:36:26.000Z</time>
      </trkpt>
      <trkpt lat="43.07345" lon="5.83411">
        <ele>112</ele>
        <time>2020-09-01T08:36:27.000Z</time>
      </trkpt>
      <trkpt lat="43.07327" lon="5.83417">
        <ele>113.19999694824</ele>
        <time>2020-09-01T08:36:32.000Z</time>
      </trkpt>
      <trkpt lat="43.07314" lon="5.8342">
        <ele>114.59999847412</ele>
        <time>2020-09-01T08:36:35.000Z</time>
      </trkpt>
      <trkpt lat="43.07305" lon="5.83421">
        <ele>115.80000305176</ele>
        <time>2020-09-01T08:36:37.000Z</time>
      </trkpt>
      <trkpt lat="43.07301" lon="5.83422">
        <ele>116.40000152588</ele>
        <time>2020-09-01T08:36:38.000Z</time>
      </trkpt>
      <trkpt lat="43.07297" lon="5.83422">
        <ele>116.80000305176</ele>
        <time>2020-09-01T08:36:39.000Z</time>
      </trkpt>
      <trkpt lat="43.07289" lon="5.83423">
        <ele>118.40000152588</ele>
        <time>2020-09-01T08:36:41.000Z</time>
      </trkpt>
      <trkpt lat="43.07282" lon="5.83424">
        <ele>119.59999847412</ele>
        <time>2020-09-01T08:36:43.000Z</time>
      </trkpt>
      <trkpt lat="43.07278" lon="5.83424">
        <ele>120.19999694824</ele>
        <time>2020-09-01T08:36:45.000Z</time>
      </trkpt>
      <trkpt lat="43.07276" lon="5.83424">
        <ele>120.59999847412</ele>
        <time>2020-09-01T08:36:46.000Z</time>
      </trkpt>
      <trkpt lat="43.07271" lon="5.83424">
        <ele>121.59999847412</ele>
        <time>2020-09-01T08:36:49.000Z</time>
      </trkpt>
      <trkpt lat="43.07264" lon="5.83425">
        <ele>122.19999694824</ele>
        <time>2020-09-01T08:36:52.000Z</time>
      </trkpt>
      <trkpt lat="43.07248" lon="5.83423">
        <ele>122</ele>
        <time>2020-09-01T08:36:57.000Z</time>
      </trkpt>
      <trkpt lat="43.07235" lon="5.83417">
        <ele>121.40000152588</ele>
        <time>2020-09-01T08:37:00.000Z</time>
      </trkpt>
      <trkpt lat="43.07226" lon="5.83414">
        <ele>121</ele>
        <time>2020-09-01T08:37:02.000Z</time>
      </trkpt>
      <trkpt lat="43.07216" lon="5.83415">
        <ele>120.40000152588</ele>
        <time>2020-09-01T08:37:04.000Z</time>
      </trkpt>
      <trkpt lat="43.072" lon="5.83415">
        <ele>119.80000305176</ele>
        <time>2020-09-01T08:37:07.000Z</time>
      </trkpt>
      <trkpt lat="43.07192" lon="5.83416">
        <ele>120</ele>
        <time>2020-09-01T08:37:09.000Z</time>
      </trkpt>
      <trkpt lat="43.0718" lon="5.83415">
        <ele>120.59999847412</ele>
        <time>2020-09-01T08:37:12.000Z</time>
      </trkpt>
      <trkpt lat="43.07167" lon="5.83416">
        <ele>122</ele>
        <time>2020-09-01T08:37:16.000Z</time>
      </trkpt>
      <trkpt lat="43.07163" lon="5.83416">
        <ele>122.59999847412</ele>
        <time>2020-09-01T08:37:17.000Z</time>
      </trkpt>
      <trkpt lat="43.07159" lon="5.83416">
        <ele>123</ele>
        <time>2020-09-01T08:37:18.000Z</time>
      </trkpt>
      <trkpt lat="43.07149" lon="5.83415">
        <ele>124</ele>
        <time>2020-09-01T08:37:21.000Z</time>
      </trkpt>
      <trkpt lat="43.0714" lon="5.83413">
        <ele>125.59999847412</ele>
        <time>2020-09-01T08:37:24.000Z</time>
      </trkpt>
      <trkpt lat="43.07133" lon="5.83414">
        <ele>126.80000305176</ele>
        <time>2020-09-01T08:37:26.000Z</time>
      </trkpt>
      <trkpt lat="43.07126" lon="5.83414">
        <ele>127.59999847412</ele>
        <time>2020-09-01T08:37:28.000Z</time>
      </trkpt>
      <trkpt lat="43.07122" lon="5.83413">
        <ele>127.80000305176</ele>
        <time>2020-09-01T08:37:29.000Z</time>
      </trkpt>
      <trkpt lat="43.07107" lon="5.83413">
        <ele>128.80000305176</ele>
        <time>2020-09-01T08:37:33.000Z</time>
      </trkpt>
      <trkpt lat="43.07104" lon="5.83412">
        <ele>129</ele>
        <time>2020-09-01T08:37:34.000Z</time>
      </trkpt>
      <trkpt lat="43.07093" lon="5.83409">
        <ele>130</ele>
        <time>2020-09-01T08:37:37.000Z</time>
      </trkpt>
      <trkpt lat="43.07086" lon="5.83407">
        <ele>130.60000610352</ele>
        <time>2020-09-01T08:37:39.000Z</time>
      </trkpt>
      <trkpt lat="43.0708" lon="5.83405">
        <ele>131.19999694824</ele>
        <time>2020-09-01T08:37:41.000Z</time>
      </trkpt>
      <trkpt lat="43.07073" lon="5.83402">
        <ele>131.80000305176</ele>
        <time>2020-09-01T08:37:43.000Z</time>
      </trkpt>
      <trkpt lat="43.07065" lon="5.834">
        <ele>132</ele>
        <time>2020-09-01T08:37:45.000Z</time>
      </trkpt>
      <trkpt lat="43.07053" lon="5.8339">
        <ele>132.19999694824</ele>
        <time>2020-09-01T08:37:48.000Z</time>
      </trkpt>
      <trkpt lat="43.07046" lon="5.83379">
        <ele>132.39999389648</ele>
        <time>2020-09-01T08:37:50.000Z</time>
      </trkpt>
      <trkpt lat="43.07039" lon="5.83371">
        <ele>132.60000610352</ele>
        <time>2020-09-01T08:37:52.000Z</time>
      </trkpt>
      <trkpt lat="43.07024" lon="5.83363">
        <ele>133</ele>
        <time>2020-09-01T08:37:56.000Z</time>
      </trkpt>
      <trkpt lat="43.07015" lon="5.83362">
        <ele>133.39999389648</ele>
        <time>2020-09-01T08:37:58.000Z</time>
      </trkpt>
      <trkpt lat="43.07011" lon="5.83361">
        <ele>133.80000305176</ele>
        <time>2020-09-01T08:37:59.000Z</time>
      </trkpt>
      <trkpt lat="43.07002" lon="5.8336">
        <ele>134.19999694824</ele>
        <time>2020-09-01T08:38:01.000Z</time>
      </trkpt>
      <trkpt lat="43.06998" lon="5.8336">
        <ele>134.39999389648</ele>
        <time>2020-09-01T08:38:02.000Z</time>
      </trkpt>
      <trkpt lat="43.06994" lon="5.83359">
        <ele>134.60000610352</ele>
        <time>2020-09-01T08:38:03.000Z</time>
      </trkpt>
      <trkpt lat="43.06986" lon="5.83356">
        <ele>134.80000305176</ele>
        <time>2020-09-01T08:38:05.000Z</time>
      </trkpt>
      <trkpt lat="43.06979" lon="5.83351">
        <ele>135.19999694824</ele>
        <time>2020-09-01T08:38:07.000Z</time>
      </trkpt>
      <trkpt lat="43.06974" lon="5.83347">
        <ele>135.80000305176</ele>
        <time>2020-09-01T08:38:09.000Z</time>
      </trkpt>
      <trkpt lat="43.06968" lon="5.83348">
        <ele>136</ele>
        <time>2020-09-01T08:38:11.000Z</time>
      </trkpt>
      <trkpt lat="43.06958" lon="5.83362">
        <ele>136.19999694824</ele>
        <time>2020-09-01T08:38:15.000Z</time>
      </trkpt>
      <trkpt lat="43.06955" lon="5.83372">
        <ele>136.39999389648</ele>
        <time>2020-09-01T08:38:17.000Z</time>
      </trkpt>
      <trkpt lat="43.06951" lon="5.83382">
        <ele>136.80000305176</ele>
        <time>2020-09-01T08:38:19.000Z</time>
      </trkpt>
      <trkpt lat="43.06943" lon="5.83403">
        <ele>137.80000305176</ele>
        <time>2020-09-01T08:38:23.000Z</time>
      </trkpt>
      <trkpt lat="43.06937" lon="5.83417">
        <ele>138.60000610352</ele>
        <time>2020-09-01T08:38:26.000Z</time>
      </trkpt>
      <trkpt lat="43.06935" lon="5.83421">
        <ele>139</ele>
        <time>2020-09-01T08:38:27.000Z</time>
      </trkpt>
      <trkpt lat="43.06929" lon="5.83439">
        <ele>140.39999389648</ele>
        <time>2020-09-01T08:38:31.000Z</time>
      </trkpt>
      <trkpt lat="43.06924" lon="5.83453">
        <ele>141.39999389648</ele>
        <time>2020-09-01T08:38:34.000Z</time>
      </trkpt>
      <trkpt lat="43.06921" lon="5.83457">
        <ele>141.80000305176</ele>
        <time>2020-09-01T08:38:35.000Z</time>
      </trkpt>
      <trkpt lat="43.06913" lon="5.83466">
        <ele>142.60000610352</ele>
        <time>2020-09-01T08:38:38.000Z</time>
      </trkpt>
      <trkpt lat="43.06913" lon="5.83469">
        <ele>142.60000610352</ele>
        <time>2020-09-01T08:38:39.000Z</time>
      </trkpt>
      <trkpt lat="43.0691" lon="5.83475">
        <ele>142.80000305176</ele>
        <time>2020-09-01T08:38:42.000Z</time>
      </trkpt>
      <trkpt lat="43.06908" lon="5.83477">
        <ele>143</ele>
        <time>2020-09-01T08:38:43.000Z</time>
      </trkpt>
      <trkpt lat="43.06907" lon="5.83483">
        <ele>143.80000305176</ele>
        <time>2020-09-01T08:38:45.000Z</time>
      </trkpt>
      <trkpt lat="43.06906" lon="5.83487">
        <ele>144.39999389648</ele>
        <time>2020-09-01T08:38:47.000Z</time>
      </trkpt>
      <trkpt lat="43.06903" lon="5.8349">
        <ele>145</ele>
        <time>2020-09-01T08:38:49.000Z</time>
      </trkpt>
      <trkpt lat="43.06902" lon="5.83491">
        <ele>145.19999694824</ele>
        <time>2020-09-01T08:38:50.000Z</time>
      </trkpt>
      <trkpt lat="43.069" lon="5.83493">
        <ele>145.39999389648</ele>
        <time>2020-09-01T08:38:51.000Z</time>
      </trkpt>
      <trkpt lat="43.06889" lon="5.83499">
        <ele>145.19999694824</ele>
        <time>2020-09-01T08:38:55.000Z</time>
      </trkpt>
      <trkpt lat="43.06886" lon="5.83502">
        <ele>144.80000305176</ele>
        <time>2020-09-01T08:38:57.000Z</time>
      </trkpt>
      <trkpt lat="43.06883" lon="5.83505">
        <ele>145</ele>
        <time>2020-09-01T08:38:59.000Z</time>
      </trkpt>
      <trkpt lat="43.06877" lon="5.83514">
        <ele>146</ele>
        <time>2020-09-01T08:39:02.000Z</time>
      </trkpt>
      <trkpt lat="43.06874" lon="5.83516">
        <ele>146</ele>
        <time>2020-09-01T08:39:03.000Z</time>
      </trkpt>
      <trkpt lat="43.06862" lon="5.83513">
        <ele>146.80000305176</ele>
        <time>2020-09-01T08:39:06.000Z</time>
      </trkpt>
      <trkpt lat="43.06856" lon="5.83501">
        <ele>146.80000305176</ele>
        <time>2020-09-01T08:39:09.000Z</time>
      </trkpt>
      <trkpt lat="43.06847" lon="5.83485">
        <ele>146.60000610352</ele>
        <time>2020-09-01T08:39:13.000Z</time>
      </trkpt>
      <trkpt lat="43.06845" lon="5.83483">
        <ele>146.60000610352</ele>
        <time>2020-09-01T08:39:14.000Z</time>
      </trkpt>
      <trkpt lat="43.06838" lon="5.83478">
        <ele>146.19999694824</ele>
        <time>2020-09-01T08:39:16.000Z</time>
      </trkpt>
      <trkpt lat="43.0683" lon="5.83472">
        <ele>146.19999694824</ele>
        <time>2020-09-01T08:39:18.000Z</time>
      </trkpt>
      <trkpt lat="43.06822" lon="5.83465">
        <ele>146.60000610352</ele>
        <time>2020-09-01T08:39:20.000Z</time>
      </trkpt>
      <trkpt lat="43.06814" lon="5.83459">
        <ele>146.80000305176</ele>
        <time>2020-09-01T08:39:23.000Z</time>
      </trkpt>
      <trkpt lat="43.06814" lon="5.83459">
        <ele>147</ele>
        <time>2020-09-01T08:39:29.000Z</time>
      </trkpt>
      <trkpt lat="43.0681" lon="5.83463">
        <ele>147</ele>
        <time>2020-09-01T08:39:37.000Z</time>
      </trkpt>
      <trkpt lat="43.06808" lon="5.83467">
        <ele>146.80000305176</ele>
        <time>2020-09-01T08:39:38.000Z</time>
      </trkpt>
      <trkpt lat="43.06798" lon="5.83494">
        <ele>147</ele>
        <time>2020-09-01T08:39:44.000Z</time>
      </trkpt>
      <trkpt lat="43.06786" lon="5.83523">
        <ele>147</ele>
        <time>2020-09-01T08:39:50.000Z</time>
      </trkpt>
      <trkpt lat="43.0677" lon="5.83535">
        <ele>146.19999694824</ele>
        <time>2020-09-01T08:39:54.000Z</time>
      </trkpt>
      <trkpt lat="43.06765" lon="5.83537">
        <ele>146</ele>
        <time>2020-09-01T08:39:55.000Z</time>
      </trkpt>
      <trkpt lat="43.06757" lon="5.83548">
        <ele>146</ele>
        <time>2020-09-01T08:39:58.000Z</time>
      </trkpt>
      <trkpt lat="43.06752" lon="5.83572">
        <ele>146.39999389648</ele>
        <time>2020-09-01T08:40:02.000Z</time>
      </trkpt>
      <trkpt lat="43.06741" lon="5.83579">
        <ele>146.80000305176</ele>
        <time>2020-09-01T08:40:05.000Z</time>
      </trkpt>
      <trkpt lat="43.06738" lon="5.83575">
        <ele>147</ele>
        <time>2020-09-01T08:40:06.000Z</time>
      </trkpt>
      <trkpt lat="43.06729" lon="5.8357">
        <ele>147.39999389648</ele>
        <time>2020-09-01T08:40:08.000Z</time>
      </trkpt>
      <trkpt lat="43.06716" lon="5.8356">
        <ele>147.39999389648</ele>
        <time>2020-09-01T08:40:11.000Z</time>
      </trkpt>
      <trkpt lat="43.06709" lon="5.83557">
        <ele>147.19999694824</ele>
        <time>2020-09-01T08:40:13.000Z</time>
      </trkpt>
      <trkpt lat="43.06699" lon="5.83554">
        <ele>146.39999389648</ele>
        <time>2020-09-01T08:40:16.000Z</time>
      </trkpt>
      <trkpt lat="43.06697" lon="5.83556">
        <ele>146.60000610352</ele>
        <time>2020-09-01T08:40:19.000Z</time>
      </trkpt>
      <trkpt lat="43.06695" lon="5.83553">
        <ele>147.19999694824</ele>
        <time>2020-09-01T08:40:28.000Z</time>
      </trkpt>
      <trkpt lat="43.06687" lon="5.83537">
        <ele>146.80000305176</ele>
        <time>2020-09-01T08:40:32.000Z</time>
      </trkpt>
      <trkpt lat="43.06678" lon="5.83525">
        <ele>146</ele>
        <time>2020-09-01T08:40:36.000Z</time>
      </trkpt>
      <trkpt lat="43.06674" lon="5.83526">
        <ele>146</ele>
        <time>2020-09-01T08:40:38.000Z</time>
      </trkpt>
      <trkpt lat="43.06671" lon="5.83531">
        <ele>145.80000305176</ele>
        <time>2020-09-01T08:40:40.000Z</time>
      </trkpt>
      <trkpt lat="43.06665" lon="5.83551">
        <ele>146</ele>
        <time>2020-09-01T08:40:45.000Z</time>
      </trkpt>
      <trkpt lat="43.06657" lon="5.83568">
        <ele>146.60000610352</ele>
        <time>2020-09-01T08:40:49.000Z</time>
      </trkpt>
      <trkpt lat="43.06652" lon="5.8357">
        <ele>147</ele>
        <time>2020-09-01T08:40:50.000Z</time>
      </trkpt>
      <trkpt lat="43.06644" lon="5.83576">
        <ele>147</ele>
        <time>2020-09-01T08:40:52.000Z</time>
      </trkpt>
      <trkpt lat="43.0664" lon="5.8358">
        <ele>146.80000305176</ele>
        <time>2020-09-01T08:40:53.000Z</time>
      </trkpt>
      <trkpt lat="43.06634" lon="5.8359">
        <ele>146.19999694824</ele>
        <time>2020-09-01T08:40:56.000Z</time>
      </trkpt>
      <trkpt lat="43.06632" lon="5.83592">
        <ele>146.19999694824</ele>
        <time>2020-09-01T08:40:57.000Z</time>
      </trkpt>
      <trkpt lat="43.06624" lon="5.83608">
        <ele>146.60000610352</ele>
        <time>2020-09-01T08:41:01.000Z</time>
      </trkpt>
      <trkpt lat="43.06618" lon="5.83623">
        <ele>147</ele>
        <time>2020-09-01T08:41:04.000Z</time>
      </trkpt>
      <trkpt lat="43.06615" lon="5.83628">
        <ele>147</ele>
        <time>2020-09-01T08:41:05.000Z</time>
      </trkpt>
      <trkpt lat="43.06606" lon="5.83638">
        <ele>147.60000610352</ele>
        <time>2020-09-01T08:41:09.000Z</time>
      </trkpt>
      <trkpt lat="43.06601" lon="5.83644">
        <ele>148.19999694824</ele>
        <time>2020-09-01T08:41:11.000Z</time>
      </trkpt>
      <trkpt lat="43.06596" lon="5.83653">
        <ele>149</ele>
        <time>2020-09-01T08:41:14.000Z</time>
      </trkpt>
      <trkpt lat="43.06588" lon="5.83672">
        <ele>148.80000305176</ele>
        <time>2020-09-01T08:41:18.000Z</time>
      </trkpt>
      <trkpt lat="43.06584" lon="5.83677">
        <ele>149.39999389648</ele>
        <time>2020-09-01T08:41:22.000Z</time>
      </trkpt>
      <trkpt lat="43.06582" lon="5.83679">
        <ele>149.60000610352</ele>
        <time>2020-09-01T08:41:37.000Z</time>
      </trkpt>
      <trkpt lat="43.06581" lon="5.83681">
        <ele>149.39999389648</ele>
        <time>2020-09-01T08:41:43.000Z</time>
      </trkpt>
      <trkpt lat="43.0658" lon="5.83683">
        <ele>149.39999389648</ele>
        <time>2020-09-01T08:41:46.000Z</time>
      </trkpt>
      <trkpt lat="43.06579" lon="5.83691">
        <ele>149.39999389648</ele>
        <time>2020-09-01T08:41:52.000Z</time>
      </trkpt>
      <trkpt lat="43.06574" lon="5.83701">
        <ele>149.39999389648</ele>
        <time>2020-09-01T08:41:55.000Z</time>
      </trkpt>
      <trkpt lat="43.0657" lon="5.83704">
        <ele>149.60000610352</ele>
        <time>2020-09-01T08:41:56.000Z</time>
      </trkpt>
      <trkpt lat="43.06556" lon="5.83709">
        <ele>149</ele>
        <time>2020-09-01T08:42:00.000Z</time>
      </trkpt>
      <trkpt lat="43.0655" lon="5.83713">
        <ele>148.80000305176</ele>
        <time>2020-09-01T08:42:02.000Z</time>
      </trkpt>
      <trkpt lat="43.06546" lon="5.83712">
        <ele>149</ele>
        <time>2020-09-01T08:42:03.000Z</time>
      </trkpt>
      <trkpt lat="43.06544" lon="5.83708">
        <ele>149.19999694824</ele>
        <time>2020-09-01T08:42:04.000Z</time>
      </trkpt>
      <trkpt lat="43.06543" lon="5.83697">
        <ele>149.19999694824</ele>
        <time>2020-09-01T08:42:07.000Z</time>
      </trkpt>
      <trkpt lat="43.06542" lon="5.83694">
        <ele>149</ele>
        <time>2020-09-01T08:42:08.000Z</time>
      </trkpt>
      <trkpt lat="43.06544" lon="5.83683">
        <ele>150</ele>
        <time>2020-09-01T08:42:11.000Z</time>
      </trkpt>
      <trkpt lat="43.06544" lon="5.83679">
        <ele>150.39999389648</ele>
        <time>2020-09-01T08:42:12.000Z</time>
      </trkpt>
      <trkpt lat="43.06543" lon="5.83664">
        <ele>151.60000610352</ele>
        <time>2020-09-01T08:42:15.000Z</time>
      </trkpt>
      <trkpt lat="43.06543" lon="5.83645">
        <ele>151.80000305176</ele>
        <time>2020-09-01T08:42:19.000Z</time>
      </trkpt>
      <trkpt lat="43.06543" lon="5.83628">
        <ele>152.60000610352</ele>
        <time>2020-09-01T08:42:23.000Z</time>
      </trkpt>
      <trkpt lat="43.06539" lon="5.83614">
        <ele>153.19999694824</ele>
        <time>2020-09-01T08:42:27.000Z</time>
      </trkpt>
      <trkpt lat="43.06536" lon="5.83601">
        <ele>153.19999694824</ele>
        <time>2020-09-01T08:42:30.000Z</time>
      </trkpt>
      <trkpt lat="43.06535" lon="5.83596">
        <ele>153.39999389648</ele>
        <time>2020-09-01T08:42:31.000Z</time>
      </trkpt>
      <trkpt lat="43.06534" lon="5.83586">
        <ele>153.80000305176</ele>
        <time>2020-09-01T08:42:33.000Z</time>
      </trkpt>
      <trkpt lat="43.06532" lon="5.83584">
        <ele>154.19999694824</ele>
        <time>2020-09-01T08:42:34.000Z</time>
      </trkpt>
      <trkpt lat="43.06528" lon="5.8357">
        <ele>154.80000305176</ele>
        <time>2020-09-01T08:42:38.000Z</time>
      </trkpt>
      <trkpt lat="43.06527" lon="5.83566">
        <ele>155.19999694824</ele>
        <time>2020-09-01T08:42:39.000Z</time>
      </trkpt>
      <trkpt lat="43.06525" lon="5.83559">
        <ele>156</ele>
        <time>2020-09-01T08:42:41.000Z</time>
      </trkpt>
      <trkpt lat="43.06523" lon="5.83558">
        <ele>156.19999694824</ele>
        <time>2020-09-01T08:42:42.000Z</time>
      </trkpt>
      <trkpt lat="43.0652" lon="5.83564">
        <ele>156</ele>
        <time>2020-09-01T08:42:45.000Z</time>
      </trkpt>
      <trkpt lat="43.06514" lon="5.8357">
        <ele>156.39999389648</ele>
        <time>2020-09-01T08:42:48.000Z</time>
      </trkpt>
      <trkpt lat="43.06512" lon="5.83571">
        <ele>156.80000305176</ele>
        <time>2020-09-01T08:42:49.000Z</time>
      </trkpt>
      <trkpt lat="43.06503" lon="5.83575">
        <ele>157.60000610352</ele>
        <time>2020-09-01T08:42:52.000Z</time>
      </trkpt>
      <trkpt lat="43.06498" lon="5.83578">
        <ele>157.80000305176</ele>
        <time>2020-09-01T08:42:54.000Z</time>
      </trkpt>
      <trkpt lat="43.06496" lon="5.83582">
        <ele>157.80000305176</ele>
        <time>2020-09-01T08:42:55.000Z</time>
      </trkpt>
      <trkpt lat="43.06487" lon="5.83596">
        <ele>158.60000610352</ele>
        <time>2020-09-01T08:42:59.000Z</time>
      </trkpt>
      <trkpt lat="43.06482" lon="5.83604">
        <ele>159</ele>
        <time>2020-09-01T08:43:01.000Z</time>
      </trkpt>
      <trkpt lat="43.06477" lon="5.83609">
        <ele>159.39999389648</ele>
        <time>2020-09-01T08:43:03.000Z</time>
      </trkpt>
      <trkpt lat="43.06474" lon="5.83611">
        <ele>159.60000610352</ele>
        <time>2020-09-01T08:43:04.000Z</time>
      </trkpt>
      <trkpt lat="43.0647" lon="5.83614">
        <ele>159.80000305176</ele>
        <time>2020-09-01T08:43:05.000Z</time>
      </trkpt>
      <trkpt lat="43.06452" lon="5.83629">
        <ele>160.19999694824</ele>
        <time>2020-09-01T08:43:11.000Z</time>
      </trkpt>
      <trkpt lat="43.06446" lon="5.83629">
        <ele>160.80000305176</ele>
        <time>2020-09-01T08:43:13.000Z</time>
      </trkpt>
      <trkpt lat="43.06441" lon="5.83633">
        <ele>161.60000610352</ele>
        <time>2020-09-01T08:43:15.000Z</time>
      </trkpt>
      <trkpt lat="43.06441" lon="5.83636">
        <ele>162</ele>
        <time>2020-09-01T08:43:16.000Z</time>
      </trkpt>
      <trkpt lat="43.0644" lon="5.83644">
        <ele>162.39999389648</ele>
        <time>2020-09-01T08:43:18.000Z</time>
      </trkpt>
      <trkpt lat="43.0644" lon="5.83649">
        <ele>162.80000305176</ele>
        <time>2020-09-01T08:43:22.000Z</time>
      </trkpt>
      <trkpt lat="43.0644" lon="5.83649">
        <ele>162.39999389648</ele>
        <time>2020-09-01T08:43:29.000Z</time>
      </trkpt>
      <trkpt lat="43.0644" lon="5.8365">
        <ele>162.80000305176</ele>
        <time>2020-09-01T08:43:35.000Z</time>
      </trkpt>
      <trkpt lat="43.0644" lon="5.8365">
        <ele>163</ele>
        <time>2020-09-01T08:43:37.000Z</time>
      </trkpt>
      <trkpt lat="43.0644" lon="5.83651">
        <ele>163.39999389648</ele>
        <time>2020-09-01T08:43:40.000Z</time>
      </trkpt>
      <trkpt lat="43.0644" lon="5.83653">
        <ele>163.19999694824</ele>
        <time>2020-09-01T08:43:43.000Z</time>
      </trkpt>
      <trkpt lat="43.06438" lon="5.83659">
        <ele>163.19999694824</ele>
        <time>2020-09-01T08:43:45.000Z</time>
      </trkpt>
      <trkpt lat="43.06437" lon="5.83666">
        <ele>163.19999694824</ele>
        <time>2020-09-01T08:43:49.000Z</time>
      </trkpt>
      <trkpt lat="43.06437" lon="5.83669">
        <ele>163.19999694824</ele>
        <time>2020-09-01T08:43:50.000Z</time>
      </trkpt>
      <trkpt lat="43.06434" lon="5.83684">
        <ele>163</ele>
        <time>2020-09-01T08:43:54.000Z</time>
      </trkpt>
      <trkpt lat="43.06431" lon="5.83701">
        <ele>162.60000610352</ele>
        <time>2020-09-01T08:43:58.000Z</time>
      </trkpt>
      <trkpt lat="43.06426" lon="5.8371">
        <ele>162.80000305176</ele>
        <time>2020-09-01T08:44:01.000Z</time>
      </trkpt>
      <trkpt lat="43.06414" lon="5.83725">
        <ele>163.39999389648</ele>
        <time>2020-09-01T08:44:05.000Z</time>
      </trkpt>
      <trkpt lat="43.06403" lon="5.83723">
        <ele>163</ele>
        <time>2020-09-01T08:44:08.000Z</time>
      </trkpt>
      <trkpt lat="43.06396" lon="5.83718">
        <ele>163</ele>
        <time>2020-09-01T08:44:10.000Z</time>
      </trkpt>
      <trkpt lat="43.06388" lon="5.83714">
        <ele>163.19999694824</ele>
        <time>2020-09-01T08:44:13.000Z</time>
      </trkpt>
      <trkpt lat="43.06376" lon="5.83712">
        <ele>162.19999694824</ele>
        <time>2020-09-01T08:44:17.000Z</time>
      </trkpt>
      <trkpt lat="43.0637" lon="5.83709">
        <ele>162</ele>
        <time>2020-09-01T08:44:19.000Z</time>
      </trkpt>
      <trkpt lat="43.06358" lon="5.83707">
        <ele>162</ele>
        <time>2020-09-01T08:44:22.000Z</time>
      </trkpt>
      <trkpt lat="43.06356" lon="5.83708">
        <ele>161.80000305176</ele>
        <time>2020-09-01T08:44:23.000Z</time>
      </trkpt>
      <trkpt lat="43.06348" lon="5.83707">
        <ele>161.19999694824</ele>
        <time>2020-09-01T08:44:25.000Z</time>
      </trkpt>
      <trkpt lat="43.06343" lon="5.83708">
        <ele>160.60000610352</ele>
        <time>2020-09-01T08:44:27.000Z</time>
      </trkpt>
      <trkpt lat="43.06342" lon="5.8371">
        <ele>160.39999389648</ele>
        <time>2020-09-01T08:44:28.000Z</time>
      </trkpt>
      <trkpt lat="43.06341" lon="5.83714">
        <ele>160.39999389648</ele>
        <time>2020-09-01T08:44:29.000Z</time>
      </trkpt>
      <trkpt lat="43.0634" lon="5.83718">
        <ele>160.19999694824</ele>
        <time>2020-09-01T08:44:30.000Z</time>
      </trkpt>
      <trkpt lat="43.06342" lon="5.83727">
        <ele>159.80000305176</ele>
        <time>2020-09-01T08:44:32.000Z</time>
      </trkpt>
      <trkpt lat="43.06345" lon="5.83731">
        <ele>159.39999389648</ele>
        <time>2020-09-01T08:44:33.000Z</time>
      </trkpt>
      <trkpt lat="43.06346" lon="5.8374">
        <ele>158.39999389648</ele>
        <time>2020-09-01T08:44:35.000Z</time>
      </trkpt>
      <trkpt lat="43.06347" lon="5.83744">
        <ele>158</ele>
        <time>2020-09-01T08:44:36.000Z</time>
      </trkpt>
      <trkpt lat="43.0635" lon="5.83755">
        <ele>157.19999694824</ele>
        <time>2020-09-01T08:44:39.000Z</time>
      </trkpt>
      <trkpt lat="43.06351" lon="5.83759">
        <ele>156.60000610352</ele>
        <time>2020-09-01T08:44:40.000Z</time>
      </trkpt>
      <trkpt lat="43.06352" lon="5.83764">
        <ele>155.80000305176</ele>
        <time>2020-09-01T08:44:41.000Z</time>
      </trkpt>
      <trkpt lat="43.06352" lon="5.83772">
        <ele>154.39999389648</ele>
        <time>2020-09-01T08:44:44.000Z</time>
      </trkpt>
      <trkpt lat="43.06351" lon="5.83778">
        <ele>153.60000610352</ele>
        <time>2020-09-01T08:44:47.000Z</time>
      </trkpt>
      <trkpt lat="43.06353" lon="5.83781">
        <ele>153.19999694824</ele>
        <time>2020-09-01T08:44:48.000Z</time>
      </trkpt>
      <trkpt lat="43.06355" lon="5.83784">
        <ele>153</ele>
        <time>2020-09-01T08:44:49.000Z</time>
      </trkpt>
      <trkpt lat="43.06352" lon="5.83793">
        <ele>152.39999389648</ele>
        <time>2020-09-01T08:44:52.000Z</time>
      </trkpt>
      <trkpt lat="43.0635" lon="5.83794">
        <ele>151.19999694824</ele>
        <time>2020-09-01T08:44:53.000Z</time>
      </trkpt>
      <trkpt lat="43.06348" lon="5.83795">
        <ele>150.60000610352</ele>
        <time>2020-09-01T08:44:54.000Z</time>
      </trkpt>
      <trkpt lat="43.06345" lon="5.83795">
        <ele>149.60000610352</ele>
        <time>2020-09-01T08:44:55.000Z</time>
      </trkpt>
      <trkpt lat="43.06343" lon="5.83796">
        <ele>149</ele>
        <time>2020-09-01T08:44:56.000Z</time>
      </trkpt>
      <trkpt lat="43.0634" lon="5.83798">
        <ele>148.39999389648</ele>
        <time>2020-09-01T08:44:57.000Z</time>
      </trkpt>
      <trkpt lat="43.06332" lon="5.83801">
        <ele>146.19999694824</ele>
        <time>2020-09-01T08:44:59.000Z</time>
      </trkpt>
      <trkpt lat="43.06328" lon="5.83799">
        <ele>145.60000610352</ele>
        <time>2020-09-01T08:45:00.000Z</time>
      </trkpt>
      <trkpt lat="43.06325" lon="5.83798">
        <ele>145</ele>
        <time>2020-09-01T08:45:01.000Z</time>
      </trkpt>
      <trkpt lat="43.06324" lon="5.83797">
        <ele>144</ele>
        <time>2020-09-01T08:45:03.000Z</time>
      </trkpt>
      <trkpt lat="43.06323" lon="5.83797">
        <ele>143.80000305176</ele>
        <time>2020-09-01T08:45:04.000Z</time>
      </trkpt>
      <trkpt lat="43.06323" lon="5.83797">
        <ele>143.80000305176</ele>
        <time>2020-09-01T08:45:13.000Z</time>
      </trkpt>
      <trkpt lat="43.06322" lon="5.83797">
        <ele>144.80000305176</ele>
        <time>2020-09-01T08:45:25.000Z</time>
      </trkpt>
      <trkpt lat="43.06322" lon="5.83799">
        <ele>143.80000305176</ele>
        <time>2020-09-01T08:45:41.000Z</time>
      </trkpt>
      <trkpt lat="43.06322" lon="5.83798">
        <ele>142.80000305176</ele>
        <time>2020-09-01T08:45:48.000Z</time>
      </trkpt>
      <trkpt lat="43.06322" lon="5.83798">
        <ele>142.19999694824</ele>
        <time>2020-09-01T08:45:54.000Z</time>
      </trkpt>
      <trkpt lat="43.06322" lon="5.83799">
        <ele>142.19999694824</ele>
        <time>2020-09-01T08:46:06.000Z</time>
      </trkpt>
      <trkpt lat="43.06322" lon="5.83799">
        <ele>141.80000305176</ele>
        <time>2020-09-01T08:46:15.000Z</time>
      </trkpt>
      <trkpt lat="43.06322" lon="5.83799">
        <ele>141.80000305176</ele>
        <time>2020-09-01T08:46:18.000Z</time>
      </trkpt>
      <trkpt lat="43.06323" lon="5.83799">
        <ele>142</ele>
        <time>2020-09-01T08:46:27.000Z</time>
      </trkpt>
      <trkpt lat="43.06322" lon="5.83795">
        <ele>141.80000305176</ele>
        <time>2020-09-01T08:46:43.000Z</time>
      </trkpt>
      <trkpt lat="43.06323" lon="5.83796">
        <ele>141.80000305176</ele>
        <time>2020-09-01T08:47:03.000Z</time>
      </trkpt>
      <trkpt lat="43.06323" lon="5.83798">
        <ele>141.60000610352</ele>
        <time>2020-09-01T08:47:19.000Z</time>
      </trkpt>
      <trkpt lat="43.06324" lon="5.83799">
        <ele>141.60000610352</ele>
        <time>2020-09-01T08:47:40.000Z</time>
      </trkpt>
      <trkpt lat="43.06323" lon="5.83797">
        <ele>141.39999389648</ele>
        <time>2020-09-01T08:47:55.000Z</time>
      </trkpt>
      <trkpt lat="43.06322" lon="5.83796">
        <ele>140.80000305176</ele>
        <time>2020-09-01T08:48:17.000Z</time>
      </trkpt>
      <trkpt lat="43.06319" lon="5.83795">
        <ele>140.80000305176</ele>
        <time>2020-09-01T08:48:41.000Z</time>
      </trkpt>
      <trkpt lat="43.06319" lon="5.83795">
        <ele>140.80000305176</ele>
        <time>2020-09-01T08:49:07.000Z</time>
      </trkpt>
      <trkpt lat="43.06319" lon="5.83796">
        <ele>140.80000305176</ele>
        <time>2020-09-01T08:49:13.000Z</time>
      </trkpt>
      <trkpt lat="43.06319" lon="5.83795">
        <ele>140.80000305176</ele>
        <time>2020-09-01T08:49:32.000Z</time>
      </trkpt>
      <trkpt lat="43.06319" lon="5.83796">
        <ele>140.80000305176</ele>
        <time>2020-09-01T08:49:53.000Z</time>
      </trkpt>
      <trkpt lat="43.06319" lon="5.83798">
        <ele>141.19999694824</ele>
        <time>2020-09-01T08:50:09.000Z</time>
      </trkpt>
      <trkpt lat="43.0632" lon="5.838">
        <ele>140.19999694824</ele>
        <time>2020-09-01T08:50:25.000Z</time>
      </trkpt>
      <trkpt lat="43.0632" lon="5.838">
        <ele>139.60000610352</ele>
        <time>2020-09-01T08:50:32.000Z</time>
      </trkpt>
      <trkpt lat="43.0632" lon="5.83801">
        <ele>139.19999694824</ele>
        <time>2020-09-01T08:50:35.000Z</time>
      </trkpt>
      <trkpt lat="43.0632" lon="5.838">
        <ele>140.60000610352</ele>
        <time>2020-09-01T08:50:42.000Z</time>
      </trkpt>
      <trkpt lat="43.0632" lon="5.838">
        <ele>140.80000305176</ele>
        <time>2020-09-01T08:50:44.000Z</time>
      </trkpt>
      <trkpt lat="43.0632" lon="5.838">
        <ele>141</ele>
        <time>2020-09-01T08:50:49.000Z</time>
      </trkpt>
      <trkpt lat="43.0632" lon="5.838">
        <ele>141</ele>
        <time>2020-09-01T08:50:59.000Z</time>
      </trkpt>
      <trkpt lat="43.0632" lon="5.838">
        <ele>141.80000305176</ele>
        <time>2020-09-01T08:51:03.000Z</time>
      </trkpt>
      <trkpt lat="43.0632" lon="5.838">
        <ele>142</ele>
        <time>2020-09-01T08:51:10.000Z</time>
      </trkpt>
      <trkpt lat="43.06319" lon="5.83799">
        <ele>142.19999694824</ele>
        <time>2020-09-01T08:51:18.000Z</time>
      </trkpt>
      <trkpt lat="43.06317" lon="5.83796">
        <ele>142</ele>
        <time>2020-09-01T08:51:21.000Z</time>
      </trkpt>
      <trkpt lat="43.06315" lon="5.83792">
        <ele>141.80000305176</ele>
        <time>2020-09-01T08:51:23.000Z</time>
      </trkpt>
      <trkpt lat="43.06309" lon="5.83784">
        <ele>141.60000610352</ele>
        <time>2020-09-01T08:51:26.000Z</time>
      </trkpt>
      <trkpt lat="43.06305" lon="5.83777">
        <ele>141</ele>
        <time>2020-09-01T08:51:28.000Z</time>
      </trkpt>
      <trkpt lat="43.06298" lon="5.83765">
        <ele>140.39999389648</ele>
        <time>2020-09-01T08:51:31.000Z</time>
      </trkpt>
      <trkpt lat="43.06291" lon="5.83754">
        <ele>139.39999389648</ele>
        <time>2020-09-01T08:51:34.000Z</time>
      </trkpt>
      <trkpt lat="43.06288" lon="5.83749">
        <ele>138.39999389648</ele>
        <time>2020-09-01T08:51:36.000Z</time>
      </trkpt>
      <trkpt lat="43.06283" lon="5.83742">
        <ele>137.39999389648</ele>
        <time>2020-09-01T08:51:38.000Z</time>
      </trkpt>
      <trkpt lat="43.0628" lon="5.83739">
        <ele>137.19999694824</ele>
        <time>2020-09-01T08:51:39.000Z</time>
      </trkpt>
      <trkpt lat="43.06275" lon="5.83731">
        <ele>136.39999389648</ele>
        <time>2020-09-01T08:51:41.000Z</time>
      </trkpt>
      <trkpt lat="43.06272" lon="5.83726">
        <ele>136.19999694824</ele>
        <time>2020-09-01T08:51:42.000Z</time>
      </trkpt>
      <trkpt lat="43.0627" lon="5.83721">
        <ele>136</ele>
        <time>2020-09-01T08:51:43.000Z</time>
      </trkpt>
      <trkpt lat="43.06262" lon="5.83707">
        <ele>134.80000305176</ele>
        <time>2020-09-01T08:51:46.000Z</time>
      </trkpt>
      <trkpt lat="43.06256" lon="5.83688">
        <ele>133.60000610352</ele>
        <time>2020-09-01T08:51:50.000Z</time>
      </trkpt>
      <trkpt lat="43.0625" lon="5.83673">
        <ele>132.60000610352</ele>
        <time>2020-09-01T08:51:53.000Z</time>
      </trkpt>
      <trkpt lat="43.06248" lon="5.83668">
        <ele>132.39999389648</ele>
        <time>2020-09-01T08:51:54.000Z</time>
      </trkpt>
      <trkpt lat="43.06243" lon="5.83656">
        <ele>132.19999694824</ele>
        <time>2020-09-01T08:51:56.000Z</time>
      </trkpt>
      <trkpt lat="43.06237" lon="5.83638">
        <ele>130.80000305176</ele>
        <time>2020-09-01T08:51:59.000Z</time>
      </trkpt>
      <trkpt lat="43.06233" lon="5.83631">
        <ele>129.80000305176</ele>
        <time>2020-09-01T08:52:01.000Z</time>
      </trkpt>
      <trkpt lat="43.06231" lon="5.83626">
        <ele>129.60000610352</ele>
        <time>2020-09-01T08:52:02.000Z</time>
      </trkpt>
      <trkpt lat="43.06229" lon="5.83604">
        <ele>129</ele>
        <time>2020-09-01T08:52:06.000Z</time>
      </trkpt>
      <trkpt lat="43.06229" lon="5.83599">
        <ele>128.60000610352</ele>
        <time>2020-09-01T08:52:07.000Z</time>
      </trkpt>
      <trkpt lat="43.06228" lon="5.83593">
        <ele>128</ele>
        <time>2020-09-01T08:52:08.000Z</time>
      </trkpt>
      <trkpt lat="43.06228" lon="5.83583">
        <ele>127.19999694824</ele>
        <time>2020-09-01T08:52:10.000Z</time>
      </trkpt>
      <trkpt lat="43.06228" lon="5.83578">
        <ele>127</ele>
        <time>2020-09-01T08:52:11.000Z</time>
      </trkpt>
      <trkpt lat="43.06225" lon="5.8357">
        <ele>125.59999847412</ele>
        <time>2020-09-01T08:52:13.000Z</time>
      </trkpt>
      <trkpt lat="43.06222" lon="5.83566">
        <ele>124.59999847412</ele>
        <time>2020-09-01T08:52:14.000Z</time>
      </trkpt>
      <trkpt lat="43.06218" lon="5.83562">
        <ele>123.59999847412</ele>
        <time>2020-09-01T08:52:15.000Z</time>
      </trkpt>
      <trkpt lat="43.06216" lon="5.83557">
        <ele>122.40000152588</ele>
        <time>2020-09-01T08:52:16.000Z</time>
      </trkpt>
      <trkpt lat="43.06208" lon="5.83553">
        <ele>121</ele>
        <time>2020-09-01T08:52:18.000Z</time>
      </trkpt>
      <trkpt lat="43.06202" lon="5.83552">
        <ele>119.80000305176</ele>
        <time>2020-09-01T08:52:20.000Z</time>
      </trkpt>
      <trkpt lat="43.06194" lon="5.83547">
        <ele>119</ele>
        <time>2020-09-01T08:52:22.000Z</time>
      </trkpt>
      <trkpt lat="43.0619" lon="5.83545">
        <ele>118.59999847412</ele>
        <time>2020-09-01T08:52:23.000Z</time>
      </trkpt>
      <trkpt lat="43.06183" lon="5.83543">
        <ele>118.80000305176</ele>
        <time>2020-09-01T08:52:26.000Z</time>
      </trkpt>
      <trkpt lat="43.06179" lon="5.83545">
        <ele>120</ele>
        <time>2020-09-01T08:52:28.000Z</time>
      </trkpt>
      <trkpt lat="43.06172" lon="5.83548">
        <ele>120.80000305176</ele>
        <time>2020-09-01T08:52:30.000Z</time>
      </trkpt>
      <trkpt lat="43.06168" lon="5.83549">
        <ele>121.40000152588</ele>
        <time>2020-09-01T08:52:31.000Z</time>
      </trkpt>
      <trkpt lat="43.0616" lon="5.83551">
        <ele>122.40000152588</ele>
        <time>2020-09-01T08:52:33.000Z</time>
      </trkpt>
      <trkpt lat="43.0615" lon="5.83557">
        <ele>123.59999847412</ele>
        <time>2020-09-01T08:52:36.000Z</time>
      </trkpt>
      <trkpt lat="43.06149" lon="5.83561">
        <ele>123.80000305176</ele>
        <time>2020-09-01T08:52:37.000Z</time>
      </trkpt>
      <trkpt lat="43.0615" lon="5.83569">
        <ele>124.19999694824</ele>
        <time>2020-09-01T08:52:39.000Z</time>
      </trkpt>
      <trkpt lat="43.06153" lon="5.83582">
        <ele>125</ele>
        <time>2020-09-01T08:52:42.000Z</time>
      </trkpt>
      <trkpt lat="43.06154" lon="5.83591">
        <ele>125.59999847412</ele>
        <time>2020-09-01T08:52:44.000Z</time>
      </trkpt>
      <trkpt lat="43.06153" lon="5.83595">
        <ele>126</ele>
        <time>2020-09-01T08:52:45.000Z</time>
      </trkpt>
      <trkpt lat="43.06152" lon="5.83609">
        <ele>126.80000305176</ele>
        <time>2020-09-01T08:52:48.000Z</time>
      </trkpt>
      <trkpt lat="43.06151" lon="5.83613">
        <ele>127.19999694824</ele>
        <time>2020-09-01T08:52:49.000Z</time>
      </trkpt>
      <trkpt lat="43.0615" lon="5.83627">
        <ele>128.19999694824</ele>
        <time>2020-09-01T08:52:52.000Z</time>
      </trkpt>
      <trkpt lat="43.0615" lon="5.83631">
        <ele>128.39999389648</ele>
        <time>2020-09-01T08:52:53.000Z</time>
      </trkpt>
      <trkpt lat="43.06154" lon="5.83647">
        <ele>129.39999389648</ele>
        <time>2020-09-01T08:52:57.000Z</time>
      </trkpt>
      <trkpt lat="43.06153" lon="5.83651">
        <ele>129.60000610352</ele>
        <time>2020-09-01T08:52:58.000Z</time>
      </trkpt>
      <trkpt lat="43.06152" lon="5.8366">
        <ele>130.39999389648</ele>
        <time>2020-09-01T08:53:00.000Z</time>
      </trkpt>
      <trkpt lat="43.06151" lon="5.83663">
        <ele>130.39999389648</ele>
        <time>2020-09-01T08:53:01.000Z</time>
      </trkpt>
      <trkpt lat="43.06149" lon="5.83671">
        <ele>131</ele>
        <time>2020-09-01T08:53:03.000Z</time>
      </trkpt>
      <trkpt lat="43.06149" lon="5.83673">
        <ele>131.60000610352</ele>
        <time>2020-09-01T08:53:04.000Z</time>
      </trkpt>
      <trkpt lat="43.06149" lon="5.8368">
        <ele>132.60000610352</ele>
        <time>2020-09-01T08:53:07.000Z</time>
      </trkpt>
      <trkpt lat="43.06146" lon="5.8369">
        <ele>134</ele>
        <time>2020-09-01T08:53:10.000Z</time>
      </trkpt>
      <trkpt lat="43.06143" lon="5.83696">
        <ele>134.60000610352</ele>
        <time>2020-09-01T08:53:12.000Z</time>
      </trkpt>
      <trkpt lat="43.06139" lon="5.83701">
        <ele>135.19999694824</ele>
        <time>2020-09-01T08:53:14.000Z</time>
      </trkpt>
      <trkpt lat="43.06132" lon="5.83711">
        <ele>136.39999389648</ele>
        <time>2020-09-01T08:53:17.000Z</time>
      </trkpt>
      <trkpt lat="43.06119" lon="5.83727">
        <ele>137.19999694824</ele>
        <time>2020-09-01T08:53:22.000Z</time>
      </trkpt>
      <trkpt lat="43.06115" lon="5.83734">
        <ele>137.39999389648</ele>
        <time>2020-09-01T08:53:24.000Z</time>
      </trkpt>
      <trkpt lat="43.06108" lon="5.83742">
        <ele>138.19999694824</ele>
        <time>2020-09-01T08:53:27.000Z</time>
      </trkpt>
      <trkpt lat="43.06106" lon="5.83743">
        <ele>138.80000305176</ele>
        <time>2020-09-01T08:53:28.000Z</time>
      </trkpt>
      <trkpt lat="43.06102" lon="5.83752">
        <ele>139.80000305176</ele>
        <time>2020-09-01T08:53:30.000Z</time>
      </trkpt>
      <trkpt lat="43.06101" lon="5.83755">
        <ele>140.19999694824</ele>
        <time>2020-09-01T08:53:31.000Z</time>
      </trkpt>
      <trkpt lat="43.061" lon="5.83763">
        <ele>141</ele>
        <time>2020-09-01T08:53:33.000Z</time>
      </trkpt>
      <trkpt lat="43.06099" lon="5.83773">
        <ele>141.19999694824</ele>
        <time>2020-09-01T08:53:35.000Z</time>
      </trkpt>
      <trkpt lat="43.06099" lon="5.83792">
        <ele>142</ele>
        <time>2020-09-01T08:53:40.000Z</time>
      </trkpt>
      <trkpt lat="43.06096" lon="5.83815">
        <ele>143</ele>
        <time>2020-09-01T08:53:45.000Z</time>
      </trkpt>
      <trkpt lat="43.06096" lon="5.8382">
        <ele>143.19999694824</ele>
        <time>2020-09-01T08:53:46.000Z</time>
      </trkpt>
      <trkpt lat="43.06094" lon="5.83839">
        <ele>143.19999694824</ele>
        <time>2020-09-01T08:53:49.000Z</time>
      </trkpt>
      <trkpt lat="43.06094" lon="5.83847">
        <ele>142.80000305176</ele>
        <time>2020-09-01T08:53:50.000Z</time>
      </trkpt>
      <trkpt lat="43.06095" lon="5.83866">
        <ele>142.19999694824</ele>
        <time>2020-09-01T08:53:53.000Z</time>
      </trkpt>
      <trkpt lat="43.06097" lon="5.83882">
        <ele>141.39999389648</ele>
        <time>2020-09-01T08:53:55.000Z</time>
      </trkpt>
      <trkpt lat="43.06097" lon="5.83899">
        <ele>140.80000305176</ele>
        <time>2020-09-01T08:53:57.000Z</time>
      </trkpt>
      <trkpt lat="43.06097" lon="5.83923">
        <ele>139.60000610352</ele>
        <time>2020-09-01T08:54:00.000Z</time>
      </trkpt>
      <trkpt lat="43.06096" lon="5.83931">
        <ele>139.19999694824</ele>
        <time>2020-09-01T08:54:01.000Z</time>
      </trkpt>
      <trkpt lat="43.06096" lon="5.83939">
        <ele>138.60000610352</ele>
        <time>2020-09-01T08:54:02.000Z</time>
      </trkpt>
      <trkpt lat="43.06099" lon="5.83962">
        <ele>138.19999694824</ele>
        <time>2020-09-01T08:54:06.000Z</time>
      </trkpt>
      <trkpt lat="43.06098" lon="5.83969">
        <ele>138</ele>
        <time>2020-09-01T08:54:07.000Z</time>
      </trkpt>
      <trkpt lat="43.06098" lon="5.83989">
        <ele>137.39999389648</ele>
        <time>2020-09-01T08:54:10.000Z</time>
      </trkpt>
      <trkpt lat="43.06097" lon="5.84007">
        <ele>136.19999694824</ele>
        <time>2020-09-01T08:54:13.000Z</time>
      </trkpt>
      <trkpt lat="43.06095" lon="5.84008">
        <ele>136</ele>
        <time>2020-09-01T08:54:14.000Z</time>
      </trkpt>
      <trkpt lat="43.06087" lon="5.83999">
        <ele>136.39999389648</ele>
        <time>2020-09-01T08:54:17.000Z</time>
      </trkpt>
      <trkpt lat="43.06085" lon="5.83996">
        <ele>136.80000305176</ele>
        <time>2020-09-01T08:54:18.000Z</time>
      </trkpt>
      <trkpt lat="43.06081" lon="5.83987">
        <ele>137</ele>
        <time>2020-09-01T08:54:21.000Z</time>
      </trkpt>
      <trkpt lat="43.06081" lon="5.83986">
        <ele>136.80000305176</ele>
        <time>2020-09-01T08:54:22.000Z</time>
      </trkpt>
      <trkpt lat="43.06082" lon="5.83972">
        <ele>136.60000610352</ele>
        <time>2020-09-01T08:54:26.000Z</time>
      </trkpt>
      <trkpt lat="43.06082" lon="5.83967">
        <ele>136.39999389648</ele>
        <time>2020-09-01T08:54:28.000Z</time>
      </trkpt>
      <trkpt lat="43.06079" lon="5.83959">
        <ele>136</ele>
        <time>2020-09-01T08:54:30.000Z</time>
      </trkpt>
      <trkpt lat="43.06069" lon="5.83936">
        <ele>135</ele>
        <time>2020-09-01T08:54:35.000Z</time>
      </trkpt>
      <trkpt lat="43.06068" lon="5.8393">
        <ele>134.80000305176</ele>
        <time>2020-09-01T08:54:36.000Z</time>
      </trkpt>
      <trkpt lat="43.06064" lon="5.83922">
        <ele>134.60000610352</ele>
        <time>2020-09-01T08:54:39.000Z</time>
      </trkpt>
      <trkpt lat="43.06064" lon="5.83922">
        <ele>134.60000610352</ele>
        <time>2020-09-01T08:54:44.000Z</time>
      </trkpt>
      <trkpt lat="43.06064" lon="5.83922">
        <ele>134.60000610352</ele>
        <time>2020-09-01T08:54:51.000Z</time>
      </trkpt>
      <trkpt lat="43.06063" lon="5.83924">
        <ele>134.80000305176</ele>
        <time>2020-09-01T08:55:02.000Z</time>
      </trkpt>
      <trkpt lat="43.06063" lon="5.83925">
        <ele>135</ele>
        <time>2020-09-01T08:55:03.000Z</time>
      </trkpt>
      <trkpt lat="43.06061" lon="5.83921">
        <ele>134.80000305176</ele>
        <time>2020-09-01T08:55:05.000Z</time>
      </trkpt>
      <trkpt lat="43.06052" lon="5.83903">
        <ele>134.39999389648</ele>
        <time>2020-09-01T08:55:10.000Z</time>
      </trkpt>
      <trkpt lat="43.0605" lon="5.83901">
        <ele>134</ele>
        <time>2020-09-01T08:55:13.000Z</time>
      </trkpt>
      <trkpt lat="43.0605" lon="5.83898">
        <ele>133.19999694824</ele>
        <time>2020-09-01T08:55:24.000Z</time>
      </trkpt>
      <trkpt lat="43.06044" lon="5.83889">
        <ele>133</ele>
        <time>2020-09-01T08:55:28.000Z</time>
      </trkpt>
      <trkpt lat="43.06038" lon="5.83881">
        <ele>133</ele>
        <time>2020-09-01T08:55:31.000Z</time>
      </trkpt>
      <trkpt lat="43.06037" lon="5.83878">
        <ele>133</ele>
        <time>2020-09-01T08:55:32.000Z</time>
      </trkpt>
      <trkpt lat="43.06038" lon="5.83871">
        <ele>133</ele>
        <time>2020-09-01T08:55:34.000Z</time>
      </trkpt>
      <trkpt lat="43.0604" lon="5.83861">
        <ele>132.80000305176</ele>
        <time>2020-09-01T08:55:36.000Z</time>
      </trkpt>
      <trkpt lat="43.06033" lon="5.83843">
        <ele>133.19999694824</ele>
        <time>2020-09-01T08:55:41.000Z</time>
      </trkpt>
      <trkpt lat="43.0603" lon="5.83841">
        <ele>133.39999389648</ele>
        <time>2020-09-01T08:55:42.000Z</time>
      </trkpt>
      <trkpt lat="43.06023" lon="5.83836">
        <ele>134</ele>
        <time>2020-09-01T08:55:45.000Z</time>
      </trkpt>
      <trkpt lat="43.06021" lon="5.83834">
        <ele>134.19999694824</ele>
        <time>2020-09-01T08:55:47.000Z</time>
      </trkpt>
      <trkpt lat="43.0602" lon="5.83833">
        <ele>135.19999694824</ele>
        <time>2020-09-01T08:55:51.000Z</time>
      </trkpt>
      <trkpt lat="43.06019" lon="5.83832">
        <ele>136.19999694824</ele>
        <time>2020-09-01T08:55:55.000Z</time>
      </trkpt>
      <trkpt lat="43.06018" lon="5.83831">
        <ele>136</ele>
        <time>2020-09-01T08:55:59.000Z</time>
      </trkpt>
      <trkpt lat="43.06018" lon="5.83829">
        <ele>136.19999694824</ele>
        <time>2020-09-01T08:56:05.000Z</time>
      </trkpt>
      <trkpt lat="43.06014" lon="5.83825">
        <ele>136.19999694824</ele>
        <time>2020-09-01T08:56:09.000Z</time>
      </trkpt>
      <trkpt lat="43.06011" lon="5.83817">
        <ele>136.60000610352</ele>
        <time>2020-09-01T08:56:11.000Z</time>
      </trkpt>
      <trkpt lat="43.0601" lon="5.83807">
        <ele>137</ele>
        <time>2020-09-01T08:56:13.000Z</time>
      </trkpt>
      <trkpt lat="43.06008" lon="5.83801">
        <ele>137</ele>
        <time>2020-09-01T08:56:14.000Z</time>
      </trkpt>
      <trkpt lat="43.06006" lon="5.83788">
        <ele>137.19999694824</ele>
        <time>2020-09-01T08:56:16.000Z</time>
      </trkpt>
      <trkpt lat="43.06004" lon="5.83782">
        <ele>137.19999694824</ele>
        <time>2020-09-01T08:56:17.000Z</time>
      </trkpt>
      <trkpt lat="43.06002" lon="5.83778">
        <ele>137.19999694824</ele>
        <time>2020-09-01T08:56:18.000Z</time>
      </trkpt>
      <trkpt lat="43.05996" lon="5.83767">
        <ele>137.19999694824</ele>
        <time>2020-09-01T08:56:20.000Z</time>
      </trkpt>
      <trkpt lat="43.05987" lon="5.83756">
        <ele>137</ele>
        <time>2020-09-01T08:56:23.000Z</time>
      </trkpt>
      <trkpt lat="43.05971" lon="5.8375">
        <ele>137.39999389648</ele>
        <time>2020-09-01T08:56:28.000Z</time>
      </trkpt>
      <trkpt lat="43.05954" lon="5.83745">
        <ele>138</ele>
        <time>2020-09-01T08:56:34.000Z</time>
      </trkpt>
      <trkpt lat="43.05938" lon="5.83741">
        <ele>138</ele>
        <time>2020-09-01T08:56:40.000Z</time>
      </trkpt>
      <trkpt lat="43.0593" lon="5.83738">
        <ele>138.39999389648</ele>
        <time>2020-09-01T08:56:43.000Z</time>
      </trkpt>
      <trkpt lat="43.0593" lon="5.83735">
        <ele>138.60000610352</ele>
        <time>2020-09-01T08:56:44.000Z</time>
      </trkpt>
      <trkpt lat="43.05928" lon="5.83733">
        <ele>139</ele>
        <time>2020-09-01T08:56:45.000Z</time>
      </trkpt>
      <trkpt lat="43.05922" lon="5.83725">
        <ele>139.60000610352</ele>
        <time>2020-09-01T08:56:48.000Z</time>
      </trkpt>
      <trkpt lat="43.0592" lon="5.83719">
        <ele>140.39999389648</ele>
        <time>2020-09-01T08:56:50.000Z</time>
      </trkpt>
      <trkpt lat="43.05919" lon="5.83719">
        <ele>141</ele>
        <time>2020-09-01T08:56:51.000Z</time>
      </trkpt>
      <trkpt lat="43.05911" lon="5.83718">
        <ele>142.19999694824</ele>
        <time>2020-09-01T08:56:54.000Z</time>
      </trkpt>
      <trkpt lat="43.059" lon="5.83729">
        <ele>142.80000305176</ele>
        <time>2020-09-01T08:56:58.000Z</time>
      </trkpt>
      <trkpt lat="43.05891" lon="5.83731">
        <ele>143.19999694824</ele>
        <time>2020-09-01T08:57:01.000Z</time>
      </trkpt>
      <trkpt lat="43.05888" lon="5.83731">
        <ele>143.60000610352</ele>
        <time>2020-09-01T08:57:02.000Z</time>
      </trkpt>
      <trkpt lat="43.05884" lon="5.83734">
        <ele>144.60000610352</ele>
        <time>2020-09-01T08:57:04.000Z</time>
      </trkpt>
      <trkpt lat="43.05878" lon="5.83737">
        <ele>145.19999694824</ele>
        <time>2020-09-01T08:57:06.000Z</time>
      </trkpt>
      <trkpt lat="43.05874" lon="5.83738">
        <ele>145.60000610352</ele>
        <time>2020-09-01T08:57:07.000Z</time>
      </trkpt>
      <trkpt lat="43.0587" lon="5.83739">
        <ele>145.80000305176</ele>
        <time>2020-09-01T08:57:08.000Z</time>
      </trkpt>
      <trkpt lat="43.05859" lon="5.83744">
        <ele>146.39999389648</ele>
        <time>2020-09-01T08:57:11.000Z</time>
      </trkpt>
      <trkpt lat="43.05841" lon="5.83746">
        <ele>146.60000610352</ele>
        <time>2020-09-01T08:57:16.000Z</time>
      </trkpt>
      <trkpt lat="43.05838" lon="5.83747">
        <ele>146.60000610352</ele>
        <time>2020-09-01T08:57:17.000Z</time>
      </trkpt>
      <trkpt lat="43.05824" lon="5.83752">
        <ele>147.39999389648</ele>
        <time>2020-09-01T08:57:21.000Z</time>
      </trkpt>
      <trkpt lat="43.05813" lon="5.83756">
        <ele>147.80000305176</ele>
        <time>2020-09-01T08:57:24.000Z</time>
      </trkpt>
      <trkpt lat="43.05798" lon="5.8376">
        <ele>148.60000610352</ele>
        <time>2020-09-01T08:57:28.000Z</time>
      </trkpt>
      <trkpt lat="43.05787" lon="5.83761">
        <ele>149</ele>
        <time>2020-09-01T08:57:31.000Z</time>
      </trkpt>
      <trkpt lat="43.05773" lon="5.83768">
        <ele>149.39999389648</ele>
        <time>2020-09-01T08:57:35.000Z</time>
      </trkpt>
      <trkpt lat="43.05748" lon="5.83779">
        <ele>150</ele>
        <time>2020-09-01T08:57:42.000Z</time>
      </trkpt>
      <trkpt lat="43.05744" lon="5.8378">
        <ele>150.19999694824</ele>
        <time>2020-09-01T08:57:43.000Z</time>
      </trkpt>
      <trkpt lat="43.05728" lon="5.83788">
        <ele>150.39999389648</ele>
        <time>2020-09-01T08:57:47.000Z</time>
      </trkpt>
      <trkpt lat="43.05724" lon="5.83791">
        <ele>150.39999389648</ele>
        <time>2020-09-01T08:57:48.000Z</time>
      </trkpt>
      <trkpt lat="43.05711" lon="5.83805">
        <ele>150.19999694824</ele>
        <time>2020-09-01T08:57:51.000Z</time>
      </trkpt>
      <trkpt lat="43.05707" lon="5.8381">
        <ele>150</ele>
        <time>2020-09-01T08:57:52.000Z</time>
      </trkpt>
      <trkpt lat="43.05705" lon="5.83814">
        <ele>150</ele>
        <time>2020-09-01T08:57:53.000Z</time>
      </trkpt>
      <trkpt lat="43.05701" lon="5.83816">
        <ele>150</ele>
        <time>2020-09-01T08:57:55.000Z</time>
      </trkpt>
      <trkpt lat="43.05694" lon="5.83809">
        <ele>149.80000305176</ele>
        <time>2020-09-01T08:57:58.000Z</time>
      </trkpt>
      <trkpt lat="43.05686" lon="5.83805">
        <ele>148.60000610352</ele>
        <time>2020-09-01T08:58:01.000Z</time>
      </trkpt>
      <trkpt lat="43.05683" lon="5.83803">
        <ele>148</ele>
        <time>2020-09-01T08:58:02.000Z</time>
      </trkpt>
      <trkpt lat="43.0568" lon="5.838">
        <ele>147.19999694824</ele>
        <time>2020-09-01T08:58:03.000Z</time>
      </trkpt>
      <trkpt lat="43.05681" lon="5.83795">
        <ele>146.60000610352</ele>
        <time>2020-09-01T08:58:04.000Z</time>
      </trkpt>
      <trkpt lat="43.05683" lon="5.83789">
        <ele>145.80000305176</ele>
        <time>2020-09-01T08:58:05.000Z</time>
      </trkpt>
      <trkpt lat="43.05686" lon="5.83778">
        <ele>144</ele>
        <time>2020-09-01T08:58:07.000Z</time>
      </trkpt>
      <trkpt lat="43.05689" lon="5.83772">
        <ele>143.19999694824</ele>
        <time>2020-09-01T08:58:08.000Z</time>
      </trkpt>
      <trkpt lat="43.05691" lon="5.83765">
        <ele>143</ele>
        <time>2020-09-01T08:58:09.000Z</time>
      </trkpt>
      <trkpt lat="43.05694" lon="5.83759">
        <ele>142.80000305176</ele>
        <time>2020-09-01T08:58:10.000Z</time>
      </trkpt>
      <trkpt lat="43.05696" lon="5.83744">
        <ele>142.60000610352</ele>
        <time>2020-09-01T08:58:12.000Z</time>
      </trkpt>
      <trkpt lat="43.05699" lon="5.83737">
        <ele>142.60000610352</ele>
        <time>2020-09-01T08:58:13.000Z</time>
      </trkpt>
      <trkpt lat="43.057" lon="5.83732">
        <ele>142.39999389648</ele>
        <time>2020-09-01T08:58:14.000Z</time>
      </trkpt>
      <trkpt lat="43.05704" lon="5.83722">
        <ele>141.60000610352</ele>
        <time>2020-09-01T08:58:16.000Z</time>
      </trkpt>
      <trkpt lat="43.05708" lon="5.83717">
        <ele>141</ele>
        <time>2020-09-01T08:58:17.000Z</time>
      </trkpt>
      <trkpt lat="43.05714" lon="5.83713">
        <ele>140.19999694824</ele>
        <time>2020-09-01T08:58:18.000Z</time>
      </trkpt>
      <trkpt lat="43.05724" lon="5.837">
        <ele>139</ele>
        <time>2020-09-01T08:58:20.000Z</time>
      </trkpt>
      <trkpt lat="43.0573" lon="5.83697">
        <ele>138.19999694824</ele>
        <time>2020-09-01T08:58:21.000Z</time>
      </trkpt>
      <trkpt lat="43.05735" lon="5.83693">
        <ele>137.39999389648</ele>
        <time>2020-09-01T08:58:22.000Z</time>
      </trkpt>
      <trkpt lat="43.05746" lon="5.83687">
        <ele>136.80000305176</ele>
        <time>2020-09-01T08:58:24.000Z</time>
      </trkpt>
      <trkpt lat="43.05752" lon="5.83684">
        <ele>136.39999389648</ele>
        <time>2020-09-01T08:58:25.000Z</time>
      </trkpt>
      <trkpt lat="43.05768" lon="5.83672">
        <ele>136</ele>
        <time>2020-09-01T08:58:28.000Z</time>
      </trkpt>
      <trkpt lat="43.05772" lon="5.83666">
        <ele>135.60000610352</ele>
        <time>2020-09-01T08:58:29.000Z</time>
      </trkpt>
      <trkpt lat="43.05781" lon="5.83657">
        <ele>134.80000305176</ele>
        <time>2020-09-01T08:58:31.000Z</time>
      </trkpt>
      <trkpt lat="43.05787" lon="5.83654">
        <ele>134.19999694824</ele>
        <time>2020-09-01T08:58:32.000Z</time>
      </trkpt>
      <trkpt lat="43.05791" lon="5.8365">
        <ele>133.60000610352</ele>
        <time>2020-09-01T08:58:33.000Z</time>
      </trkpt>
      <trkpt lat="43.05796" lon="5.83644">
        <ele>133</ele>
        <time>2020-09-01T08:58:34.000Z</time>
      </trkpt>
      <trkpt lat="43.058" lon="5.83638">
        <ele>132.60000610352</ele>
        <time>2020-09-01T08:58:35.000Z</time>
      </trkpt>
      <trkpt lat="43.05804" lon="5.83632">
        <ele>132.19999694824</ele>
        <time>2020-09-01T08:58:36.000Z</time>
      </trkpt>
      <trkpt lat="43.05814" lon="5.83614">
        <ele>131.60000610352</ele>
        <time>2020-09-01T08:58:39.000Z</time>
      </trkpt>
      <trkpt lat="43.05819" lon="5.83608">
        <ele>131.60000610352</ele>
        <time>2020-09-01T08:58:40.000Z</time>
      </trkpt>
      <trkpt lat="43.05829" lon="5.836">
        <ele>131.39999389648</ele>
        <time>2020-09-01T08:58:42.000Z</time>
      </trkpt>
      <trkpt lat="43.0584" lon="5.83595">
        <ele>131.39999389648</ele>
        <time>2020-09-01T08:58:44.000Z</time>
      </trkpt>
      <trkpt lat="43.05857" lon="5.83591">
        <ele>130.80000305176</ele>
        <time>2020-09-01T08:58:47.000Z</time>
      </trkpt>
      <trkpt lat="43.05874" lon="5.83585">
        <ele>130.39999389648</ele>
        <time>2020-09-01T08:58:50.000Z</time>
      </trkpt>
      <trkpt lat="43.0588" lon="5.83585">
        <ele>130.39999389648</ele>
        <time>2020-09-01T08:58:51.000Z</time>
      </trkpt>
      <trkpt lat="43.05891" lon="5.83582">
        <ele>130.19999694824</ele>
        <time>2020-09-01T08:58:53.000Z</time>
      </trkpt>
      <trkpt lat="43.05912" lon="5.83572">
        <ele>130.19999694824</ele>
        <time>2020-09-01T08:58:57.000Z</time>
      </trkpt>
      <trkpt lat="43.0592" lon="5.83563">
        <ele>130.19999694824</ele>
        <time>2020-09-01T08:58:59.000Z</time>
      </trkpt>
      <trkpt lat="43.0593" lon="5.83554">
        <ele>130.60000610352</ele>
        <time>2020-09-01T08:59:01.000Z</time>
      </trkpt>
      <trkpt lat="43.05942" lon="5.83538">
        <ele>131</ele>
        <time>2020-09-01T08:59:04.000Z</time>
      </trkpt>
      <trkpt lat="43.05959" lon="5.83521">
        <ele>130.80000305176</ele>
        <time>2020-09-01T08:59:08.000Z</time>
      </trkpt>
      <trkpt lat="43.05963" lon="5.83518">
        <ele>130.80000305176</ele>
        <time>2020-09-01T08:59:09.000Z</time>
      </trkpt>
      <trkpt lat="43.05969" lon="5.83512">
        <ele>130.80000305176</ele>
        <time>2020-09-01T08:59:10.000Z</time>
      </trkpt>
      <trkpt lat="43.05984" lon="5.83489">
        <ele>130.39999389648</ele>
        <time>2020-09-01T08:59:14.000Z</time>
      </trkpt>
      <trkpt lat="43.05993" lon="5.83477">
        <ele>130</ele>
        <time>2020-09-01T08:59:16.000Z</time>
      </trkpt>
      <trkpt lat="43.06003" lon="5.83469">
        <ele>130</ele>
        <time>2020-09-01T08:59:18.000Z</time>
      </trkpt>
      <trkpt lat="43.06017" lon="5.83456">
        <ele>129.60000610352</ele>
        <time>2020-09-01T08:59:21.000Z</time>
      </trkpt>
      <trkpt lat="43.06023" lon="5.83442">
        <ele>129.39999389648</ele>
        <time>2020-09-01T08:59:23.000Z</time>
      </trkpt>
      <trkpt lat="43.06024" lon="5.83417">
        <ele>128.19999694824</ele>
        <time>2020-09-01T08:59:26.000Z</time>
      </trkpt>
      <trkpt lat="43.06024" lon="5.83408">
        <ele>127.80000305176</ele>
        <time>2020-09-01T08:59:27.000Z</time>
      </trkpt>
      <trkpt lat="43.06026" lon="5.83391">
        <ele>127.19999694824</ele>
        <time>2020-09-01T08:59:29.000Z</time>
      </trkpt>
      <trkpt lat="43.06029" lon="5.83382">
        <ele>127</ele>
        <time>2020-09-01T08:59:30.000Z</time>
      </trkpt>
      <trkpt lat="43.06033" lon="5.83375">
        <ele>126.80000305176</ele>
        <time>2020-09-01T08:59:31.000Z</time>
      </trkpt>
      <trkpt lat="43.06044" lon="5.83373">
        <ele>126.19999694824</ele>
        <time>2020-09-01T08:59:34.000Z</time>
      </trkpt>
      <trkpt lat="43.06059" lon="5.83383">
        <ele>126.40000152588</ele>
        <time>2020-09-01T08:59:37.000Z</time>
      </trkpt>
      <trkpt lat="43.06078" lon="5.83381">
        <ele>126.19999694824</ele>
        <time>2020-09-01T08:59:40.000Z</time>
      </trkpt>
      <trkpt lat="43.06084" lon="5.8338">
        <ele>126.19999694824</ele>
        <time>2020-09-01T08:59:41.000Z</time>
      </trkpt>
      <trkpt lat="43.06091" lon="5.83377">
        <ele>125.59999847412</ele>
        <time>2020-09-01T08:59:42.000Z</time>
      </trkpt>
      <trkpt lat="43.06096" lon="5.83373">
        <ele>125.40000152588</ele>
        <time>2020-09-01T08:59:43.000Z</time>
      </trkpt>
      <trkpt lat="43.06107" lon="5.83367">
        <ele>125</ele>
        <time>2020-09-01T08:59:45.000Z</time>
      </trkpt>
      <trkpt lat="43.06125" lon="5.83358">
        <ele>124.40000152588</ele>
        <time>2020-09-01T08:59:48.000Z</time>
      </trkpt>
      <trkpt lat="43.0613" lon="5.83351">
        <ele>124</ele>
        <time>2020-09-01T08:59:49.000Z</time>
      </trkpt>
      <trkpt lat="43.06144" lon="5.83343">
        <ele>122.59999847412</ele>
        <time>2020-09-01T08:59:51.000Z</time>
      </trkpt>
      <trkpt lat="43.06149" lon="5.83337">
        <ele>122.19999694824</ele>
        <time>2020-09-01T08:59:52.000Z</time>
      </trkpt>
      <trkpt lat="43.06156" lon="5.83334">
        <ele>121.59999847412</ele>
        <time>2020-09-01T08:59:53.000Z</time>
      </trkpt>
      <trkpt lat="43.06169" lon="5.83327">
        <ele>121.19999694824</ele>
        <time>2020-09-01T08:59:55.000Z</time>
      </trkpt>
      <trkpt lat="43.06185" lon="5.83304">
        <ele>120.40000152588</ele>
        <time>2020-09-01T08:59:59.000Z</time>
      </trkpt>
      <trkpt lat="43.06196" lon="5.83293">
        <ele>119.40000152588</ele>
        <time>2020-09-01T09:00:01.000Z</time>
      </trkpt>
      <trkpt lat="43.06201" lon="5.83287">
        <ele>119</ele>
        <time>2020-09-01T09:00:02.000Z</time>
      </trkpt>
      <trkpt lat="43.06204" lon="5.83279">
        <ele>118.59999847412</ele>
        <time>2020-09-01T09:00:03.000Z</time>
      </trkpt>
      <trkpt lat="43.06223" lon="5.83267">
        <ele>117.80000305176</ele>
        <time>2020-09-01T09:00:06.000Z</time>
      </trkpt>
      <trkpt lat="43.06249" lon="5.83254">
        <ele>117.40000152588</ele>
        <time>2020-09-01T09:00:10.000Z</time>
      </trkpt>
      <trkpt lat="43.06257" lon="5.83245">
        <ele>117.19999694824</ele>
        <time>2020-09-01T09:00:13.000Z</time>
      </trkpt>
      <trkpt lat="43.06268" lon="5.83244">
        <ele>117</ele>
        <time>2020-09-01T09:00:16.000Z</time>
      </trkpt>
      <trkpt lat="43.0627" lon="5.83243">
        <ele>116.80000305176</ele>
        <time>2020-09-01T09:00:17.000Z</time>
      </trkpt>
      <trkpt lat="43.06276" lon="5.83236">
        <ele>116.40000152588</ele>
        <time>2020-09-01T09:00:19.000Z</time>
      </trkpt>
      <trkpt lat="43.0628" lon="5.83232">
        <ele>115.80000305176</ele>
        <time>2020-09-01T09:00:20.000Z</time>
      </trkpt>
      <trkpt lat="43.06284" lon="5.83232">
        <ele>115.19999694824</ele>
        <time>2020-09-01T09:00:21.000Z</time>
      </trkpt>
      <trkpt lat="43.06288" lon="5.83235">
        <ele>114.40000152588</ele>
        <time>2020-09-01T09:00:22.000Z</time>
      </trkpt>
      <trkpt lat="43.06294" lon="5.83238">
        <ele>113.80000305176</ele>
        <time>2020-09-01T09:00:23.000Z</time>
      </trkpt>
      <trkpt lat="43.06298" lon="5.83243">
        <ele>113</ele>
        <time>2020-09-01T09:00:24.000Z</time>
      </trkpt>
      <trkpt lat="43.06306" lon="5.83244">
        <ele>111.40000152588</ele>
        <time>2020-09-01T09:00:26.000Z</time>
      </trkpt>
      <trkpt lat="43.06314" lon="5.83239">
        <ele>110.19999694824</ele>
        <time>2020-09-01T09:00:28.000Z</time>
      </trkpt>
      <trkpt lat="43.0632" lon="5.83242">
        <ele>109</ele>
        <time>2020-09-01T09:00:29.000Z</time>
      </trkpt>
      <trkpt lat="43.06331" lon="5.83241">
        <ele>108.19999694824</ele>
        <time>2020-09-01T09:00:32.000Z</time>
      </trkpt>
      <trkpt lat="43.06334" lon="5.83238">
        <ele>108</ele>
        <time>2020-09-01T09:00:33.000Z</time>
      </trkpt>
      <trkpt lat="43.06345" lon="5.83237">
        <ele>108.19999694824</ele>
        <time>2020-09-01T09:00:36.000Z</time>
      </trkpt>
      <trkpt lat="43.06363" lon="5.8323">
        <ele>105.80000305176</ele>
        <time>2020-09-01T09:00:41.000Z</time>
      </trkpt>
      <trkpt lat="43.0637" lon="5.83229">
        <ele>104</ele>
        <time>2020-09-01T09:00:43.000Z</time>
      </trkpt>
      <trkpt lat="43.06378" lon="5.83224">
        <ele>102.59999847412</ele>
        <time>2020-09-01T09:00:45.000Z</time>
      </trkpt>
      <trkpt lat="43.06385" lon="5.83215">
        <ele>101.19999694824</ele>
        <time>2020-09-01T09:00:47.000Z</time>
      </trkpt>
      <trkpt lat="43.0639" lon="5.83209">
        <ele>100</ele>
        <time>2020-09-01T09:00:49.000Z</time>
      </trkpt>
      <trkpt lat="43.06392" lon="5.83202">
        <ele>98.800003051758</ele>
        <time>2020-09-01T09:00:51.000Z</time>
      </trkpt>
      <trkpt lat="43.06392" lon="5.83199">
        <ele>98.800003051758</ele>
        <time>2020-09-01T09:00:52.000Z</time>
      </trkpt>
      <trkpt lat="43.06395" lon="5.83197">
        <ele>98.800003051758</ele>
        <time>2020-09-01T09:00:53.000Z</time>
      </trkpt>
      <trkpt lat="43.06401" lon="5.83187">
        <ele>99.800003051758</ele>
        <time>2020-09-01T09:00:55.000Z</time>
      </trkpt>
      <trkpt lat="43.06404" lon="5.83183">
        <ele>100</ele>
        <time>2020-09-01T09:00:56.000Z</time>
      </trkpt>
      <trkpt lat="43.06409" lon="5.8318">
        <ele>100</ele>
        <time>2020-09-01T09:00:57.000Z</time>
      </trkpt>
      <trkpt lat="43.06422" lon="5.83179">
        <ele>99.199996948242</ele>
        <time>2020-09-01T09:01:00.000Z</time>
      </trkpt>
      <trkpt lat="43.06424" lon="5.83179">
        <ele>98.800003051758</ele>
        <time>2020-09-01T09:01:01.000Z</time>
      </trkpt>
      <trkpt lat="43.06425" lon="5.83172">
        <ele>98.599998474121</ele>
        <time>2020-09-01T09:01:04.000Z</time>
      </trkpt>
      <trkpt lat="43.06429" lon="5.83165">
        <ele>98.400001525879</ele>
        <time>2020-09-01T09:01:06.000Z</time>
      </trkpt>
      <trkpt lat="43.06437" lon="5.83157">
        <ele>98.400001525879</ele>
        <time>2020-09-01T09:01:08.000Z</time>
      </trkpt>
      <trkpt lat="43.06441" lon="5.83154">
        <ele>98.199996948242</ele>
        <time>2020-09-01T09:01:09.000Z</time>
      </trkpt>
      <trkpt lat="43.06453" lon="5.83145">
        <ele>98</ele>
        <time>2020-09-01T09:01:12.000Z</time>
      </trkpt>
      <trkpt lat="43.06456" lon="5.83141">
        <ele>97.599998474121</ele>
        <time>2020-09-01T09:01:13.000Z</time>
      </trkpt>
      <trkpt lat="43.06459" lon="5.83138">
        <ele>97.400001525879</ele>
        <time>2020-09-01T09:01:14.000Z</time>
      </trkpt>
      <trkpt lat="43.06465" lon="5.83138">
        <ele>97.199996948242</ele>
        <time>2020-09-01T09:01:16.000Z</time>
      </trkpt>
      <trkpt lat="43.06474" lon="5.83136">
        <ele>96.199996948242</ele>
        <time>2020-09-01T09:01:19.000Z</time>
      </trkpt>
      <trkpt lat="43.06478" lon="5.83134">
        <ele>95.800003051758</ele>
        <time>2020-09-01T09:01:20.000Z</time>
      </trkpt>
      <trkpt lat="43.06482" lon="5.83131">
        <ele>95.199996948242</ele>
        <time>2020-09-01T09:01:21.000Z</time>
      </trkpt>
      <trkpt lat="43.06485" lon="5.83127">
        <ele>94.599998474121</ele>
        <time>2020-09-01T09:01:22.000Z</time>
      </trkpt>
      <trkpt lat="43.06491" lon="5.83119">
        <ele>93</ele>
        <time>2020-09-01T09:01:24.000Z</time>
      </trkpt>
      <trkpt lat="43.06494" lon="5.83117">
        <ele>92.599998474121</ele>
        <time>2020-09-01T09:01:25.000Z</time>
      </trkpt>
      <trkpt lat="43.06502" lon="5.83116">
        <ele>91.800003051758</ele>
        <time>2020-09-01T09:01:27.000Z</time>
      </trkpt>
      <trkpt lat="43.06511" lon="5.83115">
        <ele>91.599998474121</ele>
        <time>2020-09-01T09:01:29.000Z</time>
      </trkpt>
      <trkpt lat="43.06515" lon="5.83111">
        <ele>91.599998474121</ele>
        <time>2020-09-01T09:01:30.000Z</time>
      </trkpt>
      <trkpt lat="43.06522" lon="5.83103">
        <ele>91.400001525879</ele>
        <time>2020-09-01T09:01:32.000Z</time>
      </trkpt>
      <trkpt lat="43.06542" lon="5.83079">
        <ele>91.599998474121</ele>
        <time>2020-09-01T09:01:38.000Z</time>
      </trkpt>
      <trkpt lat="43.06546" lon="5.83075">
        <ele>91.400001525879</ele>
        <time>2020-09-01T09:01:39.000Z</time>
      </trkpt>
      <trkpt lat="43.06556" lon="5.83057">
        <ele>91.199996948242</ele>
        <time>2020-09-01T09:01:42.000Z</time>
      </trkpt>
      <trkpt lat="43.06566" lon="5.8304">
        <ele>90.800003051758</ele>
        <time>2020-09-01T09:01:45.000Z</time>
      </trkpt>
      <trkpt lat="43.0657" lon="5.83026">
        <ele>90.599998474121</ele>
        <time>2020-09-01T09:01:47.000Z</time>
      </trkpt>
      <trkpt lat="43.06577" lon="5.82999">
        <ele>90.400001525879</ele>
        <time>2020-09-01T09:01:51.000Z</time>
      </trkpt>
      <trkpt lat="43.06589" lon="5.82992">
        <ele>90.599998474121</ele>
        <time>2020-09-01T09:01:54.000Z</time>
      </trkpt>
      <trkpt lat="43.06599" lon="5.83002">
        <ele>90.599998474121</ele>
        <time>2020-09-01T09:01:57.000Z</time>
      </trkpt>
      <trkpt lat="43.06606" lon="5.83002">
        <ele>90.800003051758</ele>
        <time>2020-09-01T09:01:59.000Z</time>
      </trkpt>
      <trkpt lat="43.06609" lon="5.82998">
        <ele>90.800003051758</ele>
        <time>2020-09-01T09:02:00.000Z</time>
      </trkpt>
      <trkpt lat="43.06619" lon="5.82979">
        <ele>90.400001525879</ele>
        <time>2020-09-01T09:02:04.000Z</time>
      </trkpt>
      <trkpt lat="43.06623" lon="5.82973">
        <ele>90.400001525879</ele>
        <time>2020-09-01T09:02:05.000Z</time>
      </trkpt>
      <trkpt lat="43.06639" lon="5.82961">
        <ele>90.599998474121</ele>
        <time>2020-09-01T09:02:08.000Z</time>
      </trkpt>
      <trkpt lat="43.06644" lon="5.82958">
        <ele>90.400001525879</ele>
        <time>2020-09-01T09:02:09.000Z</time>
      </trkpt>
      <trkpt lat="43.06666" lon="5.82949">
        <ele>91.400001525879</ele>
        <time>2020-09-01T09:02:13.000Z</time>
      </trkpt>
      <trkpt lat="43.0667" lon="5.82947">
        <ele>91.800003051758</ele>
        <time>2020-09-01T09:02:14.000Z</time>
      </trkpt>
      <trkpt lat="43.06699" lon="5.82929">
        <ele>93</ele>
        <time>2020-09-01T09:02:20.000Z</time>
      </trkpt>
      <trkpt lat="43.06703" lon="5.82926">
        <ele>93.199996948242</ele>
        <time>2020-09-01T09:02:21.000Z</time>
      </trkpt>
      <trkpt lat="43.06715" lon="5.82913">
        <ele>94</ele>
        <time>2020-09-01T09:02:24.000Z</time>
      </trkpt>
      <trkpt lat="43.06729" lon="5.82895">
        <ele>95</ele>
        <time>2020-09-01T09:02:28.000Z</time>
      </trkpt>
      <trkpt lat="43.06732" lon="5.8289">
        <ele>95.199996948242</ele>
        <time>2020-09-01T09:02:29.000Z</time>
      </trkpt>
      <trkpt lat="43.06751" lon="5.82858">
        <ele>95.800003051758</ele>
        <time>2020-09-01T09:02:35.000Z</time>
      </trkpt>
      <trkpt lat="43.06755" lon="5.82854">
        <ele>95.800003051758</ele>
        <time>2020-09-01T09:02:36.000Z</time>
      </trkpt>
      <trkpt lat="43.06763" lon="5.82843">
        <ele>96</ele>
        <time>2020-09-01T09:02:38.000Z</time>
      </trkpt>
      <trkpt lat="43.06767" lon="5.8283">
        <ele>96</ele>
        <time>2020-09-01T09:02:40.000Z</time>
      </trkpt>
      <trkpt lat="43.06768" lon="5.82818">
        <ele>96.199996948242</ele>
        <time>2020-09-01T09:02:42.000Z</time>
      </trkpt>
      <trkpt lat="43.06769" lon="5.82803">
        <ele>96.400001525879</ele>
        <time>2020-09-01T09:02:44.000Z</time>
      </trkpt>
      <trkpt lat="43.06779" lon="5.82785">
        <ele>96.599998474121</ele>
        <time>2020-09-01T09:02:47.000Z</time>
      </trkpt>
      <trkpt lat="43.06788" lon="5.82777">
        <ele>96.800003051758</ele>
        <time>2020-09-01T09:02:49.000Z</time>
      </trkpt>
      <trkpt lat="43.06791" lon="5.82772">
        <ele>97</ele>
        <time>2020-09-01T09:02:50.000Z</time>
      </trkpt>
      <trkpt lat="43.06794" lon="5.82767">
        <ele>97.199996948242</ele>
        <time>2020-09-01T09:02:51.000Z</time>
      </trkpt>
      <trkpt lat="43.06796" lon="5.82762">
        <ele>97.199996948242</ele>
        <time>2020-09-01T09:02:52.000Z</time>
      </trkpt>
      <trkpt lat="43.06801" lon="5.82744">
        <ele>97.400001525879</ele>
        <time>2020-09-01T09:02:55.000Z</time>
      </trkpt>
      <trkpt lat="43.06813" lon="5.82693">
        <ele>96.800003051758</ele>
        <time>2020-09-01T09:03:02.000Z</time>
      </trkpt>
      <trkpt lat="43.06825" lon="5.82665">
        <ele>97</ele>
        <time>2020-09-01T09:03:06.000Z</time>
      </trkpt>
      <trkpt lat="43.06831" lon="5.82634">
        <ele>96.800003051758</ele>
        <time>2020-09-01T09:03:10.000Z</time>
      </trkpt>
      <trkpt lat="43.06833" lon="5.82626">
        <ele>96.800003051758</ele>
        <time>2020-09-01T09:03:11.000Z</time>
      </trkpt>
      <trkpt lat="43.06843" lon="5.82586">
        <ele>96.400001525879</ele>
        <time>2020-09-01T09:03:16.000Z</time>
      </trkpt>
      <trkpt lat="43.06852" lon="5.82567">
        <ele>96.199996948242</ele>
        <time>2020-09-01T09:03:19.000Z</time>
      </trkpt>
      <trkpt lat="43.06856" lon="5.8256">
        <ele>96.199996948242</ele>
        <time>2020-09-01T09:03:20.000Z</time>
      </trkpt>
      <trkpt lat="43.0686" lon="5.82554">
        <ele>96.199996948242</ele>
        <time>2020-09-01T09:03:21.000Z</time>
      </trkpt>
      <trkpt lat="43.06886" lon="5.82529">
        <ele>95</ele>
        <time>2020-09-01T09:03:25.000Z</time>
      </trkpt>
      <trkpt lat="43.06892" lon="5.82522">
        <ele>94.400001525879</ele>
        <time>2020-09-01T09:03:26.000Z</time>
      </trkpt>
      <trkpt lat="43.06897" lon="5.82513">
        <ele>93.800003051758</ele>
        <time>2020-09-01T09:03:27.000Z</time>
      </trkpt>
      <trkpt lat="43.06906" lon="5.82497">
        <ele>92.800003051758</ele>
        <time>2020-09-01T09:03:29.000Z</time>
      </trkpt>
      <trkpt lat="43.06911" lon="5.82488">
        <ele>92.599998474121</ele>
        <time>2020-09-01T09:03:30.000Z</time>
      </trkpt>
      <trkpt lat="43.06929" lon="5.8246">
        <ele>91.400001525879</ele>
        <time>2020-09-01T09:03:34.000Z</time>
      </trkpt>
      <trkpt lat="43.06935" lon="5.82452">
        <ele>91.400001525879</ele>
        <time>2020-09-01T09:03:35.000Z</time>
      </trkpt>
      <trkpt lat="43.06957" lon="5.82422">
        <ele>90.400001525879</ele>
        <time>2020-09-01T09:03:39.000Z</time>
      </trkpt>
      <trkpt lat="43.06974" lon="5.824">
        <ele>89</ele>
        <time>2020-09-01T09:03:42.000Z</time>
      </trkpt>
      <trkpt lat="43.06983" lon="5.82385">
        <ele>88</ele>
        <time>2020-09-01T09:03:45.000Z</time>
      </trkpt>
      <trkpt lat="43.06985" lon="5.82377">
        <ele>88</ele>
        <time>2020-09-01T09:03:48.000Z</time>
      </trkpt>
      <trkpt lat="43.06985" lon="5.82375">
        <ele>88</ele>
        <time>2020-09-01T09:03:49.000Z</time>
      </trkpt>
      <trkpt lat="43.06976" lon="5.82366">
        <ele>88.199996948242</ele>
        <time>2020-09-01T09:03:52.000Z</time>
      </trkpt>
      <trkpt lat="43.06966" lon="5.82362">
        <ele>87.800003051758</ele>
        <time>2020-09-01T09:03:54.000Z</time>
      </trkpt>
      <trkpt lat="43.06953" lon="5.82358">
        <ele>87.400001525879</ele>
        <time>2020-09-01T09:03:56.000Z</time>
      </trkpt>
      <trkpt lat="43.06935" lon="5.8235">
        <ele>86.800003051758</ele>
        <time>2020-09-01T09:03:59.000Z</time>
      </trkpt>
      <trkpt lat="43.06929" lon="5.82346">
        <ele>87</ele>
        <time>2020-09-01T09:04:00.000Z</time>
      </trkpt>
      <trkpt lat="43.06924" lon="5.82342">
        <ele>87</ele>
        <time>2020-09-01T09:04:01.000Z</time>
      </trkpt>
      <trkpt lat="43.06918" lon="5.82337">
        <ele>87.199996948242</ele>
        <time>2020-09-01T09:04:02.000Z</time>
      </trkpt>
      <trkpt lat="43.06906" lon="5.82317">
        <ele>87.199996948242</ele>
        <time>2020-09-01T09:04:05.000Z</time>
      </trkpt>
      <trkpt lat="43.06898" lon="5.82282">
        <ele>86.800003051758</ele>
        <time>2020-09-01T09:04:09.000Z</time>
      </trkpt>
      <trkpt lat="43.06897" lon="5.82272">
        <ele>86.599998474121</ele>
        <time>2020-09-01T09:04:10.000Z</time>
      </trkpt>
      <trkpt lat="43.06894" lon="5.82267">
        <ele>86.400001525879</ele>
        <time>2020-09-01T09:04:11.000Z</time>
      </trkpt>
      <trkpt lat="43.06888" lon="5.82254">
        <ele>85.800003051758</ele>
        <time>2020-09-01T09:04:12.000Z</time>
      </trkpt>
      <trkpt lat="43.06881" lon="5.82247">
        <ele>85.199996948242</ele>
        <time>2020-09-01T09:04:13.000Z</time>
      </trkpt>
      <trkpt lat="43.06873" lon="5.82242">
        <ele>84.400001525879</ele>
        <time>2020-09-01T09:04:14.000Z</time>
      </trkpt>
      <trkpt lat="43.06865" lon="5.82235">
        <ele>83.800003051758</ele>
        <time>2020-09-01T09:04:15.000Z</time>
      </trkpt>
      <trkpt lat="43.06858" lon="5.82228">
        <ele>83</ele>
        <time>2020-09-01T09:04:16.000Z</time>
      </trkpt>
      <trkpt lat="43.06851" lon="5.8222">
        <ele>82.400001525879</ele>
        <time>2020-09-01T09:04:17.000Z</time>
      </trkpt>
      <trkpt lat="43.06844" lon="5.82213">
        <ele>81.400001525879</ele>
        <time>2020-09-01T09:04:18.000Z</time>
      </trkpt>
      <trkpt lat="43.06837" lon="5.82208">
        <ele>80.599998474121</ele>
        <time>2020-09-01T09:04:19.000Z</time>
      </trkpt>
      <trkpt lat="43.06828" lon="5.82202">
        <ele>79.599998474121</ele>
        <time>2020-09-01T09:04:20.000Z</time>
      </trkpt>
      <trkpt lat="43.06814" lon="5.82191">
        <ele>78.400001525879</ele>
        <time>2020-09-01T09:04:22.000Z</time>
      </trkpt>
      <trkpt lat="43.06778" lon="5.82162">
        <ele>77.400001525879</ele>
        <time>2020-09-01T09:04:27.000Z</time>
      </trkpt>
      <trkpt lat="43.06767" lon="5.82153">
        <ele>77.400001525879</ele>
        <time>2020-09-01T09:04:29.000Z</time>
      </trkpt>
      <trkpt lat="43.06751" lon="5.82135">
        <ele>77.199996948242</ele>
        <time>2020-09-01T09:04:32.000Z</time>
      </trkpt>
      <trkpt lat="43.06729" lon="5.82103">
        <ele>77.400001525879</ele>
        <time>2020-09-01T09:04:37.000Z</time>
      </trkpt>
      <trkpt lat="43.06702" lon="5.82067">
        <ele>77</ele>
        <time>2020-09-01T09:04:43.000Z</time>
      </trkpt>
      <trkpt lat="43.06685" lon="5.82048">
        <ele>77</ele>
        <time>2020-09-01T09:04:47.000Z</time>
      </trkpt>
      <trkpt lat="43.06681" lon="5.82045">
        <ele>77</ele>
        <time>2020-09-01T09:04:48.000Z</time>
      </trkpt>
      <trkpt lat="43.0666" lon="5.82041">
        <ele>77.400001525879</ele>
        <time>2020-09-01T09:04:52.000Z</time>
      </trkpt>
      <trkpt lat="43.06644" lon="5.82042">
        <ele>77.400001525879</ele>
        <time>2020-09-01T09:04:55.000Z</time>
      </trkpt>
      <trkpt lat="43.06635" lon="5.82043">
        <ele>77.400001525879</ele>
        <time>2020-09-01T09:04:57.000Z</time>
      </trkpt>
      <trkpt lat="43.0663" lon="5.82027">
        <ele>77.400001525879</ele>
        <time>2020-09-01T09:05:00.000Z</time>
      </trkpt>
      <trkpt lat="43.06629" lon="5.82019">
        <ele>77.199996948242</ele>
        <time>2020-09-01T09:05:01.000Z</time>
      </trkpt>
      <trkpt lat="43.06626" lon="5.81993">
        <ele>76.400001525879</ele>
        <time>2020-09-01T09:05:04.000Z</time>
      </trkpt>
      <trkpt lat="43.06624" lon="5.81972">
        <ele>75.199996948242</ele>
        <time>2020-09-01T09:05:06.000Z</time>
      </trkpt>
      <trkpt lat="43.06621" lon="5.81951">
        <ele>73.800003051758</ele>
        <time>2020-09-01T09:05:08.000Z</time>
      </trkpt>
      <trkpt lat="43.06619" lon="5.81934">
        <ele>72.599998474121</ele>
        <time>2020-09-01T09:05:10.000Z</time>
      </trkpt>
      <trkpt lat="43.06616" lon="5.81927">
        <ele>72.199996948242</ele>
        <time>2020-09-01T09:05:11.000Z</time>
      </trkpt>
      <trkpt lat="43.06606" lon="5.81923">
        <ele>71.599998474121</ele>
        <time>2020-09-01T09:05:13.000Z</time>
      </trkpt>
      <trkpt lat="43.06595" lon="5.81923">
        <ele>71.400001525879</ele>
        <time>2020-09-01T09:05:15.000Z</time>
      </trkpt>
      <trkpt lat="43.06584" lon="5.81918">
        <ele>71.400001525879</ele>
        <time>2020-09-01T09:05:17.000Z</time>
      </trkpt>
      <trkpt lat="43.06579" lon="5.81911">
        <ele>71.400001525879</ele>
        <time>2020-09-01T09:05:18.000Z</time>
      </trkpt>
      <trkpt lat="43.06573" lon="5.81885">
        <ele>71</ele>
        <time>2020-09-01T09:05:21.000Z</time>
      </trkpt>
      <trkpt lat="43.0657" lon="5.81876">
        <ele>70.599998474121</ele>
        <time>2020-09-01T09:05:22.000Z</time>
      </trkpt>
      <trkpt lat="43.06564" lon="5.81846">
        <ele>69.199996948242</ele>
        <time>2020-09-01T09:05:25.000Z</time>
      </trkpt>
      <trkpt lat="43.06558" lon="5.81818">
        <ele>68</ele>
        <time>2020-09-01T09:05:28.000Z</time>
      </trkpt>
      <trkpt lat="43.06556" lon="5.81808">
        <ele>67.800003051758</ele>
        <time>2020-09-01T09:05:29.000Z</time>
      </trkpt>
      <trkpt lat="43.06548" lon="5.81773">
        <ele>67</ele>
        <time>2020-09-01T09:05:33.000Z</time>
      </trkpt>
      <trkpt lat="43.06545" lon="5.81757">
        <ele>66.800003051758</ele>
        <time>2020-09-01T09:05:35.000Z</time>
      </trkpt>
      <trkpt lat="43.0654" lon="5.81733">
        <ele>66.199996948242</ele>
        <time>2020-09-01T09:05:38.000Z</time>
      </trkpt>
      <trkpt lat="43.06537" lon="5.81717">
        <ele>66</ele>
        <time>2020-09-01T09:05:40.000Z</time>
      </trkpt>
      <trkpt lat="43.06535" lon="5.81708">
        <ele>65.800003051758</ele>
        <time>2020-09-01T09:05:41.000Z</time>
      </trkpt>
      <trkpt lat="43.0653" lon="5.81658">
        <ele>64.599998474121</ele>
        <time>2020-09-01T09:05:47.000Z</time>
      </trkpt>
      <trkpt lat="43.06524" lon="5.81614">
        <ele>64.199996948242</ele>
        <time>2020-09-01T09:05:53.000Z</time>
      </trkpt>
      <trkpt lat="43.06523" lon="5.81607">
        <ele>64.199996948242</ele>
        <time>2020-09-01T09:05:54.000Z</time>
      </trkpt>
      <trkpt lat="43.06521" lon="5.81578">
        <ele>63.599998474121</ele>
        <time>2020-09-01T09:05:58.000Z</time>
      </trkpt>
      <trkpt lat="43.06519" lon="5.81557">
        <ele>62.799999237061</ele>
        <time>2020-09-01T09:06:01.000Z</time>
      </trkpt>
      <trkpt lat="43.06518" lon="5.81542">
        <ele>62.799999237061</ele>
        <time>2020-09-01T09:06:03.000Z</time>
      </trkpt>
      <trkpt lat="43.06525" lon="5.81521">
        <ele>62.799999237061</ele>
        <time>2020-09-01T09:06:06.000Z</time>
      </trkpt>
      <trkpt lat="43.06528" lon="5.81514">
        <ele>62.599998474121</ele>
        <time>2020-09-01T09:06:07.000Z</time>
      </trkpt>
      <trkpt lat="43.0653" lon="5.81508">
        <ele>62.599998474121</ele>
        <time>2020-09-01T09:06:08.000Z</time>
      </trkpt>
      <trkpt lat="43.06544" lon="5.81478">
        <ele>62.599998474121</ele>
        <time>2020-09-01T09:06:13.000Z</time>
      </trkpt>
      <trkpt lat="43.06554" lon="5.81456">
        <ele>62.200000762939</ele>
        <time>2020-09-01T09:06:17.000Z</time>
      </trkpt>
      <trkpt lat="43.06553" lon="5.81449">
        <ele>61.400001525879</ele>
        <time>2020-09-01T09:06:19.000Z</time>
      </trkpt>
      <trkpt lat="43.06548" lon="5.81446">
        <ele>61</ele>
        <time>2020-09-01T09:06:22.000Z</time>
      </trkpt>
      <trkpt lat="43.06547" lon="5.81446">
        <ele>61.200000762939</ele>
        <time>2020-09-01T09:06:23.000Z</time>
      </trkpt>
      <trkpt lat="43.06546" lon="5.81446">
        <ele>61.400001525879</ele>
        <time>2020-09-01T09:06:24.000Z</time>
      </trkpt>
      <trkpt lat="43.06546" lon="5.81445">
        <ele>62</ele>
        <time>2020-09-01T09:06:26.000Z</time>
      </trkpt>
      <trkpt lat="43.0654" lon="5.81439">
        <ele>62.200000762939</ele>
        <time>2020-09-01T09:06:31.000Z</time>
      </trkpt>
      <trkpt lat="43.06535" lon="5.81435">
        <ele>62.400001525879</ele>
        <time>2020-09-01T09:06:33.000Z</time>
      </trkpt>
      <trkpt lat="43.0653" lon="5.8143">
        <ele>63.599998474121</ele>
        <time>2020-09-01T09:06:35.000Z</time>
      </trkpt>
      <trkpt lat="43.06517" lon="5.81419">
        <ele>64.800003051758</ele>
        <time>2020-09-01T09:06:39.000Z</time>
      </trkpt>
      <trkpt lat="43.06509" lon="5.81414">
        <ele>65.400001525879</ele>
        <time>2020-09-01T09:06:41.000Z</time>
      </trkpt>
      <trkpt lat="43.06502" lon="5.81406">
        <ele>66.199996948242</ele>
        <time>2020-09-01T09:06:43.000Z</time>
      </trkpt>
      <trkpt lat="43.06499" lon="5.81401">
        <ele>66.400001525879</ele>
        <time>2020-09-01T09:06:44.000Z</time>
      </trkpt>
      <trkpt lat="43.06491" lon="5.81387">
        <ele>67.400001525879</ele>
        <time>2020-09-01T09:06:47.000Z</time>
      </trkpt>
      <trkpt lat="43.06489" lon="5.81375">
        <ele>68</ele>
        <time>2020-09-01T09:06:49.000Z</time>
      </trkpt>
      <trkpt lat="43.06488" lon="5.81367">
        <ele>68.199996948242</ele>
        <time>2020-09-01T09:06:50.000Z</time>
      </trkpt>
      <trkpt lat="43.06488" lon="5.81361">
        <ele>68.199996948242</ele>
        <time>2020-09-01T09:06:51.000Z</time>
      </trkpt>
      <trkpt lat="43.06485" lon="5.81348">
        <ele>68.199996948242</ele>
        <time>2020-09-01T09:06:53.000Z</time>
      </trkpt>
      <trkpt lat="43.06484" lon="5.81341">
        <ele>68</ele>
        <time>2020-09-01T09:06:54.000Z</time>
      </trkpt>
      <trkpt lat="43.06485" lon="5.81316">
        <ele>68</ele>
        <time>2020-09-01T09:06:58.000Z</time>
      </trkpt>
      <trkpt lat="43.06494" lon="5.81287">
        <ele>68.199996948242</ele>
        <time>2020-09-01T09:07:02.000Z</time>
      </trkpt>
      <trkpt lat="43.06496" lon="5.81279">
        <ele>68</ele>
        <time>2020-09-01T09:07:03.000Z</time>
      </trkpt>
      <trkpt lat="43.06503" lon="5.81261">
        <ele>66.599998474121</ele>
        <time>2020-09-01T09:07:06.000Z</time>
      </trkpt>
      <trkpt lat="43.06504" lon="5.81254">
        <ele>65.599998474121</ele>
        <time>2020-09-01T09:07:07.000Z</time>
      </trkpt>
      <trkpt lat="43.06503" lon="5.81237">
        <ele>64.199996948242</ele>
        <time>2020-09-01T09:07:09.000Z</time>
      </trkpt>
      <trkpt lat="43.06502" lon="5.81229">
        <ele>63.599998474121</ele>
        <time>2020-09-01T09:07:10.000Z</time>
      </trkpt>
      <trkpt lat="43.06501" lon="5.8122">
        <ele>62.799999237061</ele>
        <time>2020-09-01T09:07:11.000Z</time>
      </trkpt>
      <trkpt lat="43.06501" lon="5.81203">
        <ele>61.400001525879</ele>
        <time>2020-09-01T09:07:13.000Z</time>
      </trkpt>
      <trkpt lat="43.065" lon="5.81194">
        <ele>61</ele>
        <time>2020-09-01T09:07:14.000Z</time>
      </trkpt>
      <trkpt lat="43.06501" lon="5.81172">
        <ele>60.599998474121</ele>
        <time>2020-09-01T09:07:17.000Z</time>
      </trkpt>
      <trkpt lat="43.065" lon="5.8117">
        <ele>60.400001525879</ele>
        <time>2020-09-01T09:07:18.000Z</time>
      </trkpt>
      <trkpt lat="43.06497" lon="5.81153">
        <ele>60</ele>
        <time>2020-09-01T09:07:22.000Z</time>
      </trkpt>
      <trkpt lat="43.065" lon="5.81146">
        <ele>59.799999237061</ele>
        <time>2020-09-01T09:07:24.000Z</time>
      </trkpt>
      <trkpt lat="43.06503" lon="5.81144">
        <ele>59.799999237061</ele>
        <time>2020-09-01T09:07:25.000Z</time>
      </trkpt>
      <trkpt lat="43.06507" lon="5.81137">
        <ele>60.200000762939</ele>
        <time>2020-09-01T09:07:29.000Z</time>
      </trkpt>
      <trkpt lat="43.06508" lon="5.81137">
        <ele>60.400001525879</ele>
        <time>2020-09-01T09:07:37.000Z</time>
      </trkpt>
      <trkpt lat="43.0651" lon="5.81132">
        <ele>60.400001525879</ele>
        <time>2020-09-01T09:07:43.000Z</time>
      </trkpt>
      <trkpt lat="43.06511" lon="5.81131">
        <ele>60.400001525879</ele>
        <time>2020-09-01T09:07:44.000Z</time>
      </trkpt>
      <trkpt lat="43.0652" lon="5.81135">
        <ele>60</ele>
        <time>2020-09-01T09:07:48.000Z</time>
      </trkpt>
      <trkpt lat="43.06529" lon="5.81134">
        <ele>59.400001525879</ele>
        <time>2020-09-01T09:07:51.000Z</time>
      </trkpt>
      <trkpt lat="43.06531" lon="5.81131">
        <ele>59.200000762939</ele>
        <time>2020-09-01T09:07:52.000Z</time>
      </trkpt>
      <trkpt lat="43.06535" lon="5.81118">
        <ele>59</ele>
        <time>2020-09-01T09:07:55.000Z</time>
      </trkpt>
      <trkpt lat="43.06538" lon="5.81116">
        <ele>59</ele>
        <time>2020-09-01T09:07:56.000Z</time>
      </trkpt>
      <trkpt lat="43.06549" lon="5.81104">
        <ele>58.799999237061</ele>
        <time>2020-09-01T09:08:00.000Z</time>
      </trkpt>
      <trkpt lat="43.06562" lon="5.81096">
        <ele>58.200000762939</ele>
        <time>2020-09-01T09:08:03.000Z</time>
      </trkpt>
      <trkpt lat="43.06567" lon="5.81092">
        <ele>57.200000762939</ele>
        <time>2020-09-01T09:08:05.000Z</time>
      </trkpt>
      <trkpt lat="43.06569" lon="5.81088">
        <ele>56.799999237061</ele>
        <time>2020-09-01T09:08:06.000Z</time>
      </trkpt>
      <trkpt lat="43.06574" lon="5.8108">
        <ele>55.200000762939</ele>
        <time>2020-09-01T09:08:08.000Z</time>
      </trkpt>
      <trkpt lat="43.06575" lon="5.81078">
        <ele>54.799999237061</ele>
        <time>2020-09-01T09:08:09.000Z</time>
      </trkpt>
      <trkpt lat="43.06577" lon="5.81076">
        <ele>53.799999237061</ele>
        <time>2020-09-01T09:08:11.000Z</time>
      </trkpt>
      <trkpt lat="43.06576" lon="5.81076">
        <ele>53.599998474121</ele>
        <time>2020-09-01T09:08:12.000Z</time>
      </trkpt>
      <trkpt lat="43.06576" lon="5.81076">
        <ele>53</ele>
        <time>2020-09-01T09:08:17.000Z</time>
      </trkpt>
      <trkpt lat="43.06576" lon="5.81076">
        <ele>52.799999237061</ele>
        <time>2020-09-01T09:08:18.000Z</time>
      </trkpt>
      <trkpt lat="43.06576" lon="5.81079">
        <ele>52.799999237061</ele>
        <time>2020-09-01T09:08:20.000Z</time>
      </trkpt>
      <trkpt lat="43.06576" lon="5.81079">
        <ele>52.799999237061</ele>
        <time>2020-09-01T09:08:23.000Z</time>
      </trkpt>
      <trkpt lat="43.06575" lon="5.81082">
        <ele>52.599998474121</ele>
        <time>2020-09-01T09:08:36.000Z</time>
      </trkpt>
      <trkpt lat="43.06575" lon="5.81085">
        <ele>52.599998474121</ele>
        <time>2020-09-01T09:08:52.000Z</time>
      </trkpt>
      <trkpt lat="43.06575" lon="5.81085">
        <ele>52.599998474121</ele>
        <time>2020-09-01T09:09:05.000Z</time>
      </trkpt>
      <trkpt lat="43.06575" lon="5.81083">
        <ele>52.400001525879</ele>
        <time>2020-09-01T09:09:12.000Z</time>
      </trkpt>
      <trkpt lat="43.06575" lon="5.81081">
        <ele>52.400001525879</ele>
        <time>2020-09-01T09:09:23.000Z</time>
      </trkpt>
      <trkpt lat="43.06576" lon="5.81079">
        <ele>52.200000762939</ele>
        <time>2020-09-01T09:09:35.000Z</time>
      </trkpt>
      <trkpt lat="43.06576" lon="5.81079">
        <ele>52.200000762939</ele>
        <time>2020-09-01T09:09:42.000Z</time>
      </trkpt>
      <trkpt lat="43.06577" lon="5.81078">
        <ele>52</ele>
        <time>2020-09-01T09:09:49.000Z</time>
      </trkpt>
      <trkpt lat="43.06577" lon="5.81078">
        <ele>51.799999237061</ele>
        <time>2020-09-01T09:09:51.000Z</time>
      </trkpt>
      <trkpt lat="43.06577" lon="5.81078">
        <ele>52.400001525879</ele>
        <time>2020-09-01T09:09:55.000Z</time>
      </trkpt>
      <trkpt lat="43.06576" lon="5.81079">
        <ele>52.200000762939</ele>
        <time>2020-09-01T09:10:05.000Z</time>
      </trkpt>
      <trkpt lat="43.06576" lon="5.81078">
        <ele>52.200000762939</ele>
        <time>2020-09-01T09:10:13.000Z</time>
      </trkpt>
      <trkpt lat="43.06576" lon="5.81077">
        <ele>52.599998474121</ele>
        <time>2020-09-01T09:10:23.000Z</time>
      </trkpt>
      <trkpt lat="43.06575" lon="5.81076">
        <ele>52.400001525879</ele>
        <time>2020-09-01T09:10:28.000Z</time>
      </trkpt>
      <trkpt lat="43.06575" lon="5.81076">
        <ele>52.799999237061</ele>
        <time>2020-09-01T09:10:33.000Z</time>
      </trkpt>
      <trkpt lat="43.06575" lon="5.81076">
        <ele>52.799999237061</ele>
        <time>2020-09-01T09:10:41.000Z</time>
      </trkpt>
      <trkpt lat="43.06574" lon="5.81076">
        <ele>52.200000762939</ele>
        <time>2020-09-01T09:10:49.000Z</time>
      </trkpt>
      <trkpt lat="43.06576" lon="5.81075">
        <ele>52.200000762939</ele>
        <time>2020-09-01T09:10:54.000Z</time>
      </trkpt>
      <trkpt lat="43.06587" lon="5.81075">
        <ele>52.200000762939</ele>
        <time>2020-09-01T09:10:58.000Z</time>
      </trkpt>
      <trkpt lat="43.066" lon="5.81067">
        <ele>51.799999237061</ele>
        <time>2020-09-01T09:11:01.000Z</time>
      </trkpt>
      <trkpt lat="43.06604" lon="5.81062">
        <ele>51.200000762939</ele>
        <time>2020-09-01T09:11:02.000Z</time>
      </trkpt>
      <trkpt lat="43.06608" lon="5.81056">
        <ele>50.799999237061</ele>
        <time>2020-09-01T09:11:03.000Z</time>
      </trkpt>
      <trkpt lat="43.06611" lon="5.81051">
        <ele>50.200000762939</ele>
        <time>2020-09-01T09:11:04.000Z</time>
      </trkpt>
      <trkpt lat="43.06618" lon="5.81039">
        <ele>49.400001525879</ele>
        <time>2020-09-01T09:11:06.000Z</time>
      </trkpt>
      <trkpt lat="43.06624" lon="5.81025">
        <ele>49.200000762939</ele>
        <time>2020-09-01T09:11:08.000Z</time>
      </trkpt>
      <trkpt lat="43.06627" lon="5.8102">
        <ele>49.200000762939</ele>
        <time>2020-09-01T09:11:09.000Z</time>
      </trkpt>
      <trkpt lat="43.06637" lon="5.81002">
        <ele>48.799999237061</ele>
        <time>2020-09-01T09:11:12.000Z</time>
      </trkpt>
      <trkpt lat="43.06647" lon="5.80998">
        <ele>48.599998474121</ele>
        <time>2020-09-01T09:11:14.000Z</time>
      </trkpt>
      <trkpt lat="43.06651" lon="5.80994">
        <ele>48.400001525879</ele>
        <time>2020-09-01T09:11:15.000Z</time>
      </trkpt>
      <trkpt lat="43.06666" lon="5.80982">
        <ele>47.599998474121</ele>
        <time>2020-09-01T09:11:18.000Z</time>
      </trkpt>
      <trkpt lat="43.06676" lon="5.80976">
        <ele>47</ele>
        <time>2020-09-01T09:11:20.000Z</time>
      </trkpt>
      <trkpt lat="43.06685" lon="5.8097">
        <ele>46.599998474121</ele>
        <time>2020-09-01T09:11:22.000Z</time>
      </trkpt>
      <trkpt lat="43.0669" lon="5.80965">
        <ele>46.599998474121</ele>
        <time>2020-09-01T09:11:23.000Z</time>
      </trkpt>
      <trkpt lat="43.06707" lon="5.80949">
        <ele>46</ele>
        <time>2020-09-01T09:11:27.000Z</time>
      </trkpt>
      <trkpt lat="43.06711" lon="5.80942">
        <ele>45.799999237061</ele>
        <time>2020-09-01T09:11:29.000Z</time>
      </trkpt>
      <trkpt lat="43.06716" lon="5.80926">
        <ele>45.400001525879</ele>
        <time>2020-09-01T09:11:31.000Z</time>
      </trkpt>
      <trkpt lat="43.0672" lon="5.80914">
        <ele>45</ele>
        <time>2020-09-01T09:11:33.000Z</time>
      </trkpt>
      <trkpt lat="43.0673" lon="5.8089">
        <ele>45.200000762939</ele>
        <time>2020-09-01T09:11:37.000Z</time>
      </trkpt>
      <trkpt lat="43.06739" lon="5.80867">
        <ele>45.599998474121</ele>
        <time>2020-09-01T09:11:41.000Z</time>
      </trkpt>
      <trkpt lat="43.06741" lon="5.80862">
        <ele>45.400001525879</ele>
        <time>2020-09-01T09:11:42.000Z</time>
      </trkpt>
      <trkpt lat="43.06749" lon="5.80844">
        <ele>45.400001525879</ele>
        <time>2020-09-01T09:11:45.000Z</time>
      </trkpt>
      <trkpt lat="43.06753" lon="5.8084">
        <ele>45.400001525879</ele>
        <time>2020-09-01T09:11:46.000Z</time>
      </trkpt>
      <trkpt lat="43.06758" lon="5.8083">
        <ele>45.200000762939</ele>
        <time>2020-09-01T09:11:48.000Z</time>
      </trkpt>
      <trkpt lat="43.06761" lon="5.8082">
        <ele>45.200000762939</ele>
        <time>2020-09-01T09:11:50.000Z</time>
      </trkpt>
      <trkpt lat="43.06768" lon="5.80811">
        <ele>45.799999237061</ele>
        <time>2020-09-01T09:11:53.000Z</time>
      </trkpt>
      <trkpt lat="43.06775" lon="5.80807">
        <ele>46.200000762939</ele>
        <time>2020-09-01T09:11:55.000Z</time>
      </trkpt>
      <trkpt lat="43.06782" lon="5.80802">
        <ele>46.400001525879</ele>
        <time>2020-09-01T09:11:57.000Z</time>
      </trkpt>
      <trkpt lat="43.06785" lon="5.808">
        <ele>46.799999237061</ele>
        <time>2020-09-01T09:11:58.000Z</time>
      </trkpt>
      <trkpt lat="43.06792" lon="5.80798">
        <ele>47</ele>
        <time>2020-09-01T09:12:01.000Z</time>
      </trkpt>
      <trkpt lat="43.06794" lon="5.80799">
        <ele>47</ele>
        <time>2020-09-01T09:12:02.000Z</time>
      </trkpt>
      <trkpt lat="43.06799" lon="5.80791">
        <ele>47.200000762939</ele>
        <time>2020-09-01T09:12:05.000Z</time>
      </trkpt>
      <trkpt lat="43.06796" lon="5.80781">
        <ele>47.400001525879</ele>
        <time>2020-09-01T09:12:07.000Z</time>
      </trkpt>
      <trkpt lat="43.06794" lon="5.80776">
        <ele>47.400001525879</ele>
        <time>2020-09-01T09:12:08.000Z</time>
      </trkpt>
      <trkpt lat="43.06793" lon="5.80771">
        <ele>47.599998474121</ele>
        <time>2020-09-01T09:12:09.000Z</time>
      </trkpt>
      <trkpt lat="43.06792" lon="5.80765">
        <ele>47.799999237061</ele>
        <time>2020-09-01T09:12:10.000Z</time>
      </trkpt>
      <trkpt lat="43.06792" lon="5.80753">
        <ele>48.599998474121</ele>
        <time>2020-09-01T09:12:12.000Z</time>
      </trkpt>
      <trkpt lat="43.06792" lon="5.80747">
        <ele>49</ele>
        <time>2020-09-01T09:12:13.000Z</time>
      </trkpt>
      <trkpt lat="43.06792" lon="5.80742">
        <ele>49.400001525879</ele>
        <time>2020-09-01T09:12:14.000Z</time>
      </trkpt>
      <trkpt lat="43.06793" lon="5.80732">
        <ele>49.599998474121</ele>
        <time>2020-09-01T09:12:16.000Z</time>
      </trkpt>
      <trkpt lat="43.06797" lon="5.80718">
        <ele>50</ele>
        <time>2020-09-01T09:12:19.000Z</time>
      </trkpt>
      <trkpt lat="43.06804" lon="5.80703">
        <ele>50.599998474121</ele>
        <time>2020-09-01T09:12:23.000Z</time>
      </trkpt>
      <trkpt lat="43.06807" lon="5.80695">
        <ele>51</ele>
        <time>2020-09-01T09:12:25.000Z</time>
      </trkpt>
      <trkpt lat="43.0681" lon="5.80687">
        <ele>51.599998474121</ele>
        <time>2020-09-01T09:12:27.000Z</time>
      </trkpt>
      <trkpt lat="43.06811" lon="5.80683">
        <ele>51.799999237061</ele>
        <time>2020-09-01T09:12:28.000Z</time>
      </trkpt>
      <trkpt lat="43.06812" lon="5.80679">
        <ele>52.200000762939</ele>
        <time>2020-09-01T09:12:29.000Z</time>
      </trkpt>
      <trkpt lat="43.06814" lon="5.8067">
        <ele>53</ele>
        <time>2020-09-01T09:12:31.000Z</time>
      </trkpt>
      <trkpt lat="43.06821" lon="5.80647">
        <ele>54</ele>
        <time>2020-09-01T09:12:36.000Z</time>
      </trkpt>
      <trkpt lat="43.06826" lon="5.80624">
        <ele>55.200000762939</ele>
        <time>2020-09-01T09:12:41.000Z</time>
      </trkpt>
      <trkpt lat="43.06829" lon="5.80604">
        <ele>56.599998474121</ele>
        <time>2020-09-01T09:12:45.000Z</time>
      </trkpt>
      <trkpt lat="43.06834" lon="5.80591">
        <ele>57.799999237061</ele>
        <time>2020-09-01T09:12:48.000Z</time>
      </trkpt>
      <trkpt lat="43.06845" lon="5.80573">
        <ele>58.799999237061</ele>
        <time>2020-09-01T09:12:53.000Z</time>
      </trkpt>
      <trkpt lat="43.06847" lon="5.8057">
        <ele>59</ele>
        <time>2020-09-01T09:12:54.000Z</time>
      </trkpt>
      <trkpt lat="43.06854" lon="5.80559">
        <ele>59.200000762939</ele>
        <time>2020-09-01T09:12:56.000Z</time>
      </trkpt>
      <trkpt lat="43.0686" lon="5.80548">
        <ele>59.400001525879</ele>
        <time>2020-09-01T09:12:58.000Z</time>
      </trkpt>
      <trkpt lat="43.06864" lon="5.80542">
        <ele>59.200000762939</ele>
        <time>2020-09-01T09:12:59.000Z</time>
      </trkpt>
      <trkpt lat="43.06878" lon="5.80527">
        <ele>58.400001525879</ele>
        <time>2020-09-01T09:13:02.000Z</time>
      </trkpt>
      <trkpt lat="43.06886" lon="5.80515">
        <ele>57.400001525879</ele>
        <time>2020-09-01T09:13:04.000Z</time>
      </trkpt>
      <trkpt lat="43.0689" lon="5.80508">
        <ele>57</ele>
        <time>2020-09-01T09:13:05.000Z</time>
      </trkpt>
      <trkpt lat="43.06893" lon="5.80498">
        <ele>56.599998474121</ele>
        <time>2020-09-01T09:13:06.000Z</time>
      </trkpt>
      <trkpt lat="43.06895" lon="5.8049">
        <ele>56.200000762939</ele>
        <time>2020-09-01T09:13:07.000Z</time>
      </trkpt>
      <trkpt lat="43.069" lon="5.80476">
        <ele>55.400001525879</ele>
        <time>2020-09-01T09:13:09.000Z</time>
      </trkpt>
      <trkpt lat="43.06907" lon="5.80464">
        <ele>55.400001525879</ele>
        <time>2020-09-01T09:13:11.000Z</time>
      </trkpt>
      <trkpt lat="43.06918" lon="5.80441">
        <ele>55.400001525879</ele>
        <time>2020-09-01T09:13:15.000Z</time>
      </trkpt>
      <trkpt lat="43.06919" lon="5.80422">
        <ele>55.400001525879</ele>
        <time>2020-09-01T09:13:17.000Z</time>
      </trkpt>
      <trkpt lat="43.06918" lon="5.80412">
        <ele>55</ele>
        <time>2020-09-01T09:13:18.000Z</time>
      </trkpt>
      <trkpt lat="43.06922" lon="5.8039">
        <ele>53.599998474121</ele>
        <time>2020-09-01T09:13:20.000Z</time>
      </trkpt>
      <trkpt lat="43.06927" lon="5.80381">
        <ele>52.400001525879</ele>
        <time>2020-09-01T09:13:21.000Z</time>
      </trkpt>
      <trkpt lat="43.06933" lon="5.80373">
        <ele>51.400001525879</ele>
        <time>2020-09-01T09:13:22.000Z</time>
      </trkpt>
      <trkpt lat="43.06938" lon="5.80365">
        <ele>50.200000762939</ele>
        <time>2020-09-01T09:13:23.000Z</time>
      </trkpt>
      <trkpt lat="43.06943" lon="5.80357">
        <ele>49.400001525879</ele>
        <time>2020-09-01T09:13:24.000Z</time>
      </trkpt>
      <trkpt lat="43.06947" lon="5.80348">
        <ele>48.799999237061</ele>
        <time>2020-09-01T09:13:25.000Z</time>
      </trkpt>
      <trkpt lat="43.06956" lon="5.80321">
        <ele>48</ele>
        <time>2020-09-01T09:13:28.000Z</time>
      </trkpt>
      <trkpt lat="43.06969" lon="5.80268">
        <ele>47.599998474121</ele>
        <time>2020-09-01T09:13:34.000Z</time>
      </trkpt>
      <trkpt lat="43.06978" lon="5.80241">
        <ele>46.400001525879</ele>
        <time>2020-09-01T09:13:37.000Z</time>
      </trkpt>
      <trkpt lat="43.06985" lon="5.80213">
        <ele>45.599998474121</ele>
        <time>2020-09-01T09:13:40.000Z</time>
      </trkpt>
      <trkpt lat="43.06988" lon="5.80204">
        <ele>45.400001525879</ele>
        <time>2020-09-01T09:13:41.000Z</time>
      </trkpt>
      <trkpt lat="43.06996" lon="5.80178">
        <ele>44.200000762939</ele>
        <time>2020-09-01T09:13:44.000Z</time>
      </trkpt>
      <trkpt lat="43.07001" lon="5.80161">
        <ele>43.400001525879</ele>
        <time>2020-09-01T09:13:46.000Z</time>
      </trkpt>
      <trkpt lat="43.07003" lon="5.80151">
        <ele>43</ele>
        <time>2020-09-01T09:13:47.000Z</time>
      </trkpt>
      <trkpt lat="43.07004" lon="5.80142">
        <ele>43</ele>
        <time>2020-09-01T09:13:48.000Z</time>
      </trkpt>
      <trkpt lat="43.07009" lon="5.80113">
        <ele>42.400001525879</ele>
        <time>2020-09-01T09:13:51.000Z</time>
      </trkpt>
      <trkpt lat="43.07011" lon="5.80088">
        <ele>42</ele>
        <time>2020-09-01T09:13:54.000Z</time>
      </trkpt>
      <trkpt lat="43.07012" lon="5.80069">
        <ele>41.400001525879</ele>
        <time>2020-09-01T09:13:56.000Z</time>
      </trkpt>
      <trkpt lat="43.07014" lon="5.80059">
        <ele>41.200000762939</ele>
        <time>2020-09-01T09:13:57.000Z</time>
      </trkpt>
      <trkpt lat="43.07017" lon="5.8005">
        <ele>40.799999237061</ele>
        <time>2020-09-01T09:13:58.000Z</time>
      </trkpt>
      <trkpt lat="43.07021" lon="5.80042">
        <ele>40.200000762939</ele>
        <time>2020-09-01T09:13:59.000Z</time>
      </trkpt>
      <trkpt lat="43.07025" lon="5.80035">
        <ele>39.400001525879</ele>
        <time>2020-09-01T09:14:00.000Z</time>
      </trkpt>
      <trkpt lat="43.07038" lon="5.80032">
        <ele>38</ele>
        <time>2020-09-01T09:14:02.000Z</time>
      </trkpt>
      <trkpt lat="43.07054" lon="5.8003">
        <ele>36.799999237061</ele>
        <time>2020-09-01T09:14:04.000Z</time>
      </trkpt>
      <trkpt lat="43.07064" lon="5.80029">
        <ele>36.200000762939</ele>
        <time>2020-09-01T09:14:05.000Z</time>
      </trkpt>
      <trkpt lat="43.07072" lon="5.80029">
        <ele>35.200000762939</ele>
        <time>2020-09-01T09:14:06.000Z</time>
      </trkpt>
      <trkpt lat="43.07082" lon="5.8003">
        <ele>34.400001525879</ele>
        <time>2020-09-01T09:14:07.000Z</time>
      </trkpt>
      <trkpt lat="43.0709" lon="5.80032">
        <ele>33.400001525879</ele>
        <time>2020-09-01T09:14:08.000Z</time>
      </trkpt>
      <trkpt lat="43.07093" lon="5.80033">
        <ele>32.599998474121</ele>
        <time>2020-09-01T09:14:09.000Z</time>
      </trkpt>
      <trkpt lat="43.07097" lon="5.80034">
        <ele>31.799999237061</ele>
        <time>2020-09-01T09:14:10.000Z</time>
      </trkpt>
      <trkpt lat="43.07116" lon="5.80037">
        <ele>30.200000762939</ele>
        <time>2020-09-01T09:14:13.000Z</time>
      </trkpt>
      <trkpt lat="43.07123" lon="5.80036">
        <ele>29.60000038147</ele>
        <time>2020-09-01T09:14:14.000Z</time>
      </trkpt>
      <trkpt lat="43.0713" lon="5.80036">
        <ele>28.799999237061</ele>
        <time>2020-09-01T09:14:15.000Z</time>
      </trkpt>
      <trkpt lat="43.07146" lon="5.80032">
        <ele>27.200000762939</ele>
        <time>2020-09-01T09:14:17.000Z</time>
      </trkpt>
      <trkpt lat="43.07154" lon="5.80028">
        <ele>26.200000762939</ele>
        <time>2020-09-01T09:14:18.000Z</time>
      </trkpt>
      <trkpt lat="43.07161" lon="5.80025">
        <ele>25</ele>
        <time>2020-09-01T09:14:19.000Z</time>
      </trkpt>
      <trkpt lat="43.07171" lon="5.80023">
        <ele>24</ele>
        <time>2020-09-01T09:14:20.000Z</time>
      </trkpt>
      <trkpt lat="43.07179" lon="5.80021">
        <ele>23.200000762939</ele>
        <time>2020-09-01T09:14:21.000Z</time>
      </trkpt>
      <trkpt lat="43.07187" lon="5.80016">
        <ele>22.60000038147</ele>
        <time>2020-09-01T09:14:22.000Z</time>
      </trkpt>
      <trkpt lat="43.07195" lon="5.8001">
        <ele>21.799999237061</ele>
        <time>2020-09-01T09:14:23.000Z</time>
      </trkpt>
      <trkpt lat="43.07212" lon="5.80002">
        <ele>20.60000038147</ele>
        <time>2020-09-01T09:14:25.000Z</time>
      </trkpt>
      <trkpt lat="43.07229" lon="5.79995">
        <ele>19.39999961853</ele>
        <time>2020-09-01T09:14:27.000Z</time>
      </trkpt>
      <trkpt lat="43.07238" lon="5.79993">
        <ele>19</ele>
        <time>2020-09-01T09:14:28.000Z</time>
      </trkpt>
      <trkpt lat="43.07271" lon="5.79983">
        <ele>18.200000762939</ele>
        <time>2020-09-01T09:14:32.000Z</time>
      </trkpt>
      <trkpt lat="43.07279" lon="5.7998">
        <ele>18</ele>
        <time>2020-09-01T09:14:33.000Z</time>
      </trkpt>
      <trkpt lat="43.07307" lon="5.79964">
        <ele>18</ele>
        <time>2020-09-01T09:14:38.000Z</time>
      </trkpt>
      <trkpt lat="43.07309" lon="5.79954">
        <ele>17</ele>
        <time>2020-09-01T09:14:41.000Z</time>
      </trkpt>
      <trkpt lat="43.07299" lon="5.7994">
        <ele>16.799999237061</ele>
        <time>2020-09-01T09:14:45.000Z</time>
      </trkpt>
      <trkpt lat="43.07288" lon="5.79921">
        <ele>18.200000762939</ele>
        <time>2020-09-01T09:14:50.000Z</time>
      </trkpt>
      <trkpt lat="43.07281" lon="5.7991">
        <ele>19</ele>
        <time>2020-09-01T09:14:53.000Z</time>
      </trkpt>
      <trkpt lat="43.07279" lon="5.79906">
        <ele>19.39999961853</ele>
        <time>2020-09-01T09:14:54.000Z</time>
      </trkpt>
      <trkpt lat="43.07271" lon="5.79894">
        <ele>20.60000038147</ele>
        <time>2020-09-01T09:14:57.000Z</time>
      </trkpt>
      <trkpt lat="43.07267" lon="5.79886">
        <ele>21</ele>
        <time>2020-09-01T09:14:59.000Z</time>
      </trkpt>
      <trkpt lat="43.07259" lon="5.79873">
        <ele>21.60000038147</ele>
        <time>2020-09-01T09:15:02.000Z</time>
      </trkpt>
      <trkpt lat="43.0725" lon="5.79859">
        <ele>22.799999237061</ele>
        <time>2020-09-01T09:15:06.000Z</time>
      </trkpt>
      <trkpt lat="43.07248" lon="5.79855">
        <ele>23.200000762939</ele>
        <time>2020-09-01T09:15:07.000Z</time>
      </trkpt>
      <trkpt lat="43.07242" lon="5.79847">
        <ele>23.799999237061</ele>
        <time>2020-09-01T09:15:09.000Z</time>
      </trkpt>
      <trkpt lat="43.07231" lon="5.79834">
        <ele>24.200000762939</ele>
        <time>2020-09-01T09:15:12.000Z</time>
      </trkpt>
      <trkpt lat="43.07227" lon="5.7983">
        <ele>24.200000762939</ele>
        <time>2020-09-01T09:15:13.000Z</time>
      </trkpt>
      <trkpt lat="43.07205" lon="5.79821">
        <ele>23.60000038147</ele>
        <time>2020-09-01T09:15:17.000Z</time>
      </trkpt>
      <trkpt lat="43.07184" lon="5.79809">
        <ele>23.200000762939</ele>
        <time>2020-09-01T09:15:21.000Z</time>
      </trkpt>
      <trkpt lat="43.07175" lon="5.79798">
        <ele>23</ele>
        <time>2020-09-01T09:15:23.000Z</time>
      </trkpt>
      <trkpt lat="43.07172" lon="5.79792">
        <ele>22.799999237061</ele>
        <time>2020-09-01T09:15:24.000Z</time>
      </trkpt>
      <trkpt lat="43.07168" lon="5.79785">
        <ele>22.39999961853</ele>
        <time>2020-09-01T09:15:25.000Z</time>
      </trkpt>
      <trkpt lat="43.07157" lon="5.79763">
        <ele>21.60000038147</ele>
        <time>2020-09-01T09:15:28.000Z</time>
      </trkpt>
      <trkpt lat="43.07151" lon="5.79744">
        <ele>20.60000038147</ele>
        <time>2020-09-01T09:15:30.000Z</time>
      </trkpt>
      <trkpt lat="43.07148" lon="5.79734">
        <ele>20</ele>
        <time>2020-09-01T09:15:31.000Z</time>
      </trkpt>
      <trkpt lat="43.07146" lon="5.79723">
        <ele>19.39999961853</ele>
        <time>2020-09-01T09:15:32.000Z</time>
      </trkpt>
      <trkpt lat="43.07146" lon="5.79711">
        <ele>18.799999237061</ele>
        <time>2020-09-01T09:15:33.000Z</time>
      </trkpt>
      <trkpt lat="43.07145" lon="5.79702">
        <ele>18.39999961853</ele>
        <time>2020-09-01T09:15:34.000Z</time>
      </trkpt>
      <trkpt lat="43.07143" lon="5.79679">
        <ele>17.39999961853</ele>
        <time>2020-09-01T09:15:36.000Z</time>
      </trkpt>
      <trkpt lat="43.07142" lon="5.79669">
        <ele>17</ele>
        <time>2020-09-01T09:15:37.000Z</time>
      </trkpt>
      <trkpt lat="43.07137" lon="5.7966">
        <ele>16.60000038147</ele>
        <time>2020-09-01T09:15:38.000Z</time>
      </trkpt>
      <trkpt lat="43.07132" lon="5.79653">
        <ele>16</ele>
        <time>2020-09-01T09:15:39.000Z</time>
      </trkpt>
      <trkpt lat="43.07126" lon="5.79646">
        <ele>15.800000190735</ele>
        <time>2020-09-01T09:15:40.000Z</time>
      </trkpt>
      <trkpt lat="43.07114" lon="5.79633">
        <ele>14.60000038147</ele>
        <time>2020-09-01T09:15:42.000Z</time>
      </trkpt>
      <trkpt lat="43.07096" lon="5.79612">
        <ele>13.39999961853</ele>
        <time>2020-09-01T09:15:45.000Z</time>
      </trkpt>
      <trkpt lat="43.0709" lon="5.79606">
        <ele>13</ele>
        <time>2020-09-01T09:15:46.000Z</time>
      </trkpt>
      <trkpt lat="43.07074" lon="5.79585">
        <ele>12</ele>
        <time>2020-09-01T09:15:49.000Z</time>
      </trkpt>
      <trkpt lat="43.07054" lon="5.79558">
        <ele>11.199999809265</ele>
        <time>2020-09-01T09:15:53.000Z</time>
      </trkpt>
      <trkpt lat="43.07044" lon="5.79544">
        <ele>11</ele>
        <time>2020-09-01T09:15:55.000Z</time>
      </trkpt>
      <trkpt lat="43.07026" lon="5.79518">
        <ele>10.199999809265</ele>
        <time>2020-09-01T09:15:59.000Z</time>
      </trkpt>
      <trkpt lat="43.07028" lon="5.79509">
        <ele>9.8000001907349</ele>
        <time>2020-09-01T09:16:00.000Z</time>
      </trkpt>
      <trkpt lat="43.07029" lon="5.79501">
        <ele>9.8000001907349</ele>
        <time>2020-09-01T09:16:01.000Z</time>
      </trkpt>
      <trkpt lat="43.07033" lon="5.79484">
        <ele>9.1999998092651</ele>
        <time>2020-09-01T09:16:03.000Z</time>
      </trkpt>
      <trkpt lat="43.07037" lon="5.79467">
        <ele>8.8000001907349</ele>
        <time>2020-09-01T09:16:05.000Z</time>
      </trkpt>
      <trkpt lat="43.0704" lon="5.79454">
        <ele>8.1999998092651</ele>
        <time>2020-09-01T09:16:07.000Z</time>
      </trkpt>
      <trkpt lat="43.0704" lon="5.79447">
        <ele>7.8000001907349</ele>
        <time>2020-09-01T09:16:10.000Z</time>
      </trkpt>
      <trkpt lat="43.0703" lon="5.79436">
        <ele>7.8000001907349</ele>
        <time>2020-09-01T09:16:13.000Z</time>
      </trkpt>
      <trkpt lat="43.07026" lon="5.79432">
        <ele>7.8000001907349</ele>
        <time>2020-09-01T09:16:14.000Z</time>
      </trkpt>
      <trkpt lat="43.07021" lon="5.79428">
        <ele>7.8000001907349</ele>
        <time>2020-09-01T09:16:15.000Z</time>
      </trkpt>
      <trkpt lat="43.07006" lon="5.79417">
        <ele>7.4000000953674</ele>
        <time>2020-09-01T09:16:18.000Z</time>
      </trkpt>
      <trkpt lat="43.06968" lon="5.79387">
        <ele>7.8000001907349</ele>
        <time>2020-09-01T09:16:26.000Z</time>
      </trkpt>
      <trkpt lat="43.06947" lon="5.7937">
        <ele>8</ele>
        <time>2020-09-01T09:16:31.000Z</time>
      </trkpt>
      <trkpt lat="43.0694" lon="5.79361">
        <ele>8.1999998092651</ele>
        <time>2020-09-01T09:16:33.000Z</time>
      </trkpt>
      <trkpt lat="43.06938" lon="5.79359">
        <ele>8.1999998092651</ele>
        <time>2020-09-01T09:16:34.000Z</time>
      </trkpt>
      <trkpt lat="43.06923" lon="5.79358">
        <ele>8.1999998092651</ele>
        <time>2020-09-01T09:16:37.000Z</time>
      </trkpt>
      <trkpt lat="43.0691" lon="5.79364">
        <ele>8.1999998092651</ele>
        <time>2020-09-01T09:16:40.000Z</time>
      </trkpt>
      <trkpt lat="43.06901" lon="5.79367">
        <ele>8.1999998092651</ele>
        <time>2020-09-01T09:16:42.000Z</time>
      </trkpt>
      <trkpt lat="43.06888" lon="5.79369">
        <ele>8.8000001907349</ele>
        <time>2020-09-01T09:16:45.000Z</time>
      </trkpt>
      <trkpt lat="43.06876" lon="5.79371">
        <ele>9</ele>
        <time>2020-09-01T09:16:48.000Z</time>
      </trkpt>
      <trkpt lat="43.06872" lon="5.79369">
        <ele>9</ele>
        <time>2020-09-01T09:16:49.000Z</time>
      </trkpt>
      <trkpt lat="43.06862" lon="5.79359">
        <ele>9.6000003814697</ele>
        <time>2020-09-01T09:16:52.000Z</time>
      </trkpt>
      <trkpt lat="43.06858" lon="5.79357">
        <ele>9.6000003814697</ele>
        <time>2020-09-01T09:16:53.000Z</time>
      </trkpt>
      <trkpt lat="43.06855" lon="5.79356">
        <ele>9.8000001907349</ele>
        <time>2020-09-01T09:16:54.000Z</time>
      </trkpt>
      <trkpt lat="43.06845" lon="5.79352">
        <ele>10.800000190735</ele>
        <time>2020-09-01T09:16:57.000Z</time>
      </trkpt>
      <trkpt lat="43.06844" lon="5.7935">
        <ele>11.199999809265</ele>
        <time>2020-09-01T09:16:58.000Z</time>
      </trkpt>
      <trkpt lat="43.06838" lon="5.79336">
        <ele>12.199999809265</ele>
        <time>2020-09-01T09:17:01.000Z</time>
      </trkpt>
      <trkpt lat="43.06839" lon="5.79322">
        <ele>12.800000190735</ele>
        <time>2020-09-01T09:17:06.000Z</time>
      </trkpt>
      <trkpt lat="43.06838" lon="5.79322">
        <ele>12.800000190735</ele>
        <time>2020-09-01T09:17:10.000Z</time>
      </trkpt>
      <trkpt lat="43.06838" lon="5.79322">
        <ele>13.199999809265</ele>
        <time>2020-09-01T09:17:13.000Z</time>
      </trkpt>
      <trkpt lat="43.06839" lon="5.79322">
        <ele>13.60000038147</ele>
        <time>2020-09-01T09:17:17.000Z</time>
      </trkpt>
      <trkpt lat="43.06838" lon="5.79322">
        <ele>13.39999961853</ele>
        <time>2020-09-01T09:17:24.000Z</time>
      </trkpt>
      <trkpt lat="43.06839" lon="5.79322">
        <ele>13.39999961853</ele>
        <time>2020-09-01T09:17:32.000Z</time>
      </trkpt>
      <trkpt lat="43.06838" lon="5.79322">
        <ele>13.39999961853</ele>
        <time>2020-09-01T09:17:39.000Z</time>
      </trkpt>
      <trkpt lat="43.06838" lon="5.79322">
        <ele>14.39999961853</ele>
        <time>2020-09-01T09:17:50.000Z</time>
      </trkpt>
      <trkpt lat="43.06838" lon="5.79322">
        <ele>14.39999961853</ele>
        <time>2020-09-01T09:17:52.000Z</time>
      </trkpt>
      <trkpt lat="43.06839" lon="5.79324">
        <ele>14.199999809265</ele>
        <time>2020-09-01T09:18:00.000Z</time>
      </trkpt>
      <trkpt lat="43.06838" lon="5.79333">
        <ele>13.800000190735</ele>
        <time>2020-09-01T09:18:07.000Z</time>
      </trkpt>
      <trkpt lat="43.06838" lon="5.79334">
        <ele>13.60000038147</ele>
        <time>2020-09-01T09:18:08.000Z</time>
      </trkpt>
      <trkpt lat="43.06837" lon="5.79342">
        <ele>13.800000190735</ele>
        <time>2020-09-01T09:18:14.000Z</time>
      </trkpt>
      <trkpt lat="43.06837" lon="5.79343">
        <ele>14</ele>
        <time>2020-09-01T09:18:16.000Z</time>
      </trkpt>
      <trkpt lat="43.06837" lon="5.79345">
        <ele>14</ele>
        <time>2020-09-01T09:18:17.000Z</time>
      </trkpt>
      <trkpt lat="43.06837" lon="5.79349">
        <ele>14.199999809265</ele>
        <time>2020-09-01T09:18:22.000Z</time>
      </trkpt>
      <trkpt lat="43.06837" lon="5.79349">
        <ele>14</ele>
        <time>2020-09-01T09:18:31.000Z</time>
      </trkpt>
      <trkpt lat="43.06837" lon="5.79349">
        <ele>14.199999809265</ele>
        <time>2020-09-01T09:18:44.000Z</time>
      </trkpt>
      <trkpt lat="43.06836" lon="5.79349">
        <ele>13.800000190735</ele>
        <time>2020-09-01T09:18:55.000Z</time>
      </trkpt>
      <trkpt lat="43.06836" lon="5.79349">
        <ele>14</ele>
        <time>2020-09-01T09:19:02.000Z</time>
      </trkpt>
      <trkpt lat="43.06838" lon="5.79344">
        <ele>13.800000190735</ele>
        <time>2020-09-01T09:19:09.000Z</time>
      </trkpt>
      <trkpt lat="43.06839" lon="5.79339">
        <ele>14.199999809265</ele>
        <time>2020-09-01T09:19:13.000Z</time>
      </trkpt>
      <trkpt lat="43.06838" lon="5.79335">
        <ele>14</ele>
        <time>2020-09-01T09:19:16.000Z</time>
      </trkpt>
      <trkpt lat="43.06838" lon="5.79327">
        <ele>13.39999961853</ele>
        <time>2020-09-01T09:19:22.000Z</time>
      </trkpt>
      <trkpt lat="43.06838" lon="5.79326">
        <ele>13.199999809265</ele>
        <time>2020-09-01T09:19:23.000Z</time>
      </trkpt>
      <trkpt lat="43.06838" lon="5.79325">
        <ele>13.800000190735</ele>
        <time>2020-09-01T09:19:29.000Z</time>
      </trkpt>
      <trkpt lat="43.06838" lon="5.79325">
        <ele>14</ele>
        <time>2020-09-01T09:19:35.000Z</time>
      </trkpt>
      <trkpt lat="43.06838" lon="5.79324">
        <ele>13.800000190735</ele>
        <time>2020-09-01T09:19:47.000Z</time>
      </trkpt>
      <trkpt lat="43.06838" lon="5.79323">
        <ele>13.39999961853</ele>
        <time>2020-09-01T09:19:53.000Z</time>
      </trkpt>
      <trkpt lat="43.06839" lon="5.79323">
        <ele>14</ele>
        <time>2020-09-01T09:20:03.000Z</time>
      </trkpt>
      <trkpt lat="43.06839" lon="5.79323">
        <ele>14</ele>
        <time>2020-09-01T09:20:14.000Z</time>
      </trkpt>
      <trkpt lat="43.06839" lon="5.79323">
        <ele>13.60000038147</ele>
        <time>2020-09-01T09:20:34.000Z</time>
      </trkpt>
      <trkpt lat="43.06839" lon="5.79323">
        <ele>13.800000190735</ele>
        <time>2020-09-01T09:20:40.000Z</time>
      </trkpt>
      <trkpt lat="43.06841" lon="5.79324">
        <ele>14</ele>
        <time>2020-09-01T09:20:41.000Z</time>
      </trkpt>
      <trkpt lat="43.06841" lon="5.79332">
        <ele>14</ele>
        <time>2020-09-01T09:20:44.000Z</time>
      </trkpt>
      <trkpt lat="43.0684" lon="5.79338">
        <ele>13.800000190735</ele>
        <time>2020-09-01T09:20:46.000Z</time>
      </trkpt>
      <trkpt lat="43.06843" lon="5.79351">
        <ele>13.60000038147</ele>
        <time>2020-09-01T09:20:50.000Z</time>
      </trkpt>
      <trkpt lat="43.06857" lon="5.79357">
        <ele>13.199999809265</ele>
        <time>2020-09-01T09:20:55.000Z</time>
      </trkpt>
      <trkpt lat="43.06865" lon="5.7936">
        <ele>12.199999809265</ele>
        <time>2020-09-01T09:20:57.000Z</time>
      </trkpt>
      <trkpt lat="43.0687" lon="5.79366">
        <ele>11.60000038147</ele>
        <time>2020-09-01T09:20:59.000Z</time>
      </trkpt>
      <trkpt lat="43.06876" lon="5.79371">
        <ele>11</ele>
        <time>2020-09-01T09:21:01.000Z</time>
      </trkpt>
      <trkpt lat="43.06883" lon="5.79371">
        <ele>11</ele>
        <time>2020-09-01T09:21:03.000Z</time>
      </trkpt>
      <trkpt lat="43.06906" lon="5.79366">
        <ele>10</ele>
        <time>2020-09-01T09:21:09.000Z</time>
      </trkpt>
      <trkpt lat="43.06917" lon="5.79358">
        <ele>9.3999996185303</ele>
        <time>2020-09-01T09:21:12.000Z</time>
      </trkpt>
      <trkpt lat="43.06921" lon="5.79358">
        <ele>9.1999998092651</ele>
        <time>2020-09-01T09:21:13.000Z</time>
      </trkpt>
      <trkpt lat="43.06925" lon="5.79358">
        <ele>9</ele>
        <time>2020-09-01T09:21:14.000Z</time>
      </trkpt>
      <trkpt lat="43.06939" lon="5.79366">
        <ele>8.6000003814697</ele>
        <time>2020-09-01T09:21:18.000Z</time>
      </trkpt>
      <trkpt lat="43.06947" lon="5.79371">
        <ele>8.6000003814697</ele>
        <time>2020-09-01T09:21:20.000Z</time>
      </trkpt>
      <trkpt lat="43.06959" lon="5.79379">
        <ele>8.6000003814697</ele>
        <time>2020-09-01T09:21:23.000Z</time>
      </trkpt>
      <trkpt lat="43.06992" lon="5.79406">
        <ele>8.3999996185303</ele>
        <time>2020-09-01T09:21:31.000Z</time>
      </trkpt>
      <trkpt lat="43.07021" lon="5.79429">
        <ele>8</ele>
        <time>2020-09-01T09:21:38.000Z</time>
      </trkpt>
      <trkpt lat="43.07042" lon="5.79446">
        <ele>7.8000001907349</ele>
        <time>2020-09-01T09:21:43.000Z</time>
      </trkpt>
      <trkpt lat="43.07058" lon="5.7946">
        <ele>7.8000001907349</ele>
        <time>2020-09-01T09:21:47.000Z</time>
      </trkpt>
      <trkpt lat="43.07091" lon="5.79488">
        <ele>8</ele>
        <time>2020-09-01T09:21:55.000Z</time>
      </trkpt>
      <trkpt lat="43.07132" lon="5.79503">
        <ele>7.5999999046326</ele>
        <time>2020-09-01T09:22:03.000Z</time>
      </trkpt>
      <trkpt lat="43.0718" lon="5.79504">
        <ele>7.5999999046326</ele>
        <time>2020-09-01T09:22:12.000Z</time>
      </trkpt>
      <trkpt lat="43.07228" lon="5.79501">
        <ele>7.5999999046326</ele>
        <time>2020-09-01T09:22:21.000Z</time>
      </trkpt>
      <trkpt lat="43.07286" lon="5.79502">
        <ele>7.5999999046326</ele>
        <time>2020-09-01T09:22:32.000Z</time>
      </trkpt>
      <trkpt lat="43.07301" lon="5.79509">
        <ele>7.5999999046326</ele>
        <time>2020-09-01T09:22:35.000Z</time>
      </trkpt>
      <trkpt lat="43.07311" lon="5.79515">
        <ele>7.8000001907349</ele>
        <time>2020-09-01T09:22:37.000Z</time>
      </trkpt>
      <trkpt lat="43.07352" lon="5.79542">
        <ele>8</ele>
        <time>2020-09-01T09:22:45.000Z</time>
      </trkpt>
      <trkpt lat="43.07389" lon="5.79574">
        <ele>8</ele>
        <time>2020-09-01T09:22:53.000Z</time>
      </trkpt>
      <trkpt lat="43.07417" lon="5.79596">
        <ele>8.1999998092651</ele>
        <time>2020-09-01T09:22:59.000Z</time>
      </trkpt>
      <trkpt lat="43.07421" lon="5.79601">
        <ele>8.1999998092651</ele>
        <time>2020-09-01T09:23:00.000Z</time>
      </trkpt>
      <trkpt lat="43.07435" lon="5.79623">
        <ele>8.1999998092651</ele>
        <time>2020-09-01T09:23:04.000Z</time>
      </trkpt>
      <trkpt lat="43.0744" lon="5.79646">
        <ele>8.1999998092651</ele>
        <time>2020-09-01T09:23:07.000Z</time>
      </trkpt>
      <trkpt lat="43.07441" lon="5.79653">
        <ele>8.1999998092651</ele>
        <time>2020-09-01T09:23:08.000Z</time>
      </trkpt>
      <trkpt lat="43.07452" lon="5.79727">
        <ele>8.3999996185303</ele>
        <time>2020-09-01T09:23:18.000Z</time>
      </trkpt>
      <trkpt lat="43.07446" lon="5.79756">
        <ele>8.6000003814697</ele>
        <time>2020-09-01T09:23:22.000Z</time>
      </trkpt>
      <trkpt lat="43.07444" lon="5.79763">
        <ele>8.6000003814697</ele>
        <time>2020-09-01T09:23:23.000Z</time>
      </trkpt>
      <trkpt lat="43.07435" lon="5.79799">
        <ele>8.8000001907349</ele>
        <time>2020-09-01T09:23:28.000Z</time>
      </trkpt>
      <trkpt lat="43.07434" lon="5.79814">
        <ele>8.8000001907349</ele>
        <time>2020-09-01T09:23:30.000Z</time>
      </trkpt>
      <trkpt lat="43.07436" lon="5.79836">
        <ele>8.6000003814697</ele>
        <time>2020-09-01T09:23:33.000Z</time>
      </trkpt>
      <trkpt lat="43.07437" lon="5.79842">
        <ele>8.3999996185303</ele>
        <time>2020-09-01T09:23:34.000Z</time>
      </trkpt>
      <trkpt lat="43.07444" lon="5.79885">
        <ele>8.3999996185303</ele>
        <time>2020-09-01T09:23:40.000Z</time>
      </trkpt>
      <trkpt lat="43.07442" lon="5.79917">
        <ele>8.3999996185303</ele>
        <time>2020-09-01T09:23:44.000Z</time>
      </trkpt>
      <trkpt lat="43.07441" lon="5.79925">
        <ele>8.3999996185303</ele>
        <time>2020-09-01T09:23:45.000Z</time>
      </trkpt>
      <trkpt lat="43.07434" lon="5.79976">
        <ele>8.6000003814697</ele>
        <time>2020-09-01T09:23:52.000Z</time>
      </trkpt>
      <trkpt lat="43.07432" lon="5.79998">
        <ele>8.8000001907349</ele>
        <time>2020-09-01T09:23:55.000Z</time>
      </trkpt>
      <trkpt lat="43.07434" lon="5.80012">
        <ele>8.6000003814697</ele>
        <time>2020-09-01T09:23:57.000Z</time>
      </trkpt>
      <trkpt lat="43.07449" lon="5.80045">
        <ele>8.1999998092651</ele>
        <time>2020-09-01T09:24:02.000Z</time>
      </trkpt>
      <trkpt lat="43.07457" lon="5.80055">
        <ele>8.1999998092651</ele>
        <time>2020-09-01T09:24:04.000Z</time>
      </trkpt>
      <trkpt lat="43.07473" lon="5.80077">
        <ele>8</ele>
        <time>2020-09-01T09:24:08.000Z</time>
      </trkpt>
      <trkpt lat="43.07508" lon="5.80124">
        <ele>8.1999998092651</ele>
        <time>2020-09-01T09:24:17.000Z</time>
      </trkpt>
      <trkpt lat="43.07547" lon="5.80177">
        <ele>8</ele>
        <time>2020-09-01T09:24:27.000Z</time>
      </trkpt>
      <trkpt lat="43.07554" lon="5.80203">
        <ele>8</ele>
        <time>2020-09-01T09:24:32.000Z</time>
      </trkpt>
      <trkpt lat="43.07544" lon="5.80215">
        <ele>8.1999998092651</ele>
        <time>2020-09-01T09:24:35.000Z</time>
      </trkpt>
      <trkpt lat="43.0754" lon="5.80221">
        <ele>8.3999996185303</ele>
        <time>2020-09-01T09:24:36.000Z</time>
      </trkpt>
      <trkpt lat="43.07529" lon="5.80235">
        <ele>8.6000003814697</ele>
        <time>2020-09-01T09:24:39.000Z</time>
      </trkpt>
      <trkpt lat="43.07504" lon="5.80272">
        <ele>8.6000003814697</ele>
        <time>2020-09-01T09:24:46.000Z</time>
      </trkpt>
      <trkpt lat="43.075" lon="5.80275">
        <ele>8.8000001907349</ele>
        <time>2020-09-01T09:24:47.000Z</time>
      </trkpt>
      <trkpt lat="43.07491" lon="5.80279">
        <ele>9</ele>
        <time>2020-09-01T09:24:49.000Z</time>
      </trkpt>
      <trkpt lat="43.07481" lon="5.8028">
        <ele>9.3999996185303</ele>
        <time>2020-09-01T09:24:51.000Z</time>
      </trkpt>
      <trkpt lat="43.07468" lon="5.80288">
        <ele>10</ele>
        <time>2020-09-01T09:24:55.000Z</time>
      </trkpt>
      <trkpt lat="43.07465" lon="5.80292">
        <ele>10.199999809265</ele>
        <time>2020-09-01T09:24:56.000Z</time>
      </trkpt>
      <trkpt lat="43.07456" lon="5.80309">
        <ele>11.39999961853</ele>
        <time>2020-09-01T09:25:00.000Z</time>
      </trkpt>
      <trkpt lat="43.07451" lon="5.80319">
        <ele>12.199999809265</ele>
        <time>2020-09-01T09:25:02.000Z</time>
      </trkpt>
      <trkpt lat="43.0745" lon="5.80324">
        <ele>12.800000190735</ele>
        <time>2020-09-01T09:25:03.000Z</time>
      </trkpt>
      <trkpt lat="43.07444" lon="5.80339">
        <ele>14</ele>
        <time>2020-09-01T09:25:06.000Z</time>
      </trkpt>
      <trkpt lat="43.0744" lon="5.80358">
        <ele>15</ele>
        <time>2020-09-01T09:25:09.000Z</time>
      </trkpt>
      <trkpt lat="43.07439" lon="5.80365">
        <ele>15</ele>
        <time>2020-09-01T09:25:10.000Z</time>
      </trkpt>
      <trkpt lat="43.07432" lon="5.80398">
        <ele>15.199999809265</ele>
        <time>2020-09-01T09:25:15.000Z</time>
      </trkpt>
      <trkpt lat="43.07427" lon="5.80409">
        <ele>15.39999961853</ele>
        <time>2020-09-01T09:25:17.000Z</time>
      </trkpt>
      <trkpt lat="43.07416" lon="5.80436">
        <ele>16.200000762939</ele>
        <time>2020-09-01T09:25:22.000Z</time>
      </trkpt>
      <trkpt lat="43.07411" lon="5.80447">
        <ele>16.60000038147</ele>
        <time>2020-09-01T09:25:24.000Z</time>
      </trkpt>
      <trkpt lat="43.07403" lon="5.80469">
        <ele>17.39999961853</ele>
        <time>2020-09-01T09:25:28.000Z</time>
      </trkpt>
      <trkpt lat="43.07394" lon="5.80492">
        <ele>17.799999237061</ele>
        <time>2020-09-01T09:25:32.000Z</time>
      </trkpt>
      <trkpt lat="43.07387" lon="5.80509">
        <ele>18.39999961853</ele>
        <time>2020-09-01T09:25:35.000Z</time>
      </trkpt>
      <trkpt lat="43.07378" lon="5.80529">
        <ele>19.60000038147</ele>
        <time>2020-09-01T09:25:39.000Z</time>
      </trkpt>
      <trkpt lat="43.07375" lon="5.80534">
        <ele>20</ele>
        <time>2020-09-01T09:25:40.000Z</time>
      </trkpt>
      <trkpt lat="43.07368" lon="5.80544">
        <ele>20.799999237061</ele>
        <time>2020-09-01T09:25:42.000Z</time>
      </trkpt>
      <trkpt lat="43.07357" lon="5.80565">
        <ele>22</ele>
        <time>2020-09-01T09:25:46.000Z</time>
      </trkpt>
      <trkpt lat="43.0735" lon="5.80582">
        <ele>23</ele>
        <time>2020-09-01T09:25:49.000Z</time>
      </trkpt>
      <trkpt lat="43.07348" lon="5.80588">
        <ele>23.200000762939</ele>
        <time>2020-09-01T09:25:50.000Z</time>
      </trkpt>
      <trkpt lat="43.07342" lon="5.80613">
        <ele>24.39999961853</ele>
        <time>2020-09-01T09:25:54.000Z</time>
      </trkpt>
      <trkpt lat="43.0734" lon="5.80626">
        <ele>25.200000762939</ele>
        <time>2020-09-01T09:25:56.000Z</time>
      </trkpt>
      <trkpt lat="43.07339" lon="5.80632">
        <ele>25.799999237061</ele>
        <time>2020-09-01T09:25:57.000Z</time>
      </trkpt>
      <trkpt lat="43.07338" lon="5.80645">
        <ele>26.799999237061</ele>
        <time>2020-09-01T09:25:59.000Z</time>
      </trkpt>
      <trkpt lat="43.07336" lon="5.80659">
        <ele>28</ele>
        <time>2020-09-01T09:26:01.000Z</time>
      </trkpt>
      <trkpt lat="43.07335" lon="5.80665">
        <ele>28.39999961853</ele>
        <time>2020-09-01T09:26:02.000Z</time>
      </trkpt>
      <trkpt lat="43.0733" lon="5.80685">
        <ele>29.200000762939</ele>
        <time>2020-09-01T09:26:05.000Z</time>
      </trkpt>
      <trkpt lat="43.07324" lon="5.80713">
        <ele>30.200000762939</ele>
        <time>2020-09-01T09:26:10.000Z</time>
      </trkpt>
      <trkpt lat="43.07316" lon="5.80739">
        <ele>31.60000038147</ele>
        <time>2020-09-01T09:26:14.000Z</time>
      </trkpt>
      <trkpt lat="43.0731" lon="5.80757">
        <ele>32.799999237061</ele>
        <time>2020-09-01T09:26:17.000Z</time>
      </trkpt>
      <trkpt lat="43.07307" lon="5.80763">
        <ele>33.200000762939</ele>
        <time>2020-09-01T09:26:18.000Z</time>
      </trkpt>
      <trkpt lat="43.07298" lon="5.80779">
        <ele>34</ele>
        <time>2020-09-01T09:26:21.000Z</time>
      </trkpt>
      <trkpt lat="43.07285" lon="5.808">
        <ele>34.599998474121</ele>
        <time>2020-09-01T09:26:25.000Z</time>
      </trkpt>
      <trkpt lat="43.0727" lon="5.80815">
        <ele>35</ele>
        <time>2020-09-01T09:26:29.000Z</time>
      </trkpt>
      <trkpt lat="43.07259" lon="5.80826">
        <ele>35.799999237061</ele>
        <time>2020-09-01T09:26:32.000Z</time>
      </trkpt>
      <trkpt lat="43.07255" lon="5.80829">
        <ele>36.200000762939</ele>
        <time>2020-09-01T09:26:33.000Z</time>
      </trkpt>
      <trkpt lat="43.07243" lon="5.80837">
        <ele>37.599998474121</ele>
        <time>2020-09-01T09:26:36.000Z</time>
      </trkpt>
      <trkpt lat="43.0723" lon="5.80841">
        <ele>38.599998474121</ele>
        <time>2020-09-01T09:26:39.000Z</time>
      </trkpt>
      <trkpt lat="43.07213" lon="5.80847">
        <ele>40.200000762939</ele>
        <time>2020-09-01T09:26:43.000Z</time>
      </trkpt>
      <trkpt lat="43.07203" lon="5.80852">
        <ele>41.599998474121</ele>
        <time>2020-09-01T09:26:46.000Z</time>
      </trkpt>
      <trkpt lat="43.07196" lon="5.80855">
        <ele>42.799999237061</ele>
        <time>2020-09-01T09:26:48.000Z</time>
      </trkpt>
      <trkpt lat="43.07188" lon="5.80858">
        <ele>44</ele>
        <time>2020-09-01T09:26:50.000Z</time>
      </trkpt>
      <trkpt lat="43.07178" lon="5.8086">
        <ele>45.200000762939</ele>
        <time>2020-09-01T09:26:53.000Z</time>
      </trkpt>
      <trkpt lat="43.07165" lon="5.80874">
        <ele>46.200000762939</ele>
        <time>2020-09-01T09:26:57.000Z</time>
      </trkpt>
      <trkpt lat="43.07161" lon="5.80901">
        <ele>46.400001525879</ele>
        <time>2020-09-01T09:27:01.000Z</time>
      </trkpt>
      <trkpt lat="43.07161" lon="5.80915">
        <ele>46.200000762939</ele>
        <time>2020-09-01T09:27:03.000Z</time>
      </trkpt>
      <trkpt lat="43.07162" lon="5.80956">
        <ele>46.200000762939</ele>
        <time>2020-09-01T09:27:09.000Z</time>
      </trkpt>
      <trkpt lat="43.07159" lon="5.81002">
        <ele>45.400001525879</ele>
        <time>2020-09-01T09:27:15.000Z</time>
      </trkpt>
      <trkpt lat="43.07157" lon="5.81023">
        <ele>44.799999237061</ele>
        <time>2020-09-01T09:27:17.000Z</time>
      </trkpt>
      <trkpt lat="43.07153" lon="5.81046">
        <ele>44</ele>
        <time>2020-09-01T09:27:19.000Z</time>
      </trkpt>
      <trkpt lat="43.07151" lon="5.81061">
        <ele>43.400001525879</ele>
        <time>2020-09-01T09:27:20.000Z</time>
      </trkpt>
      <trkpt lat="43.07146" lon="5.81088">
        <ele>41.599998474121</ele>
        <time>2020-09-01T09:27:22.000Z</time>
      </trkpt>
      <trkpt lat="43.07143" lon="5.81104">
        <ele>39.799999237061</ele>
        <time>2020-09-01T09:27:23.000Z</time>
      </trkpt>
      <trkpt lat="43.07141" lon="5.81118">
        <ele>38</ele>
        <time>2020-09-01T09:27:24.000Z</time>
      </trkpt>
      <trkpt lat="43.07138" lon="5.81133">
        <ele>35.799999237061</ele>
        <time>2020-09-01T09:27:25.000Z</time>
      </trkpt>
      <trkpt lat="43.07136" lon="5.81147">
        <ele>33.799999237061</ele>
        <time>2020-09-01T09:27:26.000Z</time>
      </trkpt>
      <trkpt lat="43.07134" lon="5.81161">
        <ele>32.599998474121</ele>
        <time>2020-09-01T09:27:27.000Z</time>
      </trkpt>
      <trkpt lat="43.07129" lon="5.81186">
        <ele>31.60000038147</ele>
        <time>2020-09-01T09:27:29.000Z</time>
      </trkpt>
      <trkpt lat="43.07123" lon="5.8121">
        <ele>31.799999237061</ele>
        <time>2020-09-01T09:27:31.000Z</time>
      </trkpt>
      <trkpt lat="43.07115" lon="5.81228">
        <ele>32.200000762939</ele>
        <time>2020-09-01T09:27:33.000Z</time>
      </trkpt>
      <trkpt lat="43.07112" lon="5.81236">
        <ele>32.599998474121</ele>
        <time>2020-09-01T09:27:34.000Z</time>
      </trkpt>
      <trkpt lat="43.07099" lon="5.81265">
        <ele>33.799999237061</ele>
        <time>2020-09-01T09:27:38.000Z</time>
      </trkpt>
      <trkpt lat="43.07096" lon="5.81269">
        <ele>34</ele>
        <time>2020-09-01T09:27:39.000Z</time>
      </trkpt>
      <trkpt lat="43.07086" lon="5.81271">
        <ele>34.599998474121</ele>
        <time>2020-09-01T09:27:41.000Z</time>
      </trkpt>
      <trkpt lat="43.07082" lon="5.81268">
        <ele>35</ele>
        <time>2020-09-01T09:27:42.000Z</time>
      </trkpt>
      <trkpt lat="43.07074" lon="5.81263">
        <ele>35.799999237061</ele>
        <time>2020-09-01T09:27:44.000Z</time>
      </trkpt>
      <trkpt lat="43.0707" lon="5.8126">
        <ele>36.200000762939</ele>
        <time>2020-09-01T09:27:45.000Z</time>
      </trkpt>
      <trkpt lat="43.07058" lon="5.81254">
        <ele>37.200000762939</ele>
        <time>2020-09-01T09:27:48.000Z</time>
      </trkpt>
      <trkpt lat="43.0705" lon="5.81256">
        <ele>37.799999237061</ele>
        <time>2020-09-01T09:27:50.000Z</time>
      </trkpt>
      <trkpt lat="43.07044" lon="5.81263">
        <ele>38.400001525879</ele>
        <time>2020-09-01T09:27:52.000Z</time>
      </trkpt>
      <trkpt lat="43.07038" lon="5.81272">
        <ele>39</ele>
        <time>2020-09-01T09:27:54.000Z</time>
      </trkpt>
      <trkpt lat="43.07036" lon="5.81278">
        <ele>39.200000762939</ele>
        <time>2020-09-01T09:27:55.000Z</time>
      </trkpt>
      <trkpt lat="43.07033" lon="5.81283">
        <ele>39.400001525879</ele>
        <time>2020-09-01T09:27:56.000Z</time>
      </trkpt>
      <trkpt lat="43.07026" lon="5.81292">
        <ele>40</ele>
        <time>2020-09-01T09:27:58.000Z</time>
      </trkpt>
      <trkpt lat="43.07022" lon="5.81294">
        <ele>40.599998474121</ele>
        <time>2020-09-01T09:27:59.000Z</time>
      </trkpt>
      <trkpt lat="43.07012" lon="5.81292">
        <ele>41.599998474121</ele>
        <time>2020-09-01T09:28:01.000Z</time>
      </trkpt>
      <trkpt lat="43.07007" lon="5.8129">
        <ele>42</ele>
        <time>2020-09-01T09:28:02.000Z</time>
      </trkpt>
      <trkpt lat="43.07001" lon="5.81288">
        <ele>42.400001525879</ele>
        <time>2020-09-01T09:28:03.000Z</time>
      </trkpt>
      <trkpt lat="43.06991" lon="5.81283">
        <ele>42.799999237061</ele>
        <time>2020-09-01T09:28:05.000Z</time>
      </trkpt>
      <trkpt lat="43.06967" lon="5.81272">
        <ele>43.400001525879</ele>
        <time>2020-09-01T09:28:10.000Z</time>
      </trkpt>
      <trkpt lat="43.06957" lon="5.81269">
        <ele>43.599998474121</ele>
        <time>2020-09-01T09:28:12.000Z</time>
      </trkpt>
      <trkpt lat="43.06951" lon="5.81276">
        <ele>43.599998474121</ele>
        <time>2020-09-01T09:28:14.000Z</time>
      </trkpt>
      <trkpt lat="43.06949" lon="5.81282">
        <ele>43.799999237061</ele>
        <time>2020-09-01T09:28:15.000Z</time>
      </trkpt>
      <trkpt lat="43.06945" lon="5.81296">
        <ele>44</ele>
        <time>2020-09-01T09:28:17.000Z</time>
      </trkpt>
      <trkpt lat="43.06944" lon="5.81303">
        <ele>44.400001525879</ele>
        <time>2020-09-01T09:28:18.000Z</time>
      </trkpt>
      <trkpt lat="43.06942" lon="5.81309">
        <ele>44.799999237061</ele>
        <time>2020-09-01T09:28:19.000Z</time>
      </trkpt>
      <trkpt lat="43.06939" lon="5.81321">
        <ele>46</ele>
        <time>2020-09-01T09:28:21.000Z</time>
      </trkpt>
      <trkpt lat="43.06934" lon="5.81333">
        <ele>47</ele>
        <time>2020-09-01T09:28:23.000Z</time>
      </trkpt>
      <trkpt lat="43.06932" lon="5.81338">
        <ele>47.599998474121</ele>
        <time>2020-09-01T09:28:24.000Z</time>
      </trkpt>
      <trkpt lat="43.0693" lon="5.81344">
        <ele>48.200000762939</ele>
        <time>2020-09-01T09:28:25.000Z</time>
      </trkpt>
      <trkpt lat="43.06928" lon="5.8135">
        <ele>48.599998474121</ele>
        <time>2020-09-01T09:28:26.000Z</time>
      </trkpt>
      <trkpt lat="43.06924" lon="5.81355">
        <ele>49.200000762939</ele>
        <time>2020-09-01T09:28:27.000Z</time>
      </trkpt>
      <trkpt lat="43.06916" lon="5.81361">
        <ele>50</ele>
        <time>2020-09-01T09:28:29.000Z</time>
      </trkpt>
      <trkpt lat="43.06911" lon="5.81363">
        <ele>50.200000762939</ele>
        <time>2020-09-01T09:28:30.000Z</time>
      </trkpt>
      <trkpt lat="43.06902" lon="5.81368">
        <ele>51</ele>
        <time>2020-09-01T09:28:32.000Z</time>
      </trkpt>
      <trkpt lat="43.06898" lon="5.81371">
        <ele>51.599998474121</ele>
        <time>2020-09-01T09:28:33.000Z</time>
      </trkpt>
      <trkpt lat="43.0689" lon="5.81375">
        <ele>52.799999237061</ele>
        <time>2020-09-01T09:28:35.000Z</time>
      </trkpt>
      <trkpt lat="43.06882" lon="5.81381">
        <ele>54.200000762939</ele>
        <time>2020-09-01T09:28:37.000Z</time>
      </trkpt>
      <trkpt lat="43.06875" lon="5.81386">
        <ele>55.400001525879</ele>
        <time>2020-09-01T09:28:39.000Z</time>
      </trkpt>
      <trkpt lat="43.06871" lon="5.81388">
        <ele>56</ele>
        <time>2020-09-01T09:28:40.000Z</time>
      </trkpt>
      <trkpt lat="43.06862" lon="5.8139">
        <ele>56.799999237061</ele>
        <time>2020-09-01T09:28:42.000Z</time>
      </trkpt>
      <trkpt lat="43.06849" lon="5.81394">
        <ele>58</ele>
        <time>2020-09-01T09:28:45.000Z</time>
      </trkpt>
      <trkpt lat="43.06844" lon="5.81396">
        <ele>58.400001525879</ele>
        <time>2020-09-01T09:28:46.000Z</time>
      </trkpt>
      <trkpt lat="43.06804" lon="5.81409">
        <ele>57.599998474121</ele>
        <time>2020-09-01T09:28:53.000Z</time>
      </trkpt>
      <trkpt lat="43.06774" lon="5.81424">
        <ele>58.200000762939</ele>
        <time>2020-09-01T09:28:59.000Z</time>
      </trkpt>
      <trkpt lat="43.0677" lon="5.81427">
        <ele>58.599998474121</ele>
        <time>2020-09-01T09:29:00.000Z</time>
      </trkpt>
      <trkpt lat="43.06763" lon="5.81435">
        <ele>59.200000762939</ele>
        <time>2020-09-01T09:29:02.000Z</time>
      </trkpt>
      <trkpt lat="43.0676" lon="5.8144">
        <ele>59.400001525879</ele>
        <time>2020-09-01T09:29:03.000Z</time>
      </trkpt>
      <trkpt lat="43.06752" lon="5.81455">
        <ele>60.200000762939</ele>
        <time>2020-09-01T09:29:06.000Z</time>
      </trkpt>
      <trkpt lat="43.06746" lon="5.81466">
        <ele>60.799999237061</ele>
        <time>2020-09-01T09:29:08.000Z</time>
      </trkpt>
      <trkpt lat="43.06741" lon="5.81476">
        <ele>62</ele>
        <time>2020-09-01T09:29:10.000Z</time>
      </trkpt>
      <trkpt lat="43.06735" lon="5.81486">
        <ele>63.599998474121</ele>
        <time>2020-09-01T09:29:12.000Z</time>
      </trkpt>
      <trkpt lat="43.06728" lon="5.81493">
        <ele>64.800003051758</ele>
        <time>2020-09-01T09:29:14.000Z</time>
      </trkpt>
      <trkpt lat="43.06708" lon="5.81503">
        <ele>65.800003051758</ele>
        <time>2020-09-01T09:29:18.000Z</time>
      </trkpt>
      <trkpt lat="43.06694" lon="5.81512">
        <ele>65.599998474121</ele>
        <time>2020-09-01T09:29:21.000Z</time>
      </trkpt>
      <trkpt lat="43.06686" lon="5.81521">
        <ele>65.199996948242</ele>
        <time>2020-09-01T09:29:23.000Z</time>
      </trkpt>
      <trkpt lat="43.06674" lon="5.81542">
        <ele>65</ele>
        <time>2020-09-01T09:29:27.000Z</time>
      </trkpt>
      <trkpt lat="43.0667" lon="5.81555">
        <ele>65.400001525879</ele>
        <time>2020-09-01T09:29:29.000Z</time>
      </trkpt>
      <trkpt lat="43.0667" lon="5.81583">
        <ele>66</ele>
        <time>2020-09-01T09:29:33.000Z</time>
      </trkpt>
      <trkpt lat="43.06673" lon="5.81603">
        <ele>66.599998474121</ele>
        <time>2020-09-01T09:29:36.000Z</time>
      </trkpt>
      <trkpt lat="43.06673" lon="5.8161">
        <ele>66.800003051758</ele>
        <time>2020-09-01T09:29:37.000Z</time>
      </trkpt>
      <trkpt lat="43.06674" lon="5.81617">
        <ele>67.199996948242</ele>
        <time>2020-09-01T09:29:38.000Z</time>
      </trkpt>
      <trkpt lat="43.06676" lon="5.8163">
        <ele>67.800003051758</ele>
        <time>2020-09-01T09:29:40.000Z</time>
      </trkpt>
      <trkpt lat="43.0668" lon="5.8165">
        <ele>68.599998474121</ele>
        <time>2020-09-01T09:29:43.000Z</time>
      </trkpt>
      <trkpt lat="43.06684" lon="5.81671">
        <ele>69.400001525879</ele>
        <time>2020-09-01T09:29:46.000Z</time>
      </trkpt>
      <trkpt lat="43.06687" lon="5.81677">
        <ele>69.800003051758</ele>
        <time>2020-09-01T09:29:47.000Z</time>
      </trkpt>
      <trkpt lat="43.0669" lon="5.81683">
        <ele>70</ele>
        <time>2020-09-01T09:29:48.000Z</time>
      </trkpt>
      <trkpt lat="43.06697" lon="5.81704">
        <ele>70.800003051758</ele>
        <time>2020-09-01T09:29:51.000Z</time>
      </trkpt>
      <trkpt lat="43.067" lon="5.81709">
        <ele>71</ele>
        <time>2020-09-01T09:29:52.000Z</time>
      </trkpt>
      <trkpt lat="43.06702" lon="5.81714">
        <ele>71.199996948242</ele>
        <time>2020-09-01T09:29:53.000Z</time>
      </trkpt>
      <trkpt lat="43.0671" lon="5.81734">
        <ele>72</ele>
        <time>2020-09-01T09:29:56.000Z</time>
      </trkpt>
      <trkpt lat="43.06715" lon="5.81746">
        <ele>72.199996948242</ele>
        <time>2020-09-01T09:29:58.000Z</time>
      </trkpt>
      <trkpt lat="43.06717" lon="5.81752">
        <ele>72.400001525879</ele>
        <time>2020-09-01T09:29:59.000Z</time>
      </trkpt>
      <trkpt lat="43.0673" lon="5.81786">
        <ele>73.400001525879</ele>
        <time>2020-09-01T09:30:04.000Z</time>
      </trkpt>
      <trkpt lat="43.06739" lon="5.81819">
        <ele>73.800003051758</ele>
        <time>2020-09-01T09:30:09.000Z</time>
      </trkpt>
      <trkpt lat="43.06739" lon="5.81826">
        <ele>73.599998474121</ele>
        <time>2020-09-01T09:30:10.000Z</time>
      </trkpt>
      <trkpt lat="43.06733" lon="5.8184">
        <ele>73.400001525879</ele>
        <time>2020-09-01T09:30:13.000Z</time>
      </trkpt>
      <trkpt lat="43.0674" lon="5.81856">
        <ele>73</ele>
        <time>2020-09-01T09:30:16.000Z</time>
      </trkpt>
      <trkpt lat="43.06742" lon="5.81863">
        <ele>73</ele>
        <time>2020-09-01T09:30:17.000Z</time>
      </trkpt>
      <trkpt lat="43.06754" lon="5.81888">
        <ele>73</ele>
        <time>2020-09-01T09:30:22.000Z</time>
      </trkpt>
      <trkpt lat="43.06758" lon="5.8189">
        <ele>73.199996948242</ele>
        <time>2020-09-01T09:30:24.000Z</time>
      </trkpt>
      <trkpt lat="43.06762" lon="5.81888">
        <ele>73.599998474121</ele>
        <time>2020-09-01T09:30:26.000Z</time>
      </trkpt>
      <trkpt lat="43.06775" lon="5.81882">
        <ele>74</ele>
        <time>2020-09-01T09:30:30.000Z</time>
      </trkpt>
      <trkpt lat="43.06787" lon="5.81888">
        <ele>74.599998474121</ele>
        <time>2020-09-01T09:30:33.000Z</time>
      </trkpt>
      <trkpt lat="43.0679" lon="5.81888">
        <ele>74.800003051758</ele>
        <time>2020-09-01T09:30:34.000Z</time>
      </trkpt>
      <trkpt lat="43.06813" lon="5.81898">
        <ele>75.599998474121</ele>
        <time>2020-09-01T09:30:39.000Z</time>
      </trkpt>
      <trkpt lat="43.06818" lon="5.81904">
        <ele>75.599998474121</ele>
        <time>2020-09-01T09:30:40.000Z</time>
      </trkpt>
      <trkpt lat="43.06834" lon="5.81916">
        <ele>74.800003051758</ele>
        <time>2020-09-01T09:30:43.000Z</time>
      </trkpt>
      <trkpt lat="43.06838" lon="5.81918">
        <ele>74.400001525879</ele>
        <time>2020-09-01T09:30:44.000Z</time>
      </trkpt>
      <trkpt lat="43.06847" lon="5.81929">
        <ele>73.400001525879</ele>
        <time>2020-09-01T09:30:46.000Z</time>
      </trkpt>
      <trkpt lat="43.06853" lon="5.81935">
        <ele>72.800003051758</ele>
        <time>2020-09-01T09:30:47.000Z</time>
      </trkpt>
      <trkpt lat="43.0686" lon="5.8194">
        <ele>72.199996948242</ele>
        <time>2020-09-01T09:30:48.000Z</time>
      </trkpt>
      <trkpt lat="43.06875" lon="5.81947">
        <ele>70.199996948242</ele>
        <time>2020-09-01T09:30:50.000Z</time>
      </trkpt>
      <trkpt lat="43.06883" lon="5.81947">
        <ele>69.199996948242</ele>
        <time>2020-09-01T09:30:51.000Z</time>
      </trkpt>
      <trkpt lat="43.06896" lon="5.8194">
        <ele>67.599998474121</ele>
        <time>2020-09-01T09:30:53.000Z</time>
      </trkpt>
      <trkpt lat="43.06902" lon="5.81937">
        <ele>67.599998474121</ele>
        <time>2020-09-01T09:30:54.000Z</time>
      </trkpt>
      <trkpt lat="43.06907" lon="5.81932">
        <ele>67.400001525879</ele>
        <time>2020-09-01T09:30:55.000Z</time>
      </trkpt>
      <trkpt lat="43.06923" lon="5.8192">
        <ele>66.199996948242</ele>
        <time>2020-09-01T09:30:57.000Z</time>
      </trkpt>
      <trkpt lat="43.06929" lon="5.81915">
        <ele>65.800003051758</ele>
        <time>2020-09-01T09:30:58.000Z</time>
      </trkpt>
      <trkpt lat="43.06941" lon="5.81903">
        <ele>65</ele>
        <time>2020-09-01T09:31:00.000Z</time>
      </trkpt>
      <trkpt lat="43.06951" lon="5.81895">
        <ele>64.199996948242</ele>
        <time>2020-09-01T09:31:02.000Z</time>
      </trkpt>
      <trkpt lat="43.06953" lon="5.81894">
        <ele>64</ele>
        <time>2020-09-01T09:31:03.000Z</time>
      </trkpt>
      <trkpt lat="43.06956" lon="5.81892">
        <ele>64</ele>
        <time>2020-09-01T09:31:05.000Z</time>
      </trkpt>
      <trkpt lat="43.06957" lon="5.8189">
        <ele>64.400001525879</ele>
        <time>2020-09-01T09:31:07.000Z</time>
      </trkpt>
      <trkpt lat="43.06958" lon="5.81889">
        <ele>64.599998474121</ele>
        <time>2020-09-01T09:31:09.000Z</time>
      </trkpt>
      <trkpt lat="43.06956" lon="5.81888">
        <ele>64.599998474121</ele>
        <time>2020-09-01T09:31:14.000Z</time>
      </trkpt>
      <trkpt lat="43.06956" lon="5.81888">
        <ele>64.599998474121</ele>
        <time>2020-09-01T09:31:27.000Z</time>
      </trkpt>
      <trkpt lat="43.06957" lon="5.81888">
        <ele>64.800003051758</ele>
        <time>2020-09-01T09:31:41.000Z</time>
      </trkpt>
      <trkpt lat="43.06957" lon="5.81888">
        <ele>64.599998474121</ele>
        <time>2020-09-01T09:31:57.000Z</time>
      </trkpt>
      <trkpt lat="43.06957" lon="5.81889">
        <ele>64.400001525879</ele>
        <time>2020-09-01T09:32:08.000Z</time>
      </trkpt>
      <trkpt lat="43.06955" lon="5.8189">
        <ele>64.400001525879</ele>
        <time>2020-09-01T09:32:09.000Z</time>
      </trkpt>
      <trkpt lat="43.06948" lon="5.81898">
        <ele>64.199996948242</ele>
        <time>2020-09-01T09:32:12.000Z</time>
      </trkpt>
      <trkpt lat="43.06945" lon="5.81901">
        <ele>64.199996948242</ele>
        <time>2020-09-01T09:32:13.000Z</time>
      </trkpt>
      <trkpt lat="43.06917" lon="5.81926">
        <ele>64.599998474121</ele>
        <time>2020-09-01T09:32:21.000Z</time>
      </trkpt>
      <trkpt lat="43.06896" lon="5.81939">
        <ele>65.199996948242</ele>
        <time>2020-09-01T09:32:26.000Z</time>
      </trkpt>
      <trkpt lat="43.06891" lon="5.81941">
        <ele>65.400001525879</ele>
        <time>2020-09-01T09:32:27.000Z</time>
      </trkpt>
      <trkpt lat="43.06882" lon="5.81943">
        <ele>66</ele>
        <time>2020-09-01T09:32:29.000Z</time>
      </trkpt>
      <trkpt lat="43.06877" lon="5.81943">
        <ele>66.199996948242</ele>
        <time>2020-09-01T09:32:30.000Z</time>
      </trkpt>
      <trkpt lat="43.06871" lon="5.8194">
        <ele>66.400001525879</ele>
        <time>2020-09-01T09:32:31.000Z</time>
      </trkpt>
      <trkpt lat="43.06852" lon="5.8193">
        <ele>67.599998474121</ele>
        <time>2020-09-01T09:32:35.000Z</time>
      </trkpt>
      <trkpt lat="43.06849" lon="5.81925">
        <ele>68</ele>
        <time>2020-09-01T09:32:36.000Z</time>
      </trkpt>
      <trkpt lat="43.06845" lon="5.81921">
        <ele>68.599998474121</ele>
        <time>2020-09-01T09:32:37.000Z</time>
      </trkpt>
      <trkpt lat="43.06836" lon="5.81915">
        <ele>69.800003051758</ele>
        <time>2020-09-01T09:32:40.000Z</time>
      </trkpt>
      <trkpt lat="43.06826" lon="5.81908">
        <ele>71.199996948242</ele>
        <time>2020-09-01T09:32:43.000Z</time>
      </trkpt>
      <trkpt lat="43.0682" lon="5.81901">
        <ele>72.199996948242</ele>
        <time>2020-09-01T09:32:45.000Z</time>
      </trkpt>
      <trkpt lat="43.06817" lon="5.81898">
        <ele>72.800003051758</ele>
        <time>2020-09-01T09:32:46.000Z</time>
      </trkpt>
      <trkpt lat="43.06814" lon="5.81895">
        <ele>73.400001525879</ele>
        <time>2020-09-01T09:32:47.000Z</time>
      </trkpt>
      <trkpt lat="43.06806" lon="5.81892">
        <ele>74.199996948242</ele>
        <time>2020-09-01T09:32:49.000Z</time>
      </trkpt>
      <trkpt lat="43.06802" lon="5.81891">
        <ele>74.599998474121</ele>
        <time>2020-09-01T09:32:50.000Z</time>
      </trkpt>
      <trkpt lat="43.06797" lon="5.81891">
        <ele>75</ele>
        <time>2020-09-01T09:32:51.000Z</time>
      </trkpt>
      <trkpt lat="43.06789" lon="5.8189">
        <ele>75.199996948242</ele>
        <time>2020-09-01T09:32:53.000Z</time>
      </trkpt>
      <trkpt lat="43.06774" lon="5.81884">
        <ele>75</ele>
        <time>2020-09-01T09:32:56.000Z</time>
      </trkpt>
      <trkpt lat="43.06762" lon="5.81896">
        <ele>74.599998474121</ele>
        <time>2020-09-01T09:32:59.000Z</time>
      </trkpt>
      <trkpt lat="43.06755" lon="5.81917">
        <ele>73.599998474121</ele>
        <time>2020-09-01T09:33:02.000Z</time>
      </trkpt>
      <trkpt lat="43.06753" lon="5.81922">
        <ele>73.400001525879</ele>
        <time>2020-09-01T09:33:03.000Z</time>
      </trkpt>
      <trkpt lat="43.06736" lon="5.81958">
        <ele>73</ele>
        <time>2020-09-01T09:33:09.000Z</time>
      </trkpt>
      <trkpt lat="43.06724" lon="5.81973">
        <ele>73.199996948242</ele>
        <time>2020-09-01T09:33:12.000Z</time>
      </trkpt>
      <trkpt lat="43.06712" lon="5.81987">
        <ele>73.400001525879</ele>
        <time>2020-09-01T09:33:15.000Z</time>
      </trkpt>
      <trkpt lat="43.06689" lon="5.82016">
        <ele>73.800003051758</ele>
        <time>2020-09-01T09:33:21.000Z</time>
      </trkpt>
      <trkpt lat="43.06686" lon="5.8202">
        <ele>74</ele>
        <time>2020-09-01T09:33:22.000Z</time>
      </trkpt>
      <trkpt lat="43.06683" lon="5.82029">
        <ele>74.400001525879</ele>
        <time>2020-09-01T09:33:24.000Z</time>
      </trkpt>
      <trkpt lat="43.06685" lon="5.82036">
        <ele>75.199996948242</ele>
        <time>2020-09-01T09:33:26.000Z</time>
      </trkpt>
      <trkpt lat="43.06687" lon="5.82039">
        <ele>75.800003051758</ele>
        <time>2020-09-01T09:33:27.000Z</time>
      </trkpt>
      <trkpt lat="43.06695" lon="5.82046">
        <ele>76.599998474121</ele>
        <time>2020-09-01T09:33:29.000Z</time>
      </trkpt>
      <trkpt lat="43.067" lon="5.82051">
        <ele>77</ele>
        <time>2020-09-01T09:33:30.000Z</time>
      </trkpt>
      <trkpt lat="43.06703" lon="5.82056">
        <ele>77</ele>
        <time>2020-09-01T09:33:31.000Z</time>
      </trkpt>
      <trkpt lat="43.0671" lon="5.82067">
        <ele>77</ele>
        <time>2020-09-01T09:33:33.000Z</time>
      </trkpt>
      <trkpt lat="43.06723" lon="5.82082">
        <ele>76.599998474121</ele>
        <time>2020-09-01T09:33:36.000Z</time>
      </trkpt>
      <trkpt lat="43.06731" lon="5.82094">
        <ele>76.599998474121</ele>
        <time>2020-09-01T09:33:38.000Z</time>
      </trkpt>
      <trkpt lat="43.06741" lon="5.82112">
        <ele>77</ele>
        <time>2020-09-01T09:33:41.000Z</time>
      </trkpt>
      <trkpt lat="43.06754" lon="5.82129">
        <ele>77.199996948242</ele>
        <time>2020-09-01T09:33:44.000Z</time>
      </trkpt>
      <trkpt lat="43.06762" lon="5.8214">
        <ele>77.199996948242</ele>
        <time>2020-09-01T09:33:46.000Z</time>
      </trkpt>
      <trkpt lat="43.06771" lon="5.8215">
        <ele>77.199996948242</ele>
        <time>2020-09-01T09:33:48.000Z</time>
      </trkpt>
      <trkpt lat="43.06799" lon="5.82177">
        <ele>77.199996948242</ele>
        <time>2020-09-01T09:33:54.000Z</time>
      </trkpt>
      <trkpt lat="43.06813" lon="5.8219">
        <ele>77.599998474121</ele>
        <time>2020-09-01T09:33:57.000Z</time>
      </trkpt>
      <trkpt lat="43.06822" lon="5.82197">
        <ele>77.800003051758</ele>
        <time>2020-09-01T09:33:59.000Z</time>
      </trkpt>
      <trkpt lat="43.06827" lon="5.82202">
        <ele>78</ele>
        <time>2020-09-01T09:34:00.000Z</time>
      </trkpt>
      <trkpt lat="43.0684" lon="5.82213">
        <ele>78.400001525879</ele>
        <time>2020-09-01T09:34:03.000Z</time>
      </trkpt>
      <trkpt lat="43.06857" lon="5.82227">
        <ele>79</ele>
        <time>2020-09-01T09:34:07.000Z</time>
      </trkpt>
      <trkpt lat="43.0686" lon="5.82231">
        <ele>79.199996948242</ele>
        <time>2020-09-01T09:34:08.000Z</time>
      </trkpt>
      <trkpt lat="43.06877" lon="5.82248">
        <ele>80.199996948242</ele>
        <time>2020-09-01T09:34:12.000Z</time>
      </trkpt>
      <trkpt lat="43.06881" lon="5.82252">
        <ele>80.599998474121</ele>
        <time>2020-09-01T09:34:13.000Z</time>
      </trkpt>
      <trkpt lat="43.06888" lon="5.82264">
        <ele>81.400001525879</ele>
        <time>2020-09-01T09:34:15.000Z</time>
      </trkpt>
      <trkpt lat="43.06892" lon="5.82277">
        <ele>82.599998474121</ele>
        <time>2020-09-01T09:34:17.000Z</time>
      </trkpt>
      <trkpt lat="43.06893" lon="5.82284">
        <ele>83</ele>
        <time>2020-09-01T09:34:18.000Z</time>
      </trkpt>
      <trkpt lat="43.06896" lon="5.82295">
        <ele>84</ele>
        <time>2020-09-01T09:34:20.000Z</time>
      </trkpt>
      <trkpt lat="43.06899" lon="5.82307">
        <ele>85</ele>
        <time>2020-09-01T09:34:22.000Z</time>
      </trkpt>
      <trkpt lat="43.06901" lon="5.82313">
        <ele>85.400001525879</ele>
        <time>2020-09-01T09:34:23.000Z</time>
      </trkpt>
      <trkpt lat="43.06913" lon="5.82329">
        <ele>86.199996948242</ele>
        <time>2020-09-01T09:34:26.000Z</time>
      </trkpt>
      <trkpt lat="43.06918" lon="5.82334">
        <ele>86.199996948242</ele>
        <time>2020-09-01T09:34:27.000Z</time>
      </trkpt>
      <trkpt lat="43.06923" lon="5.82337">
        <ele>86.400001525879</ele>
        <time>2020-09-01T09:34:28.000Z</time>
      </trkpt>
      <trkpt lat="43.06943" lon="5.8235">
        <ele>86.599998474121</ele>
        <time>2020-09-01T09:34:32.000Z</time>
      </trkpt>
      <trkpt lat="43.06963" lon="5.82357">
        <ele>86.800003051758</ele>
        <time>2020-09-01T09:34:36.000Z</time>
      </trkpt>
      <trkpt lat="43.06973" lon="5.82361">
        <ele>86.800003051758</ele>
        <time>2020-09-01T09:34:38.000Z</time>
      </trkpt>
      <trkpt lat="43.06987" lon="5.82368">
        <ele>87.199996948242</ele>
        <time>2020-09-01T09:34:41.000Z</time>
      </trkpt>
      <trkpt lat="43.06992" lon="5.82369">
        <ele>87.199996948242</ele>
        <time>2020-09-01T09:34:42.000Z</time>
      </trkpt>
      <trkpt lat="43.07011" lon="5.8237">
        <ele>87.599998474121</ele>
        <time>2020-09-01T09:34:45.000Z</time>
      </trkpt>
      <trkpt lat="43.07045" lon="5.82365">
        <ele>86.800003051758</ele>
        <time>2020-09-01T09:34:50.000Z</time>
      </trkpt>
      <trkpt lat="43.07052" lon="5.82363">
        <ele>86.199996948242</ele>
        <time>2020-09-01T09:34:51.000Z</time>
      </trkpt>
      <trkpt lat="43.07068" lon="5.8236">
        <ele>84.800003051758</ele>
        <time>2020-09-01T09:34:53.000Z</time>
      </trkpt>
      <trkpt lat="43.07084" lon="5.82357">
        <ele>83.199996948242</ele>
        <time>2020-09-01T09:34:55.000Z</time>
      </trkpt>
      <trkpt lat="43.07092" lon="5.82356">
        <ele>82.800003051758</ele>
        <time>2020-09-01T09:34:56.000Z</time>
      </trkpt>
      <trkpt lat="43.07099" lon="5.82356">
        <ele>82.599998474121</ele>
        <time>2020-09-01T09:34:57.000Z</time>
      </trkpt>
      <trkpt lat="43.07108" lon="5.82358">
        <ele>82.199996948242</ele>
        <time>2020-09-01T09:34:58.000Z</time>
      </trkpt>
      <trkpt lat="43.07114" lon="5.8236">
        <ele>82</ele>
        <time>2020-09-01T09:34:59.000Z</time>
      </trkpt>
      <trkpt lat="43.07134" lon="5.8237">
        <ele>81.599998474121</ele>
        <time>2020-09-01T09:35:02.000Z</time>
      </trkpt>
      <trkpt lat="43.07146" lon="5.82381">
        <ele>81.199996948242</ele>
        <time>2020-09-01T09:35:04.000Z</time>
      </trkpt>
      <trkpt lat="43.07156" lon="5.82398">
        <ele>81</ele>
        <time>2020-09-01T09:35:06.000Z</time>
      </trkpt>
      <trkpt lat="43.07159" lon="5.82407">
        <ele>80.800003051758</ele>
        <time>2020-09-01T09:35:07.000Z</time>
      </trkpt>
      <trkpt lat="43.07159" lon="5.82437">
        <ele>80</ele>
        <time>2020-09-01T09:35:10.000Z</time>
      </trkpt>
      <trkpt lat="43.07159" lon="5.82445">
        <ele>80</ele>
        <time>2020-09-01T09:35:11.000Z</time>
      </trkpt>
      <trkpt lat="43.07155" lon="5.82487">
        <ele>79.800003051758</ele>
        <time>2020-09-01T09:35:16.000Z</time>
      </trkpt>
      <trkpt lat="43.07155" lon="5.82493">
        <ele>79.800003051758</ele>
        <time>2020-09-01T09:35:17.000Z</time>
      </trkpt>
      <trkpt lat="43.07153" lon="5.82513">
        <ele>80</ele>
        <time>2020-09-01T09:35:20.000Z</time>
      </trkpt>
      <trkpt lat="43.07149" lon="5.82534">
        <ele>80.199996948242</ele>
        <time>2020-09-01T09:35:23.000Z</time>
      </trkpt>
      <trkpt lat="43.07147" lon="5.8255">
        <ele>80.199996948242</ele>
        <time>2020-09-01T09:35:25.000Z</time>
      </trkpt>
      <trkpt lat="43.07141" lon="5.82596">
        <ele>80</ele>
        <time>2020-09-01T09:35:31.000Z</time>
      </trkpt>
      <trkpt lat="43.07136" lon="5.82629">
        <ele>80.400001525879</ele>
        <time>2020-09-01T09:35:36.000Z</time>
      </trkpt>
      <trkpt lat="43.07138" lon="5.82635">
        <ele>80.400001525879</ele>
        <time>2020-09-01T09:35:37.000Z</time>
      </trkpt>
      <trkpt lat="43.07148" lon="5.82647">
        <ele>80.599998474121</ele>
        <time>2020-09-01T09:35:40.000Z</time>
      </trkpt>
      <trkpt lat="43.07163" lon="5.82667">
        <ele>80.599998474121</ele>
        <time>2020-09-01T09:35:44.000Z</time>
      </trkpt>
      <trkpt lat="43.07169" lon="5.82681">
        <ele>80.599998474121</ele>
        <time>2020-09-01T09:35:46.000Z</time>
      </trkpt>
      <trkpt lat="43.07173" lon="5.82695">
        <ele>80.599998474121</ele>
        <time>2020-09-01T09:35:48.000Z</time>
      </trkpt>
      <trkpt lat="43.07183" lon="5.82721">
        <ele>80.599998474121</ele>
        <time>2020-09-01T09:35:52.000Z</time>
      </trkpt>
      <trkpt lat="43.07189" lon="5.82733">
        <ele>80.599998474121</ele>
        <time>2020-09-01T09:35:54.000Z</time>
      </trkpt>
      <trkpt lat="43.07203" lon="5.82743">
        <ele>80.400001525879</ele>
        <time>2020-09-01T09:35:56.000Z</time>
      </trkpt>
      <trkpt lat="43.07216" lon="5.82749">
        <ele>79.800003051758</ele>
        <time>2020-09-01T09:35:58.000Z</time>
      </trkpt>
      <trkpt lat="43.07229" lon="5.82756">
        <ele>78.800003051758</ele>
        <time>2020-09-01T09:36:00.000Z</time>
      </trkpt>
      <trkpt lat="43.07243" lon="5.82763">
        <ele>78</ele>
        <time>2020-09-01T09:36:02.000Z</time>
      </trkpt>
      <trkpt lat="43.0725" lon="5.82766">
        <ele>77.599998474121</ele>
        <time>2020-09-01T09:36:03.000Z</time>
      </trkpt>
      <trkpt lat="43.07283" lon="5.82785">
        <ele>76.400001525879</ele>
        <time>2020-09-01T09:36:08.000Z</time>
      </trkpt>
      <trkpt lat="43.07296" lon="5.82792">
        <ele>76.199996948242</ele>
        <time>2020-09-01T09:36:10.000Z</time>
      </trkpt>
      <trkpt lat="43.07308" lon="5.82795">
        <ele>75.800003051758</ele>
        <time>2020-09-01T09:36:12.000Z</time>
      </trkpt>
      <trkpt lat="43.07314" lon="5.82797">
        <ele>75.599998474121</ele>
        <time>2020-09-01T09:36:13.000Z</time>
      </trkpt>
      <trkpt lat="43.07327" lon="5.82801">
        <ele>75.400001525879</ele>
        <time>2020-09-01T09:36:15.000Z</time>
      </trkpt>
      <trkpt lat="43.07354" lon="5.82811">
        <ele>74.199996948242</ele>
        <time>2020-09-01T09:36:19.000Z</time>
      </trkpt>
      <trkpt lat="43.07359" lon="5.82813">
        <ele>73.800003051758</ele>
        <time>2020-09-01T09:36:20.000Z</time>
      </trkpt>
      <trkpt lat="43.07363" lon="5.82821">
        <ele>73.199996948242</ele>
        <time>2020-09-01T09:36:22.000Z</time>
      </trkpt>
      <trkpt lat="43.07357" lon="5.82827">
        <ele>73</ele>
        <time>2020-09-01T09:36:25.000Z</time>
      </trkpt>
      <trkpt lat="43.07339" lon="5.82825">
        <ele>72.800003051758</ele>
        <time>2020-09-01T09:36:29.000Z</time>
      </trkpt>
      <trkpt lat="43.07333" lon="5.82825">
        <ele>72.599998474121</ele>
        <time>2020-09-01T09:36:30.000Z</time>
      </trkpt>
      <trkpt lat="43.07327" lon="5.82826">
        <ele>72.599998474121</ele>
        <time>2020-09-01T09:36:31.000Z</time>
      </trkpt>
      <trkpt lat="43.07311" lon="5.82828">
        <ele>72.199996948242</ele>
        <time>2020-09-01T09:36:34.000Z</time>
      </trkpt>
      <trkpt lat="43.07305" lon="5.8283">
        <ele>72.199996948242</ele>
        <time>2020-09-01T09:36:35.000Z</time>
      </trkpt>
      <trkpt lat="43.07287" lon="5.82837">
        <ele>71.599998474121</ele>
        <time>2020-09-01T09:36:38.000Z</time>
      </trkpt>
      <trkpt lat="43.07259" lon="5.82848">
        <ele>71.199996948242</ele>
        <time>2020-09-01T09:36:43.000Z</time>
      </trkpt>
      <trkpt lat="43.07232" lon="5.82859">
        <ele>71.400001525879</ele>
        <time>2020-09-01T09:36:48.000Z</time>
      </trkpt>
      <trkpt lat="43.07221" lon="5.8286">
        <ele>71.400001525879</ele>
        <time>2020-09-01T09:36:50.000Z</time>
      </trkpt>
      <trkpt lat="43.0721" lon="5.82858">
        <ele>71.599998474121</ele>
        <time>2020-09-01T09:36:52.000Z</time>
      </trkpt>
      <trkpt lat="43.07205" lon="5.82858">
        <ele>71.800003051758</ele>
        <time>2020-09-01T09:36:53.000Z</time>
      </trkpt>
      <trkpt lat="43.07189" lon="5.82867">
        <ele>72.199996948242</ele>
        <time>2020-09-01T09:36:56.000Z</time>
      </trkpt>
      <trkpt lat="43.0717" lon="5.82866">
        <ele>72</ele>
        <time>2020-09-01T09:36:59.000Z</time>
      </trkpt>
      <trkpt lat="43.07164" lon="5.82864">
        <ele>71.599998474121</ele>
        <time>2020-09-01T09:37:00.000Z</time>
      </trkpt>
      <trkpt lat="43.07152" lon="5.82862">
        <ele>71</ele>
        <time>2020-09-01T09:37:02.000Z</time>
      </trkpt>
      <trkpt lat="43.07147" lon="5.82863">
        <ele>70.800003051758</ele>
        <time>2020-09-01T09:37:03.000Z</time>
      </trkpt>
      <trkpt lat="43.07142" lon="5.82864">
        <ele>70.800003051758</ele>
        <time>2020-09-01T09:37:04.000Z</time>
      </trkpt>
      <trkpt lat="43.07136" lon="5.82866">
        <ele>70.800003051758</ele>
        <time>2020-09-01T09:37:05.000Z</time>
      </trkpt>
      <trkpt lat="43.07121" lon="5.82871">
        <ele>71.400001525879</ele>
        <time>2020-09-01T09:37:08.000Z</time>
      </trkpt>
      <trkpt lat="43.07118" lon="5.82874">
        <ele>71.599998474121</ele>
        <time>2020-09-01T09:37:09.000Z</time>
      </trkpt>
      <trkpt lat="43.07109" lon="5.82878">
        <ele>72.400001525879</ele>
        <time>2020-09-01T09:37:11.000Z</time>
      </trkpt>
      <trkpt lat="43.071" lon="5.8288">
        <ele>73.599998474121</ele>
        <time>2020-09-01T09:37:13.000Z</time>
      </trkpt>
      <trkpt lat="43.07091" lon="5.82882">
        <ele>75</ele>
        <time>2020-09-01T09:37:15.000Z</time>
      </trkpt>
      <trkpt lat="43.07082" lon="5.82885">
        <ele>76</ele>
        <time>2020-09-01T09:37:17.000Z</time>
      </trkpt>
      <trkpt lat="43.07073" lon="5.82888">
        <ele>76.800003051758</ele>
        <time>2020-09-01T09:37:19.000Z</time>
      </trkpt>
      <trkpt lat="43.07068" lon="5.8289">
        <ele>77.199996948242</ele>
        <time>2020-09-01T09:37:20.000Z</time>
      </trkpt>
      <trkpt lat="43.07056" lon="5.82896">
        <ele>78.599998474121</ele>
        <time>2020-09-01T09:37:23.000Z</time>
      </trkpt>
      <trkpt lat="43.07051" lon="5.82898">
        <ele>79</ele>
        <time>2020-09-01T09:37:24.000Z</time>
      </trkpt>
      <trkpt lat="43.07046" lon="5.82899">
        <ele>79.199996948242</ele>
        <time>2020-09-01T09:37:25.000Z</time>
      </trkpt>
      <trkpt lat="43.07041" lon="5.82901">
        <ele>79.599998474121</ele>
        <time>2020-09-01T09:37:26.000Z</time>
      </trkpt>
      <trkpt lat="43.07032" lon="5.82905">
        <ele>80.199996948242</ele>
        <time>2020-09-01T09:37:28.000Z</time>
      </trkpt>
      <trkpt lat="43.07028" lon="5.82906">
        <ele>80.800003051758</ele>
        <time>2020-09-01T09:37:29.000Z</time>
      </trkpt>
      <trkpt lat="43.07019" lon="5.8291">
        <ele>82</ele>
        <time>2020-09-01T09:37:31.000Z</time>
      </trkpt>
      <trkpt lat="43.07011" lon="5.82915">
        <ele>83</ele>
        <time>2020-09-01T09:37:33.000Z</time>
      </trkpt>
      <trkpt lat="43.07004" lon="5.8292">
        <ele>83.800003051758</ele>
        <time>2020-09-01T09:37:35.000Z</time>
      </trkpt>
      <trkpt lat="43.07001" lon="5.82921">
        <ele>84</ele>
        <time>2020-09-01T09:37:36.000Z</time>
      </trkpt>
      <trkpt lat="43.07" lon="5.82921">
        <ele>84.599998474121</ele>
        <time>2020-09-01T09:37:39.000Z</time>
      </trkpt>
      <trkpt lat="43.06997" lon="5.82924">
        <ele>85</ele>
        <time>2020-09-01T09:37:45.000Z</time>
      </trkpt>
      <trkpt lat="43.06995" lon="5.82926">
        <ele>85</ele>
        <time>2020-09-01T09:37:46.000Z</time>
      </trkpt>
      <trkpt lat="43.06984" lon="5.82938">
        <ele>84.800003051758</ele>
        <time>2020-09-01T09:37:50.000Z</time>
      </trkpt>
      <trkpt lat="43.06976" lon="5.82943">
        <ele>85</ele>
        <time>2020-09-01T09:37:52.000Z</time>
      </trkpt>
      <trkpt lat="43.06967" lon="5.82946">
        <ele>85</ele>
        <time>2020-09-01T09:37:54.000Z</time>
      </trkpt>
      <trkpt lat="43.06953" lon="5.82951">
        <ele>85.199996948242</ele>
        <time>2020-09-01T09:37:57.000Z</time>
      </trkpt>
      <trkpt lat="43.06947" lon="5.82954">
        <ele>85.199996948242</ele>
        <time>2020-09-01T09:37:58.000Z</time>
      </trkpt>
      <trkpt lat="43.06938" lon="5.82962">
        <ele>85.400001525879</ele>
        <time>2020-09-01T09:38:00.000Z</time>
      </trkpt>
      <trkpt lat="43.06929" lon="5.82969">
        <ele>85.800003051758</ele>
        <time>2020-09-01T09:38:02.000Z</time>
      </trkpt>
      <trkpt lat="43.06922" lon="5.82975">
        <ele>86.400001525879</ele>
        <time>2020-09-01T09:38:04.000Z</time>
      </trkpt>
      <trkpt lat="43.06909" lon="5.82985">
        <ele>87.599998474121</ele>
        <time>2020-09-01T09:38:07.000Z</time>
      </trkpt>
      <trkpt lat="43.06896" lon="5.82994">
        <ele>88.599998474121</ele>
        <time>2020-09-01T09:38:10.000Z</time>
      </trkpt>
      <trkpt lat="43.06883" lon="5.83002">
        <ele>89.400001525879</ele>
        <time>2020-09-01T09:38:13.000Z</time>
      </trkpt>
      <trkpt lat="43.06879" lon="5.83004">
        <ele>89.599998474121</ele>
        <time>2020-09-01T09:38:14.000Z</time>
      </trkpt>
      <trkpt lat="43.06861" lon="5.83013">
        <ele>90.599998474121</ele>
        <time>2020-09-01T09:38:18.000Z</time>
      </trkpt>
      <trkpt lat="43.06857" lon="5.83015">
        <ele>90.800003051758</ele>
        <time>2020-09-01T09:38:19.000Z</time>
      </trkpt>
      <trkpt lat="43.06852" lon="5.83018">
        <ele>91.199996948242</ele>
        <time>2020-09-01T09:38:20.000Z</time>
      </trkpt>
      <trkpt lat="43.06839" lon="5.83024">
        <ele>91.800003051758</ele>
        <time>2020-09-01T09:38:23.000Z</time>
      </trkpt>
      <trkpt lat="43.06825" lon="5.83031">
        <ele>93</ele>
        <time>2020-09-01T09:38:26.000Z</time>
      </trkpt>
      <trkpt lat="43.06813" lon="5.83038">
        <ele>94</ele>
        <time>2020-09-01T09:38:29.000Z</time>
      </trkpt>
      <trkpt lat="43.06799" lon="5.83045">
        <ele>94.599998474121</ele>
        <time>2020-09-01T09:38:32.000Z</time>
      </trkpt>
      <trkpt lat="43.06795" lon="5.83048">
        <ele>95</ele>
        <time>2020-09-01T09:38:33.000Z</time>
      </trkpt>
      <trkpt lat="43.06791" lon="5.83052">
        <ele>95.199996948242</ele>
        <time>2020-09-01T09:38:34.000Z</time>
      </trkpt>
      <trkpt lat="43.06778" lon="5.83065">
        <ele>96</ele>
        <time>2020-09-01T09:38:37.000Z</time>
      </trkpt>
      <trkpt lat="43.06774" lon="5.83069">
        <ele>96.199996948242</ele>
        <time>2020-09-01T09:38:38.000Z</time>
      </trkpt>
      <trkpt lat="43.06767" lon="5.83077">
        <ele>96.800003051758</ele>
        <time>2020-09-01T09:38:40.000Z</time>
      </trkpt>
      <trkpt lat="43.06764" lon="5.83082">
        <ele>97.199996948242</ele>
        <time>2020-09-01T09:38:41.000Z</time>
      </trkpt>
      <trkpt lat="43.0676" lon="5.83088">
        <ele>97.599998474121</ele>
        <time>2020-09-01T09:38:42.000Z</time>
      </trkpt>
      <trkpt lat="43.06751" lon="5.83104">
        <ele>98.599998474121</ele>
        <time>2020-09-01T09:38:45.000Z</time>
      </trkpt>
      <trkpt lat="43.06748" lon="5.83108">
        <ele>99</ele>
        <time>2020-09-01T09:38:46.000Z</time>
      </trkpt>
      <trkpt lat="43.06746" lon="5.83114">
        <ele>99.199996948242</ele>
        <time>2020-09-01T09:38:47.000Z</time>
      </trkpt>
      <trkpt lat="43.06741" lon="5.83124">
        <ele>99.800003051758</ele>
        <time>2020-09-01T09:38:49.000Z</time>
      </trkpt>
      <trkpt lat="43.06734" lon="5.83134">
        <ele>100.40000152588</ele>
        <time>2020-09-01T09:38:51.000Z</time>
      </trkpt>
      <trkpt lat="43.06727" lon="5.83139">
        <ele>101</ele>
        <time>2020-09-01T09:38:53.000Z</time>
      </trkpt>
      <trkpt lat="43.0672" lon="5.83144">
        <ele>101.59999847412</ele>
        <time>2020-09-01T09:38:55.000Z</time>
      </trkpt>
      <trkpt lat="43.06713" lon="5.83147">
        <ele>102</ele>
        <time>2020-09-01T09:38:56.000Z</time>
      </trkpt>
      <trkpt lat="43.06707" lon="5.83152">
        <ele>102.19999694824</ele>
        <time>2020-09-01T09:38:57.000Z</time>
      </trkpt>
      <trkpt lat="43.06696" lon="5.83163">
        <ele>101.80000305176</ele>
        <time>2020-09-01T09:38:59.000Z</time>
      </trkpt>
      <trkpt lat="43.06687" lon="5.83183">
        <ele>100.19999694824</ele>
        <time>2020-09-01T09:39:01.000Z</time>
      </trkpt>
      <trkpt lat="43.06683" lon="5.83191">
        <ele>99.199996948242</ele>
        <time>2020-09-01T09:39:02.000Z</time>
      </trkpt>
      <trkpt lat="43.06678" lon="5.83198">
        <ele>98.400001525879</ele>
        <time>2020-09-01T09:39:03.000Z</time>
      </trkpt>
      <trkpt lat="43.06667" lon="5.83201">
        <ele>97.800003051758</ele>
        <time>2020-09-01T09:39:05.000Z</time>
      </trkpt>
      <trkpt lat="43.06656" lon="5.832">
        <ele>98</ele>
        <time>2020-09-01T09:39:07.000Z</time>
      </trkpt>
      <trkpt lat="43.06646" lon="5.83199">
        <ele>98.800003051758</ele>
        <time>2020-09-01T09:39:09.000Z</time>
      </trkpt>
      <trkpt lat="43.06636" lon="5.832">
        <ele>99.400001525879</ele>
        <time>2020-09-01T09:39:11.000Z</time>
      </trkpt>
      <trkpt lat="43.06627" lon="5.83201">
        <ele>100.19999694824</ele>
        <time>2020-09-01T09:39:13.000Z</time>
      </trkpt>
      <trkpt lat="43.06624" lon="5.83201">
        <ele>100.59999847412</ele>
        <time>2020-09-01T09:39:14.000Z</time>
      </trkpt>
      <trkpt lat="43.06619" lon="5.83201">
        <ele>101.40000152588</ele>
        <time>2020-09-01T09:39:15.000Z</time>
      </trkpt>
      <trkpt lat="43.06615" lon="5.83201">
        <ele>102.40000152588</ele>
        <time>2020-09-01T09:39:16.000Z</time>
      </trkpt>
      <trkpt lat="43.06605" lon="5.83202">
        <ele>104</ele>
        <time>2020-09-01T09:39:18.000Z</time>
      </trkpt>
      <trkpt lat="43.066" lon="5.83204">
        <ele>104.40000152588</ele>
        <time>2020-09-01T09:39:19.000Z</time>
      </trkpt>
      <trkpt lat="43.06595" lon="5.83206">
        <ele>104.59999847412</ele>
        <time>2020-09-01T09:39:20.000Z</time>
      </trkpt>
      <trkpt lat="43.06579" lon="5.83217">
        <ele>104.40000152588</ele>
        <time>2020-09-01T09:39:23.000Z</time>
      </trkpt>
      <trkpt lat="43.06569" lon="5.83225">
        <ele>104.40000152588</ele>
        <time>2020-09-01T09:39:25.000Z</time>
      </trkpt>
      <trkpt lat="43.06535" lon="5.83253">
        <ele>104.80000305176</ele>
        <time>2020-09-01T09:39:32.000Z</time>
      </trkpt>
      <trkpt lat="43.06527" lon="5.83258">
        <ele>105</ele>
        <time>2020-09-01T09:39:34.000Z</time>
      </trkpt>
      <trkpt lat="43.06517" lon="5.83263">
        <ele>105.40000152588</ele>
        <time>2020-09-01T09:39:36.000Z</time>
      </trkpt>
      <trkpt lat="43.065" lon="5.83278">
        <ele>106.19999694824</ele>
        <time>2020-09-01T09:39:40.000Z</time>
      </trkpt>
      <trkpt lat="43.06485" lon="5.83287">
        <ele>107</ele>
        <time>2020-09-01T09:39:44.000Z</time>
      </trkpt>
      <trkpt lat="43.06481" lon="5.83291">
        <ele>107.40000152588</ele>
        <time>2020-09-01T09:39:45.000Z</time>
      </trkpt>
      <trkpt lat="43.06473" lon="5.833">
        <ele>107.59999847412</ele>
        <time>2020-09-01T09:39:47.000Z</time>
      </trkpt>
      <trkpt lat="43.06468" lon="5.83304">
        <ele>107.59999847412</ele>
        <time>2020-09-01T09:39:48.000Z</time>
      </trkpt>
      <trkpt lat="43.06454" lon="5.83314">
        <ele>108</ele>
        <time>2020-09-01T09:39:51.000Z</time>
      </trkpt>
      <trkpt lat="43.06444" lon="5.8332">
        <ele>108.40000152588</ele>
        <time>2020-09-01T09:39:53.000Z</time>
      </trkpt>
      <trkpt lat="43.0643" lon="5.83332">
        <ele>109.40000152588</ele>
        <time>2020-09-01T09:39:56.000Z</time>
      </trkpt>
      <trkpt lat="43.06426" lon="5.83338">
        <ele>109.59999847412</ele>
        <time>2020-09-01T09:39:57.000Z</time>
      </trkpt>
      <trkpt lat="43.06422" lon="5.83357">
        <ele>110.19999694824</ele>
        <time>2020-09-01T09:40:00.000Z</time>
      </trkpt>
      <trkpt lat="43.06423" lon="5.8337">
        <ele>111.19999694824</ele>
        <time>2020-09-01T09:40:02.000Z</time>
      </trkpt>
      <trkpt lat="43.06421" lon="5.83386">
        <ele>112</ele>
        <time>2020-09-01T09:40:05.000Z</time>
      </trkpt>
      <trkpt lat="43.06419" lon="5.83392">
        <ele>112.40000152588</ele>
        <time>2020-09-01T09:40:06.000Z</time>
      </trkpt>
      <trkpt lat="43.06407" lon="5.83403">
        <ele>113.40000152588</ele>
        <time>2020-09-01T09:40:09.000Z</time>
      </trkpt>
      <trkpt lat="43.06391" lon="5.83403">
        <ele>114.40000152588</ele>
        <time>2020-09-01T09:40:12.000Z</time>
      </trkpt>
      <trkpt lat="43.06386" lon="5.83403">
        <ele>114.59999847412</ele>
        <time>2020-09-01T09:40:13.000Z</time>
      </trkpt>
      <trkpt lat="43.06361" lon="5.83411">
        <ele>115.80000305176</ele>
        <time>2020-09-01T09:40:18.000Z</time>
      </trkpt>
      <trkpt lat="43.06356" lon="5.83414">
        <ele>116</ele>
        <time>2020-09-01T09:40:19.000Z</time>
      </trkpt>
      <trkpt lat="43.06341" lon="5.83422">
        <ele>116.19999694824</ele>
        <time>2020-09-01T09:40:22.000Z</time>
      </trkpt>
      <trkpt lat="43.06325" lon="5.83429">
        <ele>116.40000152588</ele>
        <time>2020-09-01T09:40:25.000Z</time>
      </trkpt>
      <trkpt lat="43.06305" lon="5.8344">
        <ele>117</ele>
        <time>2020-09-01T09:40:29.000Z</time>
      </trkpt>
      <trkpt lat="43.06294" lon="5.83448">
        <ele>117.19999694824</ele>
        <time>2020-09-01T09:40:31.000Z</time>
      </trkpt>
      <trkpt lat="43.06289" lon="5.83451">
        <ele>117.40000152588</ele>
        <time>2020-09-01T09:40:32.000Z</time>
      </trkpt>
      <trkpt lat="43.06279" lon="5.83454">
        <ele>117.40000152588</ele>
        <time>2020-09-01T09:40:34.000Z</time>
      </trkpt>
      <trkpt lat="43.06268" lon="5.83457">
        <ele>117.40000152588</ele>
        <time>2020-09-01T09:40:36.000Z</time>
      </trkpt>
      <trkpt lat="43.06245" lon="5.83471">
        <ele>117.40000152588</ele>
        <time>2020-09-01T09:40:41.000Z</time>
      </trkpt>
      <trkpt lat="43.06241" lon="5.83476">
        <ele>117.40000152588</ele>
        <time>2020-09-01T09:40:42.000Z</time>
      </trkpt>
      <trkpt lat="43.06232" lon="5.83493">
        <ele>117.80000305176</ele>
        <time>2020-09-01T09:40:45.000Z</time>
      </trkpt>
      <trkpt lat="43.06226" lon="5.83504">
        <ele>117.80000305176</ele>
        <time>2020-09-01T09:40:47.000Z</time>
      </trkpt>
      <trkpt lat="43.06214" lon="5.83522">
        <ele>117.40000152588</ele>
        <time>2020-09-01T09:40:50.000Z</time>
      </trkpt>
      <trkpt lat="43.06209" lon="5.83526">
        <ele>117</ele>
        <time>2020-09-01T09:40:51.000Z</time>
      </trkpt>
      <trkpt lat="43.062" lon="5.83526">
        <ele>116.40000152588</ele>
        <time>2020-09-01T09:40:54.000Z</time>
      </trkpt>
      <trkpt lat="43.062" lon="5.83521">
        <ele>117</ele>
        <time>2020-09-01T09:40:57.000Z</time>
      </trkpt>
      <trkpt lat="43.06205" lon="5.83524">
        <ele>117.59999847412</ele>
        <time>2020-09-01T09:41:01.000Z</time>
      </trkpt>
      <trkpt lat="43.06215" lon="5.83519">
        <ele>117.19999694824</ele>
        <time>2020-09-01T09:41:04.000Z</time>
      </trkpt>
      <trkpt lat="43.06227" lon="5.83508">
        <ele>116.80000305176</ele>
        <time>2020-09-01T09:41:08.000Z</time>
      </trkpt>
      <trkpt lat="43.06231" lon="5.83506">
        <ele>117.19999694824</ele>
        <time>2020-09-01T09:41:10.000Z</time>
      </trkpt>
      <trkpt lat="43.06236" lon="5.83504">
        <ele>118.40000152588</ele>
        <time>2020-09-01T09:41:12.000Z</time>
      </trkpt>
      <trkpt lat="43.06241" lon="5.83505">
        <ele>119.59999847412</ele>
        <time>2020-09-01T09:41:14.000Z</time>
      </trkpt>
      <trkpt lat="43.0625" lon="5.83502">
        <ele>120.59999847412</ele>
        <time>2020-09-01T09:41:17.000Z</time>
      </trkpt>
      <trkpt lat="43.06255" lon="5.83494">
        <ele>121.19999694824</ele>
        <time>2020-09-01T09:41:19.000Z</time>
      </trkpt>
      <trkpt lat="43.06264" lon="5.83487">
        <ele>121.59999847412</ele>
        <time>2020-09-01T09:41:21.000Z</time>
      </trkpt>
      <trkpt lat="43.06273" lon="5.83482">
        <ele>121.59999847412</ele>
        <time>2020-09-01T09:41:23.000Z</time>
      </trkpt>
      <trkpt lat="43.06293" lon="5.83476">
        <ele>120.59999847412</ele>
        <time>2020-09-01T09:41:27.000Z</time>
      </trkpt>
      <trkpt lat="43.06314" lon="5.83467">
        <ele>120.59999847412</ele>
        <time>2020-09-01T09:41:32.000Z</time>
      </trkpt>
      <trkpt lat="43.06324" lon="5.83455">
        <ele>120.80000305176</ele>
        <time>2020-09-01T09:41:35.000Z</time>
      </trkpt>
      <trkpt lat="43.06338" lon="5.83455">
        <ele>120.59999847412</ele>
        <time>2020-09-01T09:41:38.000Z</time>
      </trkpt>
      <trkpt lat="43.06351" lon="5.83451">
        <ele>119.80000305176</ele>
        <time>2020-09-01T09:41:42.000Z</time>
      </trkpt>
      <trkpt lat="43.06357" lon="5.83444">
        <ele>119.40000152588</ele>
        <time>2020-09-01T09:41:44.000Z</time>
      </trkpt>
      <trkpt lat="43.06361" lon="5.83438">
        <ele>118.59999847412</ele>
        <time>2020-09-01T09:41:46.000Z</time>
      </trkpt>
      <trkpt lat="43.06364" lon="5.83436">
        <ele>118.40000152588</ele>
        <time>2020-09-01T09:41:47.000Z</time>
      </trkpt>
      <trkpt lat="43.0638" lon="5.8343">
        <ele>118.19999694824</ele>
        <time>2020-09-01T09:41:51.000Z</time>
      </trkpt>
      <trkpt lat="43.06399" lon="5.83428">
        <ele>118.19999694824</ele>
        <time>2020-09-01T09:41:55.000Z</time>
      </trkpt>
      <trkpt lat="43.06405" lon="5.83427">
        <ele>118.19999694824</ele>
        <time>2020-09-01T09:41:56.000Z</time>
      </trkpt>
      <trkpt lat="43.06422" lon="5.83419">
        <ele>118</ele>
        <time>2020-09-01T09:41:59.000Z</time>
      </trkpt>
      <trkpt lat="43.06433" lon="5.83413">
        <ele>117.59999847412</ele>
        <time>2020-09-01T09:42:01.000Z</time>
      </trkpt>
      <trkpt lat="43.06438" lon="5.83412">
        <ele>117.19999694824</ele>
        <time>2020-09-01T09:42:02.000Z</time>
      </trkpt>
      <trkpt lat="43.06442" lon="5.83409">
        <ele>117</ele>
        <time>2020-09-01T09:42:03.000Z</time>
      </trkpt>
      <trkpt lat="43.06447" lon="5.83396">
        <ele>116.59999847412</ele>
        <time>2020-09-01T09:42:06.000Z</time>
      </trkpt>
      <trkpt lat="43.06455" lon="5.83387">
        <ele>117.59999847412</ele>
        <time>2020-09-01T09:42:10.000Z</time>
      </trkpt>
      <trkpt lat="43.06459" lon="5.83382">
        <ele>118.40000152588</ele>
        <time>2020-09-01T09:42:12.000Z</time>
      </trkpt>
      <trkpt lat="43.06466" lon="5.83374">
        <ele>119.40000152588</ele>
        <time>2020-09-01T09:42:14.000Z</time>
      </trkpt>
      <trkpt lat="43.0647" lon="5.83369">
        <ele>119.59999847412</ele>
        <time>2020-09-01T09:42:15.000Z</time>
      </trkpt>
      <trkpt lat="43.06474" lon="5.83363">
        <ele>119.80000305176</ele>
        <time>2020-09-01T09:42:16.000Z</time>
      </trkpt>
      <trkpt lat="43.06483" lon="5.83359">
        <ele>118.19999694824</ele>
        <time>2020-09-01T09:42:18.000Z</time>
      </trkpt>
      <trkpt lat="43.06488" lon="5.83357">
        <ele>117</ele>
        <time>2020-09-01T09:42:19.000Z</time>
      </trkpt>
      <trkpt lat="43.06496" lon="5.83349">
        <ele>115</ele>
        <time>2020-09-01T09:42:21.000Z</time>
      </trkpt>
      <trkpt lat="43.06509" lon="5.83344">
        <ele>114.40000152588</ele>
        <time>2020-09-01T09:42:24.000Z</time>
      </trkpt>
      <trkpt lat="43.06524" lon="5.83343">
        <ele>115.40000152588</ele>
        <time>2020-09-01T09:42:28.000Z</time>
      </trkpt>
      <trkpt lat="43.06534" lon="5.83342">
        <ele>116.80000305176</ele>
        <time>2020-09-01T09:42:31.000Z</time>
      </trkpt>
      <trkpt lat="43.06537" lon="5.83345">
        <ele>118.40000152588</ele>
        <time>2020-09-01T09:42:33.000Z</time>
      </trkpt>
      <trkpt lat="43.06538" lon="5.83345">
        <ele>119.59999847412</ele>
        <time>2020-09-01T09:42:34.000Z</time>
      </trkpt>
      <trkpt lat="43.0654" lon="5.83345">
        <ele>120.40000152588</ele>
        <time>2020-09-01T09:42:35.000Z</time>
      </trkpt>
      <trkpt lat="43.06542" lon="5.83344">
        <ele>121.19999694824</ele>
        <time>2020-09-01T09:42:36.000Z</time>
      </trkpt>
      <trkpt lat="43.06545" lon="5.83342">
        <ele>121.80000305176</ele>
        <time>2020-09-01T09:42:37.000Z</time>
      </trkpt>
      <trkpt lat="43.06548" lon="5.83341">
        <ele>122.40000152588</ele>
        <time>2020-09-01T09:42:38.000Z</time>
      </trkpt>
      <trkpt lat="43.06551" lon="5.83339">
        <ele>122.59999847412</ele>
        <time>2020-09-01T09:42:39.000Z</time>
      </trkpt>
      <trkpt lat="43.06564" lon="5.83342">
        <ele>122.59999847412</ele>
        <time>2020-09-01T09:42:43.000Z</time>
      </trkpt>
      <trkpt lat="43.06566" lon="5.83347">
        <ele>122.40000152588</ele>
        <time>2020-09-01T09:42:44.000Z</time>
      </trkpt>
      <trkpt lat="43.0657" lon="5.83357">
        <ele>122.19999694824</ele>
        <time>2020-09-01T09:42:46.000Z</time>
      </trkpt>
      <trkpt lat="43.06575" lon="5.83368">
        <ele>121.59999847412</ele>
        <time>2020-09-01T09:42:48.000Z</time>
      </trkpt>
      <trkpt lat="43.06577" lon="5.83373">
        <ele>121.19999694824</ele>
        <time>2020-09-01T09:42:49.000Z</time>
      </trkpt>
      <trkpt lat="43.0658" lon="5.83378">
        <ele>120.59999847412</ele>
        <time>2020-09-01T09:42:50.000Z</time>
      </trkpt>
      <trkpt lat="43.06588" lon="5.83397">
        <ele>120.40000152588</ele>
        <time>2020-09-01T09:42:54.000Z</time>
      </trkpt>
      <trkpt lat="43.06589" lon="5.83404">
        <ele>120.40000152588</ele>
        <time>2020-09-01T09:42:55.000Z</time>
      </trkpt>
      <trkpt lat="43.06592" lon="5.83421">
        <ele>121</ele>
        <time>2020-09-01T09:42:58.000Z</time>
      </trkpt>
      <trkpt lat="43.06593" lon="5.83431">
        <ele>121.19999694824</ele>
        <time>2020-09-01T09:43:00.000Z</time>
      </trkpt>
      <trkpt lat="43.06598" lon="5.83442">
        <ele>121.40000152588</ele>
        <time>2020-09-01T09:43:03.000Z</time>
      </trkpt>
      <trkpt lat="43.066" lon="5.83443">
        <ele>121.40000152588</ele>
        <time>2020-09-01T09:43:04.000Z</time>
      </trkpt>
      <trkpt lat="43.06611" lon="5.83447">
        <ele>120.80000305176</ele>
        <time>2020-09-01T09:43:07.000Z</time>
      </trkpt>
      <trkpt lat="43.06615" lon="5.83449">
        <ele>119.80000305176</ele>
        <time>2020-09-01T09:43:08.000Z</time>
      </trkpt>
      <trkpt lat="43.06619" lon="5.83449">
        <ele>118.59999847412</ele>
        <time>2020-09-01T09:43:09.000Z</time>
      </trkpt>
      <trkpt lat="43.06622" lon="5.83446">
        <ele>117.40000152588</ele>
        <time>2020-09-01T09:43:10.000Z</time>
      </trkpt>
      <trkpt lat="43.06625" lon="5.83443">
        <ele>116.40000152588</ele>
        <time>2020-09-01T09:43:11.000Z</time>
      </trkpt>
      <trkpt lat="43.06629" lon="5.83432">
        <ele>115.40000152588</ele>
        <time>2020-09-01T09:43:13.000Z</time>
      </trkpt>
      <trkpt lat="43.06635" lon="5.83422">
        <ele>115.59999847412</ele>
        <time>2020-09-01T09:43:15.000Z</time>
      </trkpt>
      <trkpt lat="43.06651" lon="5.83394">
        <ele>116.19999694824</ele>
        <time>2020-09-01T09:43:20.000Z</time>
      </trkpt>
      <trkpt lat="43.06655" lon="5.8339">
        <ele>116.19999694824</ele>
        <time>2020-09-01T09:43:21.000Z</time>
      </trkpt>
      <trkpt lat="43.06672" lon="5.83379">
        <ele>117</ele>
        <time>2020-09-01T09:43:25.000Z</time>
      </trkpt>
      <trkpt lat="43.0668" lon="5.83376">
        <ele>117.59999847412</ele>
        <time>2020-09-01T09:43:27.000Z</time>
      </trkpt>
      <trkpt lat="43.06692" lon="5.83379">
        <ele>118.59999847412</ele>
        <time>2020-09-01T09:43:30.000Z</time>
      </trkpt>
      <trkpt lat="43.06697" lon="5.83381">
        <ele>118.80000305176</ele>
        <time>2020-09-01T09:43:31.000Z</time>
      </trkpt>
      <trkpt lat="43.067" lon="5.83384">
        <ele>119.19999694824</ele>
        <time>2020-09-01T09:43:32.000Z</time>
      </trkpt>
      <trkpt lat="43.06711" lon="5.83395">
        <ele>119.59999847412</ele>
        <time>2020-09-01T09:43:35.000Z</time>
      </trkpt>
      <trkpt lat="43.0672" lon="5.83404">
        <ele>119.80000305176</ele>
        <time>2020-09-01T09:43:37.000Z</time>
      </trkpt>
      <trkpt lat="43.06732" lon="5.83407">
        <ele>119.59999847412</ele>
        <time>2020-09-01T09:43:39.000Z</time>
      </trkpt>
      <trkpt lat="43.06748" lon="5.83398">
        <ele>119</ele>
        <time>2020-09-01T09:43:42.000Z</time>
      </trkpt>
      <trkpt lat="43.06756" lon="5.83389">
        <ele>118.59999847412</ele>
        <time>2020-09-01T09:43:44.000Z</time>
      </trkpt>
      <trkpt lat="43.06768" lon="5.83374">
        <ele>119</ele>
        <time>2020-09-01T09:43:47.000Z</time>
      </trkpt>
      <trkpt lat="43.0678" lon="5.8336">
        <ele>120</ele>
        <time>2020-09-01T09:43:50.000Z</time>
      </trkpt>
      <trkpt lat="43.06798" lon="5.83333">
        <ele>120.59999847412</ele>
        <time>2020-09-01T09:43:55.000Z</time>
      </trkpt>
      <trkpt lat="43.06808" lon="5.83315">
        <ele>120.80000305176</ele>
        <time>2020-09-01T09:43:58.000Z</time>
      </trkpt>
      <trkpt lat="43.06818" lon="5.83302">
        <ele>120.40000152588</ele>
        <time>2020-09-01T09:44:00.000Z</time>
      </trkpt>
      <trkpt lat="43.06839" lon="5.83281">
        <ele>118.80000305176</ele>
        <time>2020-09-01T09:44:04.000Z</time>
      </trkpt>
      <trkpt lat="43.06845" lon="5.8328">
        <ele>117.80000305176</ele>
        <time>2020-09-01T09:44:05.000Z</time>
      </trkpt>
      <trkpt lat="43.06851" lon="5.83282">
        <ele>117</ele>
        <time>2020-09-01T09:44:06.000Z</time>
      </trkpt>
      <trkpt lat="43.06863" lon="5.83291">
        <ele>115.80000305176</ele>
        <time>2020-09-01T09:44:08.000Z</time>
      </trkpt>
      <trkpt lat="43.06874" lon="5.83303">
        <ele>114.59999847412</ele>
        <time>2020-09-01T09:44:10.000Z</time>
      </trkpt>
      <trkpt lat="43.06889" lon="5.8331">
        <ele>113.19999694824</ele>
        <time>2020-09-01T09:44:12.000Z</time>
      </trkpt>
      <trkpt lat="43.06894" lon="5.83305">
        <ele>112</ele>
        <time>2020-09-01T09:44:13.000Z</time>
      </trkpt>
      <trkpt lat="43.06896" lon="5.83298">
        <ele>111</ele>
        <time>2020-09-01T09:44:14.000Z</time>
      </trkpt>
      <trkpt lat="43.06896" lon="5.83289">
        <ele>110.40000152588</ele>
        <time>2020-09-01T09:44:15.000Z</time>
      </trkpt>
      <trkpt lat="43.06896" lon="5.83279">
        <ele>109.80000305176</ele>
        <time>2020-09-01T09:44:16.000Z</time>
      </trkpt>
      <trkpt lat="43.06896" lon="5.8327">
        <ele>108.80000305176</ele>
        <time>2020-09-01T09:44:17.000Z</time>
      </trkpt>
      <trkpt lat="43.06904" lon="5.83245">
        <ele>107.80000305176</ele>
        <time>2020-09-01T09:44:20.000Z</time>
      </trkpt>
      <trkpt lat="43.06911" lon="5.83231">
        <ele>107.19999694824</ele>
        <time>2020-09-01T09:44:22.000Z</time>
      </trkpt>
      <trkpt lat="43.06922" lon="5.83211">
        <ele>107</ele>
        <time>2020-09-01T09:44:25.000Z</time>
      </trkpt>
      <trkpt lat="43.06933" lon="5.83191">
        <ele>106.59999847412</ele>
        <time>2020-09-01T09:44:28.000Z</time>
      </trkpt>
      <trkpt lat="43.06952" lon="5.83168">
        <ele>106.40000152588</ele>
        <time>2020-09-01T09:44:32.000Z</time>
      </trkpt>
      <trkpt lat="43.06976" lon="5.83158">
        <ele>105.80000305176</ele>
        <time>2020-09-01T09:44:36.000Z</time>
      </trkpt>
      <trkpt lat="43.06983" lon="5.83156">
        <ele>105.59999847412</ele>
        <time>2020-09-01T09:44:37.000Z</time>
      </trkpt>
      <trkpt lat="43.07014" lon="5.83146">
        <ele>104.40000152588</ele>
        <time>2020-09-01T09:44:42.000Z</time>
      </trkpt>
      <trkpt lat="43.07023" lon="5.83145">
        <ele>104</ele>
        <time>2020-09-01T09:44:44.000Z</time>
      </trkpt>
      <trkpt lat="43.07036" lon="5.8315">
        <ele>104.19999694824</ele>
        <time>2020-09-01T09:44:48.000Z</time>
      </trkpt>
      <trkpt lat="43.0704" lon="5.83159">
        <ele>104.80000305176</ele>
        <time>2020-09-01T09:44:51.000Z</time>
      </trkpt>
      <trkpt lat="43.07043" lon="5.83163">
        <ele>105.19999694824</ele>
        <time>2020-09-01T09:44:52.000Z</time>
      </trkpt>
      <trkpt lat="43.07046" lon="5.83175">
        <ele>105.59999847412</ele>
        <time>2020-09-01T09:44:54.000Z</time>
      </trkpt>
      <trkpt lat="43.07045" lon="5.83179">
        <ele>105.59999847412</ele>
        <time>2020-09-01T09:44:55.000Z</time>
      </trkpt>
      <trkpt lat="43.0704" lon="5.83206">
        <ele>105.40000152588</ele>
        <time>2020-09-01T09:45:00.000Z</time>
      </trkpt>
      <trkpt lat="43.07034" lon="5.83223">
        <ele>106.80000305176</ele>
        <time>2020-09-01T09:45:04.000Z</time>
      </trkpt>
      <trkpt lat="43.07032" lon="5.83227">
        <ele>107</ele>
        <time>2020-09-01T09:45:05.000Z</time>
      </trkpt>
      <trkpt lat="43.07026" lon="5.83242">
        <ele>108</ele>
        <time>2020-09-01T09:45:09.000Z</time>
      </trkpt>
      <trkpt lat="43.07023" lon="5.83251">
        <ele>109.40000152588</ele>
        <time>2020-09-01T09:45:11.000Z</time>
      </trkpt>
      <trkpt lat="43.07023" lon="5.83257">
        <ele>110.80000305176</ele>
        <time>2020-09-01T09:45:13.000Z</time>
      </trkpt>
      <trkpt lat="43.07025" lon="5.83259">
        <ele>111.59999847412</ele>
        <time>2020-09-01T09:45:14.000Z</time>
      </trkpt>
      <trkpt lat="43.07026" lon="5.83263">
        <ele>112</ele>
        <time>2020-09-01T09:45:15.000Z</time>
      </trkpt>
      <trkpt lat="43.0703" lon="5.83268">
        <ele>112.80000305176</ele>
        <time>2020-09-01T09:45:17.000Z</time>
      </trkpt>
      <trkpt lat="43.07031" lon="5.83267">
        <ele>113</ele>
        <time>2020-09-01T09:45:18.000Z</time>
      </trkpt>
      <trkpt lat="43.07033" lon="5.83266">
        <ele>113.19999694824</ele>
        <time>2020-09-01T09:45:19.000Z</time>
      </trkpt>
      <trkpt lat="43.07037" lon="5.83269">
        <ele>113.40000152588</ele>
        <time>2020-09-01T09:45:22.000Z</time>
      </trkpt>
      <trkpt lat="43.07044" lon="5.83273">
        <ele>113.40000152588</ele>
        <time>2020-09-01T09:45:25.000Z</time>
      </trkpt>
      <trkpt lat="43.07061" lon="5.83281">
        <ele>114.19999694824</ele>
        <time>2020-09-01T09:45:30.000Z</time>
      </trkpt>
      <trkpt lat="43.0707" lon="5.83286">
        <ele>113.40000152588</ele>
        <time>2020-09-01T09:45:33.000Z</time>
      </trkpt>
      <trkpt lat="43.07078" lon="5.83285">
        <ele>112</ele>
        <time>2020-09-01T09:45:35.000Z</time>
      </trkpt>
      <trkpt lat="43.07091" lon="5.83287">
        <ele>112.59999847412</ele>
        <time>2020-09-01T09:45:39.000Z</time>
      </trkpt>
      <trkpt lat="43.07094" lon="5.83287">
        <ele>113.19999694824</ele>
        <time>2020-09-01T09:45:40.000Z</time>
      </trkpt>
      <trkpt lat="43.07099" lon="5.83285">
        <ele>114.40000152588</ele>
        <time>2020-09-01T09:45:42.000Z</time>
      </trkpt>
      <trkpt lat="43.07101" lon="5.83283">
        <ele>115</ele>
        <time>2020-09-01T09:45:43.000Z</time>
      </trkpt>
      <trkpt lat="43.07106" lon="5.83282">
        <ele>115.40000152588</ele>
        <time>2020-09-01T09:45:45.000Z</time>
      </trkpt>
      <trkpt lat="43.07109" lon="5.83279">
        <ele>115.40000152588</ele>
        <time>2020-09-01T09:45:47.000Z</time>
      </trkpt>
      <trkpt lat="43.07121" lon="5.83279">
        <ele>115.19999694824</ele>
        <time>2020-09-01T09:45:51.000Z</time>
      </trkpt>
      <trkpt lat="43.07131" lon="5.83282">
        <ele>115.80000305176</ele>
        <time>2020-09-01T09:45:55.000Z</time>
      </trkpt>
      <trkpt lat="43.07137" lon="5.83289">
        <ele>116.40000152588</ele>
        <time>2020-09-01T09:45:58.000Z</time>
      </trkpt>
      <trkpt lat="43.07139" lon="5.8329">
        <ele>116.59999847412</ele>
        <time>2020-09-01T09:45:59.000Z</time>
      </trkpt>
      <trkpt lat="43.07142" lon="5.8329">
        <ele>117.19999694824</ele>
        <time>2020-09-01T09:46:01.000Z</time>
      </trkpt>
      <trkpt lat="43.07145" lon="5.83288">
        <ele>117.40000152588</ele>
        <time>2020-09-01T09:46:02.000Z</time>
      </trkpt>
      <trkpt lat="43.07147" lon="5.83288">
        <ele>117.80000305176</ele>
        <time>2020-09-01T09:46:03.000Z</time>
      </trkpt>
      <trkpt lat="43.07154" lon="5.83292">
        <ele>117.59999847412</ele>
        <time>2020-09-01T09:46:05.000Z</time>
      </trkpt>
      <trkpt lat="43.0716" lon="5.83295">
        <ele>116.40000152588</ele>
        <time>2020-09-01T09:46:07.000Z</time>
      </trkpt>
      <trkpt lat="43.07162" lon="5.83294">
        <ele>115.80000305176</ele>
        <time>2020-09-01T09:46:08.000Z</time>
      </trkpt>
      <trkpt lat="43.0717" lon="5.8329">
        <ele>114.40000152588</ele>
        <time>2020-09-01T09:46:10.000Z</time>
      </trkpt>
      <trkpt lat="43.07177" lon="5.83286">
        <ele>113.40000152588</ele>
        <time>2020-09-01T09:46:12.000Z</time>
      </trkpt>
      <trkpt lat="43.07181" lon="5.8328">
        <ele>112.40000152588</ele>
        <time>2020-09-01T09:46:14.000Z</time>
      </trkpt>
      <trkpt lat="43.07182" lon="5.83276">
        <ele>111.80000305176</ele>
        <time>2020-09-01T09:46:15.000Z</time>
      </trkpt>
      <trkpt lat="43.07187" lon="5.83265">
        <ele>110.59999847412</ele>
        <time>2020-09-01T09:46:18.000Z</time>
      </trkpt>
      <trkpt lat="43.07192" lon="5.83258">
        <ele>109.59999847412</ele>
        <time>2020-09-01T09:46:20.000Z</time>
      </trkpt>
      <trkpt lat="43.07195" lon="5.83258">
        <ele>108.80000305176</ele>
        <time>2020-09-01T09:46:21.000Z</time>
      </trkpt>
      <trkpt lat="43.07198" lon="5.83259">
        <ele>108.19999694824</ele>
        <time>2020-09-01T09:46:22.000Z</time>
      </trkpt>
      <trkpt lat="43.072" lon="5.83258">
        <ele>107</ele>
        <time>2020-09-01T09:46:23.000Z</time>
      </trkpt>
      <trkpt lat="43.07203" lon="5.83257">
        <ele>105.59999847412</ele>
        <time>2020-09-01T09:46:24.000Z</time>
      </trkpt>
      <trkpt lat="43.0721" lon="5.83262">
        <ele>104.19999694824</ele>
        <time>2020-09-01T09:46:26.000Z</time>
      </trkpt>
      <trkpt lat="43.07215" lon="5.83264">
        <ele>103.80000305176</ele>
        <time>2020-09-01T09:46:27.000Z</time>
      </trkpt>
      <trkpt lat="43.07221" lon="5.83272">
        <ele>102.80000305176</ele>
        <time>2020-09-01T09:46:29.000Z</time>
      </trkpt>
      <trkpt lat="43.0723" lon="5.83283">
        <ele>101.40000152588</ele>
        <time>2020-09-01T09:46:31.000Z</time>
      </trkpt>
      <trkpt lat="43.07232" lon="5.83285">
        <ele>100.40000152588</ele>
        <time>2020-09-01T09:46:32.000Z</time>
      </trkpt>
      <trkpt lat="43.07233" lon="5.83284">
        <ele>99.800003051758</ele>
        <time>2020-09-01T09:46:33.000Z</time>
      </trkpt>
      <trkpt lat="43.07237" lon="5.83285">
        <ele>99.199996948242</ele>
        <time>2020-09-01T09:46:34.000Z</time>
      </trkpt>
      <trkpt lat="43.07244" lon="5.83287">
        <ele>98.199996948242</ele>
        <time>2020-09-01T09:46:36.000Z</time>
      </trkpt>
      <trkpt lat="43.07246" lon="5.83285">
        <ele>97.800003051758</ele>
        <time>2020-09-01T09:46:37.000Z</time>
      </trkpt>
      <trkpt lat="43.07254" lon="5.83285">
        <ele>96.800003051758</ele>
        <time>2020-09-01T09:46:39.000Z</time>
      </trkpt>
      <trkpt lat="43.07259" lon="5.83287">
        <ele>96.400001525879</ele>
        <time>2020-09-01T09:46:40.000Z</time>
      </trkpt>
      <trkpt lat="43.07264" lon="5.83287">
        <ele>96</ele>
        <time>2020-09-01T09:46:41.000Z</time>
      </trkpt>
      <trkpt lat="43.07269" lon="5.83288">
        <ele>95.400001525879</ele>
        <time>2020-09-01T09:46:42.000Z</time>
      </trkpt>
      <trkpt lat="43.07274" lon="5.83289">
        <ele>94.800003051758</ele>
        <time>2020-09-01T09:46:43.000Z</time>
      </trkpt>
      <trkpt lat="43.07282" lon="5.83286">
        <ele>94.199996948242</ele>
        <time>2020-09-01T09:46:45.000Z</time>
      </trkpt>
      <trkpt lat="43.07286" lon="5.83283">
        <ele>94</ele>
        <time>2020-09-01T09:46:46.000Z</time>
      </trkpt>
      <trkpt lat="43.07307" lon="5.83267">
        <ele>94.199996948242</ele>
        <time>2020-09-01T09:46:51.000Z</time>
      </trkpt>
      <trkpt lat="43.0732" lon="5.83268">
        <ele>93.800003051758</ele>
        <time>2020-09-01T09:46:54.000Z</time>
      </trkpt>
      <trkpt lat="43.07324" lon="5.83269">
        <ele>93.599998474121</ele>
        <time>2020-09-01T09:46:55.000Z</time>
      </trkpt>
      <trkpt lat="43.07328" lon="5.83266">
        <ele>93.599998474121</ele>
        <time>2020-09-01T09:46:56.000Z</time>
      </trkpt>
      <trkpt lat="43.07331" lon="5.83265">
        <ele>93.400001525879</ele>
        <time>2020-09-01T09:46:57.000Z</time>
      </trkpt>
      <trkpt lat="43.07335" lon="5.83261">
        <ele>93.199996948242</ele>
        <time>2020-09-01T09:46:59.000Z</time>
      </trkpt>
      <trkpt lat="43.07342" lon="5.83258">
        <ele>92</ele>
        <time>2020-09-01T09:47:01.000Z</time>
      </trkpt>
      <trkpt lat="43.07348" lon="5.83257">
        <ele>91</ele>
        <time>2020-09-01T09:47:03.000Z</time>
      </trkpt>
      <trkpt lat="43.07355" lon="5.83251">
        <ele>90</ele>
        <time>2020-09-01T09:47:05.000Z</time>
      </trkpt>
      <trkpt lat="43.07359" lon="5.83247">
        <ele>89.599998474121</ele>
        <time>2020-09-01T09:47:06.000Z</time>
      </trkpt>
      <trkpt lat="43.07364" lon="5.83243">
        <ele>88.199996948242</ele>
        <time>2020-09-01T09:47:08.000Z</time>
      </trkpt>
      <trkpt lat="43.07367" lon="5.83242">
        <ele>87.800003051758</ele>
        <time>2020-09-01T09:47:09.000Z</time>
      </trkpt>
      <trkpt lat="43.07375" lon="5.83238">
        <ele>87</ele>
        <time>2020-09-01T09:47:11.000Z</time>
      </trkpt>
      <trkpt lat="43.07379" lon="5.83238">
        <ele>86.599998474121</ele>
        <time>2020-09-01T09:47:12.000Z</time>
      </trkpt>
      <trkpt lat="43.0739" lon="5.83246">
        <ele>86.199996948242</ele>
        <time>2020-09-01T09:47:15.000Z</time>
      </trkpt>
      <trkpt lat="43.07392" lon="5.83248">
        <ele>86.199996948242</ele>
        <time>2020-09-01T09:47:16.000Z</time>
      </trkpt>
      <trkpt lat="43.07395" lon="5.83252">
        <ele>85.800003051758</ele>
        <time>2020-09-01T09:47:17.000Z</time>
      </trkpt>
      <trkpt lat="43.074" lon="5.83259">
        <ele>85.599998474121</ele>
        <time>2020-09-01T09:47:19.000Z</time>
      </trkpt>
      <trkpt lat="43.07405" lon="5.83266">
        <ele>85.599998474121</ele>
        <time>2020-09-01T09:47:21.000Z</time>
      </trkpt>
      <trkpt lat="43.0741" lon="5.83268">
        <ele>86</ele>
        <time>2020-09-01T09:47:23.000Z</time>
      </trkpt>
      <trkpt lat="43.07416" lon="5.83268">
        <ele>86</ele>
        <time>2020-09-01T09:47:25.000Z</time>
      </trkpt>
      <trkpt lat="43.07423" lon="5.83268">
        <ele>86.199996948242</ele>
        <time>2020-09-01T09:47:27.000Z</time>
      </trkpt>
      <trkpt lat="43.07437" lon="5.83267">
        <ele>86.800003051758</ele>
        <time>2020-09-01T09:47:31.000Z</time>
      </trkpt>
      <trkpt lat="43.07453" lon="5.83263">
        <ele>88.199996948242</ele>
        <time>2020-09-01T09:47:36.000Z</time>
      </trkpt>
      <trkpt lat="43.07455" lon="5.83266">
        <ele>88.599998474121</ele>
        <time>2020-09-01T09:47:37.000Z</time>
      </trkpt>
      <trkpt lat="43.07456" lon="5.8327">
        <ele>89.199996948242</ele>
        <time>2020-09-01T09:47:38.000Z</time>
      </trkpt>
      <trkpt lat="43.07457" lon="5.83277">
        <ele>90.599998474121</ele>
        <time>2020-09-01T09:47:40.000Z</time>
      </trkpt>
      <trkpt lat="43.07458" lon="5.83281">
        <ele>91.199996948242</ele>
        <time>2020-09-01T09:47:41.000Z</time>
      </trkpt>
      <trkpt lat="43.07458" lon="5.83284">
        <ele>91.599998474121</ele>
        <time>2020-09-01T09:47:42.000Z</time>
      </trkpt>
      <trkpt lat="43.07461" lon="5.83295">
        <ele>93</ele>
        <time>2020-09-01T09:47:45.000Z</time>
      </trkpt>
      <trkpt lat="43.07465" lon="5.83301">
        <ele>94</ele>
        <time>2020-09-01T09:47:47.000Z</time>
      </trkpt>
      <trkpt lat="43.07466" lon="5.83304">
        <ele>94.599998474121</ele>
        <time>2020-09-01T09:47:48.000Z</time>
      </trkpt>
      <trkpt lat="43.07465" lon="5.83308">
        <ele>95</ele>
        <time>2020-09-01T09:47:49.000Z</time>
      </trkpt>
      <trkpt lat="43.07464" lon="5.83312">
        <ele>95.199996948242</ele>
        <time>2020-09-01T09:47:50.000Z</time>
      </trkpt>
      <trkpt lat="43.0746" lon="5.8332">
        <ele>95.800003051758</ele>
        <time>2020-09-01T09:47:52.000Z</time>
      </trkpt>
      <trkpt lat="43.07452" lon="5.8333">
        <ele>96.599998474121</ele>
        <time>2020-09-01T09:47:55.000Z</time>
      </trkpt>
      <trkpt lat="43.07452" lon="5.83331">
        <ele>96.800003051758</ele>
        <time>2020-09-01T09:47:56.000Z</time>
      </trkpt>
      <trkpt lat="43.07453" lon="5.83333">
        <ele>97</ele>
        <time>2020-09-01T09:47:57.000Z</time>
      </trkpt>
      <trkpt lat="43.07453" lon="5.83334">
        <ele>97.199996948242</ele>
        <time>2020-09-01T09:47:58.000Z</time>
      </trkpt>
      <trkpt lat="43.07453" lon="5.83334">
        <ele>97.800003051758</ele>
        <time>2020-09-01T09:48:03.000Z</time>
      </trkpt>
      <trkpt lat="43.07454" lon="5.83335">
        <ele>97.599998474121</ele>
        <time>2020-09-01T09:48:09.000Z</time>
      </trkpt>
      <trkpt lat="43.07455" lon="5.83336">
        <ele>96.800003051758</ele>
        <time>2020-09-01T09:48:15.000Z</time>
      </trkpt>
      <trkpt lat="43.07455" lon="5.83337">
        <ele>97.199996948242</ele>
        <time>2020-09-01T09:48:22.000Z</time>
      </trkpt>
      <trkpt lat="43.07455" lon="5.83337">
        <ele>97</ele>
        <time>2020-09-01T09:48:31.000Z</time>
      </trkpt>
      <trkpt lat="43.07454" lon="5.83336">
        <ele>97</ele>
        <time>2020-09-01T09:48:45.000Z</time>
      </trkpt>
      <trkpt lat="43.07455" lon="5.83335">
        <ele>97</ele>
        <time>2020-09-01T09:48:53.000Z</time>
      </trkpt>
      <trkpt lat="43.07456" lon="5.83334">
        <ele>97.400001525879</ele>
        <time>2020-09-01T09:48:59.000Z</time>
      </trkpt>
      <trkpt lat="43.07457" lon="5.83336">
        <ele>97.400001525879</ele>
        <time>2020-09-01T09:49:00.000Z</time>
      </trkpt>
      <trkpt lat="43.07465" lon="5.83341">
        <ele>97.400001525879</ele>
        <time>2020-09-01T09:49:03.000Z</time>
      </trkpt>
      <trkpt lat="43.07474" lon="5.83351">
        <ele>96.599998474121</ele>
        <time>2020-09-01T09:49:06.000Z</time>
      </trkpt>
      <trkpt lat="43.07477" lon="5.83354">
        <ele>95.800003051758</ele>
        <time>2020-09-01T09:49:07.000Z</time>
      </trkpt>
      <trkpt lat="43.0748" lon="5.83358">
        <ele>94.800003051758</ele>
        <time>2020-09-01T09:49:08.000Z</time>
      </trkpt>
      <trkpt lat="43.07483" lon="5.83363">
        <ele>94.199996948242</ele>
        <time>2020-09-01T09:49:09.000Z</time>
      </trkpt>
      <trkpt lat="43.07486" lon="5.83366">
        <ele>93</ele>
        <time>2020-09-01T09:49:10.000Z</time>
      </trkpt>
      <trkpt lat="43.07488" lon="5.83366">
        <ele>92</ele>
        <time>2020-09-01T09:49:11.000Z</time>
      </trkpt>
      <trkpt lat="43.07496" lon="5.83366">
        <ele>90.599998474121</ele>
        <time>2020-09-01T09:49:13.000Z</time>
      </trkpt>
      <trkpt lat="43.075" lon="5.83365">
        <ele>89.199996948242</ele>
        <time>2020-09-01T09:49:14.000Z</time>
      </trkpt>
      <trkpt lat="43.07504" lon="5.83365">
        <ele>88.599998474121</ele>
        <time>2020-09-01T09:49:15.000Z</time>
      </trkpt>
      <trkpt lat="43.07507" lon="5.83366">
        <ele>88.199996948242</ele>
        <time>2020-09-01T09:49:16.000Z</time>
      </trkpt>
      <trkpt lat="43.07511" lon="5.83372">
        <ele>86.800003051758</ele>
        <time>2020-09-01T09:49:18.000Z</time>
      </trkpt>
      <trkpt lat="43.07514" lon="5.83382">
        <ele>85.800003051758</ele>
        <time>2020-09-01T09:49:20.000Z</time>
      </trkpt>
      <trkpt lat="43.07516" lon="5.83384">
        <ele>85.199996948242</ele>
        <time>2020-09-01T09:49:21.000Z</time>
      </trkpt>
      <trkpt lat="43.07519" lon="5.83387">
        <ele>84.599998474121</ele>
        <time>2020-09-01T09:49:22.000Z</time>
      </trkpt>
      <trkpt lat="43.0752" lon="5.83392">
        <ele>83.800003051758</ele>
        <time>2020-09-01T09:49:23.000Z</time>
      </trkpt>
      <trkpt lat="43.07522" lon="5.83398">
        <ele>83.199996948242</ele>
        <time>2020-09-01T09:49:25.000Z</time>
      </trkpt>
      <trkpt lat="43.07525" lon="5.83402">
        <ele>82.599998474121</ele>
        <time>2020-09-01T09:49:26.000Z</time>
      </trkpt>
      <trkpt lat="43.07531" lon="5.83412">
        <ele>82</ele>
        <time>2020-09-01T09:49:29.000Z</time>
      </trkpt>
      <trkpt lat="43.07536" lon="5.83414">
        <ele>81.599998474121</ele>
        <time>2020-09-01T09:49:31.000Z</time>
      </trkpt>
      <trkpt lat="43.07542" lon="5.83418">
        <ele>81.199996948242</ele>
        <time>2020-09-01T09:49:33.000Z</time>
      </trkpt>
      <trkpt lat="43.0755" lon="5.83425">
        <ele>80.599998474121</ele>
        <time>2020-09-01T09:49:36.000Z</time>
      </trkpt>
      <trkpt lat="43.07553" lon="5.83434">
        <ele>79.800003051758</ele>
        <time>2020-09-01T09:49:38.000Z</time>
      </trkpt>
      <trkpt lat="43.07556" lon="5.83438">
        <ele>79.400001525879</ele>
        <time>2020-09-01T09:49:39.000Z</time>
      </trkpt>
      <trkpt lat="43.0756" lon="5.83448">
        <ele>78.400001525879</ele>
        <time>2020-09-01T09:49:41.000Z</time>
      </trkpt>
      <trkpt lat="43.07561" lon="5.83453">
        <ele>77.599998474121</ele>
        <time>2020-09-01T09:49:42.000Z</time>
      </trkpt>
      <trkpt lat="43.07562" lon="5.83457">
        <ele>76.800003051758</ele>
        <time>2020-09-01T09:49:43.000Z</time>
      </trkpt>
      <trkpt lat="43.07564" lon="5.8346">
        <ele>76.199996948242</ele>
        <time>2020-09-01T09:49:44.000Z</time>
      </trkpt>
      <trkpt lat="43.07564" lon="5.83464">
        <ele>75.800003051758</ele>
        <time>2020-09-01T09:49:45.000Z</time>
      </trkpt>
      <trkpt lat="43.07565" lon="5.83468">
        <ele>75.599998474121</ele>
        <time>2020-09-01T09:49:46.000Z</time>
      </trkpt>
      <trkpt lat="43.07563" lon="5.83475">
        <ele>74.599998474121</ele>
        <time>2020-09-01T09:49:48.000Z</time>
      </trkpt>
      <trkpt lat="43.07562" lon="5.83476">
        <ele>74.199996948242</ele>
        <time>2020-09-01T09:49:49.000Z</time>
      </trkpt>
      <trkpt lat="43.0756" lon="5.83479">
        <ele>73.800003051758</ele>
        <time>2020-09-01T09:49:50.000Z</time>
      </trkpt>
      <trkpt lat="43.07558" lon="5.8348">
        <ele>73.599998474121</ele>
        <time>2020-09-01T09:49:51.000Z</time>
      </trkpt>
      <trkpt lat="43.07549" lon="5.83482">
        <ele>73.400001525879</ele>
        <time>2020-09-01T09:49:54.000Z</time>
      </trkpt>
      <trkpt lat="43.0754" lon="5.83482">
        <ele>73.400001525879</ele>
        <time>2020-09-01T09:49:57.000Z</time>
      </trkpt>
      <trkpt lat="43.07536" lon="5.83485">
        <ele>73.400001525879</ele>
        <time>2020-09-01T09:49:58.000Z</time>
      </trkpt>
      <trkpt lat="43.07521" lon="5.83497">
        <ele>73.599998474121</ele>
        <time>2020-09-01T09:50:02.000Z</time>
      </trkpt>
      <trkpt lat="43.07518" lon="5.835">
        <ele>73.800003051758</ele>
        <time>2020-09-01T09:50:03.000Z</time>
      </trkpt>
      <trkpt lat="43.075" lon="5.83513">
        <ele>74.400001525879</ele>
        <time>2020-09-01T09:50:08.000Z</time>
      </trkpt>
      <trkpt lat="43.07497" lon="5.83515">
        <ele>74.599998474121</ele>
        <time>2020-09-01T09:50:09.000Z</time>
      </trkpt>
      <trkpt lat="43.07483" lon="5.83525">
        <ele>75</ele>
        <time>2020-09-01T09:50:13.000Z</time>
      </trkpt>
      <trkpt lat="43.07475" lon="5.83527">
        <ele>75.599998474121</ele>
        <time>2020-09-01T09:50:15.000Z</time>
      </trkpt>
      <trkpt lat="43.07469" lon="5.83534">
        <ele>75.800003051758</ele>
        <time>2020-09-01T09:50:17.000Z</time>
      </trkpt>
      <trkpt lat="43.07466" lon="5.83538">
        <ele>76</ele>
        <time>2020-09-01T09:50:18.000Z</time>
      </trkpt>
      <trkpt lat="43.07456" lon="5.83557">
        <ele>76.199996948242</ele>
        <time>2020-09-01T09:50:22.000Z</time>
      </trkpt>
      <trkpt lat="43.07445" lon="5.83559">
        <ele>76.599998474121</ele>
        <time>2020-09-01T09:50:25.000Z</time>
      </trkpt>
      <trkpt lat="43.07441" lon="5.83557">
        <ele>76.800003051758</ele>
        <time>2020-09-01T09:50:26.000Z</time>
      </trkpt>
      <trkpt lat="43.07435" lon="5.83552">
        <ele>77</ele>
        <time>2020-09-01T09:50:28.000Z</time>
      </trkpt>
      <trkpt lat="43.07429" lon="5.8355">
        <ele>77.400001525879</ele>
        <time>2020-09-01T09:50:30.000Z</time>
      </trkpt>
      <trkpt lat="43.07423" lon="5.83547">
        <ele>78</ele>
        <time>2020-09-01T09:50:32.000Z</time>
      </trkpt>
      <trkpt lat="43.07419" lon="5.83548">
        <ele>79</ele>
        <time>2020-09-01T09:50:34.000Z</time>
      </trkpt>
      <trkpt lat="43.07413" lon="5.83546">
        <ele>80.199996948242</ele>
        <time>2020-09-01T09:50:36.000Z</time>
      </trkpt>
      <trkpt lat="43.0741" lon="5.83545">
        <ele>81.599998474121</ele>
        <time>2020-09-01T09:50:38.000Z</time>
      </trkpt>
      <trkpt lat="43.07402" lon="5.83547">
        <ele>83</ele>
        <time>2020-09-01T09:50:41.000Z</time>
      </trkpt>
      <trkpt lat="43.07399" lon="5.83547">
        <ele>83.400001525879</ele>
        <time>2020-09-01T09:50:42.000Z</time>
      </trkpt>
      <trkpt lat="43.07392" lon="5.83549">
        <ele>84.199996948242</ele>
        <time>2020-09-01T09:50:45.000Z</time>
      </trkpt>
      <trkpt lat="43.07386" lon="5.83552">
        <ele>84.800003051758</ele>
        <time>2020-09-01T09:50:47.000Z</time>
      </trkpt>
      <trkpt lat="43.0738" lon="5.83554">
        <ele>85.400001525879</ele>
        <time>2020-09-01T09:50:49.000Z</time>
      </trkpt>
      <trkpt lat="43.07373" lon="5.83556">
        <ele>86.400001525879</ele>
        <time>2020-09-01T09:50:52.000Z</time>
      </trkpt>
      <trkpt lat="43.07371" lon="5.83558">
        <ele>86.800003051758</ele>
        <time>2020-09-01T09:50:53.000Z</time>
      </trkpt>
      <trkpt lat="43.07364" lon="5.83562">
        <ele>88</ele>
        <time>2020-09-01T09:50:56.000Z</time>
      </trkpt>
      <trkpt lat="43.07359" lon="5.83563">
        <ele>88.199996948242</ele>
        <time>2020-09-01T09:50:57.000Z</time>
      </trkpt>
      <trkpt lat="43.07348" lon="5.83568">
        <ele>89</ele>
        <time>2020-09-01T09:51:01.000Z</time>
      </trkpt>
      <trkpt lat="43.07342" lon="5.83569">
        <ele>89.199996948242</ele>
        <time>2020-09-01T09:51:03.000Z</time>
      </trkpt>
      <trkpt lat="43.0733" lon="5.83571">
        <ele>90.199996948242</ele>
        <time>2020-09-01T09:51:08.000Z</time>
      </trkpt>
      <trkpt lat="43.07323" lon="5.83572">
        <ele>91.400001525879</ele>
        <time>2020-09-01T09:51:11.000Z</time>
      </trkpt>
      <trkpt lat="43.07315" lon="5.8357">
        <ele>92.400001525879</ele>
        <time>2020-09-01T09:51:14.000Z</time>
      </trkpt>
      <trkpt lat="43.07308" lon="5.83568">
        <ele>93.599998474121</ele>
        <time>2020-09-01T09:51:17.000Z</time>
      </trkpt>
      <trkpt lat="43.073" lon="5.83565">
        <ele>94.599998474121</ele>
        <time>2020-09-01T09:51:20.000Z</time>
      </trkpt>
      <trkpt lat="43.07286" lon="5.83563">
        <ele>95.800003051758</ele>
        <time>2020-09-01T09:51:25.000Z</time>
      </trkpt>
      <trkpt lat="43.0728" lon="5.83561">
        <ele>96.400001525879</ele>
        <time>2020-09-01T09:51:27.000Z</time>
      </trkpt>
      <trkpt lat="43.07276" lon="5.83557">
        <ele>97.199996948242</ele>
        <time>2020-09-01T09:51:29.000Z</time>
      </trkpt>
      <trkpt lat="43.07269" lon="5.83551">
        <ele>97.800003051758</ele>
        <time>2020-09-01T09:51:32.000Z</time>
      </trkpt>
      <trkpt lat="43.07267" lon="5.83549">
        <ele>98.199996948242</ele>
        <time>2020-09-01T09:51:33.000Z</time>
      </trkpt>
      <trkpt lat="43.07254" lon="5.83536">
        <ele>99.199996948242</ele>
        <time>2020-09-01T09:51:38.000Z</time>
      </trkpt>
      <trkpt lat="43.07232" lon="5.83518">
        <ele>99.199996948242</ele>
        <time>2020-09-01T09:51:45.000Z</time>
      </trkpt>
      <trkpt lat="43.07214" lon="5.83506">
        <ele>100.19999694824</ele>
        <time>2020-09-01T09:51:51.000Z</time>
      </trkpt>
      <trkpt lat="43.07207" lon="5.83499">
        <ele>101.80000305176</ele>
        <time>2020-09-01T09:51:55.000Z</time>
      </trkpt>
      <trkpt lat="43.07205" lon="5.83498">
        <ele>102.19999694824</ele>
        <time>2020-09-01T09:51:56.000Z</time>
      </trkpt>
      <trkpt lat="43.07197" lon="5.83496">
        <ele>102.59999847412</ele>
        <time>2020-09-01T09:51:59.000Z</time>
      </trkpt>
      <trkpt lat="43.07195" lon="5.83497">
        <ele>102.80000305176</ele>
        <time>2020-09-01T09:52:00.000Z</time>
      </trkpt>
      <trkpt lat="43.07193" lon="5.83499">
        <ele>103.19999694824</ele>
        <time>2020-09-01T09:52:01.000Z</time>
      </trkpt>
      <trkpt lat="43.07186" lon="5.83504">
        <ele>103.59999847412</ele>
        <time>2020-09-01T09:52:03.000Z</time>
      </trkpt>
      <trkpt lat="43.07174" lon="5.83512">
        <ele>103.19999694824</ele>
        <time>2020-09-01T09:52:06.000Z</time>
      </trkpt>
      <trkpt lat="43.07172" lon="5.83516">
        <ele>103</ele>
        <time>2020-09-01T09:52:07.000Z</time>
      </trkpt>
      <trkpt lat="43.07173" lon="5.83522">
        <ele>102.19999694824</ele>
        <time>2020-09-01T09:52:09.000Z</time>
      </trkpt>
      <trkpt lat="43.07178" lon="5.83532">
        <ele>101.80000305176</ele>
        <time>2020-09-01T09:52:12.000Z</time>
      </trkpt>
      <trkpt lat="43.07182" lon="5.8354">
        <ele>101.59999847412</ele>
        <time>2020-09-01T09:52:14.000Z</time>
      </trkpt>
      <trkpt lat="43.07195" lon="5.83563">
        <ele>100.80000305176</ele>
        <time>2020-09-01T09:52:19.000Z</time>
      </trkpt>
      <trkpt lat="43.07196" lon="5.83568">
        <ele>100.40000152588</ele>
        <time>2020-09-01T09:52:20.000Z</time>
      </trkpt>
      <trkpt lat="43.07199" lon="5.83584">
        <ele>100.40000152588</ele>
        <time>2020-09-01T09:52:23.000Z</time>
      </trkpt>
      <trkpt lat="43.07198" lon="5.83595">
        <ele>100.19999694824</ele>
        <time>2020-09-01T09:52:25.000Z</time>
      </trkpt>
      <trkpt lat="43.07194" lon="5.83608">
        <ele>100</ele>
        <time>2020-09-01T09:52:27.000Z</time>
      </trkpt>
      <trkpt lat="43.07192" lon="5.83614">
        <ele>99.800003051758</ele>
        <time>2020-09-01T09:52:28.000Z</time>
      </trkpt>
      <trkpt lat="43.07194" lon="5.83625">
        <ele>99.800003051758</ele>
        <time>2020-09-01T09:52:30.000Z</time>
      </trkpt>
      <trkpt lat="43.07204" lon="5.83632">
        <ele>99.800003051758</ele>
        <time>2020-09-01T09:52:33.000Z</time>
      </trkpt>
      <trkpt lat="43.07208" lon="5.83634">
        <ele>99.800003051758</ele>
        <time>2020-09-01T09:52:34.000Z</time>
      </trkpt>
      <trkpt lat="43.07212" lon="5.83637">
        <ele>99.800003051758</ele>
        <time>2020-09-01T09:52:35.000Z</time>
      </trkpt>
      <trkpt lat="43.07218" lon="5.83644">
        <ele>100</ele>
        <time>2020-09-01T09:52:37.000Z</time>
      </trkpt>
      <trkpt lat="43.07221" lon="5.83649">
        <ele>100</ele>
        <time>2020-09-01T09:52:38.000Z</time>
      </trkpt>
      <trkpt lat="43.07222" lon="5.83668">
        <ele>100.59999847412</ele>
        <time>2020-09-01T09:52:41.000Z</time>
      </trkpt>
      <trkpt lat="43.07212" lon="5.83695">
        <ele>100.80000305176</ele>
        <time>2020-09-01T09:52:45.000Z</time>
      </trkpt>
      <trkpt lat="43.07208" lon="5.83724">
        <ele>100.40000152588</ele>
        <time>2020-09-01T09:52:49.000Z</time>
      </trkpt>
      <trkpt lat="43.07207" lon="5.83747">
        <ele>99.800003051758</ele>
        <time>2020-09-01T09:52:52.000Z</time>
      </trkpt>
      <trkpt lat="43.07207" lon="5.83757">
        <ele>99.400001525879</ele>
        <time>2020-09-01T09:52:54.000Z</time>
      </trkpt>
      <trkpt lat="43.07219" lon="5.83767">
        <ele>98.199996948242</ele>
        <time>2020-09-01T09:52:57.000Z</time>
      </trkpt>
      <trkpt lat="43.07225" lon="5.83776">
        <ele>97.800003051758</ele>
        <time>2020-09-01T09:52:59.000Z</time>
      </trkpt>
      <trkpt lat="43.07226" lon="5.83787">
        <ele>98.199996948242</ele>
        <time>2020-09-01T09:53:01.000Z</time>
      </trkpt>
      <trkpt lat="43.07222" lon="5.83797">
        <ele>99</ele>
        <time>2020-09-01T09:53:03.000Z</time>
      </trkpt>
      <trkpt lat="43.07221" lon="5.83802">
        <ele>99.199996948242</ele>
        <time>2020-09-01T09:53:04.000Z</time>
      </trkpt>
      <trkpt lat="43.07218" lon="5.83809">
        <ele>99.599998474121</ele>
        <time>2020-09-01T09:53:05.000Z</time>
      </trkpt>
      <trkpt lat="43.07211" lon="5.8383">
        <ele>100.19999694824</ele>
        <time>2020-09-01T09:53:08.000Z</time>
      </trkpt>
      <trkpt lat="43.07208" lon="5.83845">
        <ele>100</ele>
        <time>2020-09-01T09:53:10.000Z</time>
      </trkpt>
      <trkpt lat="43.07205" lon="5.83861">
        <ele>100</ele>
        <time>2020-09-01T09:53:12.000Z</time>
      </trkpt>
      <trkpt lat="43.07199" lon="5.83883">
        <ele>99.400001525879</ele>
        <time>2020-09-01T09:53:15.000Z</time>
      </trkpt>
      <trkpt lat="43.07192" lon="5.83915">
        <ele>99.199996948242</ele>
        <time>2020-09-01T09:53:20.000Z</time>
      </trkpt>
      <trkpt lat="43.07186" lon="5.83952">
        <ele>99.199996948242</ele>
        <time>2020-09-01T09:53:25.000Z</time>
      </trkpt>
      <trkpt lat="43.07184" lon="5.8396">
        <ele>99</ele>
        <time>2020-09-01T09:53:26.000Z</time>
      </trkpt>
      <trkpt lat="43.07177" lon="5.83976">
        <ele>98.199996948242</ele>
        <time>2020-09-01T09:53:29.000Z</time>
      </trkpt>
      <trkpt lat="43.07171" lon="5.83994">
        <ele>99</ele>
        <time>2020-09-01T09:53:32.000Z</time>
      </trkpt>
      <trkpt lat="43.07168" lon="5.84">
        <ele>99.400001525879</ele>
        <time>2020-09-01T09:53:33.000Z</time>
      </trkpt>
      <trkpt lat="43.07158" lon="5.84023">
        <ele>100.59999847412</ele>
        <time>2020-09-01T09:53:38.000Z</time>
      </trkpt>
      <trkpt lat="43.07152" lon="5.84033">
        <ele>101.80000305176</ele>
        <time>2020-09-01T09:53:41.000Z</time>
      </trkpt>
      <trkpt lat="43.07146" lon="5.84043">
        <ele>102.59999847412</ele>
        <time>2020-09-01T09:53:44.000Z</time>
      </trkpt>
      <trkpt lat="43.07145" lon="5.84047">
        <ele>103</ele>
        <time>2020-09-01T09:53:45.000Z</time>
      </trkpt>
      <trkpt lat="43.07141" lon="5.84052">
        <ele>103.40000152588</ele>
        <time>2020-09-01T09:53:47.000Z</time>
      </trkpt>
      <trkpt lat="43.07138" lon="5.84059">
        <ele>104.19999694824</ele>
        <time>2020-09-01T09:53:49.000Z</time>
      </trkpt>
      <trkpt lat="43.07134" lon="5.84072">
        <ele>105</ele>
        <time>2020-09-01T09:53:52.000Z</time>
      </trkpt>
      <trkpt lat="43.07132" lon="5.84077">
        <ele>105.19999694824</ele>
        <time>2020-09-01T09:53:53.000Z</time>
      </trkpt>
      <trkpt lat="43.07129" lon="5.84081">
        <ele>105.40000152588</ele>
        <time>2020-09-01T09:53:54.000Z</time>
      </trkpt>
      <trkpt lat="43.07124" lon="5.84089">
        <ele>105.59999847412</ele>
        <time>2020-09-01T09:53:56.000Z</time>
      </trkpt>
      <trkpt lat="43.07114" lon="5.84099">
        <ele>106.59999847412</ele>
        <time>2020-09-01T09:54:00.000Z</time>
      </trkpt>
      <trkpt lat="43.07112" lon="5.84102">
        <ele>107.19999694824</ele>
        <time>2020-09-01T09:54:01.000Z</time>
      </trkpt>
      <trkpt lat="43.0711" lon="5.84104">
        <ele>107.80000305176</ele>
        <time>2020-09-01T09:54:02.000Z</time>
      </trkpt>
      <trkpt lat="43.07106" lon="5.84111">
        <ele>108.80000305176</ele>
        <time>2020-09-01T09:54:04.000Z</time>
      </trkpt>
      <trkpt lat="43.07104" lon="5.84116">
        <ele>109</ele>
        <time>2020-09-01T09:54:05.000Z</time>
      </trkpt>
      <trkpt lat="43.07094" lon="5.84125">
        <ele>110.19999694824</ele>
        <time>2020-09-01T09:54:09.000Z</time>
      </trkpt>
      <trkpt lat="43.07091" lon="5.84127">
        <ele>110.19999694824</ele>
        <time>2020-09-01T09:54:10.000Z</time>
      </trkpt>
      <trkpt lat="43.07079" lon="5.84134">
        <ele>111</ele>
        <time>2020-09-01T09:54:13.000Z</time>
      </trkpt>
      <trkpt lat="43.07075" lon="5.84136">
        <ele>111.19999694824</ele>
        <time>2020-09-01T09:54:14.000Z</time>
      </trkpt>
      <trkpt lat="43.07066" lon="5.84141">
        <ele>112</ele>
        <time>2020-09-01T09:54:17.000Z</time>
      </trkpt>
      <trkpt lat="43.07063" lon="5.84142">
        <ele>112.40000152588</ele>
        <time>2020-09-01T09:54:18.000Z</time>
      </trkpt>
      <trkpt lat="43.07054" lon="5.84148">
        <ele>113.19999694824</ele>
        <time>2020-09-01T09:54:21.000Z</time>
      </trkpt>
      <trkpt lat="43.07049" lon="5.84153">
        <ele>113.80000305176</ele>
        <time>2020-09-01T09:54:23.000Z</time>
      </trkpt>
      <trkpt lat="43.07042" lon="5.84157">
        <ele>114.40000152588</ele>
        <time>2020-09-01T09:54:25.000Z</time>
      </trkpt>
      <trkpt lat="43.07028" lon="5.84171">
        <ele>114.59999847412</ele>
        <time>2020-09-01T09:54:29.000Z</time>
      </trkpt>
      <trkpt lat="43.07024" lon="5.84175">
        <ele>114.59999847412</ele>
        <time>2020-09-01T09:54:30.000Z</time>
      </trkpt>
      <trkpt lat="43.07014" lon="5.84183">
        <ele>114.80000305176</ele>
        <time>2020-09-01T09:54:33.000Z</time>
      </trkpt>
      <trkpt lat="43.07012" lon="5.84185">
        <ele>115.19999694824</ele>
        <time>2020-09-01T09:54:34.000Z</time>
      </trkpt>
      <trkpt lat="43.07009" lon="5.84188">
        <ele>116.40000152588</ele>
        <time>2020-09-01T09:54:36.000Z</time>
      </trkpt>
      <trkpt lat="43.07006" lon="5.84189">
        <ele>117</ele>
        <time>2020-09-01T09:54:37.000Z</time>
      </trkpt>
      <trkpt lat="43.07003" lon="5.84189">
        <ele>117.40000152588</ele>
        <time>2020-09-01T09:54:38.000Z</time>
      </trkpt>
      <trkpt lat="43.07001" lon="5.84189">
        <ele>117.59999847412</ele>
        <time>2020-09-01T09:54:39.000Z</time>
      </trkpt>
      <trkpt lat="43.06995" lon="5.84195">
        <ele>118.80000305176</ele>
        <time>2020-09-01T09:54:42.000Z</time>
      </trkpt>
      <trkpt lat="43.0699" lon="5.84199">
        <ele>120</ele>
        <time>2020-09-01T09:54:44.000Z</time>
      </trkpt>
      <trkpt lat="43.06985" lon="5.84202">
        <ele>120.80000305176</ele>
        <time>2020-09-01T09:54:46.000Z</time>
      </trkpt>
      <trkpt lat="43.06983" lon="5.84203">
        <ele>121.19999694824</ele>
        <time>2020-09-01T09:54:47.000Z</time>
      </trkpt>
      <trkpt lat="43.06981" lon="5.84205">
        <ele>121.40000152588</ele>
        <time>2020-09-01T09:54:48.000Z</time>
      </trkpt>
      <trkpt lat="43.06971" lon="5.84219">
        <ele>122.40000152588</ele>
        <time>2020-09-01T09:54:53.000Z</time>
      </trkpt>
      <trkpt lat="43.06965" lon="5.84221">
        <ele>123</ele>
        <time>2020-09-01T09:54:56.000Z</time>
      </trkpt>
      <trkpt lat="43.06963" lon="5.84223">
        <ele>123.19999694824</ele>
        <time>2020-09-01T09:54:57.000Z</time>
      </trkpt>
      <trkpt lat="43.06961" lon="5.84225">
        <ele>123.40000152588</ele>
        <time>2020-09-01T09:54:58.000Z</time>
      </trkpt>
      <trkpt lat="43.06956" lon="5.84228">
        <ele>124.19999694824</ele>
        <time>2020-09-01T09:55:00.000Z</time>
      </trkpt>
      <trkpt lat="43.06955" lon="5.84227">
        <ele>124.40000152588</ele>
        <time>2020-09-01T09:55:01.000Z</time>
      </trkpt>
      <trkpt lat="43.06954" lon="5.84228">
        <ele>124.59999847412</ele>
        <time>2020-09-01T09:55:02.000Z</time>
      </trkpt>
      <trkpt lat="43.06953" lon="5.84229">
        <ele>124.80000305176</ele>
        <time>2020-09-01T09:55:03.000Z</time>
      </trkpt>
      <trkpt lat="43.06951" lon="5.84232">
        <ele>125.19999694824</ele>
        <time>2020-09-01T09:55:04.000Z</time>
      </trkpt>
      <trkpt lat="43.06943" lon="5.84239">
        <ele>125.59999847412</ele>
        <time>2020-09-01T09:55:07.000Z</time>
      </trkpt>
      <trkpt lat="43.06938" lon="5.84241">
        <ele>125.59999847412</ele>
        <time>2020-09-01T09:55:09.000Z</time>
      </trkpt>
      <trkpt lat="43.06928" lon="5.84245">
        <ele>126.19999694824</ele>
        <time>2020-09-01T09:55:13.000Z</time>
      </trkpt>
      <trkpt lat="43.06928" lon="5.84246">
        <ele>126.80000305176</ele>
        <time>2020-09-01T09:55:15.000Z</time>
      </trkpt>
      <trkpt lat="43.06927" lon="5.84246">
        <ele>127.19999694824</ele>
        <time>2020-09-01T09:55:16.000Z</time>
      </trkpt>
      <trkpt lat="43.06929" lon="5.84246">
        <ele>127.40000152588</ele>
        <time>2020-09-01T09:55:19.000Z</time>
      </trkpt>
      <trkpt lat="43.0693" lon="5.84245">
        <ele>127.40000152588</ele>
        <time>2020-09-01T09:55:22.000Z</time>
      </trkpt>
      <trkpt lat="43.0693" lon="5.84246">
        <ele>127.40000152588</ele>
        <time>2020-09-01T09:55:28.000Z</time>
      </trkpt>
      <trkpt lat="43.06929" lon="5.84247">
        <ele>127.40000152588</ele>
        <time>2020-09-01T09:55:30.000Z</time>
      </trkpt>
      <trkpt lat="43.06924" lon="5.84246">
        <ele>127.59999847412</ele>
        <time>2020-09-01T09:55:33.000Z</time>
      </trkpt>
      <trkpt lat="43.06918" lon="5.84249">
        <ele>128</ele>
        <time>2020-09-01T09:55:36.000Z</time>
      </trkpt>
      <trkpt lat="43.06916" lon="5.8425">
        <ele>128</ele>
        <time>2020-09-01T09:55:37.000Z</time>
      </trkpt>
      <trkpt lat="43.0691" lon="5.84251">
        <ele>128.39999389648</ele>
        <time>2020-09-01T09:55:40.000Z</time>
      </trkpt>
      <trkpt lat="43.06906" lon="5.84252">
        <ele>128.60000610352</ele>
        <time>2020-09-01T09:55:42.000Z</time>
      </trkpt>
      <trkpt lat="43.069" lon="5.84256">
        <ele>129</ele>
        <time>2020-09-01T09:55:44.000Z</time>
      </trkpt>
      <trkpt lat="43.06895" lon="5.84261">
        <ele>129</ele>
        <time>2020-09-01T09:55:46.000Z</time>
      </trkpt>
      <trkpt lat="43.06894" lon="5.84264">
        <ele>128.19999694824</ele>
        <time>2020-09-01T09:55:48.000Z</time>
      </trkpt>
      <trkpt lat="43.06896" lon="5.84264">
        <ele>128</ele>
        <time>2020-09-01T09:55:49.000Z</time>
      </trkpt>
      <trkpt lat="43.06897" lon="5.84265">
        <ele>127.59999847412</ele>
        <time>2020-09-01T09:55:50.000Z</time>
      </trkpt>
      <trkpt lat="43.06907" lon="5.8427">
        <ele>126.19999694824</ele>
        <time>2020-09-01T09:55:53.000Z</time>
      </trkpt>
      <trkpt lat="43.0691" lon="5.84271">
        <ele>125.80000305176</ele>
        <time>2020-09-01T09:55:54.000Z</time>
      </trkpt>
      <trkpt lat="43.06918" lon="5.84278">
        <ele>124.80000305176</ele>
        <time>2020-09-01T09:55:56.000Z</time>
      </trkpt>
      <trkpt lat="43.06919" lon="5.84282">
        <ele>124.40000152588</ele>
        <time>2020-09-01T09:55:57.000Z</time>
      </trkpt>
      <trkpt lat="43.06922" lon="5.84295">
        <ele>124</ele>
        <time>2020-09-01T09:56:01.000Z</time>
      </trkpt>
      <trkpt lat="43.06935" lon="5.84298">
        <ele>124.80000305176</ele>
        <time>2020-09-01T09:56:05.000Z</time>
      </trkpt>
      <trkpt lat="43.06939" lon="5.84298">
        <ele>125</ele>
        <time>2020-09-01T09:56:06.000Z</time>
      </trkpt>
      <trkpt lat="43.06959" lon="5.843">
        <ele>126</ele>
        <time>2020-09-01T09:56:11.000Z</time>
      </trkpt>
      <trkpt lat="43.06978" lon="5.84299">
        <ele>127.19999694824</ele>
        <time>2020-09-01T09:56:16.000Z</time>
      </trkpt>
      <trkpt lat="43.06983" lon="5.84298">
        <ele>127.40000152588</ele>
        <time>2020-09-01T09:56:17.000Z</time>
      </trkpt>
      <trkpt lat="43.06995" lon="5.84298">
        <ele>128.19999694824</ele>
        <time>2020-09-01T09:56:20.000Z</time>
      </trkpt>
      <trkpt lat="43.07008" lon="5.84299">
        <ele>129.19999694824</ele>
        <time>2020-09-01T09:56:23.000Z</time>
      </trkpt>
      <trkpt lat="43.07012" lon="5.84299">
        <ele>129.39999389648</ele>
        <time>2020-09-01T09:56:24.000Z</time>
      </trkpt>
      <trkpt lat="43.07016" lon="5.84301">
        <ele>129.60000610352</ele>
        <time>2020-09-01T09:56:25.000Z</time>
      </trkpt>
      <trkpt lat="43.07027" lon="5.84308">
        <ele>130.19999694824</ele>
        <time>2020-09-01T09:56:28.000Z</time>
      </trkpt>
      <trkpt lat="43.07031" lon="5.84311">
        <ele>130.39999389648</ele>
        <time>2020-09-01T09:56:29.000Z</time>
      </trkpt>
      <trkpt lat="43.07042" lon="5.84323">
        <ele>131.19999694824</ele>
        <time>2020-09-01T09:56:32.000Z</time>
      </trkpt>
      <trkpt lat="43.07045" lon="5.84327">
        <ele>131.60000610352</ele>
        <time>2020-09-01T09:56:33.000Z</time>
      </trkpt>
      <trkpt lat="43.07048" lon="5.8433">
        <ele>131.80000305176</ele>
        <time>2020-09-01T09:56:34.000Z</time>
      </trkpt>
      <trkpt lat="43.07055" lon="5.84337">
        <ele>132.60000610352</ele>
        <time>2020-09-01T09:56:36.000Z</time>
      </trkpt>
      <trkpt lat="43.07059" lon="5.84345">
        <ele>133.60000610352</ele>
        <time>2020-09-01T09:56:38.000Z</time>
      </trkpt>
      <trkpt lat="43.07061" lon="5.84352">
        <ele>134.39999389648</ele>
        <time>2020-09-01T09:56:40.000Z</time>
      </trkpt>
      <trkpt lat="43.07061" lon="5.84356">
        <ele>134.80000305176</ele>
        <time>2020-09-01T09:56:41.000Z</time>
      </trkpt>
      <trkpt lat="43.07059" lon="5.84362">
        <ele>135.39999389648</ele>
        <time>2020-09-01T09:56:43.000Z</time>
      </trkpt>
      <trkpt lat="43.07056" lon="5.84371">
        <ele>136</ele>
        <time>2020-09-01T09:56:45.000Z</time>
      </trkpt>
      <trkpt lat="43.07048" lon="5.84397">
        <ele>134.39999389648</ele>
        <time>2020-09-01T09:56:49.000Z</time>
      </trkpt>
      <trkpt lat="43.07046" lon="5.84406">
        <ele>133.39999389648</ele>
        <time>2020-09-01T09:56:50.000Z</time>
      </trkpt>
      <trkpt lat="43.07043" lon="5.84415">
        <ele>132</ele>
        <time>2020-09-01T09:56:51.000Z</time>
      </trkpt>
      <trkpt lat="43.0704" lon="5.84423">
        <ele>130.60000610352</ele>
        <time>2020-09-01T09:56:52.000Z</time>
      </trkpt>
      <trkpt lat="43.07037" lon="5.84431">
        <ele>129.39999389648</ele>
        <time>2020-09-01T09:56:53.000Z</time>
      </trkpt>
      <trkpt lat="43.07034" lon="5.8444">
        <ele>127.80000305176</ele>
        <time>2020-09-01T09:56:54.000Z</time>
      </trkpt>
      <trkpt lat="43.07032" lon="5.84449">
        <ele>126</ele>
        <time>2020-09-01T09:56:55.000Z</time>
      </trkpt>
      <trkpt lat="43.0703" lon="5.8446">
        <ele>124.59999847412</ele>
        <time>2020-09-01T09:56:56.000Z</time>
      </trkpt>
      <trkpt lat="43.07028" lon="5.84471">
        <ele>123.19999694824</ele>
        <time>2020-09-01T09:56:57.000Z</time>
      </trkpt>
      <trkpt lat="43.07027" lon="5.84483">
        <ele>121.59999847412</ele>
        <time>2020-09-01T09:56:58.000Z</time>
      </trkpt>
      <trkpt lat="43.07024" lon="5.84505">
        <ele>120</ele>
        <time>2020-09-01T09:57:00.000Z</time>
      </trkpt>
      <trkpt lat="43.07023" lon="5.84527">
        <ele>118.59999847412</ele>
        <time>2020-09-01T09:57:02.000Z</time>
      </trkpt>
      <trkpt lat="43.07025" lon="5.84538">
        <ele>118.40000152588</ele>
        <time>2020-09-01T09:57:03.000Z</time>
      </trkpt>
      <trkpt lat="43.07028" lon="5.84548">
        <ele>117.59999847412</ele>
        <time>2020-09-01T09:57:04.000Z</time>
      </trkpt>
      <trkpt lat="43.07037" lon="5.8457">
        <ele>116</ele>
        <time>2020-09-01T09:57:06.000Z</time>
      </trkpt>
      <trkpt lat="43.07042" lon="5.8458">
        <ele>115.40000152588</ele>
        <time>2020-09-01T09:57:07.000Z</time>
      </trkpt>
      <trkpt lat="43.07047" lon="5.8459">
        <ele>115</ele>
        <time>2020-09-01T09:57:08.000Z</time>
      </trkpt>
      <trkpt lat="43.07067" lon="5.84615">
        <ele>113.59999847412</ele>
        <time>2020-09-01T09:57:11.000Z</time>
      </trkpt>
      <trkpt lat="43.07072" lon="5.84624">
        <ele>113.40000152588</ele>
        <time>2020-09-01T09:57:12.000Z</time>
      </trkpt>
      <trkpt lat="43.07081" lon="5.84648">
        <ele>112.40000152588</ele>
        <time>2020-09-01T09:57:14.000Z</time>
      </trkpt>
      <trkpt lat="43.07082" lon="5.84673">
        <ele>110.80000305176</ele>
        <time>2020-09-01T09:57:16.000Z</time>
      </trkpt>
      <trkpt lat="43.0708" lon="5.84686">
        <ele>110</ele>
        <time>2020-09-01T09:57:17.000Z</time>
      </trkpt>
      <trkpt lat="43.07079" lon="5.84697">
        <ele>109.19999694824</ele>
        <time>2020-09-01T09:57:18.000Z</time>
      </trkpt>
      <trkpt lat="43.07079" lon="5.84708">
        <ele>108.59999847412</ele>
        <time>2020-09-01T09:57:19.000Z</time>
      </trkpt>
      <trkpt lat="43.07075" lon="5.84732">
        <ele>108.19999694824</ele>
        <time>2020-09-01T09:57:21.000Z</time>
      </trkpt>
      <trkpt lat="43.07068" lon="5.84751">
        <ele>107</ele>
        <time>2020-09-01T09:57:23.000Z</time>
      </trkpt>
      <trkpt lat="43.07061" lon="5.84768">
        <ele>106.59999847412</ele>
        <time>2020-09-01T09:57:25.000Z</time>
      </trkpt>
      <trkpt lat="43.07062" lon="5.848">
        <ele>106</ele>
        <time>2020-09-01T09:57:28.000Z</time>
      </trkpt>
      <trkpt lat="43.07062" lon="5.8481">
        <ele>105.80000305176</ele>
        <time>2020-09-01T09:57:29.000Z</time>
      </trkpt>
      <trkpt lat="43.07064" lon="5.84823">
        <ele>105.59999847412</ele>
        <time>2020-09-01T09:57:30.000Z</time>
      </trkpt>
      <trkpt lat="43.07068" lon="5.84843">
        <ele>105</ele>
        <time>2020-09-01T09:57:32.000Z</time>
      </trkpt>
      <trkpt lat="43.07077" lon="5.8486">
        <ele>104</ele>
        <time>2020-09-01T09:57:34.000Z</time>
      </trkpt>
      <trkpt lat="43.07081" lon="5.8487">
        <ele>103.19999694824</ele>
        <time>2020-09-01T09:57:35.000Z</time>
      </trkpt>
      <trkpt lat="43.07085" lon="5.84879">
        <ele>103.19999694824</ele>
        <time>2020-09-01T09:57:36.000Z</time>
      </trkpt>
      <trkpt lat="43.07089" lon="5.8489">
        <ele>102.80000305176</ele>
        <time>2020-09-01T09:57:37.000Z</time>
      </trkpt>
      <trkpt lat="43.07096" lon="5.84912">
        <ele>102</ele>
        <time>2020-09-01T09:57:39.000Z</time>
      </trkpt>
      <trkpt lat="43.07102" lon="5.84924">
        <ele>101.40000152588</ele>
        <time>2020-09-01T09:57:40.000Z</time>
      </trkpt>
      <trkpt lat="43.07107" lon="5.84937">
        <ele>100.40000152588</ele>
        <time>2020-09-01T09:57:41.000Z</time>
      </trkpt>
      <trkpt lat="43.07112" lon="5.8495">
        <ele>99</ele>
        <time>2020-09-01T09:57:42.000Z</time>
      </trkpt>
      <trkpt lat="43.07117" lon="5.84964">
        <ele>97.599998474121</ele>
        <time>2020-09-01T09:57:43.000Z</time>
      </trkpt>
      <trkpt lat="43.0712" lon="5.84977">
        <ele>96</ele>
        <time>2020-09-01T09:57:44.000Z</time>
      </trkpt>
      <trkpt lat="43.07121" lon="5.84992">
        <ele>94.400001525879</ele>
        <time>2020-09-01T09:57:45.000Z</time>
      </trkpt>
      <trkpt lat="43.07121" lon="5.85004">
        <ele>93.400001525879</ele>
        <time>2020-09-01T09:57:46.000Z</time>
      </trkpt>
      <trkpt lat="43.07118" lon="5.8503">
        <ele>92.199996948242</ele>
        <time>2020-09-01T09:57:48.000Z</time>
      </trkpt>
      <trkpt lat="43.07113" lon="5.85055">
        <ele>91.599998474121</ele>
        <time>2020-09-01T09:57:50.000Z</time>
      </trkpt>
      <trkpt lat="43.07112" lon="5.85065">
        <ele>91.599998474121</ele>
        <time>2020-09-01T09:57:51.000Z</time>
      </trkpt>
      <trkpt lat="43.07113" lon="5.85078">
        <ele>91.199996948242</ele>
        <time>2020-09-01T09:57:52.000Z</time>
      </trkpt>
      <trkpt lat="43.07112" lon="5.85089">
        <ele>90.599998474121</ele>
        <time>2020-09-01T09:57:53.000Z</time>
      </trkpt>
      <trkpt lat="43.07111" lon="5.85143">
        <ele>90</ele>
        <time>2020-09-01T09:57:58.000Z</time>
      </trkpt>
      <trkpt lat="43.07111" lon="5.85175">
        <ele>89.599998474121</ele>
        <time>2020-09-01T09:58:01.000Z</time>
      </trkpt>
      <trkpt lat="43.07112" lon="5.85186">
        <ele>89.400001525879</ele>
        <time>2020-09-01T09:58:02.000Z</time>
      </trkpt>
      <trkpt lat="43.07113" lon="5.85206">
        <ele>89</ele>
        <time>2020-09-01T09:58:04.000Z</time>
      </trkpt>
      <trkpt lat="43.07114" lon="5.85238">
        <ele>88.199996948242</ele>
        <time>2020-09-01T09:58:07.000Z</time>
      </trkpt>
      <trkpt lat="43.07113" lon="5.85245">
        <ele>87.800003051758</ele>
        <time>2020-09-01T09:58:08.000Z</time>
      </trkpt>
      <trkpt lat="43.07112" lon="5.85263">
        <ele>86.800003051758</ele>
        <time>2020-09-01T09:58:11.000Z</time>
      </trkpt>
      <trkpt lat="43.07111" lon="5.8527">
        <ele>86.400001525879</ele>
        <time>2020-09-01T09:58:12.000Z</time>
      </trkpt>
      <trkpt lat="43.0711" lon="5.85279">
        <ele>86.199996948242</ele>
        <time>2020-09-01T09:58:13.000Z</time>
      </trkpt>
      <trkpt lat="43.07111" lon="5.85293">
        <ele>85.599998474121</ele>
        <time>2020-09-01T09:58:15.000Z</time>
      </trkpt>
      <trkpt lat="43.07113" lon="5.85301">
        <ele>84.599998474121</ele>
        <time>2020-09-01T09:58:16.000Z</time>
      </trkpt>
      <trkpt lat="43.07113" lon="5.85311">
        <ele>84.400001525879</ele>
        <time>2020-09-01T09:58:17.000Z</time>
      </trkpt>
      <trkpt lat="43.07116" lon="5.85327">
        <ele>82.400001525879</ele>
        <time>2020-09-01T09:58:19.000Z</time>
      </trkpt>
      <trkpt lat="43.07117" lon="5.85334">
        <ele>81.599998474121</ele>
        <time>2020-09-01T09:58:20.000Z</time>
      </trkpt>
      <trkpt lat="43.07116" lon="5.85339">
        <ele>80.599998474121</ele>
        <time>2020-09-01T09:58:21.000Z</time>
      </trkpt>
      <trkpt lat="43.07115" lon="5.85342">
        <ele>79.599998474121</ele>
        <time>2020-09-01T09:58:22.000Z</time>
      </trkpt>
      <trkpt lat="43.07112" lon="5.85344">
        <ele>79</ele>
        <time>2020-09-01T09:58:23.000Z</time>
      </trkpt>
      <trkpt lat="43.071" lon="5.85343">
        <ele>78.199996948242</ele>
        <time>2020-09-01T09:58:26.000Z</time>
      </trkpt>
      <trkpt lat="43.07095" lon="5.85342">
        <ele>78</ele>
        <time>2020-09-01T09:58:27.000Z</time>
      </trkpt>
      <trkpt lat="43.0709" lon="5.8534">
        <ele>77.800003051758</ele>
        <time>2020-09-01T09:58:28.000Z</time>
      </trkpt>
      <trkpt lat="43.07075" lon="5.85334">
        <ele>77.800003051758</ele>
        <time>2020-09-01T09:58:31.000Z</time>
      </trkpt>
      <trkpt lat="43.07051" lon="5.85319">
        <ele>78.800003051758</ele>
        <time>2020-09-01T09:58:37.000Z</time>
      </trkpt>
      <trkpt lat="43.07048" lon="5.85316">
        <ele>79</ele>
        <time>2020-09-01T09:58:38.000Z</time>
      </trkpt>
      <trkpt lat="43.07036" lon="5.85309">
        <ele>79.400001525879</ele>
        <time>2020-09-01T09:58:41.000Z</time>
      </trkpt>
      <trkpt lat="43.07028" lon="5.85303">
        <ele>79.400001525879</ele>
        <time>2020-09-01T09:58:43.000Z</time>
      </trkpt>
      <trkpt lat="43.07002" lon="5.85285">
        <ele>80</ele>
        <time>2020-09-01T09:58:50.000Z</time>
      </trkpt>
      <trkpt lat="43.06982" lon="5.85279">
        <ele>81</ele>
        <time>2020-09-01T09:58:55.000Z</time>
      </trkpt>
      <trkpt lat="43.06978" lon="5.85278">
        <ele>81.199996948242</ele>
        <time>2020-09-01T09:58:56.000Z</time>
      </trkpt>
      <trkpt lat="43.06974" lon="5.85278">
        <ele>81.199996948242</ele>
        <time>2020-09-01T09:58:57.000Z</time>
      </trkpt>
      <trkpt lat="43.06962" lon="5.85284">
        <ele>81.199996948242</ele>
        <time>2020-09-01T09:59:00.000Z</time>
      </trkpt>
      <trkpt lat="43.06958" lon="5.85287">
        <ele>81.199996948242</ele>
        <time>2020-09-01T09:59:01.000Z</time>
      </trkpt>
      <trkpt lat="43.06946" lon="5.85292">
        <ele>81.800003051758</ele>
        <time>2020-09-01T09:59:04.000Z</time>
      </trkpt>
      <trkpt lat="43.06936" lon="5.85294">
        <ele>82</ele>
        <time>2020-09-01T09:59:06.000Z</time>
      </trkpt>
      <trkpt lat="43.06904" lon="5.85307">
        <ele>82.599998474121</ele>
        <time>2020-09-01T09:59:13.000Z</time>
      </trkpt>
      <trkpt lat="43.06883" lon="5.85324">
        <ele>83.199996948242</ele>
        <time>2020-09-01T09:59:19.000Z</time>
      </trkpt>
      <trkpt lat="43.06872" lon="5.85344">
        <ele>84.400001525879</ele>
        <time>2020-09-01T09:59:24.000Z</time>
      </trkpt>
      <trkpt lat="43.0687" lon="5.85358">
        <ele>85.800003051758</ele>
        <time>2020-09-01T09:59:27.000Z</time>
      </trkpt>
      <trkpt lat="43.0687" lon="5.85363">
        <ele>86.400001525879</ele>
        <time>2020-09-01T09:59:28.000Z</time>
      </trkpt>
      <trkpt lat="43.0687" lon="5.85368">
        <ele>86.800003051758</ele>
        <time>2020-09-01T09:59:29.000Z</time>
      </trkpt>
      <trkpt lat="43.06868" lon="5.85374">
        <ele>87.199996948242</ele>
        <time>2020-09-01T09:59:30.000Z</time>
      </trkpt>
      <trkpt lat="43.0686" lon="5.85383">
        <ele>87.199996948242</ele>
        <time>2020-09-01T09:59:32.000Z</time>
      </trkpt>
      <trkpt lat="43.06844" lon="5.85389">
        <ele>87</ele>
        <time>2020-09-01T09:59:35.000Z</time>
      </trkpt>
      <trkpt lat="43.06839" lon="5.85389">
        <ele>87.199996948242</ele>
        <time>2020-09-01T09:59:36.000Z</time>
      </trkpt>
      <trkpt lat="43.06826" lon="5.85392">
        <ele>88</ele>
        <time>2020-09-01T09:59:39.000Z</time>
      </trkpt>
      <trkpt lat="43.06811" lon="5.85393">
        <ele>89</ele>
        <time>2020-09-01T09:59:42.000Z</time>
      </trkpt>
      <trkpt lat="43.06802" lon="5.85393">
        <ele>89.599998474121</ele>
        <time>2020-09-01T09:59:44.000Z</time>
      </trkpt>
      <trkpt lat="43.0678" lon="5.85397">
        <ele>90</ele>
        <time>2020-09-01T09:59:48.000Z</time>
      </trkpt>
      <trkpt lat="43.0677" lon="5.85401">
        <ele>90.199996948242</ele>
        <time>2020-09-01T09:59:50.000Z</time>
      </trkpt>
      <trkpt lat="43.06733" lon="5.85408">
        <ele>91</ele>
        <time>2020-09-01T09:59:57.000Z</time>
      </trkpt>
      <trkpt lat="43.06728" lon="5.85408">
        <ele>91.199996948242</ele>
        <time>2020-09-01T09:59:58.000Z</time>
      </trkpt>
      <trkpt lat="43.06702" lon="5.85406">
        <ele>91.599998474121</ele>
        <time>2020-09-01T10:00:03.000Z</time>
      </trkpt>
      <trkpt lat="43.06677" lon="5.85406">
        <ele>92.400001525879</ele>
        <time>2020-09-01T10:00:08.000Z</time>
      </trkpt>
      <trkpt lat="43.06663" lon="5.85406">
        <ele>92.800003051758</ele>
        <time>2020-09-01T10:00:11.000Z</time>
      </trkpt>
      <trkpt lat="43.06654" lon="5.85406">
        <ele>93.599998474121</ele>
        <time>2020-09-01T10:00:13.000Z</time>
      </trkpt>
      <trkpt lat="43.06632" lon="5.85405">
        <ele>94.599998474121</ele>
        <time>2020-09-01T10:00:18.000Z</time>
      </trkpt>
      <trkpt lat="43.06618" lon="5.85406">
        <ele>95.599998474121</ele>
        <time>2020-09-01T10:00:21.000Z</time>
      </trkpt>
      <trkpt lat="43.06614" lon="5.85409">
        <ele>95.800003051758</ele>
        <time>2020-09-01T10:00:22.000Z</time>
      </trkpt>
      <trkpt lat="43.06609" lon="5.85412">
        <ele>96</ele>
        <time>2020-09-01T10:00:23.000Z</time>
      </trkpt>
      <trkpt lat="43.06596" lon="5.85421">
        <ele>96</ele>
        <time>2020-09-01T10:00:26.000Z</time>
      </trkpt>
      <trkpt lat="43.06583" lon="5.85428">
        <ele>96.800003051758</ele>
        <time>2020-09-01T10:00:29.000Z</time>
      </trkpt>
      <trkpt lat="43.06578" lon="5.85431">
        <ele>97.199996948242</ele>
        <time>2020-09-01T10:00:30.000Z</time>
      </trkpt>
      <trkpt lat="43.0657" lon="5.85435">
        <ele>98.199996948242</ele>
        <time>2020-09-01T10:00:32.000Z</time>
      </trkpt>
      <trkpt lat="43.06566" lon="5.85439">
        <ele>98.599998474121</ele>
        <time>2020-09-01T10:00:33.000Z</time>
      </trkpt>
      <trkpt lat="43.06558" lon="5.85445">
        <ele>99.199996948242</ele>
        <time>2020-09-01T10:00:35.000Z</time>
      </trkpt>
      <trkpt lat="43.0655" lon="5.85451">
        <ele>100</ele>
        <time>2020-09-01T10:00:37.000Z</time>
      </trkpt>
      <trkpt lat="43.06542" lon="5.85455">
        <ele>101</ele>
        <time>2020-09-01T10:00:39.000Z</time>
      </trkpt>
      <trkpt lat="43.06529" lon="5.85463">
        <ele>102.40000152588</ele>
        <time>2020-09-01T10:00:42.000Z</time>
      </trkpt>
      <trkpt lat="43.06525" lon="5.85464">
        <ele>102.59999847412</ele>
        <time>2020-09-01T10:00:43.000Z</time>
      </trkpt>
      <trkpt lat="43.06516" lon="5.85465">
        <ele>103.40000152588</ele>
        <time>2020-09-01T10:00:45.000Z</time>
      </trkpt>
      <trkpt lat="43.06511" lon="5.85465">
        <ele>103.80000305176</ele>
        <time>2020-09-01T10:00:46.000Z</time>
      </trkpt>
      <trkpt lat="43.06502" lon="5.85464">
        <ele>104.80000305176</ele>
        <time>2020-09-01T10:00:48.000Z</time>
      </trkpt>
      <trkpt lat="43.0648" lon="5.85461">
        <ele>105.40000152588</ele>
        <time>2020-09-01T10:00:53.000Z</time>
      </trkpt>
      <trkpt lat="43.06476" lon="5.85461">
        <ele>105.80000305176</ele>
        <time>2020-09-01T10:00:54.000Z</time>
      </trkpt>
      <trkpt lat="43.06464" lon="5.8546">
        <ele>107</ele>
        <time>2020-09-01T10:00:57.000Z</time>
      </trkpt>
      <trkpt lat="43.06451" lon="5.85457">
        <ele>107.80000305176</ele>
        <time>2020-09-01T10:01:00.000Z</time>
      </trkpt>
      <trkpt lat="43.06446" lon="5.85456">
        <ele>108</ele>
        <time>2020-09-01T10:01:01.000Z</time>
      </trkpt>
      <trkpt lat="43.06422" lon="5.85445">
        <ele>108</ele>
        <time>2020-09-01T10:01:06.000Z</time>
      </trkpt>
      <trkpt lat="43.06399" lon="5.85433">
        <ele>107.80000305176</ele>
        <time>2020-09-01T10:01:11.000Z</time>
      </trkpt>
      <trkpt lat="43.06378" lon="5.85431">
        <ele>109.40000152588</ele>
        <time>2020-09-01T10:01:16.000Z</time>
      </trkpt>
      <trkpt lat="43.06375" lon="5.85431">
        <ele>110</ele>
        <time>2020-09-01T10:01:17.000Z</time>
      </trkpt>
      <trkpt lat="43.06368" lon="5.8543">
        <ele>111</ele>
        <time>2020-09-01T10:01:19.000Z</time>
      </trkpt>
      <trkpt lat="43.06361" lon="5.85428">
        <ele>112</ele>
        <time>2020-09-01T10:01:21.000Z</time>
      </trkpt>
      <trkpt lat="43.06351" lon="5.85431">
        <ele>113</ele>
        <time>2020-09-01T10:01:24.000Z</time>
      </trkpt>
      <trkpt lat="43.06347" lon="5.85433">
        <ele>113.40000152588</ele>
        <time>2020-09-01T10:01:25.000Z</time>
      </trkpt>
      <trkpt lat="43.06328" lon="5.85437">
        <ele>114.19999694824</ele>
        <time>2020-09-01T10:01:30.000Z</time>
      </trkpt>
      <trkpt lat="43.06321" lon="5.85437">
        <ele>114.40000152588</ele>
        <time>2020-09-01T10:01:32.000Z</time>
      </trkpt>
      <trkpt lat="43.06307" lon="5.85434">
        <ele>115.19999694824</ele>
        <time>2020-09-01T10:01:36.000Z</time>
      </trkpt>
      <trkpt lat="43.06303" lon="5.85426">
        <ele>115.80000305176</ele>
        <time>2020-09-01T10:01:38.000Z</time>
      </trkpt>
      <trkpt lat="43.06298" lon="5.85422">
        <ele>116.40000152588</ele>
        <time>2020-09-01T10:01:40.000Z</time>
      </trkpt>
      <trkpt lat="43.06294" lon="5.85422">
        <ele>116.80000305176</ele>
        <time>2020-09-01T10:01:41.000Z</time>
      </trkpt>
      <trkpt lat="43.06283" lon="5.85423">
        <ele>118</ele>
        <time>2020-09-01T10:01:44.000Z</time>
      </trkpt>
      <trkpt lat="43.06267" lon="5.85417">
        <ele>118.40000152588</ele>
        <time>2020-09-01T10:01:48.000Z</time>
      </trkpt>
      <trkpt lat="43.06254" lon="5.8542">
        <ele>118.59999847412</ele>
        <time>2020-09-01T10:01:52.000Z</time>
      </trkpt>
      <trkpt lat="43.06247" lon="5.85422">
        <ele>119</ele>
        <time>2020-09-01T10:01:54.000Z</time>
      </trkpt>
      <trkpt lat="43.06232" lon="5.85425">
        <ele>120.19999694824</ele>
        <time>2020-09-01T10:01:58.000Z</time>
      </trkpt>
      <trkpt lat="43.06228" lon="5.85426">
        <ele>120.40000152588</ele>
        <time>2020-09-01T10:01:59.000Z</time>
      </trkpt>
      <trkpt lat="43.06215" lon="5.85434">
        <ele>121.19999694824</ele>
        <time>2020-09-01T10:02:03.000Z</time>
      </trkpt>
      <trkpt lat="43.06203" lon="5.85441">
        <ele>121.40000152588</ele>
        <time>2020-09-01T10:02:06.000Z</time>
      </trkpt>
      <trkpt lat="43.06192" lon="5.85446">
        <ele>121.80000305176</ele>
        <time>2020-09-01T10:02:09.000Z</time>
      </trkpt>
      <trkpt lat="43.06181" lon="5.85454">
        <ele>122.40000152588</ele>
        <time>2020-09-01T10:02:12.000Z</time>
      </trkpt>
      <trkpt lat="43.06175" lon="5.85458">
        <ele>122.80000305176</ele>
        <time>2020-09-01T10:02:14.000Z</time>
      </trkpt>
      <trkpt lat="43.06168" lon="5.85461">
        <ele>123.40000152588</ele>
        <time>2020-09-01T10:02:16.000Z</time>
      </trkpt>
      <trkpt lat="43.0616" lon="5.85468">
        <ele>124.19999694824</ele>
        <time>2020-09-01T10:02:19.000Z</time>
      </trkpt>
      <trkpt lat="43.06153" lon="5.85474">
        <ele>124.40000152588</ele>
        <time>2020-09-01T10:02:21.000Z</time>
      </trkpt>
      <trkpt lat="43.06144" lon="5.85482">
        <ele>124.80000305176</ele>
        <time>2020-09-01T10:02:24.000Z</time>
      </trkpt>
      <trkpt lat="43.06137" lon="5.85488">
        <ele>125.59999847412</ele>
        <time>2020-09-01T10:02:26.000Z</time>
      </trkpt>
      <trkpt lat="43.06128" lon="5.85493">
        <ele>126.40000152588</ele>
        <time>2020-09-01T10:02:29.000Z</time>
      </trkpt>
      <trkpt lat="43.06125" lon="5.85498">
        <ele>126.59999847412</ele>
        <time>2020-09-01T10:02:30.000Z</time>
      </trkpt>
      <trkpt lat="43.06116" lon="5.85506">
        <ele>127.40000152588</ele>
        <time>2020-09-01T10:02:33.000Z</time>
      </trkpt>
      <trkpt lat="43.06109" lon="5.8551">
        <ele>127.80000305176</ele>
        <time>2020-09-01T10:02:35.000Z</time>
      </trkpt>
      <trkpt lat="43.06102" lon="5.85516">
        <ele>128.39999389648</ele>
        <time>2020-09-01T10:02:37.000Z</time>
      </trkpt>
      <trkpt lat="43.06099" lon="5.85519">
        <ele>128.39999389648</ele>
        <time>2020-09-01T10:02:38.000Z</time>
      </trkpt>
      <trkpt lat="43.06088" lon="5.85526">
        <ele>129</ele>
        <time>2020-09-01T10:02:41.000Z</time>
      </trkpt>
      <trkpt lat="43.06079" lon="5.85533">
        <ele>129.80000305176</ele>
        <time>2020-09-01T10:02:44.000Z</time>
      </trkpt>
      <trkpt lat="43.06076" lon="5.85536">
        <ele>130.19999694824</ele>
        <time>2020-09-01T10:02:45.000Z</time>
      </trkpt>
      <trkpt lat="43.06065" lon="5.8554">
        <ele>131.19999694824</ele>
        <time>2020-09-01T10:02:48.000Z</time>
      </trkpt>
      <trkpt lat="43.06059" lon="5.85541">
        <ele>131.80000305176</ele>
        <time>2020-09-01T10:02:50.000Z</time>
      </trkpt>
      <trkpt lat="43.06056" lon="5.85542">
        <ele>132.19999694824</ele>
        <time>2020-09-01T10:02:51.000Z</time>
      </trkpt>
      <trkpt lat="43.06046" lon="5.85541">
        <ele>133.39999389648</ele>
        <time>2020-09-01T10:02:54.000Z</time>
      </trkpt>
      <trkpt lat="43.06039" lon="5.85541">
        <ele>134</ele>
        <time>2020-09-01T10:02:56.000Z</time>
      </trkpt>
      <trkpt lat="43.06032" lon="5.85541">
        <ele>134.80000305176</ele>
        <time>2020-09-01T10:02:58.000Z</time>
      </trkpt>
      <trkpt lat="43.06024" lon="5.85539">
        <ele>135.80000305176</ele>
        <time>2020-09-01T10:03:01.000Z</time>
      </trkpt>
      <trkpt lat="43.06015" lon="5.85545">
        <ele>136.39999389648</ele>
        <time>2020-09-01T10:03:03.000Z</time>
      </trkpt>
      <trkpt lat="43.0601" lon="5.85548">
        <ele>136.19999694824</ele>
        <time>2020-09-01T10:03:04.000Z</time>
      </trkpt>
      <trkpt lat="43.05987" lon="5.85567">
        <ele>134.80000305176</ele>
        <time>2020-09-01T10:03:09.000Z</time>
      </trkpt>
      <trkpt lat="43.05984" lon="5.85571">
        <ele>134.60000610352</ele>
        <time>2020-09-01T10:03:10.000Z</time>
      </trkpt>
      <trkpt lat="43.0598" lon="5.85574">
        <ele>134.80000305176</ele>
        <time>2020-09-01T10:03:11.000Z</time>
      </trkpt>
      <trkpt lat="43.05965" lon="5.85578">
        <ele>135.80000305176</ele>
        <time>2020-09-01T10:03:15.000Z</time>
      </trkpt>
      <trkpt lat="43.05962" lon="5.85577">
        <ele>136.19999694824</ele>
        <time>2020-09-01T10:03:16.000Z</time>
      </trkpt>
      <trkpt lat="43.05956" lon="5.85576">
        <ele>137.39999389648</ele>
        <time>2020-09-01T10:03:18.000Z</time>
      </trkpt>
      <trkpt lat="43.0595" lon="5.85572">
        <ele>138.39999389648</ele>
        <time>2020-09-01T10:03:20.000Z</time>
      </trkpt>
      <trkpt lat="43.05947" lon="5.85569">
        <ele>138.80000305176</ele>
        <time>2020-09-01T10:03:21.000Z</time>
      </trkpt>
      <trkpt lat="43.05944" lon="5.85561">
        <ele>139.39999389648</ele>
        <time>2020-09-01T10:03:23.000Z</time>
      </trkpt>
      <trkpt lat="43.05945" lon="5.85557">
        <ele>139.60000610352</ele>
        <time>2020-09-01T10:03:24.000Z</time>
      </trkpt>
      <trkpt lat="43.05938" lon="5.85538">
        <ele>140.39999389648</ele>
        <time>2020-09-01T10:03:28.000Z</time>
      </trkpt>
      <trkpt lat="43.05936" lon="5.85535">
        <ele>140.60000610352</ele>
        <time>2020-09-01T10:03:29.000Z</time>
      </trkpt>
      <trkpt lat="43.05925" lon="5.85525">
        <ele>141.19999694824</ele>
        <time>2020-09-01T10:03:33.000Z</time>
      </trkpt>
      <trkpt lat="43.05919" lon="5.85523">
        <ele>141.60000610352</ele>
        <time>2020-09-01T10:03:35.000Z</time>
      </trkpt>
      <trkpt lat="43.05909" lon="5.85521">
        <ele>142.80000305176</ele>
        <time>2020-09-01T10:03:38.000Z</time>
      </trkpt>
      <trkpt lat="43.05901" lon="5.85515">
        <ele>144.19999694824</ele>
        <time>2020-09-01T10:03:41.000Z</time>
      </trkpt>
      <trkpt lat="43.05896" lon="5.85511">
        <ele>145.19999694824</ele>
        <time>2020-09-01T10:03:43.000Z</time>
      </trkpt>
      <trkpt lat="43.0589" lon="5.85507">
        <ele>146.39999389648</ele>
        <time>2020-09-01T10:03:45.000Z</time>
      </trkpt>
      <trkpt lat="43.05884" lon="5.85504">
        <ele>147.80000305176</ele>
        <time>2020-09-01T10:03:47.000Z</time>
      </trkpt>
      <trkpt lat="43.05879" lon="5.85502">
        <ele>148.80000305176</ele>
        <time>2020-09-01T10:03:49.000Z</time>
      </trkpt>
      <trkpt lat="43.05875" lon="5.85501">
        <ele>149.39999389648</ele>
        <time>2020-09-01T10:03:50.000Z</time>
      </trkpt>
      <trkpt lat="43.05866" lon="5.855">
        <ele>150.80000305176</ele>
        <time>2020-09-01T10:03:53.000Z</time>
      </trkpt>
      <trkpt lat="43.05859" lon="5.85499">
        <ele>151.80000305176</ele>
        <time>2020-09-01T10:03:55.000Z</time>
      </trkpt>
      <trkpt lat="43.05849" lon="5.85499">
        <ele>153.19999694824</ele>
        <time>2020-09-01T10:03:58.000Z</time>
      </trkpt>
      <trkpt lat="43.05842" lon="5.85497">
        <ele>154</ele>
        <time>2020-09-01T10:04:00.000Z</time>
      </trkpt>
      <trkpt lat="43.05839" lon="5.85497">
        <ele>154.60000610352</ele>
        <time>2020-09-01T10:04:01.000Z</time>
      </trkpt>
      <trkpt lat="43.05825" lon="5.85495">
        <ele>156.39999389648</ele>
        <time>2020-09-01T10:04:05.000Z</time>
      </trkpt>
      <trkpt lat="43.05818" lon="5.85493">
        <ele>157.80000305176</ele>
        <time>2020-09-01T10:04:07.000Z</time>
      </trkpt>
      <trkpt lat="43.05812" lon="5.8549">
        <ele>159</ele>
        <time>2020-09-01T10:04:09.000Z</time>
      </trkpt>
      <trkpt lat="43.05805" lon="5.85486">
        <ele>160.19999694824</ele>
        <time>2020-09-01T10:04:11.000Z</time>
      </trkpt>
      <trkpt lat="43.05799" lon="5.85484">
        <ele>161.60000610352</ele>
        <time>2020-09-01T10:04:13.000Z</time>
      </trkpt>
      <trkpt lat="43.05796" lon="5.85483">
        <ele>162.19999694824</ele>
        <time>2020-09-01T10:04:14.000Z</time>
      </trkpt>
      <trkpt lat="43.05792" lon="5.85481">
        <ele>162.80000305176</ele>
        <time>2020-09-01T10:04:15.000Z</time>
      </trkpt>
      <trkpt lat="43.05786" lon="5.8548">
        <ele>164</ele>
        <time>2020-09-01T10:04:17.000Z</time>
      </trkpt>
      <trkpt lat="43.05779" lon="5.8548">
        <ele>165.19999694824</ele>
        <time>2020-09-01T10:04:19.000Z</time>
      </trkpt>
      <trkpt lat="43.05775" lon="5.85479">
        <ele>165.60000610352</ele>
        <time>2020-09-01T10:04:20.000Z</time>
      </trkpt>
      <trkpt lat="43.05772" lon="5.85479">
        <ele>166.19999694824</ele>
        <time>2020-09-01T10:04:21.000Z</time>
      </trkpt>
      <trkpt lat="43.05763" lon="5.85473">
        <ele>167.39999389648</ele>
        <time>2020-09-01T10:04:24.000Z</time>
      </trkpt>
      <trkpt lat="43.05762" lon="5.85469">
        <ele>168.19999694824</ele>
        <time>2020-09-01T10:04:25.000Z</time>
      </trkpt>
      <trkpt lat="43.05761" lon="5.85464">
        <ele>168.80000305176</ele>
        <time>2020-09-01T10:04:26.000Z</time>
      </trkpt>
      <trkpt lat="43.05763" lon="5.85456">
        <ele>170</ele>
        <time>2020-09-01T10:04:28.000Z</time>
      </trkpt>
      <trkpt lat="43.05767" lon="5.85448">
        <ele>171.39999389648</ele>
        <time>2020-09-01T10:04:30.000Z</time>
      </trkpt>
      <trkpt lat="43.05772" lon="5.85442">
        <ele>172.39999389648</ele>
        <time>2020-09-01T10:04:32.000Z</time>
      </trkpt>
      <trkpt lat="43.05773" lon="5.85439">
        <ele>173</ele>
        <time>2020-09-01T10:04:33.000Z</time>
      </trkpt>
      <trkpt lat="43.05775" lon="5.85437">
        <ele>173.39999389648</ele>
        <time>2020-09-01T10:04:34.000Z</time>
      </trkpt>
      <trkpt lat="43.05781" lon="5.85425">
        <ele>174.39999389648</ele>
        <time>2020-09-01T10:04:38.000Z</time>
      </trkpt>
      <trkpt lat="43.0578" lon="5.85422">
        <ele>174.60000610352</ele>
        <time>2020-09-01T10:04:39.000Z</time>
      </trkpt>
      <trkpt lat="43.0577" lon="5.85422">
        <ele>176</ele>
        <time>2020-09-01T10:04:42.000Z</time>
      </trkpt>
      <trkpt lat="43.0576" lon="5.85427">
        <ele>177.19999694824</ele>
        <time>2020-09-01T10:04:45.000Z</time>
      </trkpt>
      <trkpt lat="43.05754" lon="5.8543">
        <ele>178.19999694824</ele>
        <time>2020-09-01T10:04:47.000Z</time>
      </trkpt>
      <trkpt lat="43.05751" lon="5.85432">
        <ele>178.39999389648</ele>
        <time>2020-09-01T10:04:48.000Z</time>
      </trkpt>
      <trkpt lat="43.05743" lon="5.85439">
        <ele>179.60000610352</ele>
        <time>2020-09-01T10:04:51.000Z</time>
      </trkpt>
      <trkpt lat="43.05738" lon="5.85443">
        <ele>180.39999389648</ele>
        <time>2020-09-01T10:04:53.000Z</time>
      </trkpt>
      <trkpt lat="43.05735" lon="5.85444">
        <ele>180.60000610352</ele>
        <time>2020-09-01T10:04:54.000Z</time>
      </trkpt>
      <trkpt lat="43.05733" lon="5.85443">
        <ele>181.19999694824</ele>
        <time>2020-09-01T10:04:55.000Z</time>
      </trkpt>
      <trkpt lat="43.05731" lon="5.85436">
        <ele>182.19999694824</ele>
        <time>2020-09-01T10:04:57.000Z</time>
      </trkpt>
      <trkpt lat="43.05736" lon="5.85425">
        <ele>183.39999389648</ele>
        <time>2020-09-01T10:05:00.000Z</time>
      </trkpt>
      <trkpt lat="43.05739" lon="5.85417">
        <ele>184</ele>
        <time>2020-09-01T10:05:02.000Z</time>
      </trkpt>
      <trkpt lat="43.05743" lon="5.8541">
        <ele>184.39999389648</ele>
        <time>2020-09-01T10:05:04.000Z</time>
      </trkpt>
      <trkpt lat="43.05746" lon="5.85402">
        <ele>185.19999694824</ele>
        <time>2020-09-01T10:05:06.000Z</time>
      </trkpt>
      <trkpt lat="43.05748" lon="5.85399">
        <ele>185.60000610352</ele>
        <time>2020-09-01T10:05:07.000Z</time>
      </trkpt>
      <trkpt lat="43.05753" lon="5.85391">
        <ele>186.60000610352</ele>
        <time>2020-09-01T10:05:10.000Z</time>
      </trkpt>
      <trkpt lat="43.05756" lon="5.85389">
        <ele>186.80000305176</ele>
        <time>2020-09-01T10:05:11.000Z</time>
      </trkpt>
      <trkpt lat="43.05768" lon="5.85382">
        <ele>187.39999389648</ele>
        <time>2020-09-01T10:05:16.000Z</time>
      </trkpt>
      <trkpt lat="43.0577" lon="5.8538">
        <ele>187.60000610352</ele>
        <time>2020-09-01T10:05:17.000Z</time>
      </trkpt>
      <trkpt lat="43.05772" lon="5.85381">
        <ele>187.80000305176</ele>
        <time>2020-09-01T10:05:18.000Z</time>
      </trkpt>
      <trkpt lat="43.05778" lon="5.85383">
        <ele>187.80000305176</ele>
        <time>2020-09-01T10:05:20.000Z</time>
      </trkpt>
      <trkpt lat="43.05784" lon="5.8539">
        <ele>187.39999389648</ele>
        <time>2020-09-01T10:05:23.000Z</time>
      </trkpt>
      <trkpt lat="43.05788" lon="5.85391">
        <ele>186.19999694824</ele>
        <time>2020-09-01T10:05:25.000Z</time>
      </trkpt>
      <trkpt lat="43.05793" lon="5.85391">
        <ele>185</ele>
        <time>2020-09-01T10:05:27.000Z</time>
      </trkpt>
      <trkpt lat="43.05799" lon="5.85395">
        <ele>183.60000610352</ele>
        <time>2020-09-01T10:05:30.000Z</time>
      </trkpt>
      <trkpt lat="43.05801" lon="5.854">
        <ele>182.19999694824</ele>
        <time>2020-09-01T10:05:32.000Z</time>
      </trkpt>
      <trkpt lat="43.05801" lon="5.85402">
        <ele>181.60000610352</ele>
        <time>2020-09-01T10:05:33.000Z</time>
      </trkpt>
      <trkpt lat="43.05802" lon="5.85404">
        <ele>181.60000610352</ele>
        <time>2020-09-01T10:05:34.000Z</time>
      </trkpt>
      <trkpt lat="43.05805" lon="5.85405">
        <ele>180.60000610352</ele>
        <time>2020-09-01T10:05:35.000Z</time>
      </trkpt>
      <trkpt lat="43.05809" lon="5.85409">
        <ele>179.39999389648</ele>
        <time>2020-09-01T10:05:37.000Z</time>
      </trkpt>
      <trkpt lat="43.0581" lon="5.85413">
        <ele>178.80000305176</ele>
        <time>2020-09-01T10:05:38.000Z</time>
      </trkpt>
      <trkpt lat="43.05809" lon="5.85416">
        <ele>178.39999389648</ele>
        <time>2020-09-01T10:05:39.000Z</time>
      </trkpt>
      <trkpt lat="43.05806" lon="5.85421">
        <ele>176.39999389648</ele>
        <time>2020-09-01T10:05:41.000Z</time>
      </trkpt>
      <trkpt lat="43.05803" lon="5.85424">
        <ele>174.80000305176</ele>
        <time>2020-09-01T10:05:43.000Z</time>
      </trkpt>
      <trkpt lat="43.05804" lon="5.85428">
        <ele>173.80000305176</ele>
        <time>2020-09-01T10:05:45.000Z</time>
      </trkpt>
      <trkpt lat="43.05806" lon="5.85436">
        <ele>172.80000305176</ele>
        <time>2020-09-01T10:05:47.000Z</time>
      </trkpt>
      <trkpt lat="43.05806" lon="5.85439">
        <ele>172.19999694824</ele>
        <time>2020-09-01T10:05:48.000Z</time>
      </trkpt>
      <trkpt lat="43.05807" lon="5.8544">
        <ele>171.60000610352</ele>
        <time>2020-09-01T10:05:49.000Z</time>
      </trkpt>
      <trkpt lat="43.05808" lon="5.85443">
        <ele>170.80000305176</ele>
        <time>2020-09-01T10:05:50.000Z</time>
      </trkpt>
      <trkpt lat="43.0581" lon="5.85444">
        <ele>170</ele>
        <time>2020-09-01T10:05:51.000Z</time>
      </trkpt>
      <trkpt lat="43.05814" lon="5.85445">
        <ele>169</ele>
        <time>2020-09-01T10:05:52.000Z</time>
      </trkpt>
      <trkpt lat="43.05819" lon="5.85443">
        <ele>168.19999694824</ele>
        <time>2020-09-01T10:05:53.000Z</time>
      </trkpt>
      <trkpt lat="43.05823" lon="5.85442">
        <ele>167.60000610352</ele>
        <time>2020-09-01T10:05:54.000Z</time>
      </trkpt>
      <trkpt lat="43.0584" lon="5.85438">
        <ele>166.19999694824</ele>
        <time>2020-09-01T10:05:57.000Z</time>
      </trkpt>
      <trkpt lat="43.05846" lon="5.85436">
        <ele>165.60000610352</ele>
        <time>2020-09-01T10:05:58.000Z</time>
      </trkpt>
      <trkpt lat="43.0585" lon="5.85434">
        <ele>164.80000305176</ele>
        <time>2020-09-01T10:05:59.000Z</time>
      </trkpt>
      <trkpt lat="43.05856" lon="5.85434">
        <ele>163.19999694824</ele>
        <time>2020-09-01T10:06:01.000Z</time>
      </trkpt>
      <trkpt lat="43.05859" lon="5.85444">
        <ele>161.80000305176</ele>
        <time>2020-09-01T10:06:04.000Z</time>
      </trkpt>
      <trkpt lat="43.05861" lon="5.85445">
        <ele>160.80000305176</ele>
        <time>2020-09-01T10:06:06.000Z</time>
      </trkpt>
      <trkpt lat="43.05866" lon="5.85445">
        <ele>160</ele>
        <time>2020-09-01T10:06:07.000Z</time>
      </trkpt>
      <trkpt lat="43.0587" lon="5.85444">
        <ele>159</ele>
        <time>2020-09-01T10:06:08.000Z</time>
      </trkpt>
      <trkpt lat="43.05874" lon="5.85442">
        <ele>158.39999389648</ele>
        <time>2020-09-01T10:06:09.000Z</time>
      </trkpt>
      <trkpt lat="43.05878" lon="5.85439">
        <ele>157.39999389648</ele>
        <time>2020-09-01T10:06:10.000Z</time>
      </trkpt>
      <trkpt lat="43.05882" lon="5.85435">
        <ele>156.60000610352</ele>
        <time>2020-09-01T10:06:11.000Z</time>
      </trkpt>
      <trkpt lat="43.05887" lon="5.85432">
        <ele>155.80000305176</ele>
        <time>2020-09-01T10:06:12.000Z</time>
      </trkpt>
      <trkpt lat="43.05896" lon="5.85422">
        <ele>154.80000305176</ele>
        <time>2020-09-01T10:06:14.000Z</time>
      </trkpt>
      <trkpt lat="43.05899" lon="5.85419">
        <ele>154.39999389648</ele>
        <time>2020-09-01T10:06:15.000Z</time>
      </trkpt>
      <trkpt lat="43.05901" lon="5.85419">
        <ele>153.80000305176</ele>
        <time>2020-09-01T10:06:16.000Z</time>
      </trkpt>
      <trkpt lat="43.05903" lon="5.85421">
        <ele>153.39999389648</ele>
        <time>2020-09-01T10:06:17.000Z</time>
      </trkpt>
      <trkpt lat="43.05905" lon="5.85423">
        <ele>153</ele>
        <time>2020-09-01T10:06:18.000Z</time>
      </trkpt>
      <trkpt lat="43.0591" lon="5.85427">
        <ele>152</ele>
        <time>2020-09-01T10:06:20.000Z</time>
      </trkpt>
      <trkpt lat="43.05912" lon="5.85434">
        <ele>151</ele>
        <time>2020-09-01T10:06:22.000Z</time>
      </trkpt>
      <trkpt lat="43.05917" lon="5.8544">
        <ele>149.60000610352</ele>
        <time>2020-09-01T10:06:24.000Z</time>
      </trkpt>
      <trkpt lat="43.05921" lon="5.85444">
        <ele>149</ele>
        <time>2020-09-01T10:06:25.000Z</time>
      </trkpt>
      <trkpt lat="43.05923" lon="5.85447">
        <ele>148.39999389648</ele>
        <time>2020-09-01T10:06:26.000Z</time>
      </trkpt>
      <trkpt lat="43.05923" lon="5.85452">
        <ele>147.39999389648</ele>
        <time>2020-09-01T10:06:27.000Z</time>
      </trkpt>
      <trkpt lat="43.05924" lon="5.85456">
        <ele>146.39999389648</ele>
        <time>2020-09-01T10:06:28.000Z</time>
      </trkpt>
      <trkpt lat="43.05926" lon="5.85469">
        <ele>145.19999694824</ele>
        <time>2020-09-01T10:06:30.000Z</time>
      </trkpt>
      <trkpt lat="43.05926" lon="5.85476">
        <ele>144.19999694824</ele>
        <time>2020-09-01T10:06:31.000Z</time>
      </trkpt>
      <trkpt lat="43.05927" lon="5.85483">
        <ele>143.60000610352</ele>
        <time>2020-09-01T10:06:32.000Z</time>
      </trkpt>
      <trkpt lat="43.05929" lon="5.8549">
        <ele>143</ele>
        <time>2020-09-01T10:06:33.000Z</time>
      </trkpt>
      <trkpt lat="43.05931" lon="5.85497">
        <ele>142.19999694824</ele>
        <time>2020-09-01T10:06:34.000Z</time>
      </trkpt>
      <trkpt lat="43.05934" lon="5.85505">
        <ele>141.39999389648</ele>
        <time>2020-09-01T10:06:35.000Z</time>
      </trkpt>
      <trkpt lat="43.05939" lon="5.85512">
        <ele>140.80000305176</ele>
        <time>2020-09-01T10:06:36.000Z</time>
      </trkpt>
      <trkpt lat="43.05948" lon="5.85525">
        <ele>139.80000305176</ele>
        <time>2020-09-01T10:06:38.000Z</time>
      </trkpt>
      <trkpt lat="43.05951" lon="5.85532">
        <ele>139</ele>
        <time>2020-09-01T10:06:39.000Z</time>
      </trkpt>
      <trkpt lat="43.05954" lon="5.85557">
        <ele>138</ele>
        <time>2020-09-01T10:06:42.000Z</time>
      </trkpt>
      <trkpt lat="43.05962" lon="5.85582">
        <ele>138</ele>
        <time>2020-09-01T10:06:46.000Z</time>
      </trkpt>
      <trkpt lat="43.05975" lon="5.85584">
        <ele>137.80000305176</ele>
        <time>2020-09-01T10:06:48.000Z</time>
      </trkpt>
      <trkpt lat="43.05979" lon="5.85588">
        <ele>137.39999389648</ele>
        <time>2020-09-01T10:06:49.000Z</time>
      </trkpt>
      <trkpt lat="43.05981" lon="5.85594">
        <ele>136.80000305176</ele>
        <time>2020-09-01T10:06:50.000Z</time>
      </trkpt>
      <trkpt lat="43.0598" lon="5.85599">
        <ele>136.39999389648</ele>
        <time>2020-09-01T10:06:51.000Z</time>
      </trkpt>
      <trkpt lat="43.05976" lon="5.8561">
        <ele>136</ele>
        <time>2020-09-01T10:06:53.000Z</time>
      </trkpt>
      <trkpt lat="43.05978" lon="5.8562">
        <ele>136</ele>
        <time>2020-09-01T10:06:55.000Z</time>
      </trkpt>
      <trkpt lat="43.05985" lon="5.85629">
        <ele>135.80000305176</ele>
        <time>2020-09-01T10:06:57.000Z</time>
      </trkpt>
      <trkpt lat="43.05988" lon="5.85634">
        <ele>135.60000610352</ele>
        <time>2020-09-01T10:06:58.000Z</time>
      </trkpt>
      <trkpt lat="43.05992" lon="5.85639">
        <ele>135.60000610352</ele>
        <time>2020-09-01T10:06:59.000Z</time>
      </trkpt>
      <trkpt lat="43.05996" lon="5.85644">
        <ele>135.19999694824</ele>
        <time>2020-09-01T10:07:00.000Z</time>
      </trkpt>
      <trkpt lat="43.06001" lon="5.85658">
        <ele>134.60000610352</ele>
        <time>2020-09-01T10:07:02.000Z</time>
      </trkpt>
      <trkpt lat="43.05999" lon="5.85682">
        <ele>133.60000610352</ele>
        <time>2020-09-01T10:07:05.000Z</time>
      </trkpt>
      <trkpt lat="43.06" lon="5.85689">
        <ele>133.39999389648</ele>
        <time>2020-09-01T10:07:06.000Z</time>
      </trkpt>
      <trkpt lat="43.06004" lon="5.857">
        <ele>132.80000305176</ele>
        <time>2020-09-01T10:07:08.000Z</time>
      </trkpt>
      <trkpt lat="43.06006" lon="5.85703">
        <ele>132.19999694824</ele>
        <time>2020-09-01T10:07:09.000Z</time>
      </trkpt>
      <trkpt lat="43.06014" lon="5.85703">
        <ele>131.19999694824</ele>
        <time>2020-09-01T10:07:11.000Z</time>
      </trkpt>
      <trkpt lat="43.06025" lon="5.85709">
        <ele>131.19999694824</ele>
        <time>2020-09-01T10:07:14.000Z</time>
      </trkpt>
      <trkpt lat="43.06028" lon="5.85711">
        <ele>131.39999389648</ele>
        <time>2020-09-01T10:07:15.000Z</time>
      </trkpt>
      <trkpt lat="43.06034" lon="5.8571">
        <ele>132</ele>
        <time>2020-09-01T10:07:17.000Z</time>
      </trkpt>
      <trkpt lat="43.06034" lon="5.85708">
        <ele>132.19999694824</ele>
        <time>2020-09-01T10:07:18.000Z</time>
      </trkpt>
      <trkpt lat="43.06045" lon="5.85703">
        <ele>132.19999694824</ele>
        <time>2020-09-01T10:07:21.000Z</time>
      </trkpt>
      <trkpt lat="43.06052" lon="5.85687">
        <ele>131.19999694824</ele>
        <time>2020-09-01T10:07:24.000Z</time>
      </trkpt>
      <trkpt lat="43.06054" lon="5.85682">
        <ele>130.60000610352</ele>
        <time>2020-09-01T10:07:25.000Z</time>
      </trkpt>
      <trkpt lat="43.06059" lon="5.85672">
        <ele>130</ele>
        <time>2020-09-01T10:07:27.000Z</time>
      </trkpt>
      <trkpt lat="43.06063" lon="5.85667">
        <ele>129.60000610352</ele>
        <time>2020-09-01T10:07:28.000Z</time>
      </trkpt>
      <trkpt lat="43.06078" lon="5.85659">
        <ele>128.60000610352</ele>
        <time>2020-09-01T10:07:31.000Z</time>
      </trkpt>
      <trkpt lat="43.0608" lon="5.85656">
        <ele>128.19999694824</ele>
        <time>2020-09-01T10:07:32.000Z</time>
      </trkpt>
      <trkpt lat="43.06083" lon="5.85654">
        <ele>127.40000152588</ele>
        <time>2020-09-01T10:07:33.000Z</time>
      </trkpt>
      <trkpt lat="43.06086" lon="5.85654">
        <ele>127</ele>
        <time>2020-09-01T10:07:34.000Z</time>
      </trkpt>
      <trkpt lat="43.06093" lon="5.85648">
        <ele>126.40000152588</ele>
        <time>2020-09-01T10:07:36.000Z</time>
      </trkpt>
      <trkpt lat="43.06098" lon="5.85645">
        <ele>126</ele>
        <time>2020-09-01T10:07:37.000Z</time>
      </trkpt>
      <trkpt lat="43.06102" lon="5.85641">
        <ele>126</ele>
        <time>2020-09-01T10:07:38.000Z</time>
      </trkpt>
      <trkpt lat="43.06105" lon="5.85637">
        <ele>125.40000152588</ele>
        <time>2020-09-01T10:07:39.000Z</time>
      </trkpt>
      <trkpt lat="43.06109" lon="5.85634">
        <ele>124.80000305176</ele>
        <time>2020-09-01T10:07:40.000Z</time>
      </trkpt>
      <trkpt lat="43.06118" lon="5.85627">
        <ele>124</ele>
        <time>2020-09-01T10:07:42.000Z</time>
      </trkpt>
      <trkpt lat="43.06122" lon="5.85622">
        <ele>123.40000152588</ele>
        <time>2020-09-01T10:07:43.000Z</time>
      </trkpt>
      <trkpt lat="43.06134" lon="5.85609">
        <ele>123.19999694824</ele>
        <time>2020-09-01T10:07:46.000Z</time>
      </trkpt>
      <trkpt lat="43.06138" lon="5.85606">
        <ele>123.19999694824</ele>
        <time>2020-09-01T10:07:47.000Z</time>
      </trkpt>
      <trkpt lat="43.06158" lon="5.85598">
        <ele>122.80000305176</ele>
        <time>2020-09-01T10:07:52.000Z</time>
      </trkpt>
      <trkpt lat="43.06159" lon="5.85597">
        <ele>123</ele>
        <time>2020-09-01T10:07:55.000Z</time>
      </trkpt>
      <trkpt lat="43.06161" lon="5.85597">
        <ele>122.40000152588</ele>
        <time>2020-09-01T10:08:00.000Z</time>
      </trkpt>
      <trkpt lat="43.06161" lon="5.85597">
        <ele>122.19999694824</ele>
        <time>2020-09-01T10:08:03.000Z</time>
      </trkpt>
      <trkpt lat="43.06163" lon="5.85597">
        <ele>122</ele>
        <time>2020-09-01T10:08:13.000Z</time>
      </trkpt>
      <trkpt lat="43.06164" lon="5.85598">
        <ele>121.80000305176</ele>
        <time>2020-09-01T10:08:15.000Z</time>
      </trkpt>
      <trkpt lat="43.06168" lon="5.85595">
        <ele>121.80000305176</ele>
        <time>2020-09-01T10:08:17.000Z</time>
      </trkpt>
      <trkpt lat="43.06182" lon="5.85586">
        <ele>121.59999847412</ele>
        <time>2020-09-01T10:08:21.000Z</time>
      </trkpt>
      <trkpt lat="43.06185" lon="5.85582">
        <ele>121.40000152588</ele>
        <time>2020-09-01T10:08:22.000Z</time>
      </trkpt>
      <trkpt lat="43.06201" lon="5.85573">
        <ele>120.80000305176</ele>
        <time>2020-09-01T10:08:26.000Z</time>
      </trkpt>
      <trkpt lat="43.06209" lon="5.85566">
        <ele>120.19999694824</ele>
        <time>2020-09-01T10:08:29.000Z</time>
      </trkpt>
      <trkpt lat="43.06224" lon="5.8555">
        <ele>119</ele>
        <time>2020-09-01T10:08:33.000Z</time>
      </trkpt>
      <trkpt lat="43.06227" lon="5.85548">
        <ele>118.80000305176</ele>
        <time>2020-09-01T10:08:34.000Z</time>
      </trkpt>
      <trkpt lat="43.06231" lon="5.85547">
        <ele>118.59999847412</ele>
        <time>2020-09-01T10:08:35.000Z</time>
      </trkpt>
      <trkpt lat="43.06238" lon="5.8555">
        <ele>118</ele>
        <time>2020-09-01T10:08:37.000Z</time>
      </trkpt>
      <trkpt lat="43.06243" lon="5.85552">
        <ele>118</ele>
        <time>2020-09-01T10:08:39.000Z</time>
      </trkpt>
      <trkpt lat="43.06251" lon="5.85555">
        <ele>118.19999694824</ele>
        <time>2020-09-01T10:08:42.000Z</time>
      </trkpt>
      <trkpt lat="43.06261" lon="5.85557">
        <ele>116.80000305176</ele>
        <time>2020-09-01T10:08:45.000Z</time>
      </trkpt>
      <trkpt lat="43.06269" lon="5.85557">
        <ele>115.19999694824</ele>
        <time>2020-09-01T10:08:47.000Z</time>
      </trkpt>
      <trkpt lat="43.06277" lon="5.85557">
        <ele>113.59999847412</ele>
        <time>2020-09-01T10:08:49.000Z</time>
      </trkpt>
      <trkpt lat="43.06279" lon="5.85556">
        <ele>113</ele>
        <time>2020-09-01T10:08:50.000Z</time>
      </trkpt>
      <trkpt lat="43.06281" lon="5.85555">
        <ele>112.40000152588</ele>
        <time>2020-09-01T10:08:51.000Z</time>
      </trkpt>
      <trkpt lat="43.06286" lon="5.85551">
        <ele>113.40000152588</ele>
        <time>2020-09-01T10:08:55.000Z</time>
      </trkpt>
      <trkpt lat="43.06288" lon="5.8555">
        <ele>113.80000305176</ele>
        <time>2020-09-01T10:08:56.000Z</time>
      </trkpt>
      <trkpt lat="43.06291" lon="5.85548">
        <ele>114.80000305176</ele>
        <time>2020-09-01T10:08:58.000Z</time>
      </trkpt>
      <trkpt lat="43.06294" lon="5.85545">
        <ele>115.40000152588</ele>
        <time>2020-09-01T10:09:00.000Z</time>
      </trkpt>
      <trkpt lat="43.06303" lon="5.85537">
        <ele>115.59999847412</ele>
        <time>2020-09-01T10:09:03.000Z</time>
      </trkpt>
      <trkpt lat="43.0631" lon="5.85533">
        <ele>115.19999694824</ele>
        <time>2020-09-01T10:09:05.000Z</time>
      </trkpt>
      <trkpt lat="43.06322" lon="5.8553">
        <ele>114.80000305176</ele>
        <time>2020-09-01T10:09:08.000Z</time>
      </trkpt>
      <trkpt lat="43.06333" lon="5.85531">
        <ele>114.19999694824</ele>
        <time>2020-09-01T10:09:12.000Z</time>
      </trkpt>
      <trkpt lat="43.06341" lon="5.85532">
        <ele>114.19999694824</ele>
        <time>2020-09-01T10:09:15.000Z</time>
      </trkpt>
      <trkpt lat="43.06345" lon="5.85533">
        <ele>114.19999694824</ele>
        <time>2020-09-01T10:09:16.000Z</time>
      </trkpt>
      <trkpt lat="43.06363" lon="5.85539">
        <ele>114.40000152588</ele>
        <time>2020-09-01T10:09:22.000Z</time>
      </trkpt>
      <trkpt lat="43.06363" lon="5.85539">
        <ele>115.40000152588</ele>
        <time>2020-09-01T10:09:26.000Z</time>
      </trkpt>
      <trkpt lat="43.06363" lon="5.85539">
        <ele>115.80000305176</ele>
        <time>2020-09-01T10:09:27.000Z</time>
      </trkpt>
      <trkpt lat="43.06365" lon="5.85541">
        <ele>115.59999847412</ele>
        <time>2020-09-01T10:09:42.000Z</time>
      </trkpt>
      <trkpt lat="43.06379" lon="5.85546">
        <ele>115.59999847412</ele>
        <time>2020-09-01T10:09:47.000Z</time>
      </trkpt>
      <trkpt lat="43.06387" lon="5.85551">
        <ele>115.59999847412</ele>
        <time>2020-09-01T10:09:49.000Z</time>
      </trkpt>
      <trkpt lat="43.06395" lon="5.85554">
        <ele>115.19999694824</ele>
        <time>2020-09-01T10:09:51.000Z</time>
      </trkpt>
      <trkpt lat="43.06403" lon="5.85558">
        <ele>114.59999847412</ele>
        <time>2020-09-01T10:09:53.000Z</time>
      </trkpt>
      <trkpt lat="43.06412" lon="5.85559">
        <ele>113.80000305176</ele>
        <time>2020-09-01T10:09:55.000Z</time>
      </trkpt>
      <trkpt lat="43.06416" lon="5.85559">
        <ele>113.40000152588</ele>
        <time>2020-09-01T10:09:56.000Z</time>
      </trkpt>
      <trkpt lat="43.06429" lon="5.85564">
        <ele>113</ele>
        <time>2020-09-01T10:09:59.000Z</time>
      </trkpt>
      <trkpt lat="43.06431" lon="5.85569">
        <ele>112.80000305176</ele>
        <time>2020-09-01T10:10:00.000Z</time>
      </trkpt>
      <trkpt lat="43.06439" lon="5.85572">
        <ele>112.59999847412</ele>
        <time>2020-09-01T10:10:03.000Z</time>
      </trkpt>
      <trkpt lat="43.06447" lon="5.85572">
        <ele>112.40000152588</ele>
        <time>2020-09-01T10:10:05.000Z</time>
      </trkpt>
      <trkpt lat="43.06451" lon="5.85573">
        <ele>112</ele>
        <time>2020-09-01T10:10:06.000Z</time>
      </trkpt>
      <trkpt lat="43.06457" lon="5.85573">
        <ele>111.19999694824</ele>
        <time>2020-09-01T10:10:08.000Z</time>
      </trkpt>
      <trkpt lat="43.06459" lon="5.85574">
        <ele>111</ele>
        <time>2020-09-01T10:10:09.000Z</time>
      </trkpt>
      <trkpt lat="43.06462" lon="5.85573">
        <ele>111</ele>
        <time>2020-09-01T10:10:11.000Z</time>
      </trkpt>
      <trkpt lat="43.06466" lon="5.8557">
        <ele>112</ele>
        <time>2020-09-01T10:10:13.000Z</time>
      </trkpt>
      <trkpt lat="43.06469" lon="5.85568">
        <ele>112.59999847412</ele>
        <time>2020-09-01T10:10:14.000Z</time>
      </trkpt>
      <trkpt lat="43.06473" lon="5.85567">
        <ele>113.59999847412</ele>
        <time>2020-09-01T10:10:16.000Z</time>
      </trkpt>
      <trkpt lat="43.06475" lon="5.85567">
        <ele>114</ele>
        <time>2020-09-01T10:10:17.000Z</time>
      </trkpt>
      <trkpt lat="43.06478" lon="5.85566">
        <ele>114.59999847412</ele>
        <time>2020-09-01T10:10:18.000Z</time>
      </trkpt>
      <trkpt lat="43.0648" lon="5.85565">
        <ele>115</ele>
        <time>2020-09-01T10:10:19.000Z</time>
      </trkpt>
      <trkpt lat="43.06487" lon="5.85563">
        <ele>116.19999694824</ele>
        <time>2020-09-01T10:10:21.000Z</time>
      </trkpt>
      <trkpt lat="43.06489" lon="5.85562">
        <ele>116.59999847412</ele>
        <time>2020-09-01T10:10:22.000Z</time>
      </trkpt>
      <trkpt lat="43.06494" lon="5.85559">
        <ele>117.40000152588</ele>
        <time>2020-09-01T10:10:24.000Z</time>
      </trkpt>
      <trkpt lat="43.06501" lon="5.85557">
        <ele>118</ele>
        <time>2020-09-01T10:10:26.000Z</time>
      </trkpt>
      <trkpt lat="43.06512" lon="5.85552">
        <ele>117.59999847412</ele>
        <time>2020-09-01T10:10:30.000Z</time>
      </trkpt>
      <trkpt lat="43.06525" lon="5.85546">
        <ele>116.19999694824</ele>
        <time>2020-09-01T10:10:34.000Z</time>
      </trkpt>
      <trkpt lat="43.06531" lon="5.85542">
        <ele>114.59999847412</ele>
        <time>2020-09-01T10:10:36.000Z</time>
      </trkpt>
      <trkpt lat="43.06539" lon="5.85537">
        <ele>113.40000152588</ele>
        <time>2020-09-01T10:10:38.000Z</time>
      </trkpt>
      <trkpt lat="43.06549" lon="5.85536">
        <ele>112</ele>
        <time>2020-09-01T10:10:41.000Z</time>
      </trkpt>
      <trkpt lat="43.06552" lon="5.85535">
        <ele>111.19999694824</ele>
        <time>2020-09-01T10:10:42.000Z</time>
      </trkpt>
      <trkpt lat="43.06563" lon="5.85533">
        <ele>111.80000305176</ele>
        <time>2020-09-01T10:10:46.000Z</time>
      </trkpt>
      <trkpt lat="43.06575" lon="5.85531">
        <ele>111.59999847412</ele>
        <time>2020-09-01T10:10:50.000Z</time>
      </trkpt>
      <trkpt lat="43.06575" lon="5.85531">
        <ele>111</ele>
        <time>2020-09-01T10:10:54.000Z</time>
      </trkpt>
      <trkpt lat="43.06577" lon="5.85531">
        <ele>111</ele>
        <time>2020-09-01T10:10:55.000Z</time>
      </trkpt>
      <trkpt lat="43.06585" lon="5.85528">
        <ele>111</ele>
        <time>2020-09-01T10:10:59.000Z</time>
      </trkpt>
      <trkpt lat="43.06597" lon="5.85529">
        <ele>110.40000152588</ele>
        <time>2020-09-01T10:11:03.000Z</time>
      </trkpt>
      <trkpt lat="43.0661" lon="5.85529">
        <ele>110</ele>
        <time>2020-09-01T10:11:06.000Z</time>
      </trkpt>
      <trkpt lat="43.06614" lon="5.85531">
        <ele>109.80000305176</ele>
        <time>2020-09-01T10:11:07.000Z</time>
      </trkpt>
      <trkpt lat="43.06628" lon="5.85528">
        <ele>109.40000152588</ele>
        <time>2020-09-01T10:11:11.000Z</time>
      </trkpt>
      <trkpt lat="43.06632" lon="5.85527">
        <ele>109.19999694824</ele>
        <time>2020-09-01T10:11:12.000Z</time>
      </trkpt>
      <trkpt lat="43.06641" lon="5.85527">
        <ele>108.80000305176</ele>
        <time>2020-09-01T10:11:14.000Z</time>
      </trkpt>
      <trkpt lat="43.06645" lon="5.85525">
        <ele>108.59999847412</ele>
        <time>2020-09-01T10:11:15.000Z</time>
      </trkpt>
      <trkpt lat="43.06651" lon="5.85519">
        <ele>107.59999847412</ele>
        <time>2020-09-01T10:11:17.000Z</time>
      </trkpt>
      <trkpt lat="43.06659" lon="5.85515">
        <ele>106.19999694824</ele>
        <time>2020-09-01T10:11:19.000Z</time>
      </trkpt>
      <trkpt lat="43.06668" lon="5.85516">
        <ele>105</ele>
        <time>2020-09-01T10:11:21.000Z</time>
      </trkpt>
      <trkpt lat="43.06672" lon="5.85519">
        <ele>104.40000152588</ele>
        <time>2020-09-01T10:11:22.000Z</time>
      </trkpt>
      <trkpt lat="43.06676" lon="5.85523">
        <ele>104</ele>
        <time>2020-09-01T10:11:23.000Z</time>
      </trkpt>
      <trkpt lat="43.06683" lon="5.85526">
        <ele>103</ele>
        <time>2020-09-01T10:11:25.000Z</time>
      </trkpt>
      <trkpt lat="43.06684" lon="5.85524">
        <ele>102.80000305176</ele>
        <time>2020-09-01T10:11:26.000Z</time>
      </trkpt>
      <trkpt lat="43.06693" lon="5.85518">
        <ele>102.19999694824</ele>
        <time>2020-09-01T10:11:28.000Z</time>
      </trkpt>
      <trkpt lat="43.06703" lon="5.85521">
        <ele>101.80000305176</ele>
        <time>2020-09-01T10:11:31.000Z</time>
      </trkpt>
      <trkpt lat="43.06717" lon="5.85531">
        <ele>102</ele>
        <time>2020-09-01T10:11:35.000Z</time>
      </trkpt>
      <trkpt lat="43.06727" lon="5.85528">
        <ele>101.59999847412</ele>
        <time>2020-09-01T10:11:38.000Z</time>
      </trkpt>
      <trkpt lat="43.06734" lon="5.85521">
        <ele>101.19999694824</ele>
        <time>2020-09-01T10:11:40.000Z</time>
      </trkpt>
      <trkpt lat="43.06744" lon="5.85509">
        <ele>101.19999694824</ele>
        <time>2020-09-01T10:11:43.000Z</time>
      </trkpt>
      <trkpt lat="43.06752" lon="5.85504">
        <ele>101.19999694824</ele>
        <time>2020-09-01T10:11:45.000Z</time>
      </trkpt>
      <trkpt lat="43.06761" lon="5.85501">
        <ele>101.40000152588</ele>
        <time>2020-09-01T10:11:47.000Z</time>
      </trkpt>
      <trkpt lat="43.06771" lon="5.85498">
        <ele>101.59999847412</ele>
        <time>2020-09-01T10:11:49.000Z</time>
      </trkpt>
      <trkpt lat="43.06781" lon="5.85498">
        <ele>101.80000305176</ele>
        <time>2020-09-01T10:11:51.000Z</time>
      </trkpt>
      <trkpt lat="43.06802" lon="5.85495">
        <ele>102.59999847412</ele>
        <time>2020-09-01T10:11:55.000Z</time>
      </trkpt>
      <trkpt lat="43.06808" lon="5.85496">
        <ele>102.40000152588</ele>
        <time>2020-09-01T10:11:56.000Z</time>
      </trkpt>
      <trkpt lat="43.06827" lon="5.85498">
        <ele>100.40000152588</ele>
        <time>2020-09-01T10:12:00.000Z</time>
      </trkpt>
      <trkpt lat="43.06836" lon="5.85497">
        <ele>100.19999694824</ele>
        <time>2020-09-01T10:12:02.000Z</time>
      </trkpt>
      <trkpt lat="43.06844" lon="5.85499">
        <ele>100</ele>
        <time>2020-09-01T10:12:04.000Z</time>
      </trkpt>
      <trkpt lat="43.06856" lon="5.85513">
        <ele>99.199996948242</ele>
        <time>2020-09-01T10:12:08.000Z</time>
      </trkpt>
      <trkpt lat="43.06858" lon="5.85516">
        <ele>99.199996948242</ele>
        <time>2020-09-01T10:12:09.000Z</time>
      </trkpt>
      <trkpt lat="43.06861" lon="5.85517">
        <ele>99</ele>
        <time>2020-09-01T10:12:10.000Z</time>
      </trkpt>
      <trkpt lat="43.06865" lon="5.85511">
        <ele>98.599998474121</ele>
        <time>2020-09-01T10:12:12.000Z</time>
      </trkpt>
      <trkpt lat="43.06865" lon="5.85505">
        <ele>98.199996948242</ele>
        <time>2020-09-01T10:12:13.000Z</time>
      </trkpt>
      <trkpt lat="43.06865" lon="5.85492">
        <ele>97</ele>
        <time>2020-09-01T10:12:15.000Z</time>
      </trkpt>
      <trkpt lat="43.06864" lon="5.85485">
        <ele>96.400001525879</ele>
        <time>2020-09-01T10:12:17.000Z</time>
      </trkpt>
      <trkpt lat="43.06861" lon="5.85483">
        <ele>96.400001525879</ele>
        <time>2020-09-01T10:12:18.000Z</time>
      </trkpt>
      <trkpt lat="43.06851" lon="5.85474">
        <ele>96</ele>
        <time>2020-09-01T10:12:21.000Z</time>
      </trkpt>
      <trkpt lat="43.06847" lon="5.85471">
        <ele>95.199996948242</ele>
        <time>2020-09-01T10:12:22.000Z</time>
      </trkpt>
      <trkpt lat="43.06843" lon="5.85468">
        <ele>94.400001525879</ele>
        <time>2020-09-01T10:12:23.000Z</time>
      </trkpt>
      <trkpt lat="43.0684" lon="5.85461">
        <ele>92.800003051758</ele>
        <time>2020-09-01T10:12:25.000Z</time>
      </trkpt>
      <trkpt lat="43.06832" lon="5.85456">
        <ele>91.800003051758</ele>
        <time>2020-09-01T10:12:28.000Z</time>
      </trkpt>
      <trkpt lat="43.06823" lon="5.8545">
        <ele>91.599998474121</ele>
        <time>2020-09-01T10:12:30.000Z</time>
      </trkpt>
      <trkpt lat="43.0682" lon="5.85446">
        <ele>91.400001525879</ele>
        <time>2020-09-01T10:12:31.000Z</time>
      </trkpt>
      <trkpt lat="43.06815" lon="5.85435">
        <ele>90.599998474121</ele>
        <time>2020-09-01T10:12:34.000Z</time>
      </trkpt>
      <trkpt lat="43.06815" lon="5.8543">
        <ele>90.599998474121</ele>
        <time>2020-09-01T10:12:35.000Z</time>
      </trkpt>
      <trkpt lat="43.06812" lon="5.85414">
        <ele>90.800003051758</ele>
        <time>2020-09-01T10:12:38.000Z</time>
      </trkpt>
      <trkpt lat="43.06815" lon="5.8541">
        <ele>90.599998474121</ele>
        <time>2020-09-01T10:12:39.000Z</time>
      </trkpt>
      <trkpt lat="43.06826" lon="5.85399">
        <ele>90</ele>
        <time>2020-09-01T10:12:42.000Z</time>
      </trkpt>
      <trkpt lat="43.0683" lon="5.85398">
        <ele>89.400001525879</ele>
        <time>2020-09-01T10:12:43.000Z</time>
      </trkpt>
      <trkpt lat="43.06835" lon="5.85395">
        <ele>89.199996948242</ele>
        <time>2020-09-01T10:12:44.000Z</time>
      </trkpt>
      <trkpt lat="43.06846" lon="5.85392">
        <ele>89</ele>
        <time>2020-09-01T10:12:46.000Z</time>
      </trkpt>
      <trkpt lat="43.06863" lon="5.85385">
        <ele>88.599998474121</ele>
        <time>2020-09-01T10:12:49.000Z</time>
      </trkpt>
      <trkpt lat="43.06867" lon="5.8538">
        <ele>88.199996948242</ele>
        <time>2020-09-01T10:12:50.000Z</time>
      </trkpt>
      <trkpt lat="43.06868" lon="5.85368">
        <ele>87</ele>
        <time>2020-09-01T10:12:52.000Z</time>
      </trkpt>
      <trkpt lat="43.06869" lon="5.85362">
        <ele>86.599998474121</ele>
        <time>2020-09-01T10:12:53.000Z</time>
      </trkpt>
      <trkpt lat="43.06871" lon="5.85349">
        <ele>86.400001525879</ele>
        <time>2020-09-01T10:12:55.000Z</time>
      </trkpt>
      <trkpt lat="43.06877" lon="5.85333">
        <ele>86.400001525879</ele>
        <time>2020-09-01T10:12:57.000Z</time>
      </trkpt>
      <trkpt lat="43.06889" lon="5.85322">
        <ele>85.599998474121</ele>
        <time>2020-09-01T10:12:59.000Z</time>
      </trkpt>
      <trkpt lat="43.06896" lon="5.85317">
        <ele>85</ele>
        <time>2020-09-01T10:13:00.000Z</time>
      </trkpt>
      <trkpt lat="43.06903" lon="5.85312">
        <ele>84.199996948242</ele>
        <time>2020-09-01T10:13:01.000Z</time>
      </trkpt>
      <trkpt lat="43.06917" lon="5.85305">
        <ele>82.800003051758</ele>
        <time>2020-09-01T10:13:03.000Z</time>
      </trkpt>
      <trkpt lat="43.06923" lon="5.85303">
        <ele>82.199996948242</ele>
        <time>2020-09-01T10:13:04.000Z</time>
      </trkpt>
      <trkpt lat="43.0693" lon="5.853">
        <ele>81.599998474121</ele>
        <time>2020-09-01T10:13:05.000Z</time>
      </trkpt>
      <trkpt lat="43.06943" lon="5.85296">
        <ele>81.199996948242</ele>
        <time>2020-09-01T10:13:07.000Z</time>
      </trkpt>
      <trkpt lat="43.06955" lon="5.85291">
        <ele>81</ele>
        <time>2020-09-01T10:13:09.000Z</time>
      </trkpt>
      <trkpt lat="43.06977" lon="5.85283">
        <ele>81.199996948242</ele>
        <time>2020-09-01T10:13:13.000Z</time>
      </trkpt>
      <trkpt lat="43.06989" lon="5.85285">
        <ele>80.599998474121</ele>
        <time>2020-09-01T10:13:15.000Z</time>
      </trkpt>
      <trkpt lat="43.07" lon="5.85291">
        <ele>80.199996948242</ele>
        <time>2020-09-01T10:13:17.000Z</time>
      </trkpt>
      <trkpt lat="43.07034" lon="5.85314">
        <ele>79.599998474121</ele>
        <time>2020-09-01T10:13:23.000Z</time>
      </trkpt>
      <trkpt lat="43.0704" lon="5.85317">
        <ele>79.400001525879</ele>
        <time>2020-09-01T10:13:24.000Z</time>
      </trkpt>
      <trkpt lat="43.0706" lon="5.85329">
        <ele>79</ele>
        <time>2020-09-01T10:13:28.000Z</time>
      </trkpt>
      <trkpt lat="43.07076" lon="5.85339">
        <ele>78.400001525879</ele>
        <time>2020-09-01T10:13:31.000Z</time>
      </trkpt>
      <trkpt lat="43.0709" lon="5.85345">
        <ele>77.800003051758</ele>
        <time>2020-09-01T10:13:34.000Z</time>
      </trkpt>
      <trkpt lat="43.07095" lon="5.85346">
        <ele>77.800003051758</ele>
        <time>2020-09-01T10:13:35.000Z</time>
      </trkpt>
      <trkpt lat="43.0711" lon="5.8535">
        <ele>77.599998474121</ele>
        <time>2020-09-01T10:13:38.000Z</time>
      </trkpt>
      <trkpt lat="43.07126" lon="5.85366">
        <ele>77.599998474121</ele>
        <time>2020-09-01T10:13:41.000Z</time>
      </trkpt>
      <trkpt lat="43.0713" lon="5.85372">
        <ele>77.400001525879</ele>
        <time>2020-09-01T10:13:42.000Z</time>
      </trkpt>
      <trkpt lat="43.07136" lon="5.85383">
        <ele>77.199996948242</ele>
        <time>2020-09-01T10:13:44.000Z</time>
      </trkpt>
      <trkpt lat="43.07139" lon="5.85389">
        <ele>76.800003051758</ele>
        <time>2020-09-01T10:13:45.000Z</time>
      </trkpt>
      <trkpt lat="43.07144" lon="5.854">
        <ele>76.599998474121</ele>
        <time>2020-09-01T10:13:47.000Z</time>
      </trkpt>
      <trkpt lat="43.07149" lon="5.85416">
        <ele>76.599998474121</ele>
        <time>2020-09-01T10:13:50.000Z</time>
      </trkpt>
      <trkpt lat="43.07156" lon="5.85431">
        <ele>77.199996948242</ele>
        <time>2020-09-01T10:13:53.000Z</time>
      </trkpt>
      <trkpt lat="43.07166" lon="5.85445">
        <ele>77.800003051758</ele>
        <time>2020-09-01T10:13:56.000Z</time>
      </trkpt>
      <trkpt lat="43.07173" lon="5.85452">
        <ele>77.800003051758</ele>
        <time>2020-09-01T10:13:58.000Z</time>
      </trkpt>
      <trkpt lat="43.0718" lon="5.85461">
        <ele>77.800003051758</ele>
        <time>2020-09-01T10:14:00.000Z</time>
      </trkpt>
      <trkpt lat="43.07202" lon="5.85494">
        <ele>77.599998474121</ele>
        <time>2020-09-01T10:14:07.000Z</time>
      </trkpt>
      <trkpt lat="43.07212" lon="5.85509">
        <ele>77.800003051758</ele>
        <time>2020-09-01T10:14:10.000Z</time>
      </trkpt>
      <trkpt lat="43.07216" lon="5.85521">
        <ele>78</ele>
        <time>2020-09-01T10:14:12.000Z</time>
      </trkpt>
      <trkpt lat="43.0722" lon="5.85533">
        <ele>78.199996948242</ele>
        <time>2020-09-01T10:14:14.000Z</time>
      </trkpt>
      <trkpt lat="43.07229" lon="5.85562">
        <ele>78.599998474121</ele>
        <time>2020-09-01T10:14:19.000Z</time>
      </trkpt>
      <trkpt lat="43.07243" lon="5.85597">
        <ele>78.800003051758</ele>
        <time>2020-09-01T10:14:24.000Z</time>
      </trkpt>
      <trkpt lat="43.07259" lon="5.85629">
        <ele>76.400001525879</ele>
        <time>2020-09-01T10:14:28.000Z</time>
      </trkpt>
      <trkpt lat="43.07267" lon="5.85646">
        <ele>75.400001525879</ele>
        <time>2020-09-01T10:14:30.000Z</time>
      </trkpt>
      <trkpt lat="43.07271" lon="5.85655">
        <ele>75</ele>
        <time>2020-09-01T10:14:31.000Z</time>
      </trkpt>
      <trkpt lat="43.07281" lon="5.85672">
        <ele>74</ele>
        <time>2020-09-01T10:14:33.000Z</time>
      </trkpt>
      <trkpt lat="43.07294" lon="5.85697">
        <ele>72.599998474121</ele>
        <time>2020-09-01T10:14:36.000Z</time>
      </trkpt>
      <trkpt lat="43.073" lon="5.85704">
        <ele>72</ele>
        <time>2020-09-01T10:14:37.000Z</time>
      </trkpt>
      <trkpt lat="43.07312" lon="5.85716">
        <ele>71.400001525879</ele>
        <time>2020-09-01T10:14:39.000Z</time>
      </trkpt>
      <trkpt lat="43.07326" lon="5.85723">
        <ele>70.599998474121</ele>
        <time>2020-09-01T10:14:41.000Z</time>
      </trkpt>
      <trkpt lat="43.07333" lon="5.85725">
        <ele>70</ele>
        <time>2020-09-01T10:14:42.000Z</time>
      </trkpt>
      <trkpt lat="43.07339" lon="5.85727">
        <ele>70</ele>
        <time>2020-09-01T10:14:43.000Z</time>
      </trkpt>
      <trkpt lat="43.07355" lon="5.85732">
        <ele>70</ele>
        <time>2020-09-01T10:14:46.000Z</time>
      </trkpt>
      <trkpt lat="43.07381" lon="5.8574">
        <ele>71.199996948242</ele>
        <time>2020-09-01T10:14:51.000Z</time>
      </trkpt>
      <trkpt lat="43.07397" lon="5.85746">
        <ele>71.599998474121</ele>
        <time>2020-09-01T10:14:54.000Z</time>
      </trkpt>
      <trkpt lat="43.07413" lon="5.85752">
        <ele>72.199996948242</ele>
        <time>2020-09-01T10:14:57.000Z</time>
      </trkpt>
      <trkpt lat="43.0744" lon="5.8576">
        <ele>73.199996948242</ele>
        <time>2020-09-01T10:15:02.000Z</time>
      </trkpt>
      <trkpt lat="43.07445" lon="5.85762">
        <ele>73.400001525879</ele>
        <time>2020-09-01T10:15:03.000Z</time>
      </trkpt>
      <trkpt lat="43.07454" lon="5.85768">
        <ele>73.800003051758</ele>
        <time>2020-09-01T10:15:05.000Z</time>
      </trkpt>
      <trkpt lat="43.07463" lon="5.85775">
        <ele>74</ele>
        <time>2020-09-01T10:15:07.000Z</time>
      </trkpt>
      <trkpt lat="43.07467" lon="5.8578">
        <ele>74</ele>
        <time>2020-09-01T10:15:08.000Z</time>
      </trkpt>
      <trkpt lat="43.07485" lon="5.85799">
        <ele>74</ele>
        <time>2020-09-01T10:15:12.000Z</time>
      </trkpt>
      <trkpt lat="43.07516" lon="5.85822">
        <ele>73</ele>
        <time>2020-09-01T10:15:18.000Z</time>
      </trkpt>
      <trkpt lat="43.07532" lon="5.85832">
        <ele>72.400001525879</ele>
        <time>2020-09-01T10:15:21.000Z</time>
      </trkpt>
      <trkpt lat="43.0757" lon="5.85856">
        <ele>71.199996948242</ele>
        <time>2020-09-01T10:15:28.000Z</time>
      </trkpt>
      <trkpt lat="43.07575" lon="5.85859">
        <ele>71</ele>
        <time>2020-09-01T10:15:29.000Z</time>
      </trkpt>
      <trkpt lat="43.0762" lon="5.85888">
        <ele>70.400001525879</ele>
        <time>2020-09-01T10:15:37.000Z</time>
      </trkpt>
      <trkpt lat="43.07642" lon="5.85902">
        <ele>70.199996948242</ele>
        <time>2020-09-01T10:15:41.000Z</time>
      </trkpt>
      <trkpt lat="43.07654" lon="5.8591">
        <ele>70</ele>
        <time>2020-09-01T10:15:43.000Z</time>
      </trkpt>
      <trkpt lat="43.07672" lon="5.85918">
        <ele>68.800003051758</ele>
        <time>2020-09-01T10:15:46.000Z</time>
      </trkpt>
      <trkpt lat="43.07695" lon="5.85926">
        <ele>67.199996948242</ele>
        <time>2020-09-01T10:15:49.000Z</time>
      </trkpt>
      <trkpt lat="43.07711" lon="5.85931">
        <ele>66.199996948242</ele>
        <time>2020-09-01T10:15:51.000Z</time>
      </trkpt>
      <trkpt lat="43.07729" lon="5.85933">
        <ele>65.199996948242</ele>
        <time>2020-09-01T10:15:53.000Z</time>
      </trkpt>
      <trkpt lat="43.07745" lon="5.85933">
        <ele>64.400001525879</ele>
        <time>2020-09-01T10:15:55.000Z</time>
      </trkpt>
      <trkpt lat="43.07761" lon="5.85932">
        <ele>64</ele>
        <time>2020-09-01T10:15:57.000Z</time>
      </trkpt>
      <trkpt lat="43.07785" lon="5.85931">
        <ele>63.599998474121</ele>
        <time>2020-09-01T10:16:00.000Z</time>
      </trkpt>
      <trkpt lat="43.07807" lon="5.8593">
        <ele>62.799999237061</ele>
        <time>2020-09-01T10:16:03.000Z</time>
      </trkpt>
      <trkpt lat="43.07827" lon="5.8593">
        <ele>61.799999237061</ele>
        <time>2020-09-01T10:16:06.000Z</time>
      </trkpt>
      <trkpt lat="43.07874" lon="5.85928">
        <ele>60.599998474121</ele>
        <time>2020-09-01T10:16:13.000Z</time>
      </trkpt>
      <trkpt lat="43.07881" lon="5.85928">
        <ele>60.599998474121</ele>
        <time>2020-09-01T10:16:14.000Z</time>
      </trkpt>
      <trkpt lat="43.07928" lon="5.85923">
        <ele>59.799999237061</ele>
        <time>2020-09-01T10:16:21.000Z</time>
      </trkpt>
      <trkpt lat="43.07954" lon="5.85914">
        <ele>59.599998474121</ele>
        <time>2020-09-01T10:16:25.000Z</time>
      </trkpt>
      <trkpt lat="43.0798" lon="5.85906">
        <ele>59</ele>
        <time>2020-09-01T10:16:29.000Z</time>
      </trkpt>
      <trkpt lat="43.07999" lon="5.85899">
        <ele>58.400001525879</ele>
        <time>2020-09-01T10:16:32.000Z</time>
      </trkpt>
      <trkpt lat="43.08022" lon="5.85893">
        <ele>58</ele>
        <time>2020-09-01T10:16:36.000Z</time>
      </trkpt>
      <trkpt lat="43.08046" lon="5.85893">
        <ele>57.599998474121</ele>
        <time>2020-09-01T10:16:40.000Z</time>
      </trkpt>
      <trkpt lat="43.08052" lon="5.85897">
        <ele>57.599998474121</ele>
        <time>2020-09-01T10:16:41.000Z</time>
      </trkpt>
      <trkpt lat="43.0806" lon="5.85919">
        <ele>57.799999237061</ele>
        <time>2020-09-01T10:16:44.000Z</time>
      </trkpt>
      <trkpt lat="43.08062" lon="5.85927">
        <ele>57.799999237061</ele>
        <time>2020-09-01T10:16:45.000Z</time>
      </trkpt>
      <trkpt lat="43.08069" lon="5.85951">
        <ele>57.599998474121</ele>
        <time>2020-09-01T10:16:48.000Z</time>
      </trkpt>
      <trkpt lat="43.08072" lon="5.85957">
        <ele>57.400001525879</ele>
        <time>2020-09-01T10:16:49.000Z</time>
      </trkpt>
      <trkpt lat="43.08076" lon="5.85963">
        <ele>57.200000762939</ele>
        <time>2020-09-01T10:16:50.000Z</time>
      </trkpt>
      <trkpt lat="43.08079" lon="5.85972">
        <ele>56.400001525879</ele>
        <time>2020-09-01T10:16:52.000Z</time>
      </trkpt>
      <trkpt lat="43.08078" lon="5.85979">
        <ele>55.799999237061</ele>
        <time>2020-09-01T10:16:53.000Z</time>
      </trkpt>
      <trkpt lat="43.08077" lon="5.85984">
        <ele>55.599998474121</ele>
        <time>2020-09-01T10:16:54.000Z</time>
      </trkpt>
      <trkpt lat="43.08077" lon="5.85991">
        <ele>55.400001525879</ele>
        <time>2020-09-01T10:16:55.000Z</time>
      </trkpt>
      <trkpt lat="43.08077" lon="5.85997">
        <ele>55.200000762939</ele>
        <time>2020-09-01T10:16:56.000Z</time>
      </trkpt>
      <trkpt lat="43.08075" lon="5.86012">
        <ele>54.599998474121</ele>
        <time>2020-09-01T10:16:58.000Z</time>
      </trkpt>
      <trkpt lat="43.08068" lon="5.86053">
        <ele>54.599998474121</ele>
        <time>2020-09-01T10:17:04.000Z</time>
      </trkpt>
      <trkpt lat="43.08065" lon="5.86074">
        <ele>54.599998474121</ele>
        <time>2020-09-01T10:17:07.000Z</time>
      </trkpt>
      <trkpt lat="43.08066" lon="5.86089">
        <ele>54.400001525879</ele>
        <time>2020-09-01T10:17:09.000Z</time>
      </trkpt>
      <trkpt lat="43.08066" lon="5.86119">
        <ele>54.200000762939</ele>
        <time>2020-09-01T10:17:12.000Z</time>
      </trkpt>
      <trkpt lat="43.08066" lon="5.86129">
        <ele>53.799999237061</ele>
        <time>2020-09-01T10:17:13.000Z</time>
      </trkpt>
      <trkpt lat="43.08065" lon="5.86139">
        <ele>53.599998474121</ele>
        <time>2020-09-01T10:17:14.000Z</time>
      </trkpt>
      <trkpt lat="43.08064" lon="5.86151">
        <ele>53</ele>
        <time>2020-09-01T10:17:15.000Z</time>
      </trkpt>
      <trkpt lat="43.08063" lon="5.86174">
        <ele>51.200000762939</ele>
        <time>2020-09-01T10:17:17.000Z</time>
      </trkpt>
      <trkpt lat="43.08064" lon="5.86186">
        <ele>50.200000762939</ele>
        <time>2020-09-01T10:17:18.000Z</time>
      </trkpt>
      <trkpt lat="43.08069" lon="5.86208">
        <ele>48.400001525879</ele>
        <time>2020-09-01T10:17:20.000Z</time>
      </trkpt>
      <trkpt lat="43.08072" lon="5.86217">
        <ele>47.799999237061</ele>
        <time>2020-09-01T10:17:21.000Z</time>
      </trkpt>
      <trkpt lat="43.08075" lon="5.86227">
        <ele>47.400001525879</ele>
        <time>2020-09-01T10:17:22.000Z</time>
      </trkpt>
      <trkpt lat="43.08079" lon="5.86236">
        <ele>47.400001525879</ele>
        <time>2020-09-01T10:17:23.000Z</time>
      </trkpt>
      <trkpt lat="43.08087" lon="5.86264">
        <ele>47.599998474121</ele>
        <time>2020-09-01T10:17:26.000Z</time>
      </trkpt>
      <trkpt lat="43.08089" lon="5.86273">
        <ele>47.599998474121</ele>
        <time>2020-09-01T10:17:27.000Z</time>
      </trkpt>
      <trkpt lat="43.0809" lon="5.86281">
        <ele>47.799999237061</ele>
        <time>2020-09-01T10:17:28.000Z</time>
      </trkpt>
      <trkpt lat="43.0809" lon="5.86306">
        <ele>47.599998474121</ele>
        <time>2020-09-01T10:17:31.000Z</time>
      </trkpt>
      <trkpt lat="43.08089" lon="5.86314">
        <ele>47.599998474121</ele>
        <time>2020-09-01T10:17:32.000Z</time>
      </trkpt>
      <trkpt lat="43.08085" lon="5.86333">
        <ele>48</ele>
        <time>2020-09-01T10:17:35.000Z</time>
      </trkpt>
      <trkpt lat="43.08083" lon="5.8634">
        <ele>48.200000762939</ele>
        <time>2020-09-01T10:17:36.000Z</time>
      </trkpt>
      <trkpt lat="43.08082" lon="5.86347">
        <ele>48.599998474121</ele>
        <time>2020-09-01T10:17:37.000Z</time>
      </trkpt>
      <trkpt lat="43.08081" lon="5.86354">
        <ele>48.799999237061</ele>
        <time>2020-09-01T10:17:38.000Z</time>
      </trkpt>
      <trkpt lat="43.08081" lon="5.86369">
        <ele>49</ele>
        <time>2020-09-01T10:17:40.000Z</time>
      </trkpt>
      <trkpt lat="43.08086" lon="5.86417">
        <ele>49</ele>
        <time>2020-09-01T10:17:46.000Z</time>
      </trkpt>
      <trkpt lat="43.08097" lon="5.86467">
        <ele>48</ele>
        <time>2020-09-01T10:17:52.000Z</time>
      </trkpt>
      <trkpt lat="43.08102" lon="5.86499">
        <ele>47.400001525879</ele>
        <time>2020-09-01T10:17:56.000Z</time>
      </trkpt>
      <trkpt lat="43.08104" lon="5.86506">
        <ele>47.200000762939</ele>
        <time>2020-09-01T10:17:57.000Z</time>
      </trkpt>
      <trkpt lat="43.08105" lon="5.86511">
        <ele>47</ele>
        <time>2020-09-01T10:17:58.000Z</time>
      </trkpt>
      <trkpt lat="43.08108" lon="5.86525">
        <ele>46.599998474121</ele>
        <time>2020-09-01T10:18:02.000Z</time>
      </trkpt>
      <trkpt lat="43.08108" lon="5.86527">
        <ele>46.200000762939</ele>
        <time>2020-09-01T10:18:06.000Z</time>
      </trkpt>
      <trkpt lat="43.08109" lon="5.8653">
        <ele>46.200000762939</ele>
        <time>2020-09-01T10:18:08.000Z</time>
      </trkpt>
      <trkpt lat="43.08108" lon="5.86538">
        <ele>46.200000762939</ele>
        <time>2020-09-01T10:18:10.000Z</time>
      </trkpt>
      <trkpt lat="43.08106" lon="5.86544">
        <ele>46</ele>
        <time>2020-09-01T10:18:11.000Z</time>
      </trkpt>
      <trkpt lat="43.081" lon="5.86565">
        <ele>45.400001525879</ele>
        <time>2020-09-01T10:18:14.000Z</time>
      </trkpt>
      <trkpt lat="43.08098" lon="5.86575">
        <ele>45</ele>
        <time>2020-09-01T10:18:15.000Z</time>
      </trkpt>
      <trkpt lat="43.08095" lon="5.86602">
        <ele>43.400001525879</ele>
        <time>2020-09-01T10:18:18.000Z</time>
      </trkpt>
      <trkpt lat="43.08094" lon="5.86615">
        <ele>42.799999237061</ele>
        <time>2020-09-01T10:18:20.000Z</time>
      </trkpt>
      <trkpt lat="43.08093" lon="5.86627">
        <ele>43</ele>
        <time>2020-09-01T10:18:22.000Z</time>
      </trkpt>
      <trkpt lat="43.08092" lon="5.86657">
        <ele>44.799999237061</ele>
        <time>2020-09-01T10:18:26.000Z</time>
      </trkpt>
      <trkpt lat="43.08092" lon="5.86665">
        <ele>44.799999237061</ele>
        <time>2020-09-01T10:18:27.000Z</time>
      </trkpt>
      <trkpt lat="43.08089" lon="5.86718">
        <ele>44.400001525879</ele>
        <time>2020-09-01T10:18:33.000Z</time>
      </trkpt>
      <trkpt lat="43.08087" lon="5.86726">
        <ele>44.200000762939</ele>
        <time>2020-09-01T10:18:34.000Z</time>
      </trkpt>
      <trkpt lat="43.08072" lon="5.86759">
        <ele>43.799999237061</ele>
        <time>2020-09-01T10:18:38.000Z</time>
      </trkpt>
      <trkpt lat="43.08069" lon="5.86765">
        <ele>43.799999237061</ele>
        <time>2020-09-01T10:18:39.000Z</time>
      </trkpt>
      <trkpt lat="43.08056" lon="5.86786">
        <ele>43.599998474121</ele>
        <time>2020-09-01T10:18:42.000Z</time>
      </trkpt>
      <trkpt lat="43.08039" lon="5.86811">
        <ele>43.400001525879</ele>
        <time>2020-09-01T10:18:46.000Z</time>
      </trkpt>
      <trkpt lat="43.0802" lon="5.86839">
        <ele>42.599998474121</ele>
        <time>2020-09-01T10:18:50.000Z</time>
      </trkpt>
      <trkpt lat="43.08011" lon="5.86854">
        <ele>41.799999237061</ele>
        <time>2020-09-01T10:18:52.000Z</time>
      </trkpt>
      <trkpt lat="43.08006" lon="5.86871">
        <ele>41.400001525879</ele>
        <time>2020-09-01T10:18:54.000Z</time>
      </trkpt>
      <trkpt lat="43.08002" lon="5.8689">
        <ele>41.200000762939</ele>
        <time>2020-09-01T10:18:56.000Z</time>
      </trkpt>
      <trkpt lat="43.07996" lon="5.86917">
        <ele>40.799999237061</ele>
        <time>2020-09-01T10:18:59.000Z</time>
      </trkpt>
      <trkpt lat="43.07988" lon="5.86935">
        <ele>40.400001525879</ele>
        <time>2020-09-01T10:19:01.000Z</time>
      </trkpt>
      <trkpt lat="43.07984" lon="5.86943">
        <ele>40.200000762939</ele>
        <time>2020-09-01T10:19:02.000Z</time>
      </trkpt>
      <trkpt lat="43.0798" lon="5.86951">
        <ele>40</ele>
        <time>2020-09-01T10:19:03.000Z</time>
      </trkpt>
      <trkpt lat="43.07959" lon="5.86991">
        <ele>39.200000762939</ele>
        <time>2020-09-01T10:19:08.000Z</time>
      </trkpt>
      <trkpt lat="43.07956" lon="5.86998">
        <ele>39</ele>
        <time>2020-09-01T10:19:09.000Z</time>
      </trkpt>
      <trkpt lat="43.07944" lon="5.87035">
        <ele>38.599998474121</ele>
        <time>2020-09-01T10:19:14.000Z</time>
      </trkpt>
      <trkpt lat="43.07947" lon="5.8704">
        <ele>38.599998474121</ele>
        <time>2020-09-01T10:19:15.000Z</time>
      </trkpt>
      <trkpt lat="43.07955" lon="5.87042">
        <ele>38.400001525879</ele>
        <time>2020-09-01T10:19:17.000Z</time>
      </trkpt>
      <trkpt lat="43.07964" lon="5.87039">
        <ele>38</ele>
        <time>2020-09-01T10:19:19.000Z</time>
      </trkpt>
      <trkpt lat="43.07981" lon="5.87036">
        <ele>37</ele>
        <time>2020-09-01T10:19:22.000Z</time>
      </trkpt>
      <trkpt lat="43.07987" lon="5.87035">
        <ele>36.599998474121</ele>
        <time>2020-09-01T10:19:23.000Z</time>
      </trkpt>
      <trkpt lat="43.08021" lon="5.87024">
        <ele>37.799999237061</ele>
        <time>2020-09-01T10:19:29.000Z</time>
      </trkpt>
      <trkpt lat="43.08027" lon="5.87021">
        <ele>38.400001525879</ele>
        <time>2020-09-01T10:19:32.000Z</time>
      </trkpt>
      <trkpt lat="43.08029" lon="5.87018">
        <ele>38.799999237061</ele>
        <time>2020-09-01T10:19:34.000Z</time>
      </trkpt>
      <trkpt lat="43.08029" lon="5.87017">
        <ele>38.799999237061</ele>
        <time>2020-09-01T10:19:35.000Z</time>
      </trkpt>
      <trkpt lat="43.08025" lon="5.87015">
        <ele>39.200000762939</ele>
        <time>2020-09-01T10:19:37.000Z</time>
      </trkpt>
      <trkpt lat="43.08018" lon="5.8702">
        <ele>39.200000762939</ele>
        <time>2020-09-01T10:19:39.000Z</time>
      </trkpt>
      <trkpt lat="43.08013" lon="5.87023">
        <ele>39.200000762939</ele>
        <time>2020-09-01T10:19:40.000Z</time>
      </trkpt>
      <trkpt lat="43.07984" lon="5.87033">
        <ele>38.599998474121</ele>
        <time>2020-09-01T10:19:45.000Z</time>
      </trkpt>
      <trkpt lat="43.07948" lon="5.87037">
        <ele>38.200000762939</ele>
        <time>2020-09-01T10:19:52.000Z</time>
      </trkpt>
      <trkpt lat="43.07938" lon="5.87044">
        <ele>38.200000762939</ele>
        <time>2020-09-01T10:19:55.000Z</time>
      </trkpt>
      <trkpt lat="43.07935" lon="5.8705">
        <ele>38.200000762939</ele>
        <time>2020-09-01T10:19:56.000Z</time>
      </trkpt>
      <trkpt lat="43.07918" lon="5.87087">
        <ele>37.799999237061</ele>
        <time>2020-09-01T10:20:01.000Z</time>
      </trkpt>
      <trkpt lat="43.07898" lon="5.87141">
        <ele>37</ele>
        <time>2020-09-01T10:20:08.000Z</time>
      </trkpt>
      <trkpt lat="43.07885" lon="5.87168">
        <ele>36.799999237061</ele>
        <time>2020-09-01T10:20:12.000Z</time>
      </trkpt>
      <trkpt lat="43.07877" lon="5.87187">
        <ele>36</ele>
        <time>2020-09-01T10:20:15.000Z</time>
      </trkpt>
      <trkpt lat="43.07876" lon="5.87201">
        <ele>35.599998474121</ele>
        <time>2020-09-01T10:20:17.000Z</time>
      </trkpt>
      <trkpt lat="43.0788" lon="5.87207">
        <ele>35.599998474121</ele>
        <time>2020-09-01T10:20:18.000Z</time>
      </trkpt>
      <trkpt lat="43.07896" lon="5.87213">
        <ele>35.599998474121</ele>
        <time>2020-09-01T10:20:21.000Z</time>
      </trkpt>
      <trkpt lat="43.07901" lon="5.87215">
        <ele>35.599998474121</ele>
        <time>2020-09-01T10:20:22.000Z</time>
      </trkpt>
      <trkpt lat="43.07944" lon="5.8722">
        <ele>35.200000762939</ele>
        <time>2020-09-01T10:20:29.000Z</time>
      </trkpt>
      <trkpt lat="43.07968" lon="5.87219">
        <ele>34.599998474121</ele>
        <time>2020-09-01T10:20:33.000Z</time>
      </trkpt>
      <trkpt lat="43.07992" lon="5.87217">
        <ele>34</ele>
        <time>2020-09-01T10:20:37.000Z</time>
      </trkpt>
      <trkpt lat="43.0803" lon="5.8721">
        <ele>35.200000762939</ele>
        <time>2020-09-01T10:20:44.000Z</time>
      </trkpt>
      <trkpt lat="43.08064" lon="5.87206">
        <ele>34.799999237061</ele>
        <time>2020-09-01T10:20:50.000Z</time>
      </trkpt>
      <trkpt lat="43.08075" lon="5.87207">
        <ele>34.799999237061</ele>
        <time>2020-09-01T10:20:52.000Z</time>
      </trkpt>
      <trkpt lat="43.0808" lon="5.87218">
        <ele>34.799999237061</ele>
        <time>2020-09-01T10:20:54.000Z</time>
      </trkpt>
      <trkpt lat="43.08078" lon="5.8724">
        <ele>35</ele>
        <time>2020-09-01T10:20:57.000Z</time>
      </trkpt>
      <trkpt lat="43.08076" lon="5.87247">
        <ele>35</ele>
        <time>2020-09-01T10:20:58.000Z</time>
      </trkpt>
      <trkpt lat="43.08066" lon="5.87289">
        <ele>34.400001525879</ele>
        <time>2020-09-01T10:21:03.000Z</time>
      </trkpt>
      <trkpt lat="43.08056" lon="5.87338">
        <ele>33.599998474121</ele>
        <time>2020-09-01T10:21:09.000Z</time>
      </trkpt>
      <trkpt lat="43.08051" lon="5.87363">
        <ele>33.200000762939</ele>
        <time>2020-09-01T10:21:12.000Z</time>
      </trkpt>
      <trkpt lat="43.08036" lon="5.87425">
        <ele>32.400001525879</ele>
        <time>2020-09-01T10:21:20.000Z</time>
      </trkpt>
      <trkpt lat="43.08034" lon="5.87446">
        <ele>32.400001525879</ele>
        <time>2020-09-01T10:21:23.000Z</time>
      </trkpt>
      <trkpt lat="43.08034" lon="5.87456">
        <ele>32.200000762939</ele>
        <time>2020-09-01T10:21:25.000Z</time>
      </trkpt>
      <trkpt lat="43.08031" lon="5.87465">
        <ele>32</ele>
        <time>2020-09-01T10:21:27.000Z</time>
      </trkpt>
      <trkpt lat="43.08029" lon="5.87467">
        <ele>32</ele>
        <time>2020-09-01T10:21:28.000Z</time>
      </trkpt>
      <trkpt lat="43.08022" lon="5.87473">
        <ele>31.799999237061</ele>
        <time>2020-09-01T10:21:32.000Z</time>
      </trkpt>
      <trkpt lat="43.08021" lon="5.87476">
        <ele>31.799999237061</ele>
        <time>2020-09-01T10:21:33.000Z</time>
      </trkpt>
      <trkpt lat="43.0802" lon="5.87491">
        <ele>31.60000038147</ele>
        <time>2020-09-01T10:21:36.000Z</time>
      </trkpt>
      <trkpt lat="43.0802" lon="5.87497">
        <ele>31.39999961853</ele>
        <time>2020-09-01T10:21:37.000Z</time>
      </trkpt>
      <trkpt lat="43.0802" lon="5.87526">
        <ele>31</ele>
        <time>2020-09-01T10:21:41.000Z</time>
      </trkpt>
      <trkpt lat="43.08022" lon="5.87566">
        <ele>30.39999961853</ele>
        <time>2020-09-01T10:21:46.000Z</time>
      </trkpt>
      <trkpt lat="43.08025" lon="5.87599">
        <ele>29.60000038147</ele>
        <time>2020-09-01T10:21:50.000Z</time>
      </trkpt>
      <trkpt lat="43.08027" lon="5.87631">
        <ele>29.200000762939</ele>
        <time>2020-09-01T10:21:54.000Z</time>
      </trkpt>
      <trkpt lat="43.0803" lon="5.87671">
        <ele>28.799999237061</ele>
        <time>2020-09-01T10:21:59.000Z</time>
      </trkpt>
      <trkpt lat="43.0803" lon="5.87708">
        <ele>28.200000762939</ele>
        <time>2020-09-01T10:22:05.000Z</time>
      </trkpt>
      <trkpt lat="43.08029" lon="5.87712">
        <ele>28.200000762939</ele>
        <time>2020-09-01T10:22:09.000Z</time>
      </trkpt>
      <trkpt lat="43.08028" lon="5.87725">
        <ele>28.200000762939</ele>
        <time>2020-09-01T10:22:12.000Z</time>
      </trkpt>
      <trkpt lat="43.08028" lon="5.87732">
        <ele>28</ele>
        <time>2020-09-01T10:22:13.000Z</time>
      </trkpt>
      <trkpt lat="43.0803" lon="5.8775">
        <ele>27.799999237061</ele>
        <time>2020-09-01T10:22:15.000Z</time>
      </trkpt>
      <trkpt lat="43.08031" lon="5.87768">
        <ele>27</ele>
        <time>2020-09-01T10:22:17.000Z</time>
      </trkpt>
      <trkpt lat="43.0803" lon="5.87806">
        <ele>26.60000038147</ele>
        <time>2020-09-01T10:22:21.000Z</time>
      </trkpt>
      <trkpt lat="43.08031" lon="5.87814">
        <ele>26.60000038147</ele>
        <time>2020-09-01T10:22:22.000Z</time>
      </trkpt>
      <trkpt lat="43.08037" lon="5.87829">
        <ele>26.39999961853</ele>
        <time>2020-09-01T10:22:24.000Z</time>
      </trkpt>
      <trkpt lat="43.08048" lon="5.87837">
        <ele>26</ele>
        <time>2020-09-01T10:22:26.000Z</time>
      </trkpt>
      <trkpt lat="43.08054" lon="5.8784">
        <ele>26</ele>
        <time>2020-09-01T10:22:27.000Z</time>
      </trkpt>
      <trkpt lat="43.0806" lon="5.87843">
        <ele>25.799999237061</ele>
        <time>2020-09-01T10:22:28.000Z</time>
      </trkpt>
      <trkpt lat="43.08077" lon="5.87852">
        <ele>25.60000038147</ele>
        <time>2020-09-01T10:22:31.000Z</time>
      </trkpt>
      <trkpt lat="43.08093" lon="5.8786">
        <ele>25.39999961853</ele>
        <time>2020-09-01T10:22:34.000Z</time>
      </trkpt>
      <trkpt lat="43.08121" lon="5.87876">
        <ele>25</ele>
        <time>2020-09-01T10:22:39.000Z</time>
      </trkpt>
      <trkpt lat="43.08133" lon="5.87883">
        <ele>25</ele>
        <time>2020-09-01T10:22:41.000Z</time>
      </trkpt>
      <trkpt lat="43.08186" lon="5.87908">
        <ele>25.39999961853</ele>
        <time>2020-09-01T10:22:50.000Z</time>
      </trkpt>
      <trkpt lat="43.08191" lon="5.8791">
        <ele>25.39999961853</ele>
        <time>2020-09-01T10:22:51.000Z</time>
      </trkpt>
      <trkpt lat="43.08208" lon="5.87917">
        <ele>25</ele>
        <time>2020-09-01T10:22:54.000Z</time>
      </trkpt>
      <trkpt lat="43.08225" lon="5.87919">
        <ele>25</ele>
        <time>2020-09-01T10:22:57.000Z</time>
      </trkpt>
      <trkpt lat="43.0825" lon="5.87919">
        <ele>25.60000038147</ele>
        <time>2020-09-01T10:23:02.000Z</time>
      </trkpt>
      <trkpt lat="43.08254" lon="5.87921">
        <ele>25.60000038147</ele>
        <time>2020-09-01T10:23:03.000Z</time>
      </trkpt>
      <trkpt lat="43.08262" lon="5.87924">
        <ele>25.799999237061</ele>
        <time>2020-09-01T10:23:05.000Z</time>
      </trkpt>
      <trkpt lat="43.08268" lon="5.87929">
        <ele>26</ele>
        <time>2020-09-01T10:23:07.000Z</time>
      </trkpt>
      <trkpt lat="43.08271" lon="5.8793">
        <ele>26</ele>
        <time>2020-09-01T10:23:08.000Z</time>
      </trkpt>
      <trkpt lat="43.08276" lon="5.87927">
        <ele>25.799999237061</ele>
        <time>2020-09-01T10:23:11.000Z</time>
      </trkpt>
      <trkpt lat="43.08277" lon="5.87927">
        <ele>25.799999237061</ele>
        <time>2020-09-01T10:23:12.000Z</time>
      </trkpt>
      <trkpt lat="43.0828" lon="5.87928">
        <ele>26</ele>
        <time>2020-09-01T10:23:15.000Z</time>
      </trkpt>
      <trkpt lat="43.08289" lon="5.87934">
        <ele>26.200000762939</ele>
        <time>2020-09-01T10:23:19.000Z</time>
      </trkpt>
      <trkpt lat="43.08293" lon="5.87935">
        <ele>26</ele>
        <time>2020-09-01T10:23:20.000Z</time>
      </trkpt>
      <trkpt lat="43.08303" lon="5.87937">
        <ele>25.60000038147</ele>
        <time>2020-09-01T10:23:22.000Z</time>
      </trkpt>
      <trkpt lat="43.08321" lon="5.87945">
        <ele>24.60000038147</ele>
        <time>2020-09-01T10:23:25.000Z</time>
      </trkpt>
      <trkpt lat="43.08327" lon="5.87945">
        <ele>24.200000762939</ele>
        <time>2020-09-01T10:23:26.000Z</time>
      </trkpt>
      <trkpt lat="43.08339" lon="5.87948">
        <ele>23.39999961853</ele>
        <time>2020-09-01T10:23:28.000Z</time>
      </trkpt>
      <trkpt lat="43.08345" lon="5.8795">
        <ele>23.200000762939</ele>
        <time>2020-09-01T10:23:29.000Z</time>
      </trkpt>
      <trkpt lat="43.08351" lon="5.87953">
        <ele>23</ele>
        <time>2020-09-01T10:23:30.000Z</time>
      </trkpt>
      <trkpt lat="43.08361" lon="5.8796">
        <ele>23.200000762939</ele>
        <time>2020-09-01T10:23:32.000Z</time>
      </trkpt>
      <trkpt lat="43.0837" lon="5.87967">
        <ele>23.39999961853</ele>
        <time>2020-09-01T10:23:34.000Z</time>
      </trkpt>
      <trkpt lat="43.0838" lon="5.87976">
        <ele>24.39999961853</ele>
        <time>2020-09-01T10:23:36.000Z</time>
      </trkpt>
      <trkpt lat="43.08384" lon="5.87979">
        <ele>24.799999237061</ele>
        <time>2020-09-01T10:23:37.000Z</time>
      </trkpt>
      <trkpt lat="43.08394" lon="5.87986">
        <ele>25.799999237061</ele>
        <time>2020-09-01T10:23:39.000Z</time>
      </trkpt>
      <trkpt lat="43.08404" lon="5.87994">
        <ele>26.200000762939</ele>
        <time>2020-09-01T10:23:41.000Z</time>
      </trkpt>
      <trkpt lat="43.0841" lon="5.88008">
        <ele>26.60000038147</ele>
        <time>2020-09-01T10:23:43.000Z</time>
      </trkpt>
      <trkpt lat="43.08423" lon="5.88036">
        <ele>26.60000038147</ele>
        <time>2020-09-01T10:23:47.000Z</time>
      </trkpt>
      <trkpt lat="43.08439" lon="5.8805">
        <ele>26.39999961853</ele>
        <time>2020-09-01T10:23:50.000Z</time>
      </trkpt>
      <trkpt lat="43.08444" lon="5.88055">
        <ele>26.39999961853</ele>
        <time>2020-09-01T10:23:51.000Z</time>
      </trkpt>
      <trkpt lat="43.08464" lon="5.88077">
        <ele>26.200000762939</ele>
        <time>2020-09-01T10:23:55.000Z</time>
      </trkpt>
      <trkpt lat="43.08471" lon="5.8809">
        <ele>26</ele>
        <time>2020-09-01T10:23:57.000Z</time>
      </trkpt>
      <trkpt lat="43.08481" lon="5.88111">
        <ele>25.799999237061</ele>
        <time>2020-09-01T10:24:02.000Z</time>
      </trkpt>
      <trkpt lat="43.08481" lon="5.88111">
        <ele>26</ele>
        <time>2020-09-01T10:24:06.000Z</time>
      </trkpt>
      <trkpt lat="43.08481" lon="5.88111">
        <ele>26.39999961853</ele>
        <time>2020-09-01T10:24:13.000Z</time>
      </trkpt>
      <trkpt lat="43.08481" lon="5.8811">
        <ele>26.200000762939</ele>
        <time>2020-09-01T10:24:26.000Z</time>
      </trkpt>
      <trkpt lat="43.08481" lon="5.8811">
        <ele>26.39999961853</ele>
        <time>2020-09-01T10:24:49.000Z</time>
      </trkpt>
      <trkpt lat="43.08481" lon="5.8811">
        <ele>26.200000762939</ele>
        <time>2020-09-01T10:25:08.000Z</time>
      </trkpt>
      <trkpt lat="43.08481" lon="5.8811">
        <ele>26</ele>
        <time>2020-09-01T10:25:27.000Z</time>
      </trkpt>
      <trkpt lat="43.08481" lon="5.8811">
        <ele>26</ele>
        <time>2020-09-01T10:25:55.000Z</time>
      </trkpt>
      <trkpt lat="43.08481" lon="5.88109">
        <ele>26</ele>
        <time>2020-09-01T10:26:06.000Z</time>
      </trkpt>
      <trkpt lat="43.0848" lon="5.88109">
        <ele>25.799999237061</ele>
        <time>2020-09-01T10:26:28.000Z</time>
      </trkpt>
      <trkpt lat="43.08482" lon="5.88117">
        <ele>25.60000038147</ele>
        <time>2020-09-01T10:26:34.000Z</time>
      </trkpt>
      <trkpt lat="43.08488" lon="5.88128">
        <ele>25.60000038147</ele>
        <time>2020-09-01T10:26:38.000Z</time>
      </trkpt>
      <trkpt lat="43.08492" lon="5.8813">
        <ele>25.60000038147</ele>
        <time>2020-09-01T10:26:39.000Z</time>
      </trkpt>
      <trkpt lat="43.08506" lon="5.88135">
        <ele>25.39999961853</ele>
        <time>2020-09-01T10:26:44.000Z</time>
      </trkpt>
      <trkpt lat="43.08524" lon="5.88132">
        <ele>25.39999961853</ele>
        <time>2020-09-01T10:26:49.000Z</time>
      </trkpt>
      <trkpt lat="43.08529" lon="5.8815">
        <ele>25.200000762939</ele>
        <time>2020-09-01T10:26:52.000Z</time>
      </trkpt>
      <trkpt lat="43.08529" lon="5.88161">
        <ele>25.200000762939</ele>
        <time>2020-09-01T10:26:54.000Z</time>
      </trkpt>
      <trkpt lat="43.0853" lon="5.88199">
        <ele>25</ele>
        <time>2020-09-01T10:26:58.000Z</time>
      </trkpt>
      <trkpt lat="43.08531" lon="5.88216">
        <ele>24.799999237061</ele>
        <time>2020-09-01T10:27:00.000Z</time>
      </trkpt>
      <trkpt lat="43.08533" lon="5.88234">
        <ele>24.39999961853</ele>
        <time>2020-09-01T10:27:02.000Z</time>
      </trkpt>
      <trkpt lat="43.08541" lon="5.88244">
        <ele>24</ele>
        <time>2020-09-01T10:27:04.000Z</time>
      </trkpt>
      <trkpt lat="43.08554" lon="5.88243">
        <ele>23.200000762939</ele>
        <time>2020-09-01T10:27:06.000Z</time>
      </trkpt>
      <trkpt lat="43.08565" lon="5.88237">
        <ele>22.60000038147</ele>
        <time>2020-09-01T10:27:08.000Z</time>
      </trkpt>
      <trkpt lat="43.08576" lon="5.88232">
        <ele>22.200000762939</ele>
        <time>2020-09-01T10:27:10.000Z</time>
      </trkpt>
      <trkpt lat="43.08582" lon="5.8823">
        <ele>22</ele>
        <time>2020-09-01T10:27:11.000Z</time>
      </trkpt>
      <trkpt lat="43.08616" lon="5.88221">
        <ele>21.799999237061</ele>
        <time>2020-09-01T10:27:17.000Z</time>
      </trkpt>
      <trkpt lat="43.08668" lon="5.88204">
        <ele>22.799999237061</ele>
        <time>2020-09-01T10:27:27.000Z</time>
      </trkpt>
      <trkpt lat="43.08672" lon="5.88202">
        <ele>23</ele>
        <time>2020-09-01T10:27:28.000Z</time>
      </trkpt>
      <trkpt lat="43.0868" lon="5.88199">
        <ele>23.39999961853</ele>
        <time>2020-09-01T10:27:31.000Z</time>
      </trkpt>
      <trkpt lat="43.0868" lon="5.88199">
        <ele>23.60000038147</ele>
        <time>2020-09-01T10:27:34.000Z</time>
      </trkpt>
      <trkpt lat="43.0868" lon="5.88198">
        <ele>24</ele>
        <time>2020-09-01T10:27:37.000Z</time>
      </trkpt>
      <trkpt lat="43.0868" lon="5.88198">
        <ele>24.200000762939</ele>
        <time>2020-09-01T10:27:39.000Z</time>
      </trkpt>
      <trkpt lat="43.08679" lon="5.88198">
        <ele>23.60000038147</ele>
        <time>2020-09-01T10:27:46.000Z</time>
      </trkpt>
      <trkpt lat="43.08676" lon="5.88198">
        <ele>23.60000038147</ele>
        <time>2020-09-01T10:27:51.000Z</time>
      </trkpt>
      <trkpt lat="43.08675" lon="5.88197">
        <ele>24</ele>
        <time>2020-09-01T10:28:02.000Z</time>
      </trkpt>
      <trkpt lat="43.08674" lon="5.88197">
        <ele>24</ele>
        <time>2020-09-01T10:28:09.000Z</time>
      </trkpt>
      <trkpt lat="43.08673" lon="5.88196">
        <ele>23.799999237061</ele>
        <time>2020-09-01T10:28:15.000Z</time>
      </trkpt>
      <trkpt lat="43.08672" lon="5.88197">
        <ele>24</ele>
        <time>2020-09-01T10:28:23.000Z</time>
      </trkpt>
      <trkpt lat="43.08671" lon="5.88197">
        <ele>24.39999961853</ele>
        <time>2020-09-01T10:28:30.000Z</time>
      </trkpt>
      <trkpt lat="43.0867" lon="5.88197">
        <ele>24.200000762939</ele>
        <time>2020-09-01T10:28:36.000Z</time>
      </trkpt>
    </trkseg>
  </trk>
</gpx>